<?xml version='1.0' encoding='UTF-8'?><gpx version="1.1" creator="JPX - https://github.com/jenetics/jpx" xmlns="http://www.topografix.com/GPX/1/1"><trk><trkseg><trkpt lat="45.7784901289373" lon="8.923698926718803"><ele>418.0</ele><time>2026-03-29T08:10:50.999Z</time></trkpt><trkpt lat="45.778398691229086" lon="8.923616656211715"><ele>418.0</ele><time>2026-03-29T08:10:52.999Z</time></trkpt><trkpt lat="45.778295092785235" lon="8.923534396163566"><ele>418.0</ele><time>2026-03-29T08:10:54.999Z</time></trkpt><trkpt lat="45.778202188464746" lon="8.923458029675533"><ele>418.0</ele><time>2026-03-29T08:10:56.999Z</time></trkpt><trkpt lat="45.77812443286787" lon="8.923399638748686"><ele>418.0</ele><time>2026-03-29T08:10:58.999Z</time></trkpt><trkpt lat="45.7780631559882" lon="8.923331679638702"><ele>417.4</ele><time>2026-03-29T08:11:00.999Z</time></trkpt><trkpt lat="45.77800541813236" lon="8.923246183001366"><ele>416.79999999999995</ele><time>2026-03-29T08:11:02.999Z</time></trkpt><trkpt lat="45.77805281708876" lon="8.923161034783451"><ele>416.2</ele><time>2026-03-29T08:11:03.999Z</time></trkpt><trkpt lat="45.778018185683486" lon="8.923043643113465"><ele>415.6</ele><time>2026-03-29T08:11:05.999Z</time></trkpt><trkpt lat="45.777966317637855" lon="8.92290694151353"><ele>415.0</ele><time>2026-03-29T08:11:07.999Z</time></trkpt><trkpt lat="45.77789020484864" lon="8.922717971986978"><ele>415.00000000000006</ele><time>2026-03-29T08:11:09.999Z</time></trkpt><trkpt lat="45.777849001301206" lon="8.922618383526132"><ele>415.0</ele><time>2026-03-29T08:11:10.999Z</time></trkpt><trkpt lat="45.77780458482112" lon="8.922483143995567"><ele>415.0</ele><time>2026-03-29T08:11:12.999Z</time></trkpt><trkpt lat="45.777785045014944" lon="8.922382529014401"><ele>415.0</ele><time>2026-03-29T08:11:14.999Z</time></trkpt><trkpt lat="45.777836674295074" lon="8.922262621609192"><ele>415.00000000000006</ele><time>2026-03-29T08:11:17Z</time></trkpt><trkpt lat="45.777905132750426" lon="8.922235908592816"><ele>415.0</ele><time>2026-03-29T08:11:18Z</time></trkpt><trkpt lat="45.7779666976979" lon="8.922178674477504"><ele>414.6</ele><time>2026-03-29T08:11:19Z</time></trkpt><trkpt lat="45.778026591191995" lon="8.922093312032455"><ele>414.2</ele><time>2026-03-29T08:11:20Z</time></trkpt><trkpt lat="45.77809731029973" lon="8.922040604114914"><ele>413.79999999999995</ele><time>2026-03-29T08:11:21Z</time></trkpt><trkpt lat="45.77815444544472" lon="8.921985121699384"><ele>413.4</ele><time>2026-03-29T08:11:22Z</time></trkpt><trkpt lat="45.778264410305226" lon="8.921909946722772"><ele>413.0</ele><time>2026-03-29T08:11:24Z</time></trkpt><trkpt lat="45.77837939631732" lon="8.921825255600035"><ele>412.8333333333333</ele><time>2026-03-29T08:11:26Z</time></trkpt><trkpt lat="45.77842070010832" lon="8.921728803739597"><ele>412.66666666666663</ele><time>2026-03-29T08:11:27Z</time></trkpt><trkpt lat="45.7784402045975" lon="8.921622007588978"><ele>412.5</ele><time>2026-03-29T08:11:28Z</time></trkpt><trkpt lat="45.77844807623589" lon="8.921482089330903"><ele>412.33333333333337</ele><time>2026-03-29T08:11:29Z</time></trkpt><trkpt lat="45.77846058325391" lon="8.921339635284953"><ele>412.1666666666667</ele><time>2026-03-29T08:11:30Z</time></trkpt><trkpt lat="45.778469963408895" lon="8.921232795104237"><ele>412.0</ele><time>2026-03-29T08:11:31Z</time></trkpt><trkpt lat="45.77848087119204" lon="8.92113111354783"><ele>412.0</ele><time>2026-03-29T08:11:32Z</time></trkpt><trkpt lat="45.77849506280122" lon="8.920960950437058"><ele>412.0</ele><time>2026-03-29T08:11:34Z</time></trkpt><trkpt lat="45.778517675920554" lon="8.920865987634999"><ele>412.0</ele><time>2026-03-29T08:11:35Z</time></trkpt><trkpt lat="45.77855818853438" lon="8.920789467097226"><ele>412.0</ele><time>2026-03-29T08:11:36Z</time></trkpt><trkpt lat="45.77860589257926" lon="8.920655361171825"><ele>412.0</ele><time>2026-03-29T08:11:38Z</time></trkpt><trkpt lat="45.77867155418786" lon="8.92051114340303"><ele>412.33333333333337</ele><time>2026-03-29T08:11:40Z</time></trkpt><trkpt lat="45.77871238819625" lon="8.920430834232826"><ele>412.6666666666667</ele><time>2026-03-29T08:11:41Z</time></trkpt><trkpt lat="45.77875706267534" lon="8.920352530286879"><ele>413.0</ele><time>2026-03-29T08:11:42Z</time></trkpt><trkpt lat="45.77884136831942" lon="8.920229775424119"><ele>413.33333333333337</ele><time>2026-03-29T08:11:44Z</time></trkpt><trkpt lat="45.77893317445891" lon="8.920121874337232"><ele>413.6666666666667</ele><time>2026-03-29T08:11:46Z</time></trkpt><trkpt lat="45.778987519240445" lon="8.920060109537472"><ele>414.0</ele><time>2026-03-29T08:11:47Z</time></trkpt><trkpt lat="45.779046165235904" lon="8.919993456269594"><ele>414.5</ele><time>2026-03-29T08:11:48Z</time></trkpt><trkpt lat="45.77911303551726" lon="8.919917455966289"><ele>415.0</ele><time>2026-03-29T08:11:49Z</time></trkpt><trkpt lat="45.779167464403294" lon="8.919838650926737"><ele>415.5</ele><time>2026-03-29T08:11:50Z</time></trkpt><trkpt lat="45.77923281746909" lon="8.91978280190989"><ele>416.0</ele><time>2026-03-29T08:11:51Z</time></trkpt><trkpt lat="45.77931940874479" lon="8.91969038596698"><ele>416.5</ele><time>2026-03-29T08:11:53Z</time></trkpt><trkpt lat="45.77938241344206" lon="8.919633285561396"><ele>417.0</ele><time>2026-03-29T08:11:56Z</time></trkpt><trkpt lat="45.77946351251214" lon="8.919504571167042"><ele>417.0</ele><time>2026-03-29T08:11:59Z</time></trkpt><trkpt lat="45.77950476719419" lon="8.91942264429779"><ele>417.0</ele><time>2026-03-29T08:12:00Z</time></trkpt><trkpt lat="45.7795414004605" lon="8.919327411481689"><ele>417.0</ele><time>2026-03-29T08:12:01Z</time></trkpt><trkpt lat="45.779576924727465" lon="8.919246824408724"><ele>417.0</ele><time>2026-03-29T08:12:02Z</time></trkpt><trkpt lat="45.77967622857187" lon="8.91915616071975"><ele>417.0</ele><time>2026-03-29T08:12:04Z</time></trkpt><trkpt lat="45.77977264299497" lon="8.919111826890441"><ele>417.0</ele><time>2026-03-29T08:12:06Z</time></trkpt><trkpt lat="45.77986554917402" lon="8.919186090888658"><ele>417.0</ele><time>2026-03-29T08:12:08Z</time></trkpt><trkpt lat="45.77990853768314" lon="8.91926613046284"><ele>417.0</ele><time>2026-03-29T08:12:09Z</time></trkpt><trkpt lat="45.7799597660672" lon="8.919364935361182"><ele>417.0</ele><time>2026-03-29T08:12:10Z</time></trkpt><trkpt lat="45.780014402090394" lon="8.919465114205682"><ele>417.0</ele><time>2026-03-29T08:12:11Z</time></trkpt><trkpt lat="45.78007395840926" lon="8.919570981906775"><ele>417.0</ele><time>2026-03-29T08:12:12Z</time></trkpt><trkpt lat="45.780133300399825" lon="8.91968142047902"><ele>417.0</ele><time>2026-03-29T08:12:13Z</time></trkpt><trkpt lat="45.78019524563371" lon="8.919793088356023"><ele>417.40000000000003</ele><time>2026-03-29T08:12:14Z</time></trkpt><trkpt lat="45.78025783914283" lon="8.9198973643047"><ele>417.8</ele><time>2026-03-29T08:12:15Z</time></trkpt><trkpt lat="45.780333057627814" lon="8.920022577794564"><ele>418.2</ele><time>2026-03-29T08:12:16Z</time></trkpt><trkpt lat="45.780406732534914" lon="8.920148103610456"><ele>418.6</ele><time>2026-03-29T08:12:17Z</time></trkpt><trkpt lat="45.78048155760071" lon="8.920279904207819"><ele>419.0</ele><time>2026-03-29T08:12:18Z</time></trkpt><trkpt lat="45.78054212388976" lon="8.920403133610943"><ele>419.25</ele><time>2026-03-29T08:12:19Z</time></trkpt><trkpt lat="45.78061860487121" lon="8.920536115856965"><ele>419.5</ele><time>2026-03-29T08:12:20Z</time></trkpt><trkpt lat="45.78069325106234" lon="8.920666879734041"><ele>419.75</ele><time>2026-03-29T08:12:21Z</time></trkpt><trkpt lat="45.78077065151527" lon="8.920806563137432"><ele>420.0</ele><time>2026-03-29T08:12:22Z</time></trkpt><trkpt lat="45.78084616020254" lon="8.92093990956442"><ele>420.5</ele><time>2026-03-29T08:12:23Z</time></trkpt><trkpt lat="45.78092563281323" lon="8.921067392109554"><ele>421.0</ele><time>2026-03-29T08:12:24Z</time></trkpt><trkpt lat="45.781001846553096" lon="8.921201603480537"><ele>421.5</ele><time>2026-03-29T08:12:25Z</time></trkpt><trkpt lat="45.78107658141454" lon="8.92132514312251"><ele>422.0</ele><time>2026-03-29T08:12:26Z</time></trkpt><trkpt lat="45.78115582344686" lon="8.921440954789889"><ele>422.40000000000003</ele><time>2026-03-29T08:12:27Z</time></trkpt><trkpt lat="45.78123765038478" lon="8.921550771852086"><ele>422.8</ele><time>2026-03-29T08:12:28Z</time></trkpt><trkpt lat="45.78131897434373" lon="8.921661212434708"><ele>423.2</ele><time>2026-03-29T08:12:29Z</time></trkpt><trkpt lat="45.78140348666761" lon="8.921762343660378"><ele>423.6</ele><time>2026-03-29T08:12:30Z</time></trkpt><trkpt lat="45.78147907914444" lon="8.921850229057366"><ele>424.0</ele><time>2026-03-29T08:12:31Z</time></trkpt><trkpt lat="45.78156077418502" lon="8.921954331019585"><ele>424.75</ele><time>2026-03-29T08:12:32Z</time></trkpt><trkpt lat="45.78165227154236" lon="8.92206716735905"><ele>425.5</ele><time>2026-03-29T08:12:33Z</time></trkpt><trkpt lat="45.7817524711479" lon="8.922181062583805"><ele>426.25</ele><time>2026-03-29T08:12:34Z</time></trkpt><trkpt lat="45.78184711998631" lon="8.922294111497555"><ele>427.0</ele><time>2026-03-29T08:12:35Z</time></trkpt><trkpt lat="45.781920668034225" lon="8.922377892309747"><ele>427.8</ele><time>2026-03-29T08:12:36Z</time></trkpt><trkpt lat="45.78198181843142" lon="8.922453023878347"><ele>428.6</ele><time>2026-03-29T08:12:37Z</time></trkpt><trkpt lat="45.78205101855527" lon="8.922522150816524"><ele>429.40000000000003</ele><time>2026-03-29T08:12:38Z</time></trkpt><trkpt lat="45.78211632367215" lon="8.922626171084406"><ele>430.20000000000005</ele><time>2026-03-29T08:12:39Z</time></trkpt><trkpt lat="45.78220627994012" lon="8.922705818772219"><ele>431.0</ele><time>2026-03-29T08:12:40Z</time></trkpt><trkpt lat="45.78228487421629" lon="8.92281491377222"><ele>431.20000000000005</ele><time>2026-03-29T08:12:41Z</time></trkpt><trkpt lat="45.78237309584811" lon="8.92292032063427"><ele>431.40000000000003</ele><time>2026-03-29T08:12:42Z</time></trkpt><trkpt lat="45.78246147812108" lon="8.923027242138772"><ele>431.6</ele><time>2026-03-29T08:12:43Z</time></trkpt><trkpt lat="45.78254239321309" lon="8.92312997673916"><ele>431.8</ele><time>2026-03-29T08:12:44Z</time></trkpt><trkpt lat="45.782611603522795" lon="8.92322521588883"><ele>432.0</ele><time>2026-03-29T08:12:45Z</time></trkpt><trkpt lat="45.78267242169033" lon="8.923309212396633"><ele>432.40000000000003</ele><time>2026-03-29T08:12:46Z</time></trkpt><trkpt lat="45.78272929457129" lon="8.923383228146273"><ele>432.80000000000007</ele><time>2026-03-29T08:12:47Z</time></trkpt><trkpt lat="45.78277742643815" lon="8.923454114177924"><ele>433.2</ele><time>2026-03-29T08:12:48Z</time></trkpt><trkpt lat="45.782838227724824" lon="8.92357385879882"><ele>433.6</ele><time>2026-03-29T08:12:50Z</time></trkpt><trkpt lat="45.78287622749964" lon="8.923676998617392"><ele>434.0</ele><time>2026-03-29T08:12:58Z</time></trkpt><trkpt lat="45.78301066543163" lon="8.923596334057557"><ele>434.0</ele><time>2026-03-29T08:12:59Z</time></trkpt><trkpt lat="45.78307467752428" lon="8.92350478828638"><ele>434.0</ele><time>2026-03-29T08:13:00Z</time></trkpt><trkpt lat="45.783151713972195" lon="8.923413566118208"><ele>434.0</ele><time>2026-03-29T08:13:01Z</time></trkpt><trkpt lat="45.7832313657981" lon="8.92333191760912"><ele>434.0</ele><time>2026-03-29T08:13:02Z</time></trkpt><trkpt lat="45.783312007461824" lon="8.923244435169462"><ele>434.0</ele><time>2026-03-29T08:13:03Z</time></trkpt><trkpt lat="45.78338764768508" lon="8.923175852566857"><ele>434.2</ele><time>2026-03-29T08:13:04Z</time></trkpt><trkpt lat="45.783466779196445" lon="8.923097148864247"><ele>434.4</ele><time>2026-03-29T08:13:05Z</time></trkpt><trkpt lat="45.7835381122426" lon="8.923026231185112"><ele>434.6</ele><time>2026-03-29T08:13:06Z</time></trkpt><trkpt lat="45.78360631652377" lon="8.922954462527443"><ele>434.8</ele><time>2026-03-29T08:13:07Z</time></trkpt><trkpt lat="45.78366744278187" lon="8.922883446990316"><ele>435.0</ele><time>2026-03-29T08:13:08Z</time></trkpt><trkpt lat="45.78376520020056" lon="8.922800881917832"><ele>435.0</ele><time>2026-03-29T08:13:10Z</time></trkpt><trkpt lat="45.7838185354565" lon="8.922751379279932"><ele>435.0</ele><time>2026-03-29T08:13:12Z</time></trkpt><trkpt lat="45.78388023278308" lon="8.922690505061617"><ele>435.0</ele><time>2026-03-29T08:13:18Z</time></trkpt><trkpt lat="45.78381569175421" lon="8.922553136244831"><ele>435.0</ele><time>2026-03-29T08:13:19Z</time></trkpt><trkpt lat="45.783750631130076" lon="8.922419633068872"><ele>435.0</ele><time>2026-03-29T08:13:21Z</time></trkpt><trkpt lat="45.78371679354404" lon="8.922333480628007"><ele>435.0</ele><time>2026-03-29T08:13:23Z</time></trkpt><trkpt lat="45.78367599621409" lon="8.922216255517414"><ele>435.00000000000006</ele><time>2026-03-29T08:13:25Z</time></trkpt><trkpt lat="45.78363053501886" lon="8.922142650951617"><ele>435.0</ele><time>2026-03-29T08:13:26Z</time></trkpt><trkpt lat="45.78359663635519" lon="8.922055817211449"><ele>435.0</ele><time>2026-03-29T08:13:27Z</time></trkpt><trkpt lat="45.78357590924106" lon="8.921955612464435"><ele>435.0</ele><time>2026-03-29T08:13:28Z</time></trkpt><trkpt lat="45.7835823070364" lon="8.921851936446528"><ele>435.0</ele><time>2026-03-29T08:13:29Z</time></trkpt><trkpt lat="45.783603431733646" lon="8.921759465239859"><ele>435.00000000000006</ele><time>2026-03-29T08:13:30Z</time></trkpt><trkpt lat="45.783636086877664" lon="8.921667330271141"><ele>435.0</ele><time>2026-03-29T08:13:31Z</time></trkpt><trkpt lat="45.783670588807844" lon="8.92157709019998"><ele>435.1666666666667</ele><time>2026-03-29T08:13:32Z</time></trkpt><trkpt lat="45.78370252274092" lon="8.921482466062026"><ele>435.33333333333337</ele><time>2026-03-29T08:13:33Z</time></trkpt><trkpt lat="45.78373995377179" lon="8.92139133939706"><ele>435.5</ele><time>2026-03-29T08:13:34Z</time></trkpt><trkpt lat="45.783783862404" lon="8.921299920052045"><ele>435.6666666666667</ele><time>2026-03-29T08:13:35Z</time></trkpt><trkpt lat="45.783825880541805" lon="8.92120359334283"><ele>435.83333333333337</ele><time>2026-03-29T08:13:36Z</time></trkpt><trkpt lat="45.78386873398505" lon="8.921111817001426"><ele>436.0</ele><time>2026-03-29T08:13:37Z</time></trkpt><trkpt lat="45.7839109622399" lon="8.921017488841896"><ele>436.00000000000006</ele><time>2026-03-29T08:13:38Z</time></trkpt><trkpt lat="45.783954746773496" lon="8.920924701851094"><ele>436.0</ele><time>2026-03-29T08:13:39Z</time></trkpt><trkpt lat="45.78399649976755" lon="8.920820370103296"><ele>436.0</ele><time>2026-03-29T08:13:40Z</time></trkpt><trkpt lat="45.78405139180941" lon="8.920726617282398"><ele>436.0</ele><time>2026-03-29T08:13:41Z</time></trkpt><trkpt lat="45.784103439114766" lon="8.920627680696052"><ele>436.00000000000006</ele><time>2026-03-29T08:13:42Z</time></trkpt><trkpt lat="45.78414257900976" lon="8.920524080570484"><ele>436.0</ele><time>2026-03-29T08:13:43Z</time></trkpt><trkpt lat="45.78418324159089" lon="8.920417862028382"><ele>436.00000000000006</ele><time>2026-03-29T08:13:44Z</time></trkpt><trkpt lat="45.78423172065357" lon="8.920312888146674"><ele>436.0</ele><time>2026-03-29T08:13:45Z</time></trkpt><trkpt lat="45.7842747740499" lon="8.920207818706857"><ele>436.0</ele><time>2026-03-29T08:13:46Z</time></trkpt><trkpt lat="45.7843007955118" lon="8.920107610994334"><ele>436.0</ele><time>2026-03-29T08:13:47Z</time></trkpt><trkpt lat="45.78432581719483" lon="8.920002931137637"><ele>436.00000000000006</ele><time>2026-03-29T08:13:48Z</time></trkpt><trkpt lat="45.78438820277679" lon="8.919936786028758"><ele>436.0</ele><time>2026-03-29T08:13:49Z</time></trkpt><trkpt lat="45.7844429462698" lon="8.919864597809692"><ele>436.00000000000006</ele><time>2026-03-29T08:13:50Z</time></trkpt><trkpt lat="45.784490928714725" lon="8.919803808594471"><ele>436.0</ele><time>2026-03-29T08:13:51Z</time></trkpt><trkpt lat="45.78454636187813" lon="8.919735424938098"><ele>436.0</ele><time>2026-03-29T08:13:53Z</time></trkpt><trkpt lat="45.78462650002343" lon="8.919641330128876"><ele>436.0</ele><time>2026-03-29T08:13:56Z</time></trkpt><trkpt lat="45.78469814929431" lon="8.919543243138282"><ele>436.00000000000006</ele><time>2026-03-29T08:13:58.001Z</time></trkpt><trkpt lat="45.78477103047056" lon="8.919444567213649"><ele>436.0</ele><time>2026-03-29T08:14:00.001Z</time></trkpt><trkpt lat="45.78485816443559" lon="8.919367690977158"><ele>436.0</ele><time>2026-03-29T08:14:01.001Z</time></trkpt><trkpt lat="45.784924311518026" lon="8.919243107198431"><ele>436.0</ele><time>2026-03-29T08:14:03.001Z</time></trkpt><trkpt lat="45.78497218498784" lon="8.919101882593047"><ele>436.0</ele><time>2026-03-29T08:14:05.001Z</time></trkpt><trkpt lat="45.784997241332334" lon="8.918925592383054"><ele>436.0</ele><time>2026-03-29T08:14:07.001Z</time></trkpt><trkpt lat="45.78499900636464" lon="8.918828809530599"><ele>436.0</ele><time>2026-03-29T08:14:08.001Z</time></trkpt><trkpt lat="45.784994548361944" lon="8.918640251918731"><ele>435.1666666666667</ele><time>2026-03-29T08:14:10.001Z</time></trkpt><trkpt lat="45.78499542677119" lon="8.918542250320158"><ele>434.33333333333337</ele><time>2026-03-29T08:14:11.001Z</time></trkpt><trkpt lat="45.784993939461074" lon="8.918429106739781"><ele>433.5</ele><time>2026-03-29T08:14:12.001Z</time></trkpt><trkpt lat="45.78499962686581" lon="8.918313795667741"><ele>432.66666666666663</ele><time>2026-03-29T08:14:13.001Z</time></trkpt><trkpt lat="45.784996327701585" lon="8.918200958964318"><ele>431.8333333333333</ele><time>2026-03-29T08:14:14.001Z</time></trkpt><trkpt lat="45.785036627313154" lon="8.918086948665204"><ele>431.0</ele><time>2026-03-29T08:14:15.001Z</time></trkpt><trkpt lat="45.785049449383884" lon="8.91795169447663"><ele>430.4</ele><time>2026-03-29T08:14:16.001Z</time></trkpt><trkpt lat="45.785048487887764" lon="8.917812485672474"><ele>429.8</ele><time>2026-03-29T08:14:17.001Z</time></trkpt><trkpt lat="45.78507749483691" lon="8.917675031462672"><ele>429.19999999999993</ele><time>2026-03-29T08:14:18.001Z</time></trkpt><trkpt lat="45.78507837230842" lon="8.917534491858632"><ele>428.59999999999997</ele><time>2026-03-29T08:14:19.001Z</time></trkpt><trkpt lat="45.78510085688927" lon="8.91739628406166"><ele>428.0</ele><time>2026-03-29T08:14:20.001Z</time></trkpt><trkpt lat="45.785113533017814" lon="8.917256939808784"><ele>426.25</ele><time>2026-03-29T08:14:21.001Z</time></trkpt><trkpt lat="45.78512460346333" lon="8.917107828575793"><ele>424.5</ele><time>2026-03-29T08:14:22.001Z</time></trkpt><trkpt lat="45.785140566589085" lon="8.91695241945375"><ele>422.75</ele><time>2026-03-29T08:14:23.001Z</time></trkpt><trkpt lat="45.78515466148784" lon="8.91678898817717"><ele>421.0</ele><time>2026-03-29T08:14:24.001Z</time></trkpt><trkpt lat="45.78518686990014" lon="8.916461597268187"><ele>419.75</ele><time>2026-03-29T08:14:26.001Z</time></trkpt><trkpt lat="45.78520143449755" lon="8.916295880862945"><ele>418.5</ele><time>2026-03-29T08:14:27.001Z</time></trkpt><trkpt lat="45.78523035906707" lon="8.916129594095157"><ele>417.25</ele><time>2026-03-29T08:14:28.001Z</time></trkpt><trkpt lat="45.78524266856781" lon="8.915963883966926"><ele>416.0</ele><time>2026-03-29T08:14:29.001Z</time></trkpt><trkpt lat="45.78525393838616" lon="8.915800847016042"><ele>414.75</ele><time>2026-03-29T08:14:30.001Z</time></trkpt><trkpt lat="45.78527300403042" lon="8.9156338306077"><ele>413.5</ele><time>2026-03-29T08:14:31.001Z</time></trkpt><trkpt lat="45.78528442697747" lon="8.91546323023078"><ele>412.25</ele><time>2026-03-29T08:14:32.001Z</time></trkpt><trkpt lat="45.78530200041867" lon="8.91528718806171"><ele>411.0</ele><time>2026-03-29T08:14:33.001Z</time></trkpt><trkpt lat="45.785321871096265" lon="8.915115648944564"><ele>409.75</ele><time>2026-03-29T08:14:34.001Z</time></trkpt><trkpt lat="45.78533863871431" lon="8.914931243255463"><ele>408.5</ele><time>2026-03-29T08:14:35.001Z</time></trkpt><trkpt lat="45.785351156714675" lon="8.914754914053248"><ele>407.25</ele><time>2026-03-29T08:14:36.001Z</time></trkpt><trkpt lat="45.78538407930076" lon="8.914576686817043"><ele>406.0</ele><time>2026-03-29T08:14:37.001Z</time></trkpt><trkpt lat="45.7853953943072" lon="8.914375567719745"><ele>403.0</ele><time>2026-03-29T08:14:38.001Z</time></trkpt><trkpt lat="45.78541285050873" lon="8.914193972909576"><ele>400.0</ele><time>2026-03-29T08:14:39.001Z</time></trkpt><trkpt lat="45.785433106444984" lon="8.913997138384238"><ele>397.0</ele><time>2026-03-29T08:14:40.001Z</time></trkpt><trkpt lat="45.785444945914406" lon="8.913808372821068"><ele>394.0</ele><time>2026-03-29T08:14:41.001Z</time></trkpt><trkpt lat="45.78546730084253" lon="8.913613948354362"><ele>394.0</ele><time>2026-03-29T08:14:42.001Z</time></trkpt><trkpt lat="45.785487053887486" lon="8.913431668228998"><ele>394.0</ele><time>2026-03-29T08:14:43.001Z</time></trkpt><trkpt lat="45.78551106322479" lon="8.913235431168001"><ele>394.0</ele><time>2026-03-29T08:14:44.001Z</time></trkpt><trkpt lat="45.78552322047958" lon="8.913057758367627"><ele>394.0</ele><time>2026-03-29T08:14:45.001Z</time></trkpt><trkpt lat="45.78553214285841" lon="8.912877455054304"><ele>393.79999999999995</ele><time>2026-03-29T08:14:46.001Z</time></trkpt><trkpt lat="45.78552213749235" lon="8.912704829496944"><ele>393.59999999999997</ele><time>2026-03-29T08:14:47.001Z</time></trkpt><trkpt lat="45.785505692771785" lon="8.912554010742008"><ele>393.4</ele><time>2026-03-29T08:14:48.001Z</time></trkpt><trkpt lat="45.78547156738079" lon="8.912409423388189"><ele>393.2</ele><time>2026-03-29T08:14:49.001Z</time></trkpt><trkpt lat="45.78544179677093" lon="8.912278397400776"><ele>393.0</ele><time>2026-03-29T08:14:50.001Z</time></trkpt><trkpt lat="45.78536018375172" lon="8.912210407643425"><ele>392.6666666666667</ele><time>2026-03-29T08:14:51.001Z</time></trkpt><trkpt lat="45.78530319681706" lon="8.912153034582216"><ele>392.33333333333337</ele><time>2026-03-29T08:14:52.001Z</time></trkpt><trkpt lat="45.78525790831204" lon="8.912025354610085"><ele>392.0</ele><time>2026-03-29T08:14:54.001Z</time></trkpt><trkpt lat="45.78529374053644" lon="8.911908422106398"><ele>391.6666666666667</ele><time>2026-03-29T08:14:56.001Z</time></trkpt><trkpt lat="45.78537390335735" lon="8.911861276471745"><ele>391.33333333333337</ele><time>2026-03-29T08:14:58.001Z</time></trkpt><trkpt lat="45.78544669437726" lon="8.91187735944214"><ele>391.0</ele><time>2026-03-29T08:15:01.001Z</time></trkpt><trkpt lat="45.78554229603872" lon="8.912027945004471"><ele>391.00000000000006</ele><time>2026-03-29T08:15:03.001Z</time></trkpt><trkpt lat="45.78559942272663" lon="8.912093261377702"><ele>391.0</ele><time>2026-03-29T08:15:04.001Z</time></trkpt><trkpt lat="45.78566641891269" lon="8.912122778769348"><ele>391.0</ele><time>2026-03-29T08:15:05.001Z</time></trkpt><trkpt lat="45.78574136919398" lon="8.912116434133223"><ele>391.0</ele><time>2026-03-29T08:15:06.001Z</time></trkpt><trkpt lat="45.78581438677257" lon="8.912090930928958"><ele>391.00000000000006</ele><time>2026-03-29T08:15:07.001Z</time></trkpt><trkpt lat="45.78588111246222" lon="8.912013456973032"><ele>391.0</ele><time>2026-03-29T08:15:08.001Z</time></trkpt><trkpt lat="45.7859194514004" lon="8.911901265895908"><ele>391.0</ele><time>2026-03-29T08:15:09.001Z</time></trkpt><trkpt lat="45.78592805971695" lon="8.911769473259431"><ele>391.0</ele><time>2026-03-29T08:15:10.001Z</time></trkpt><trkpt lat="45.78590986810945" lon="8.911623364089206"><ele>391.0</ele><time>2026-03-29T08:15:11.001Z</time></trkpt><trkpt lat="45.785874758818416" lon="8.911470574811652"><ele>391.0</ele><time>2026-03-29T08:15:12.001Z</time></trkpt><trkpt lat="45.78583656333664" lon="8.911318347452191"><ele>391.0</ele><time>2026-03-29T08:15:13.001Z</time></trkpt><trkpt lat="45.78580095119091" lon="8.911160292117788"><ele>390.0</ele><time>2026-03-29T08:15:14.001Z</time></trkpt><trkpt lat="45.785778812368974" lon="8.911003484611717"><ele>389.0</ele><time>2026-03-29T08:15:15.001Z</time></trkpt><trkpt lat="45.785770629134895" lon="8.910833913074775"><ele>388.0</ele><time>2026-03-29T08:15:16.001Z</time></trkpt><trkpt lat="45.785775701898494" lon="8.91065389284111"><ele>387.0</ele><time>2026-03-29T08:15:17.001Z</time></trkpt><trkpt lat="45.78578819608628" lon="8.91046281481702"><ele>387.0</ele><time>2026-03-29T08:15:18.001Z</time></trkpt><trkpt lat="45.785803135058586" lon="8.910274700661967"><ele>387.0</ele><time>2026-03-29T08:15:19.001Z</time></trkpt><trkpt lat="45.78582028948027" lon="8.910085203560907"><ele>387.0</ele><time>2026-03-29T08:15:20.001Z</time></trkpt><trkpt lat="45.78583414552487" lon="8.909894824634478"><ele>387.0</ele><time>2026-03-29T08:15:21.001Z</time></trkpt><trkpt lat="45.785853398559055" lon="8.909706696719152"><ele>386.5</ele><time>2026-03-29T08:15:22.001Z</time></trkpt><trkpt lat="45.7858736135899" lon="8.909521654274874"><ele>386.0</ele><time>2026-03-29T08:15:23.001Z</time></trkpt><trkpt lat="45.78589073504453" lon="8.90932303565152"><ele>385.5</ele><time>2026-03-29T08:15:24.001Z</time></trkpt><trkpt lat="45.78591119500403" lon="8.909111775900222"><ele>385.0</ele><time>2026-03-29T08:15:25.001Z</time></trkpt><trkpt lat="45.78593340129554" lon="8.908892302826837"><ele>383.6666666666667</ele><time>2026-03-29T08:15:26.001Z</time></trkpt><trkpt lat="45.785953298736445" lon="8.908672005009647"><ele>382.33333333333337</ele><time>2026-03-29T08:15:27.001Z</time></trkpt><trkpt lat="45.78597253504023" lon="8.908444985405628"><ele>381.0</ele><time>2026-03-29T08:15:28.001Z</time></trkpt><trkpt lat="45.785991816425046" lon="8.908221399309271"><ele>381.0</ele><time>2026-03-29T08:15:29.001Z</time></trkpt><trkpt lat="45.78601966467435" lon="8.907986094256596"><ele>381.0</ele><time>2026-03-29T08:15:30.001Z</time></trkpt><trkpt lat="45.786042606660125" lon="8.907746406669958"><ele>381.0</ele><time>2026-03-29T08:15:31.001Z</time></trkpt><trkpt lat="45.78606275933941" lon="8.907499971230601"><ele>380.6666666666667</ele><time>2026-03-29T08:15:32.001Z</time></trkpt><trkpt lat="45.786082556021206" lon="8.907256680634884"><ele>380.33333333333337</ele><time>2026-03-29T08:15:33.001Z</time></trkpt><trkpt lat="45.78610175212888" lon="8.907024455129243"><ele>380.0</ele><time>2026-03-29T08:15:34.001Z</time></trkpt><trkpt lat="45.78612774205653" lon="8.906773964381957"><ele>379.33333333333337</ele><time>2026-03-29T08:15:35.001Z</time></trkpt><trkpt lat="45.7861529902621" lon="8.906490662810178"><ele>378.6666666666667</ele><time>2026-03-29T08:15:36.001Z</time></trkpt><trkpt lat="45.78620022475443" lon="8.906178910303026"><ele>378.0</ele><time>2026-03-29T08:15:37.001Z</time></trkpt><trkpt lat="45.78621818038384" lon="8.905851457807975"><ele>377.6666666666667</ele><time>2026-03-29T08:15:38.001Z</time></trkpt><trkpt lat="45.786257192380575" lon="8.905529540351779"><ele>377.33333333333337</ele><time>2026-03-29T08:15:39.001Z</time></trkpt><trkpt lat="45.78629127163014" lon="8.905237146945533"><ele>377.0</ele><time>2026-03-29T08:15:40.001Z</time></trkpt><trkpt lat="45.786317003197034" lon="8.904978874540967"><ele>377.0</ele><time>2026-03-29T08:15:41.001Z</time></trkpt><trkpt lat="45.78634500665475" lon="8.90472303849541"><ele>377.0</ele><time>2026-03-29T08:15:42.001Z</time></trkpt><trkpt lat="45.78636676790473" lon="8.90448700171379"><ele>377.0</ele><time>2026-03-29T08:15:43.001Z</time></trkpt><trkpt lat="45.78639183920895" lon="8.904249517065347"><ele>376.6666666666667</ele><time>2026-03-29T08:15:44.001Z</time></trkpt><trkpt lat="45.78641720178809" lon="8.904035772245024"><ele>376.3333333333333</ele><time>2026-03-29T08:15:45.001Z</time></trkpt><trkpt lat="45.78643640779503" lon="8.903818809442708"><ele>376.0</ele><time>2026-03-29T08:15:46.001Z</time></trkpt><trkpt lat="45.786451660537345" lon="8.903602831473748"><ele>375.75</ele><time>2026-03-29T08:15:47.001Z</time></trkpt><trkpt lat="45.78647501864215" lon="8.903405356900539"><ele>375.5</ele><time>2026-03-29T08:15:48.001Z</time></trkpt><trkpt lat="45.78649059484449" lon="8.903210153110969"><ele>375.25</ele><time>2026-03-29T08:15:49.001Z</time></trkpt><trkpt lat="45.78650924617852" lon="8.903023428780454"><ele>375.0</ele><time>2026-03-29T08:15:50.001Z</time></trkpt><trkpt lat="45.786530675577836" lon="8.902838900548435"><ele>375.0</ele><time>2026-03-29T08:15:51.001Z</time></trkpt><trkpt lat="45.78654403047685" lon="8.90266713132508"><ele>375.0</ele><time>2026-03-29T08:15:52.001Z</time></trkpt><trkpt lat="45.78655262061611" lon="8.902514781696668"><ele>375.0</ele><time>2026-03-29T08:15:53.001Z</time></trkpt><trkpt lat="45.78656126576513" lon="8.902391958819795"><ele>375.0</ele><time>2026-03-29T08:15:54.001Z</time></trkpt><trkpt lat="45.7865735375816" lon="8.90227183821002"><ele>375.0</ele><time>2026-03-29T08:15:56.001Z</time></trkpt><trkpt lat="45.786595986469294" lon="8.902180994085265"><ele>374.6</ele><time>2026-03-29T08:15:59.001Z</time></trkpt><trkpt lat="45.786654004746424" lon="8.902040769160969"><ele>374.2</ele><time>2026-03-29T08:16:01.001Z</time></trkpt><trkpt lat="45.78670128013688" lon="8.9018949911425"><ele>373.79999999999995</ele><time>2026-03-29T08:16:03.001Z</time></trkpt><trkpt lat="45.786659770064354" lon="8.90174194282655"><ele>373.4</ele><time>2026-03-29T08:16:04.001Z</time></trkpt><trkpt lat="45.78665683411659" lon="8.901592777395518"><ele>373.0</ele><time>2026-03-29T08:16:05.001Z</time></trkpt><trkpt lat="45.78668792987802" lon="8.901436329625652"><ele>373.0</ele><time>2026-03-29T08:16:06.001Z</time></trkpt><trkpt lat="45.78669392214875" lon="8.901255978671047"><ele>373.0</ele><time>2026-03-29T08:16:07.001Z</time></trkpt><trkpt lat="45.78671535455265" lon="8.901064131478757"><ele>373.0</ele><time>2026-03-29T08:16:08.001Z</time></trkpt><trkpt lat="45.786732400366446" lon="8.90088009764961"><ele>373.0</ele><time>2026-03-29T08:16:09.001Z</time></trkpt><trkpt lat="45.78675214759975" lon="8.900699018235665"><ele>373.25</ele><time>2026-03-29T08:16:10.001Z</time></trkpt><trkpt lat="45.78677435936881" lon="8.900528328986795"><ele>373.5</ele><time>2026-03-29T08:16:11.001Z</time></trkpt><trkpt lat="45.78678755631338" lon="8.900355530284454"><ele>373.75</ele><time>2026-03-29T08:16:12.001Z</time></trkpt><trkpt lat="45.786795636286755" lon="8.900184201914644"><ele>374.0</ele><time>2026-03-29T08:16:13.001Z</time></trkpt><trkpt lat="45.78682582051943" lon="8.900004193241546"><ele>373.75</ele><time>2026-03-29T08:16:14.001Z</time></trkpt><trkpt lat="45.78685447346413" lon="8.899809017166543"><ele>373.5</ele><time>2026-03-29T08:16:15.001Z</time></trkpt><trkpt lat="45.7868802293141" lon="8.899613171047745"><ele>373.25</ele><time>2026-03-29T08:16:16.001Z</time></trkpt><trkpt lat="45.786909472737776" lon="8.899406372968029"><ele>373.0</ele><time>2026-03-29T08:16:17.001Z</time></trkpt><trkpt lat="45.786936695056596" lon="8.899181158752759"><ele>372.3333333333333</ele><time>2026-03-29T08:16:18.001Z</time></trkpt><trkpt lat="45.786969835636796" lon="8.898945552646614"><ele>371.6666666666667</ele><time>2026-03-29T08:16:19.001Z</time></trkpt><trkpt lat="45.78700614942412" lon="8.898710386033576"><ele>371.0</ele><time>2026-03-29T08:16:20.001Z</time></trkpt><trkpt lat="45.78703007708244" lon="8.89847163399659"><ele>370.6666666666667</ele><time>2026-03-29T08:16:21.001Z</time></trkpt><trkpt lat="45.787032873379005" lon="8.89822529590762"><ele>370.3333333333333</ele><time>2026-03-29T08:16:22.001Z</time></trkpt><trkpt lat="45.787021387743145" lon="8.89798192592911"><ele>370.0</ele><time>2026-03-29T08:16:23.001Z</time></trkpt><trkpt lat="45.78700513187562" lon="8.897733036953976"><ele>369.0</ele><time>2026-03-29T08:16:24.001Z</time></trkpt><trkpt lat="45.7869799512166" lon="8.897476946380639"><ele>368.0</ele><time>2026-03-29T08:16:25.001Z</time></trkpt><trkpt lat="45.78696021156925" lon="8.89722652569414"><ele>367.0</ele><time>2026-03-29T08:16:26.001Z</time></trkpt><trkpt lat="45.78694517499941" lon="8.896981716344643"><ele>366.66666666666663</ele><time>2026-03-29T08:16:27.001Z</time></trkpt><trkpt lat="45.78693019731347" lon="8.89674435730201"><ele>366.3333333333333</ele><time>2026-03-29T08:16:28.001Z</time></trkpt><trkpt lat="45.78691515775355" lon="8.896510077929296"><ele>366.0</ele><time>2026-03-29T08:16:29.001Z</time></trkpt><trkpt lat="45.78689651321099" lon="8.896274347350628"><ele>366.0</ele><time>2026-03-29T08:16:30.001Z</time></trkpt><trkpt lat="45.786886886078904" lon="8.896044691203695"><ele>366.0</ele><time>2026-03-29T08:16:31.001Z</time></trkpt><trkpt lat="45.78686925418567" lon="8.895832860376705"><ele>366.0</ele><time>2026-03-29T08:16:32.001Z</time></trkpt><trkpt lat="45.78686344050312" lon="8.895622851350799"><ele>365.0</ele><time>2026-03-29T08:16:33.001Z</time></trkpt><trkpt lat="45.786876593972735" lon="8.89540860056204"><ele>364.0</ele><time>2026-03-29T08:16:34.001Z</time></trkpt><trkpt lat="45.78691400943782" lon="8.89519436739636"><ele>363.0</ele><time>2026-03-29T08:16:35.001Z</time></trkpt><trkpt lat="45.78695196536658" lon="8.89497719557677"><ele>359.3333333333333</ele><time>2026-03-29T08:16:36.001Z</time></trkpt><trkpt lat="45.78699379391739" lon="8.89477027847029"><ele>355.66666666666663</ele><time>2026-03-29T08:16:37.001Z</time></trkpt><trkpt lat="45.78705041963921" lon="8.894579295085752"><ele>352.0</ele><time>2026-03-29T08:16:38.001Z</time></trkpt><trkpt lat="45.78713769394491" lon="8.894377765717298"><ele>349.66666666666663</ele><time>2026-03-29T08:16:39.001Z</time></trkpt><trkpt lat="45.7872511383264" lon="8.89418037407343"><ele>347.3333333333333</ele><time>2026-03-29T08:16:40.001Z</time></trkpt><trkpt lat="45.78738847216927" lon="8.894007266463607"><ele>345.0</ele><time>2026-03-29T08:16:41.001Z</time></trkpt><trkpt lat="45.78753875740023" lon="8.893826049270292"><ele>344.3333333333333</ele><time>2026-03-29T08:16:42.001Z</time></trkpt><trkpt lat="45.787685556366185" lon="8.893665772260118"><ele>343.66666666666663</ele><time>2026-03-29T08:16:43.001Z</time></trkpt><trkpt lat="45.78782664112601" lon="8.893506032953333"><ele>343.0</ele><time>2026-03-29T08:16:44.001Z</time></trkpt><trkpt lat="45.787971375401405" lon="8.89333764810358"><ele>343.0</ele><time>2026-03-29T08:16:45.001Z</time></trkpt><trkpt lat="45.78811420998576" lon="8.893167459004353"><ele>343.0</ele><time>2026-03-29T08:16:46.001Z</time></trkpt><trkpt lat="45.788254394784154" lon="8.893016688718056"><ele>343.0</ele><time>2026-03-29T08:16:47.001Z</time></trkpt><trkpt lat="45.7883940598678" lon="8.892852696244177"><ele>342.66666666666663</ele><time>2026-03-29T08:16:48.001Z</time></trkpt><trkpt lat="45.78853617606581" lon="8.892685521539798"><ele>342.3333333333333</ele><time>2026-03-29T08:16:49.001Z</time></trkpt><trkpt lat="45.78866597861142" lon="8.892516788809843"><ele>342.0</ele><time>2026-03-29T08:16:50.001Z</time></trkpt><trkpt lat="45.78881256977635" lon="8.892348539073698"><ele>343.6666666666667</ele><time>2026-03-29T08:16:51.001Z</time></trkpt><trkpt lat="45.78895948979547" lon="8.892181671855857"><ele>345.33333333333337</ele><time>2026-03-29T08:16:52.001Z</time></trkpt><trkpt lat="45.78910245095969" lon="8.892011523528497"><ele>347.0</ele><time>2026-03-29T08:16:53.001Z</time></trkpt><trkpt lat="45.78923826273948" lon="8.891847735974963"><ele>349.33333333333337</ele><time>2026-03-29T08:16:54.001Z</time></trkpt><trkpt lat="45.789373176335026" lon="8.891694759229054"><ele>351.6666666666667</ele><time>2026-03-29T08:16:55.001Z</time></trkpt><trkpt lat="45.789500573614866" lon="8.89154975844334"><ele>354.0</ele><time>2026-03-29T08:16:56.001Z</time></trkpt><trkpt lat="45.78961562286619" lon="8.891413887118448"><ele>354.0</ele><time>2026-03-29T08:16:57.001Z</time></trkpt><trkpt lat="45.78972414337621" lon="8.89129549624284"><ele>354.0</ele><time>2026-03-29T08:16:58.001Z</time></trkpt><trkpt lat="45.789816655138964" lon="8.891193571286214"><ele>354.0</ele><time>2026-03-29T08:16:59.001Z</time></trkpt><trkpt lat="45.78988541410837" lon="8.89111739665194"><ele>354.0</ele><time>2026-03-29T08:17:00.001Z</time></trkpt><trkpt lat="45.78993974483046" lon="8.891062420220951"><ele>354.0</ele><time>2026-03-29T08:17:01.001Z</time></trkpt><trkpt lat="45.79000103371625" lon="8.891005454059213"><ele>354.0</ele><time>2026-03-29T08:17:05.001Z</time></trkpt><trkpt lat="45.79011093864431" lon="8.89095186515205"><ele>354.0</ele><time>2026-03-29T08:17:07.001Z</time></trkpt><trkpt lat="45.79016343944326" lon="8.890896517138117"><ele>354.0</ele><time>2026-03-29T08:17:08.001Z</time></trkpt><trkpt lat="45.79020602191387" lon="8.89082144985815"><ele>354.0</ele><time>2026-03-29T08:17:09.001Z</time></trkpt><trkpt lat="45.79022464638279" lon="8.89070266541533"><ele>354.0</ele><time>2026-03-29T08:17:10.001Z</time></trkpt><trkpt lat="45.79031147879173" lon="8.890614994929546"><ele>354.0</ele><time>2026-03-29T08:17:11.001Z</time></trkpt><trkpt lat="45.7903821731074" lon="8.890524720268516"><ele>354.4</ele><time>2026-03-29T08:17:12.001Z</time></trkpt><trkpt lat="45.79045677551403" lon="8.890443236007295"><ele>354.79999999999995</ele><time>2026-03-29T08:17:13.001Z</time></trkpt><trkpt lat="45.790532468483775" lon="8.890355941147913"><ele>355.20000000000005</ele><time>2026-03-29T08:17:14Z</time></trkpt><trkpt lat="45.790616994718334" lon="8.89027029200534"><ele>355.6</ele><time>2026-03-29T08:17:15Z</time></trkpt><trkpt lat="45.79070368046797" lon="8.890178951181234"><ele>356.0</ele><time>2026-03-29T08:17:16Z</time></trkpt><trkpt lat="45.79078204119867" lon="8.890088050249757"><ele>356.20000000000005</ele><time>2026-03-29T08:17:17Z</time></trkpt><trkpt lat="45.79086231254208" lon="8.88999301145076"><ele>356.40000000000003</ele><time>2026-03-29T08:17:18Z</time></trkpt><trkpt lat="45.79094819133289" lon="8.88989030679017"><ele>356.6</ele><time>2026-03-29T08:17:19Z</time></trkpt><trkpt lat="45.791036054924426" lon="8.88978957467006"><ele>356.8</ele><time>2026-03-29T08:17:20Z</time></trkpt><trkpt lat="45.79111608083254" lon="8.889698096803311"><ele>357.0</ele><time>2026-03-29T08:17:21Z</time></trkpt><trkpt lat="45.79119134821194" lon="8.889609892649194"><ele>357.0</ele><time>2026-03-29T08:17:22Z</time></trkpt><trkpt lat="45.79126326715919" lon="8.889527080461745"><ele>357.0</ele><time>2026-03-29T08:17:23Z</time></trkpt><trkpt lat="45.791330858040865" lon="8.889454539766074"><ele>357.0</ele><time>2026-03-29T08:17:24Z</time></trkpt><trkpt lat="45.79138398344111" lon="8.889392682283196"><ele>357.0</ele><time>2026-03-29T08:17:25Z</time></trkpt><trkpt lat="45.79146667582956" lon="8.889310413275446"><ele>357.0</ele><time>2026-03-29T08:17:27Z</time></trkpt><trkpt lat="45.79154121568064" lon="8.889260721672464"><ele>357.0</ele><time>2026-03-29T08:17:29Z</time></trkpt><trkpt lat="45.7916030702742" lon="8.889215711110817"><ele>357.0</ele><time>2026-03-29T08:17:30Z</time></trkpt><trkpt lat="45.79166640491865" lon="8.88914216822227"><ele>357.0</ele><time>2026-03-29T08:17:31Z</time></trkpt><trkpt lat="45.791718842826" lon="8.889052011872884"><ele>357.0</ele><time>2026-03-29T08:17:32Z</time></trkpt><trkpt lat="45.79176885896448" lon="8.88896341884381"><ele>357.0</ele><time>2026-03-29T08:17:33Z</time></trkpt><trkpt lat="45.791831446110336" lon="8.888910509336357"><ele>357.0</ele><time>2026-03-29T08:17:34Z</time></trkpt><trkpt lat="45.79189436999292" lon="8.88881081257407"><ele>357.0</ele><time>2026-03-29T08:17:35Z</time></trkpt><trkpt lat="45.791972197894566" lon="8.888709545898733"><ele>357.5</ele><time>2026-03-29T08:17:36Z</time></trkpt><trkpt lat="45.79207568121454" lon="8.888621699427826"><ele>358.0</ele><time>2026-03-29T08:17:37Z</time></trkpt><trkpt lat="45.79217506871326" lon="8.888511528549492"><ele>358.5</ele><time>2026-03-29T08:17:38Z</time></trkpt><trkpt lat="45.792267855023276" lon="8.888383445149573"><ele>359.0</ele><time>2026-03-29T08:17:39Z</time></trkpt><trkpt lat="45.79238229139916" lon="8.888258760875395"><ele>359.25</ele><time>2026-03-29T08:17:40Z</time></trkpt><trkpt lat="45.79249294294651" lon="8.888149852875445"><ele>359.5</ele><time>2026-03-29T08:17:41Z</time></trkpt><trkpt lat="45.79259720326068" lon="8.888029653171614"><ele>359.75</ele><time>2026-03-29T08:17:42Z</time></trkpt><trkpt lat="45.79269927203439" lon="8.887915430174418"><ele>360.0</ele><time>2026-03-29T08:17:43Z</time></trkpt><trkpt lat="45.79280295390137" lon="8.887788928420289"><ele>360.25</ele><time>2026-03-29T08:17:44Z</time></trkpt><trkpt lat="45.79291150538407" lon="8.887660730946036"><ele>360.5</ele><time>2026-03-29T08:17:45Z</time></trkpt><trkpt lat="45.79302436863193" lon="8.887535205277567"><ele>360.75</ele><time>2026-03-29T08:17:46Z</time></trkpt><trkpt lat="45.79313517450196" lon="8.887413686861796"><ele>361.0</ele><time>2026-03-29T08:17:47Z</time></trkpt><trkpt lat="45.793246755581386" lon="8.887312279818001"><ele>361.5</ele><time>2026-03-29T08:17:48Z</time></trkpt><trkpt lat="45.793345181490324" lon="8.887169265148616"><ele>362.0</ele><time>2026-03-29T08:17:49Z</time></trkpt><trkpt lat="45.79344880956291" lon="8.887054271795094"><ele>362.5</ele><time>2026-03-29T08:17:50Z</time></trkpt><trkpt lat="45.79355373616279" lon="8.886939137110916"><ele>363.0</ele><time>2026-03-29T08:17:51Z</time></trkpt><trkpt lat="45.793653956216055" lon="8.88681307016484"><ele>362.75</ele><time>2026-03-29T08:17:52Z</time></trkpt><trkpt lat="45.79375656659008" lon="8.886696725048305"><ele>362.5</ele><time>2026-03-29T08:17:53Z</time></trkpt><trkpt lat="45.79386028785316" lon="8.886577360693943"><ele>362.25</ele><time>2026-03-29T08:17:54Z</time></trkpt><trkpt lat="45.793964809853065" lon="8.886458521798982"><ele>362.0</ele><time>2026-03-29T08:17:55Z</time></trkpt><trkpt lat="45.79406826295968" lon="8.886344126244774"><ele>362.0</ele><time>2026-03-29T08:17:56Z</time></trkpt><trkpt lat="45.79417233259193" lon="8.886224252252074"><ele>362.0</ele><time>2026-03-29T08:17:57Z</time></trkpt><trkpt lat="45.79427854739776" lon="8.886093558680258"><ele>362.0</ele><time>2026-03-29T08:17:58Z</time></trkpt><trkpt lat="45.794384295111946" lon="8.88597733292829"><ele>362.0</ele><time>2026-03-29T08:17:59Z</time></trkpt><trkpt lat="45.79449523246303" lon="8.885838849590847"><ele>363.0</ele><time>2026-03-29T08:18:00Z</time></trkpt><trkpt lat="45.79461065191439" lon="8.88571576546747"><ele>364.0</ele><time>2026-03-29T08:18:01Z</time></trkpt><trkpt lat="45.794723897725916" lon="8.885592772994624"><ele>365.0</ele><time>2026-03-29T08:18:02Z</time></trkpt><trkpt lat="45.79483446424693" lon="8.885464767748088"><ele>366.0</ele><time>2026-03-29T08:18:03Z</time></trkpt><trkpt lat="45.79493227694894" lon="8.885348285066549"><ele>366.0</ele><time>2026-03-29T08:18:04Z</time></trkpt><trkpt lat="45.79503075666114" lon="8.885230044705082"><ele>366.0</ele><time>2026-03-29T08:18:05Z</time></trkpt><trkpt lat="45.79512375381524" lon="8.88512894506266"><ele>366.0</ele><time>2026-03-29T08:18:06Z</time></trkpt><trkpt lat="45.79520581850373" lon="8.885030934574031"><ele>366.0</ele><time>2026-03-29T08:18:07Z</time></trkpt><trkpt lat="45.795274276823825" lon="8.884949403889706"><ele>366.0</ele><time>2026-03-29T08:18:08Z</time></trkpt><trkpt lat="45.795331960884326" lon="8.884873759039323"><ele>367.0</ele><time>2026-03-29T08:18:09Z</time></trkpt><trkpt lat="45.79538921078576" lon="8.884810731207663"><ele>368.0</ele><time>2026-03-29T08:18:10Z</time></trkpt><trkpt lat="45.79545581215731" lon="8.884732861061833"><ele>369.0</ele><time>2026-03-29T08:18:11Z</time></trkpt><trkpt lat="45.795520939815056" lon="8.884654543213182"><ele>370.0</ele><time>2026-03-29T08:18:12Z</time></trkpt><trkpt lat="45.79558058437604" lon="8.884581405617583"><ele>371.0</ele><time>2026-03-29T08:18:13Z</time></trkpt><trkpt lat="45.795652097100664" lon="8.884528444381187"><ele>372.0</ele><time>2026-03-29T08:18:14Z</time></trkpt><trkpt lat="45.79571899416717" lon="8.884452410888215"><ele>372.0</ele><time>2026-03-29T08:18:15Z</time></trkpt><trkpt lat="45.795783217963105" lon="8.88437941582329"><ele>372.0</ele><time>2026-03-29T08:18:16Z</time></trkpt><trkpt lat="45.79585717849254" lon="8.884295353637958"><ele>372.0</ele><time>2026-03-29T08:18:17Z</time></trkpt><trkpt lat="45.79592791256448" lon="8.884214083006402"><ele>372.0</ele><time>2026-03-29T08:18:18Z</time></trkpt><trkpt lat="45.796002485663855" lon="8.88411444693124"><ele>372.0</ele><time>2026-03-29T08:18:19Z</time></trkpt><trkpt lat="45.796085927605965" lon="8.884026377054596"><ele>370.75</ele><time>2026-03-29T08:18:20Z</time></trkpt><trkpt lat="45.79618668104176" lon="8.883918578223808"><ele>369.5</ele><time>2026-03-29T08:18:21Z</time></trkpt><trkpt lat="45.79629295730453" lon="8.883807554313146"><ele>368.25</ele><time>2026-03-29T08:18:22Z</time></trkpt><trkpt lat="45.79640438814655" lon="8.883679111381625"><ele>367.0</ele><time>2026-03-29T08:18:23Z</time></trkpt><trkpt lat="45.79651141216435" lon="8.883551610960481"><ele>366.5</ele><time>2026-03-29T08:18:24Z</time></trkpt><trkpt lat="45.79661009306562" lon="8.8834189725807"><ele>366.0</ele><time>2026-03-29T08:18:25Z</time></trkpt><trkpt lat="45.796706497655165" lon="8.883309718572194"><ele>365.5</ele><time>2026-03-29T08:18:26Z</time></trkpt><trkpt lat="45.79679860130271" lon="8.88320843683572"><ele>365.0</ele><time>2026-03-29T08:18:27Z</time></trkpt><trkpt lat="45.79689804179937" lon="8.883095789019862"><ele>364.75</ele><time>2026-03-29T08:18:28Z</time></trkpt><trkpt lat="45.7969936155241" lon="8.882992384570937"><ele>364.5</ele><time>2026-03-29T08:18:29Z</time></trkpt><trkpt lat="45.79708762385028" lon="8.882873612184175"><ele>364.25</ele><time>2026-03-29T08:18:30Z</time></trkpt><trkpt lat="45.79718640938451" lon="8.882759050726962"><ele>364.0</ele><time>2026-03-29T08:18:31Z</time></trkpt><trkpt lat="45.7972859428446" lon="8.882646957867559"><ele>363.25</ele><time>2026-03-29T08:18:32Z</time></trkpt><trkpt lat="45.79738832803965" lon="8.882524763569316"><ele>362.5</ele><time>2026-03-29T08:18:33Z</time></trkpt><trkpt lat="45.79748610705083" lon="8.882415579749118"><ele>361.75</ele><time>2026-03-29T08:18:34Z</time></trkpt><trkpt lat="45.797580546363164" lon="8.882304866862219"><ele>361.0</ele><time>2026-03-29T08:18:35Z</time></trkpt><trkpt lat="45.797669662349016" lon="8.882202577233388"><ele>360.6</ele><time>2026-03-29T08:18:36Z</time></trkpt><trkpt lat="45.797761793712674" lon="8.882103532599583"><ele>360.20000000000005</ele><time>2026-03-29T08:18:37Z</time></trkpt><trkpt lat="45.79784519381496" lon="8.88200653225214"><ele>359.79999999999995</ele><time>2026-03-29T08:18:38Z</time></trkpt><trkpt lat="45.79793380927349" lon="8.881910392904723"><ele>359.4</ele><time>2026-03-29T08:18:39Z</time></trkpt><trkpt lat="45.79800974336888" lon="8.881821097673564"><ele>359.0</ele><time>2026-03-29T08:18:40Z</time></trkpt><trkpt lat="45.79808614305869" lon="8.881732652648802"><ele>358.6</ele><time>2026-03-29T08:18:41Z</time></trkpt><trkpt lat="45.7981551811782" lon="8.881654280431382"><ele>358.2</ele><time>2026-03-29T08:18:42Z</time></trkpt><trkpt lat="45.79823104571848" lon="8.881579300739224"><ele>357.8</ele><time>2026-03-29T08:18:43Z</time></trkpt><trkpt lat="45.79830087054999" lon="8.881486815351334"><ele>357.40000000000003</ele><time>2026-03-29T08:18:44Z</time></trkpt><trkpt lat="45.79836924943592" lon="8.881400706848567"><ele>357.0</ele><time>2026-03-29T08:18:45Z</time></trkpt><trkpt lat="45.7984455455853" lon="8.881340408955865"><ele>357.0</ele><time>2026-03-29T08:18:46Z</time></trkpt><trkpt lat="45.79848832878767" lon="8.881271508326984"><ele>357.0</ele><time>2026-03-29T08:18:47Z</time></trkpt><trkpt lat="45.7985626691942" lon="8.881205115779503"><ele>357.0</ele><time>2026-03-29T08:18:50Z</time></trkpt><trkpt lat="45.79864830042808" lon="8.881092680169202"><ele>357.0</ele><time>2026-03-29T08:18:52Z</time></trkpt><trkpt lat="45.79871161487258" lon="8.881023474832478"><ele>357.0</ele><time>2026-03-29T08:18:53Z</time></trkpt><trkpt lat="45.79878567729548" lon="8.880946325047244"><ele>357.0</ele><time>2026-03-29T08:18:54Z</time></trkpt><trkpt lat="45.798849634099305" lon="8.880876009068018"><ele>356.6666666666667</ele><time>2026-03-29T08:18:55.001Z</time></trkpt><trkpt lat="45.79891765393529" lon="8.880792485586316"><ele>356.3333333333333</ele><time>2026-03-29T08:18:56.001Z</time></trkpt><trkpt lat="45.798989810064796" lon="8.880715989601027"><ele>356.0</ele><time>2026-03-29T08:18:57.001Z</time></trkpt><trkpt lat="45.799054448017564" lon="8.88064634890082"><ele>355.66666666666663</ele><time>2026-03-29T08:18:58.001Z</time></trkpt><trkpt lat="45.799114694807294" lon="8.880576106468096"><ele>355.3333333333333</ele><time>2026-03-29T08:18:59.001Z</time></trkpt><trkpt lat="45.79916594984574" lon="8.880514337944128"><ele>355.0</ele><time>2026-03-29T08:19:00.001Z</time></trkpt><trkpt lat="45.79921648535488" lon="8.880458385190455"><ele>355.0</ele><time>2026-03-29T08:19:01.001Z</time></trkpt><trkpt lat="45.79927712480831" lon="8.880413848564158"><ele>355.0</ele><time>2026-03-29T08:19:02.001Z</time></trkpt><trkpt lat="45.799351437936366" lon="8.880401298410604"><ele>355.0</ele><time>2026-03-29T08:19:03.001Z</time></trkpt><trkpt lat="45.79942130106966" lon="8.880383032451142"><ele>355.0</ele><time>2026-03-29T08:19:04.001Z</time></trkpt><trkpt lat="45.79949110818886" lon="8.880332568262853"><ele>355.0</ele><time>2026-03-29T08:19:05.001Z</time></trkpt><trkpt lat="45.79953824519796" lon="8.880246906470436"><ele>355.0</ele><time>2026-03-29T08:19:06.001Z</time></trkpt><trkpt lat="45.799573035351166" lon="8.880147217453157"><ele>355.0</ele><time>2026-03-29T08:19:07.001Z</time></trkpt><trkpt lat="45.79962742540574" lon="8.880005549659836"><ele>354.5</ele><time>2026-03-29T08:19:09.001Z</time></trkpt><trkpt lat="45.79966232518111" lon="8.879899162066785"><ele>354.0</ele><time>2026-03-29T08:19:11.001Z</time></trkpt><trkpt lat="45.79969538657967" lon="8.87977188744932"><ele>353.5</ele><time>2026-03-29T08:19:13.001Z</time></trkpt><trkpt lat="45.79972661958062" lon="8.879614494762022"><ele>353.0</ele><time>2026-03-29T08:19:15.001Z</time></trkpt><trkpt lat="45.79974327579534" lon="8.879516897503498"><ele>352.5</ele><time>2026-03-29T08:19:17.001Z</time></trkpt><trkpt lat="45.79976187158994" lon="8.879420379924731"><ele>352.0</ele><time>2026-03-29T08:19:21.001Z</time></trkpt><trkpt lat="45.79978424393597" lon="8.879305307124747"><ele>352.0</ele><time>2026-03-29T08:19:23.001Z</time></trkpt><trkpt lat="45.79980009716071" lon="8.879172629226058"><ele>352.0</ele><time>2026-03-29T08:19:25.001Z</time></trkpt><trkpt lat="45.799809838452276" lon="8.879035036893265"><ele>352.0</ele><time>2026-03-29T08:19:33Z</time></trkpt><trkpt lat="45.79985846357563" lon="8.878856397735587"><ele>352.0</ele><time>2026-03-29T08:19:35Z</time></trkpt><trkpt lat="45.79989782052299" lon="8.8787829216508"><ele>352.0</ele><time>2026-03-29T08:19:36Z</time></trkpt><trkpt lat="45.79992972826406" lon="8.878686037675326"><ele>352.0</ele><time>2026-03-29T08:19:37Z</time></trkpt><trkpt lat="45.799966241778584" lon="8.878588389734073"><ele>352.0</ele><time>2026-03-29T08:19:38Z</time></trkpt><trkpt lat="45.799998296475806" lon="8.878501517127095"><ele>352.0</ele><time>2026-03-29T08:19:39Z</time></trkpt><trkpt lat="45.80003673647595" lon="8.878415202896447"><ele>352.0</ele><time>2026-03-29T08:19:40Z</time></trkpt><trkpt lat="45.80003927512156" lon="8.878298607422115"><ele>352.0</ele><time>2026-03-29T08:19:41Z</time></trkpt><trkpt lat="45.80004109822595" lon="8.878201386972213"><ele>352.0</ele><time>2026-03-29T08:19:42Z</time></trkpt><trkpt lat="45.80000894309619" lon="8.878107216100068"><ele>352.0</ele><time>2026-03-29T08:19:43Z</time></trkpt><trkpt lat="45.79993815151019" lon="8.878039673995046"><ele>352.0</ele><time>2026-03-29T08:19:44Z</time></trkpt><trkpt lat="45.799847268391105" lon="8.878017506797734"><ele>352.0</ele><time>2026-03-29T08:19:45Z</time></trkpt><trkpt lat="45.799763362645244" lon="8.878001735294221"><ele>352.0</ele><time>2026-03-29T08:19:46Z</time></trkpt><trkpt lat="45.799671057092766" lon="8.877964553795323"><ele>352.0</ele><time>2026-03-29T08:19:47Z</time></trkpt><trkpt lat="45.79957504833075" lon="8.87792180963911"><ele>352.0</ele><time>2026-03-29T08:19:48Z</time></trkpt><trkpt lat="45.799470888984395" lon="8.877882591525161"><ele>352.0</ele><time>2026-03-29T08:19:49Z</time></trkpt><trkpt lat="45.79936546528876" lon="8.877826382042485"><ele>352.0</ele><time>2026-03-29T08:19:50Z</time></trkpt><trkpt lat="45.79924900636246" lon="8.877784411687925"><ele>352.0</ele><time>2026-03-29T08:19:51Z</time></trkpt><trkpt lat="45.79913969194296" lon="8.877735129882241"><ele>352.0</ele><time>2026-03-29T08:19:52Z</time></trkpt><trkpt lat="45.79903092054019" lon="8.877679959415225"><ele>352.25</ele><time>2026-03-29T08:19:53Z</time></trkpt><trkpt lat="45.79892112400826" lon="8.877613756983694"><ele>352.5</ele><time>2026-03-29T08:19:54Z</time></trkpt><trkpt lat="45.798809481703984" lon="8.877501760986044"><ele>352.75</ele><time>2026-03-29T08:19:55Z</time></trkpt><trkpt lat="45.798714092575715" lon="8.877353729603168"><ele>353.0</ele><time>2026-03-29T08:19:56Z</time></trkpt><trkpt lat="45.79861380919838" lon="8.877227531353995"><ele>352.0</ele><time>2026-03-29T08:19:57Z</time></trkpt><trkpt lat="45.798515282778695" lon="8.877097475452882"><ele>351.0</ele><time>2026-03-29T08:19:58Z</time></trkpt><trkpt lat="45.79842773082157" lon="8.876966040299893"><ele>350.0</ele><time>2026-03-29T08:19:59Z</time></trkpt><trkpt lat="45.79834027325921" lon="8.876814812127096"><ele>349.0</ele><time>2026-03-29T08:20:00Z</time></trkpt><trkpt lat="45.79829933220172" lon="8.876602219534357"><ele>347.3333333333333</ele><time>2026-03-29T08:20:01Z</time></trkpt><trkpt lat="45.798221308245004" lon="8.8763998687869"><ele>345.6666666666667</ele><time>2026-03-29T08:20:02Z</time></trkpt><trkpt lat="45.79814477169116" lon="8.876192959944099"><ele>344.0</ele><time>2026-03-29T08:20:03Z</time></trkpt><trkpt lat="45.79806182856912" lon="8.876022483467382"><ele>343.0</ele><time>2026-03-29T08:20:04Z</time></trkpt><trkpt lat="45.79796305523509" lon="8.875856910849684"><ele>342.0</ele><time>2026-03-29T08:20:05Z</time></trkpt><trkpt lat="45.797858967837094" lon="8.875713795857036"><ele>341.0</ele><time>2026-03-29T08:20:06Z</time></trkpt><trkpt lat="45.797758963613326" lon="8.875596203427706"><ele>340.0</ele><time>2026-03-29T08:20:07Z</time></trkpt><trkpt lat="45.79765721966976" lon="8.875504073538583"><ele>338.3333333333333</ele><time>2026-03-29T08:20:08Z</time></trkpt><trkpt lat="45.797584300774645" lon="8.875423538818739"><ele>336.66666666666663</ele><time>2026-03-29T08:20:09Z</time></trkpt><trkpt lat="45.79753429561154" lon="8.875321122849828"><ele>335.0</ele><time>2026-03-29T08:20:10Z</time></trkpt><trkpt lat="45.79751432756452" lon="8.875205340112766"><ele>333.3333333333333</ele><time>2026-03-29T08:20:11Z</time></trkpt><trkpt lat="45.79752418954055" lon="8.87507411549298"><ele>331.6666666666667</ele><time>2026-03-29T08:20:12Z</time></trkpt><trkpt lat="45.79756813376667" lon="8.874955728291347"><ele>330.0</ele><time>2026-03-29T08:20:13Z</time></trkpt><trkpt lat="45.7976380162027" lon="8.874868360282143"><ele>329.5</ele><time>2026-03-29T08:20:14Z</time></trkpt><trkpt lat="45.79773361750376" lon="8.874814777547416"><ele>329.0</ele><time>2026-03-29T08:20:15Z</time></trkpt><trkpt lat="45.79785593597791" lon="8.874796790972303"><ele>328.5</ele><time>2026-03-29T08:20:16Z</time></trkpt><trkpt lat="45.79799726856105" lon="8.874799150277525"><ele>328.0</ele><time>2026-03-29T08:20:17Z</time></trkpt><trkpt lat="45.79815113893782" lon="8.874806328210981"><ele>328.0</ele><time>2026-03-29T08:20:18Z</time></trkpt><trkpt lat="45.79829682965166" lon="8.87481592816946"><ele>328.0</ele><time>2026-03-29T08:20:19Z</time></trkpt><trkpt lat="45.79843995359901" lon="8.87481835927404"><ele>328.0</ele><time>2026-03-29T08:20:20Z</time></trkpt><trkpt lat="45.798579431476746" lon="8.874803535854838"><ele>328.0</ele><time>2026-03-29T08:20:21Z</time></trkpt><trkpt lat="45.79871859943481" lon="8.874761568746061"><ele>330.25</ele><time>2026-03-29T08:20:22Z</time></trkpt><trkpt lat="45.79884596748644" lon="8.87468546248909"><ele>332.5</ele><time>2026-03-29T08:20:23Z</time></trkpt><trkpt lat="45.79897143090678" lon="8.874603056138266"><ele>334.75</ele><time>2026-03-29T08:20:24Z</time></trkpt><trkpt lat="45.7990922144769" lon="8.874522214850126"><ele>337.0</ele><time>2026-03-29T08:20:25Z</time></trkpt><trkpt lat="45.79921000734842" lon="8.874452238495879"><ele>337.0</ele><time>2026-03-29T08:20:26Z</time></trkpt><trkpt lat="45.799331270218055" lon="8.874384871852087"><ele>337.0</ele><time>2026-03-29T08:20:27Z</time></trkpt><trkpt lat="45.799452522021944" lon="8.87432201786295"><ele>337.0</ele><time>2026-03-29T08:20:28Z</time></trkpt><trkpt lat="45.79956874292484" lon="8.874248058738901"><ele>337.0</ele><time>2026-03-29T08:20:29Z</time></trkpt><trkpt lat="45.79967782636919" lon="8.874154144136064"><ele>334.0</ele><time>2026-03-29T08:20:30Z</time></trkpt><trkpt lat="45.79977940075209" lon="8.874030422774563"><ele>331.0</ele><time>2026-03-29T08:20:31Z</time></trkpt><trkpt lat="45.79987595370189" lon="8.873885412760027"><ele>328.0</ele><time>2026-03-29T08:20:32Z</time></trkpt><trkpt lat="45.799966091589845" lon="8.873746352796223"><ele>325.0</ele><time>2026-03-29T08:20:33Z</time></trkpt><trkpt lat="45.80005030771957" lon="8.873621932795155"><ele>325.0</ele><time>2026-03-29T08:20:34Z</time></trkpt><trkpt lat="45.80013684855371" lon="8.873513958223386"><ele>325.0</ele><time>2026-03-29T08:20:35Z</time></trkpt><trkpt lat="45.80021955190755" lon="8.873411089471512"><ele>325.0</ele><time>2026-03-29T08:20:36Z</time></trkpt><trkpt lat="45.80030099688216" lon="8.873306903152756"><ele>325.0</ele><time>2026-03-29T08:20:37Z</time></trkpt><trkpt lat="45.800378924030674" lon="8.873201038245005"><ele>325.0</ele><time>2026-03-29T08:20:38Z</time></trkpt><trkpt lat="45.8004478225288" lon="8.873097074622477"><ele>324.0</ele><time>2026-03-29T08:20:39Z</time></trkpt><trkpt lat="45.800516953483594" lon="8.873002723144333"><ele>323.0</ele><time>2026-03-29T08:20:40Z</time></trkpt><trkpt lat="45.800594888854405" lon="8.872951759873803"><ele>322.0</ele><time>2026-03-29T08:20:41Z</time></trkpt><trkpt lat="45.80068165965055" lon="8.872948248326102"><ele>321.0</ele><time>2026-03-29T08:20:42Z</time></trkpt><trkpt lat="45.800770088162366" lon="8.872966333013352"><ele>320.0</ele><time>2026-03-29T08:20:43Z</time></trkpt><trkpt lat="45.80086055194446" lon="8.872996183971113"><ele>320.0</ele><time>2026-03-29T08:20:44Z</time></trkpt><trkpt lat="45.80094875936643" lon="8.873036220054987"><ele>320.0</ele><time>2026-03-29T08:20:45Z</time></trkpt><trkpt lat="45.801030612544835" lon="8.873074893621304"><ele>320.0</ele><time>2026-03-29T08:20:46Z</time></trkpt><trkpt lat="45.801106724094275" lon="8.873104035188527"><ele>320.0</ele><time>2026-03-29T08:20:47Z</time></trkpt><trkpt lat="45.80118625453246" lon="8.87312177589284"><ele>320.0</ele><time>2026-03-29T08:20:48Z</time></trkpt><trkpt lat="45.80126508603823" lon="8.873106041830809"><ele>320.0</ele><time>2026-03-29T08:20:49Z</time></trkpt><trkpt lat="45.80133382264707" lon="8.873062035820723"><ele>317.5</ele><time>2026-03-29T08:20:50Z</time></trkpt><trkpt lat="45.801392391491305" lon="8.872993440201398"><ele>315.0</ele><time>2026-03-29T08:20:51Z</time></trkpt><trkpt lat="45.80144361790721" lon="8.872892241771417"><ele>312.5</ele><time>2026-03-29T08:20:52Z</time></trkpt><trkpt lat="45.80147992168845" lon="8.872767594933368"><ele>310.0</ele><time>2026-03-29T08:20:53Z</time></trkpt><trkpt lat="45.80150037694869" lon="8.872643549021054"><ele>307.5</ele><time>2026-03-29T08:20:54Z</time></trkpt><trkpt lat="45.80151618907486" lon="8.872528092862384"><ele>305.0</ele><time>2026-03-29T08:20:55Z</time></trkpt><trkpt lat="45.80155402702945" lon="8.872418953840056"><ele>304.0</ele><time>2026-03-29T08:20:56Z</time></trkpt><trkpt lat="45.80157021823777" lon="8.872315572557188"><ele>303.0</ele><time>2026-03-29T08:20:57Z</time></trkpt><trkpt lat="45.80158658620614" lon="8.872200846836293"><ele>302.0</ele><time>2026-03-29T08:20:58Z</time></trkpt><trkpt lat="45.80160235858605" lon="8.872088551671869"><ele>301.0</ele><time>2026-03-29T08:20:59Z</time></trkpt><trkpt lat="45.801709619079624" lon="8.872014131966894"><ele>300.0</ele><time>2026-03-29T08:21:01.001Z</time></trkpt><trkpt lat="45.80179949977725" lon="8.87188368350857"><ele>300.71428571428567</ele><time>2026-03-29T08:21:03.001Z</time></trkpt><trkpt lat="45.80181362989158" lon="8.871773186364521"><ele>301.42857142857144</ele><time>2026-03-29T08:21:04.001Z</time></trkpt><trkpt lat="45.80179812046887" lon="8.871675877729537"><ele>302.1428571428571</ele><time>2026-03-29T08:21:05.001Z</time></trkpt><trkpt lat="45.80175746059816" lon="8.871598253324276"><ele>302.85714285714283</ele><time>2026-03-29T08:21:06.001Z</time></trkpt><trkpt lat="45.801700685171085" lon="8.871542070816346"><ele>303.57142857142856</ele><time>2026-03-29T08:21:07.001Z</time></trkpt><trkpt lat="45.80164004295463" lon="8.8714860653244"><ele>304.2857142857143</ele><time>2026-03-29T08:21:08.001Z</time></trkpt><trkpt lat="45.8015859837136" lon="8.871404489272923"><ele>305.0</ele><time>2026-03-29T08:21:09.001Z</time></trkpt><trkpt lat="45.80153307854129" lon="8.871281892127309"><ele>305.0</ele><time>2026-03-29T08:21:10.001Z</time></trkpt><trkpt lat="45.80148625351196" lon="8.871157314016525"><ele>305.0</ele><time>2026-03-29T08:21:11.001Z</time></trkpt><trkpt lat="45.80144643175424" lon="8.87102483256287"><ele>305.0</ele><time>2026-03-29T08:21:12.001Z</time></trkpt><trkpt lat="45.80141371626421" lon="8.87088185463633"><ele>305.0</ele><time>2026-03-29T08:21:13.001Z</time></trkpt><trkpt lat="45.80139767277694" lon="8.870727726727972"><ele>305.0</ele><time>2026-03-29T08:21:14.001Z</time></trkpt><trkpt lat="45.80139396039548" lon="8.87056546988513"><ele>308.0</ele><time>2026-03-29T08:21:15.001Z</time></trkpt><trkpt lat="45.80140499158222" lon="8.87039115620182"><ele>311.0</ele><time>2026-03-29T08:21:16.001Z</time></trkpt><trkpt lat="45.80141953039749" lon="8.870198267501602"><ele>314.0</ele><time>2026-03-29T08:21:17.001Z</time></trkpt><trkpt lat="45.80145669244244" lon="8.869986698515568"><ele>317.0</ele><time>2026-03-29T08:21:18.001Z</time></trkpt><trkpt lat="45.801486574621286" lon="8.869746644314315"><ele>317.0</ele><time>2026-03-29T08:21:19.001Z</time></trkpt><trkpt lat="45.80151793197538" lon="8.869484455363523"><ele>317.0</ele><time>2026-03-29T08:21:20.001Z</time></trkpt><trkpt lat="45.80155314183483" lon="8.869209527060988"><ele>317.0</ele><time>2026-03-29T08:21:21.001Z</time></trkpt><trkpt lat="45.801574939399146" lon="8.868948899430935"><ele>317.0</ele><time>2026-03-29T08:21:22.001Z</time></trkpt><trkpt lat="45.8016155426056" lon="8.868710550559221"><ele>317.0</ele><time>2026-03-29T08:21:23.001Z</time></trkpt><trkpt lat="45.80164660877713" lon="8.868485955631067"><ele>317.0</ele><time>2026-03-29T08:21:24.001Z</time></trkpt><trkpt lat="45.8016783640557" lon="8.868273273198643"><ele>315.75</ele><time>2026-03-29T08:21:25.001Z</time></trkpt><trkpt lat="45.80171378618264" lon="8.868059111116473"><ele>314.5</ele><time>2026-03-29T08:21:26.001Z</time></trkpt><trkpt lat="45.80175870360255" lon="8.867894923686277"><ele>313.25</ele><time>2026-03-29T08:21:27.001Z</time></trkpt><trkpt lat="45.80181120390136" lon="8.86772354218031"><ele>312.0</ele><time>2026-03-29T08:21:28.001Z</time></trkpt><trkpt lat="45.80185944951728" lon="8.867546628284458"><ele>319.25</ele><time>2026-03-29T08:21:29.001Z</time></trkpt><trkpt lat="45.80191375670543" lon="8.86738870884143"><ele>326.5</ele><time>2026-03-29T08:21:30.001Z</time></trkpt><trkpt lat="45.80196122302371" lon="8.867246414606434"><ele>333.75</ele><time>2026-03-29T08:21:31.001Z</time></trkpt><trkpt lat="45.8020098294492" lon="8.867100834698263"><ele>341.0</ele><time>2026-03-29T08:21:32.001Z</time></trkpt><trkpt lat="45.80205972545635" lon="8.866963402609823"><ele>341.0</ele><time>2026-03-29T08:21:33Z</time></trkpt><trkpt lat="45.802143035664585" lon="8.866864741568675"><ele>341.0</ele><time>2026-03-29T08:21:34Z</time></trkpt><trkpt lat="45.80222690427499" lon="8.866757171424748"><ele>341.0</ele><time>2026-03-29T08:21:35Z</time></trkpt><trkpt lat="45.80231893529977" lon="8.86664561608968"><ele>341.0</ele><time>2026-03-29T08:21:36Z</time></trkpt><trkpt lat="45.80241644736872" lon="8.866531071679297"><ele>342.0</ele><time>2026-03-29T08:21:37Z</time></trkpt><trkpt lat="45.80252127487317" lon="8.866409833323164"><ele>343.0</ele><time>2026-03-29T08:21:38Z</time></trkpt><trkpt lat="45.80262879480815" lon="8.86628304268267"><ele>344.0</ele><time>2026-03-29T08:21:39Z</time></trkpt><trkpt lat="45.802717779281" lon="8.866136351862403"><ele>345.0</ele><time>2026-03-29T08:21:40Z</time></trkpt><trkpt lat="45.80281148426632" lon="8.866010279371684"><ele>340.5</ele><time>2026-03-29T08:21:41Z</time></trkpt><trkpt lat="45.80289463388077" lon="8.865865792726876"><ele>336.0</ele><time>2026-03-29T08:21:42Z</time></trkpt><trkpt lat="45.80297250114463" lon="8.865703323180794"><ele>331.5</ele><time>2026-03-29T08:21:43Z</time></trkpt><trkpt lat="45.80305741978631" lon="8.865533985626284"><ele>327.0</ele><time>2026-03-29T08:21:44Z</time></trkpt><trkpt lat="45.803161996872745" lon="8.86541196133906"><ele>327.0</ele><time>2026-03-29T08:21:45Z</time></trkpt><trkpt lat="45.80326640996826" lon="8.865282782329562"><ele>327.0</ele><time>2026-03-29T08:21:46Z</time></trkpt><trkpt lat="45.80338793906676" lon="8.865149716896605"><ele>327.0</ele><time>2026-03-29T08:21:47Z</time></trkpt><trkpt lat="45.80351773939025" lon="8.865029399282092"><ele>327.0</ele><time>2026-03-29T08:21:48Z</time></trkpt><trkpt lat="45.80364277313731" lon="8.864901255387574"><ele>326.5</ele><time>2026-03-29T08:21:49Z</time></trkpt><trkpt lat="45.803761897407014" lon="8.864784784849997"><ele>326.0</ele><time>2026-03-29T08:21:50Z</time></trkpt><trkpt lat="45.803875768553205" lon="8.864676018784486"><ele>325.5</ele><time>2026-03-29T08:21:51Z</time></trkpt><trkpt lat="45.80398193509723" lon="8.864568795826969"><ele>325.0</ele><time>2026-03-29T08:21:52Z</time></trkpt><trkpt lat="45.80408212776501" lon="8.864475502793141"><ele>325.0</ele><time>2026-03-29T08:21:53Z</time></trkpt><trkpt lat="45.8041806080801" lon="8.864385008989402"><ele>325.0</ele><time>2026-03-29T08:21:54Z</time></trkpt><trkpt lat="45.804268537399984" lon="8.864299485256364"><ele>325.0</ele><time>2026-03-29T08:21:55Z</time></trkpt><trkpt lat="45.80435412741039" lon="8.86421344207957"><ele>325.0</ele><time>2026-03-29T08:21:56Z</time></trkpt><trkpt lat="45.80444025642246" lon="8.864113856966327"><ele>325.0</ele><time>2026-03-29T08:21:57Z</time></trkpt><trkpt lat="45.80451196488396" lon="8.864009212445506"><ele>322.3333333333333</ele><time>2026-03-29T08:21:58Z</time></trkpt><trkpt lat="45.80459850708554" lon="8.86392983995236"><ele>319.66666666666663</ele><time>2026-03-29T08:21:59Z</time></trkpt><trkpt lat="45.80466319886678" lon="8.863861966446441"><ele>317.0</ele><time>2026-03-29T08:22:00Z</time></trkpt><trkpt lat="45.804729277245755" lon="8.863764651941962"><ele>314.3333333333333</ele><time>2026-03-29T08:22:01Z</time></trkpt><trkpt lat="45.804803588431135" lon="8.863717726584678"><ele>311.6666666666667</ele><time>2026-03-29T08:22:02Z</time></trkpt><trkpt lat="45.80486629896965" lon="8.863693815921746"><ele>309.0</ele><time>2026-03-29T08:22:03Z</time></trkpt><trkpt lat="45.804935085545104" lon="8.86368156585504"><ele>309.0</ele><time>2026-03-29T08:22:10Z</time></trkpt><trkpt lat="45.80505159919209" lon="8.863670511450946"><ele>309.0</ele><time>2026-03-29T08:22:12Z</time></trkpt><trkpt lat="45.80511876957792" lon="8.863710503054344"><ele>309.0</ele><time>2026-03-29T08:22:13Z</time></trkpt><trkpt lat="45.8051905236304" lon="8.863713324853126"><ele>309.0</ele><time>2026-03-29T08:22:14Z</time></trkpt><trkpt lat="45.80527182607323" lon="8.863699609012597"><ele>309.0</ele><time>2026-03-29T08:22:15Z</time></trkpt><trkpt lat="45.805337031755734" lon="8.86360712545269"><ele>309.0</ele><time>2026-03-29T08:22:16Z</time></trkpt><trkpt lat="45.8053766977275" lon="8.863501345200199"><ele>308.2</ele><time>2026-03-29T08:22:17Z</time></trkpt><trkpt lat="45.80539599210104" lon="8.863369907286078"><ele>307.4</ele><time>2026-03-29T08:22:18Z</time></trkpt><trkpt lat="45.80538207140348" lon="8.863252858916251"><ele>306.6</ele><time>2026-03-29T08:22:19Z</time></trkpt><trkpt lat="45.8053822242568" lon="8.863118671636208"><ele>305.8</ele><time>2026-03-29T08:22:20Z</time></trkpt><trkpt lat="45.80540430969551" lon="8.862945172810859"><ele>305.0</ele><time>2026-03-29T08:22:21Z</time></trkpt><trkpt lat="45.8054448839502" lon="8.86275592278491"><ele>305.33333333333337</ele><time>2026-03-29T08:22:22Z</time></trkpt><trkpt lat="45.80551100317661" lon="8.8625728204877"><ele>305.6666666666667</ele><time>2026-03-29T08:22:23Z</time></trkpt><trkpt lat="45.80559595312479" lon="8.862382061275856"><ele>306.0</ele><time>2026-03-29T08:22:24Z</time></trkpt><trkpt lat="45.805703804218076" lon="8.86217610019914"><ele>306.0</ele><time>2026-03-29T08:22:25Z</time></trkpt><trkpt lat="45.8058206267542" lon="8.861942612325675"><ele>306.0</ele><time>2026-03-29T08:22:26Z</time></trkpt><trkpt lat="45.80594794210026" lon="8.861695036869868"><ele>306.0</ele><time>2026-03-29T08:22:27Z</time></trkpt><trkpt lat="45.80607011207936" lon="8.861463426076067"><ele>306.0</ele><time>2026-03-29T08:22:28Z</time></trkpt><trkpt lat="45.80619288742014" lon="8.861232003707988"><ele>306.0</ele><time>2026-03-29T08:22:29Z</time></trkpt><trkpt lat="45.80630774525424" lon="8.861029027257487"><ele>306.0</ele><time>2026-03-29T08:22:30Z</time></trkpt><trkpt lat="45.80641195025951" lon="8.860837873517703"><ele>306.6666666666667</ele><time>2026-03-29T08:22:31Z</time></trkpt><trkpt lat="45.80651339848359" lon="8.860641122534172"><ele>307.33333333333337</ele><time>2026-03-29T08:22:32Z</time></trkpt><trkpt lat="45.80661181661597" lon="8.860460951648248"><ele>308.0</ele><time>2026-03-29T08:22:33Z</time></trkpt><trkpt lat="45.80671241696357" lon="8.860289877609944"><ele>308.0</ele><time>2026-03-29T08:22:34Z</time></trkpt><trkpt lat="45.806814250680695" lon="8.860130890132412"><ele>308.0</ele><time>2026-03-29T08:22:35Z</time></trkpt><trkpt lat="45.80691993222975" lon="8.859981482107973"><ele>308.0</ele><time>2026-03-29T08:22:36Z</time></trkpt><trkpt lat="45.807040353717795" lon="8.859846663900012"><ele>310.6666666666667</ele><time>2026-03-29T08:22:37Z</time></trkpt><trkpt lat="45.80719071618113" lon="8.85975133466522"><ele>313.3333333333333</ele><time>2026-03-29T08:22:38Z</time></trkpt><trkpt lat="45.80733594635643" lon="8.859627053114544"><ele>316.0</ele><time>2026-03-29T08:22:39Z</time></trkpt><trkpt lat="45.8074993263413" lon="8.85954396279051"><ele>316.66666666666663</ele><time>2026-03-29T08:22:40Z</time></trkpt><trkpt lat="45.807676406189344" lon="8.859474281107346"><ele>317.3333333333333</ele><time>2026-03-29T08:22:41Z</time></trkpt><trkpt lat="45.807866468823896" lon="8.859415993606701"><ele>318.0</ele><time>2026-03-29T08:22:42Z</time></trkpt><trkpt lat="45.808052829254336" lon="8.859366024821341"><ele>318.0</ele><time>2026-03-29T08:22:43Z</time></trkpt><trkpt lat="45.80822896273434" lon="8.859301701165103"><ele>318.0</ele><time>2026-03-29T08:22:44Z</time></trkpt><trkpt lat="45.80839790760728" lon="8.859244372916747"><ele>318.0</ele><time>2026-03-29T08:22:45Z</time></trkpt><trkpt lat="45.80856000450135" lon="8.859190343991996"><ele>321.5</ele><time>2026-03-29T08:22:46Z</time></trkpt><trkpt lat="45.80869834206591" lon="8.85912733017594"><ele>325.0</ele><time>2026-03-29T08:22:47Z</time></trkpt><trkpt lat="45.80881101936329" lon="8.85902288041905"><ele>328.5</ele><time>2026-03-29T08:22:48Z</time></trkpt><trkpt lat="45.80888789868395" lon="8.858877422768815"><ele>332.0</ele><time>2026-03-29T08:22:49Z</time></trkpt><trkpt lat="45.80893401519837" lon="8.858698580703493"><ele>332.0</ele><time>2026-03-29T08:22:50Z</time></trkpt><trkpt lat="45.808959921566775" lon="8.858495658811675"><ele>332.0</ele><time>2026-03-29T08:22:51Z</time></trkpt><trkpt lat="45.80897177315892" lon="8.858262556215218"><ele>332.0</ele><time>2026-03-29T08:22:52Z</time></trkpt><trkpt lat="45.80897850171736" lon="8.858014747206571"><ele>333.0</ele><time>2026-03-29T08:22:53Z</time></trkpt><trkpt lat="45.80899247225035" lon="8.857738495454011"><ele>334.0</ele><time>2026-03-29T08:22:54Z</time></trkpt><trkpt lat="45.80901431145939" lon="8.85745359976412"><ele>335.0</ele><time>2026-03-29T08:22:55Z</time></trkpt><trkpt lat="45.80903811975706" lon="8.857178781998135"><ele>335.0</ele><time>2026-03-29T08:22:56Z</time></trkpt><trkpt lat="45.809054569182706" lon="8.856934700646873"><ele>335.0</ele><time>2026-03-29T08:22:57Z</time></trkpt><trkpt lat="45.80906905844908" lon="8.856715694145674"><ele>335.0</ele><time>2026-03-29T08:22:58Z</time></trkpt><trkpt lat="45.809095476830564" lon="8.856507918566916"><ele>338.0</ele><time>2026-03-29T08:22:59Z</time></trkpt><trkpt lat="45.80914537637363" lon="8.856311260900227"><ele>341.0</ele><time>2026-03-29T08:23:00Z</time></trkpt><trkpt lat="45.80924500408529" lon="8.856138175913276"><ele>344.0</ele><time>2026-03-29T08:23:01Z</time></trkpt><trkpt lat="45.80934865895262" lon="8.855943503922456"><ele>345.0</ele><time>2026-03-29T08:23:02Z</time></trkpt><trkpt lat="45.80948013368952" lon="8.855772844577793"><ele>346.0</ele><time>2026-03-29T08:23:03Z</time></trkpt><trkpt lat="45.80960881190098" lon="8.85559211297917"><ele>347.0</ele><time>2026-03-29T08:23:04Z</time></trkpt><trkpt lat="45.80972460360617" lon="8.855413764302856"><ele>347.0</ele><time>2026-03-29T08:23:05Z</time></trkpt><trkpt lat="45.809836587899746" lon="8.85522634193267"><ele>347.0</ele><time>2026-03-29T08:23:06Z</time></trkpt><trkpt lat="45.809934192121524" lon="8.85506271932793"><ele>347.0</ele><time>2026-03-29T08:23:07.001Z</time></trkpt><trkpt lat="45.81002165779878" lon="8.854924871592168"><ele>347.5</ele><time>2026-03-29T08:23:08.001Z</time></trkpt><trkpt lat="45.810100728610266" lon="8.854819072630978"><ele>348.0</ele><time>2026-03-29T08:23:09.001Z</time></trkpt><trkpt lat="45.81018592831113" lon="8.854733999860638"><ele>348.5</ele><time>2026-03-29T08:23:10.001Z</time></trkpt><trkpt lat="45.81031090944463" lon="8.854695143588758"><ele>349.0</ele><time>2026-03-29T08:23:11.001Z</time></trkpt><trkpt lat="45.81043209941906" lon="8.854626109879066"><ele>350.2</ele><time>2026-03-29T08:23:12.001Z</time></trkpt><trkpt lat="45.81054501605575" lon="8.854569609424278"><ele>351.4</ele><time>2026-03-29T08:23:13.001Z</time></trkpt><trkpt lat="45.81064878193274" lon="8.854516594484886"><ele>352.6</ele><time>2026-03-29T08:23:14.001Z</time></trkpt><trkpt lat="45.810749255418955" lon="8.854457488791668"><ele>353.8</ele><time>2026-03-29T08:23:15.001Z</time></trkpt><trkpt lat="45.81085206244461" lon="8.854411307297564"><ele>355.0</ele><time>2026-03-29T08:23:16.001Z</time></trkpt><trkpt lat="45.81094808149268" lon="8.854362504133467"><ele>355.4</ele><time>2026-03-29T08:23:17.001Z</time></trkpt><trkpt lat="45.8110521035708" lon="8.85433721000871"><ele>355.8</ele><time>2026-03-29T08:23:18.001Z</time></trkpt><trkpt lat="45.81116916288275" lon="8.854272681629297"><ele>356.20000000000005</ele><time>2026-03-29T08:23:19.001Z</time></trkpt><trkpt lat="45.81126285056446" lon="8.854202151688668"><ele>356.6</ele><time>2026-03-29T08:23:20.001Z</time></trkpt><trkpt lat="45.81135634522215" lon="8.854157309921952"><ele>357.0</ele><time>2026-03-29T08:23:21.001Z</time></trkpt><trkpt lat="45.81144650052346" lon="8.85411167198069"><ele>358.14285714285717</ele><time>2026-03-29T08:23:22.001Z</time></trkpt><trkpt lat="45.811525160884095" lon="8.854071530044179"><ele>359.2857142857143</ele><time>2026-03-29T08:23:23.001Z</time></trkpt><trkpt lat="45.81159831396122" lon="8.854039296668953"><ele>360.42857142857144</ele><time>2026-03-29T08:23:24.001Z</time></trkpt><trkpt lat="45.81165993179389" lon="8.854003571060343"><ele>361.57142857142856</ele><time>2026-03-29T08:23:25.001Z</time></trkpt><trkpt lat="45.81172075082027" lon="8.853973481117938"><ele>362.7142857142857</ele><time>2026-03-29T08:23:26.001Z</time></trkpt><trkpt lat="45.811788678164476" lon="8.853938673718705"><ele>363.8571428571429</ele><time>2026-03-29T08:23:27Z</time></trkpt><trkpt lat="45.81185950286227" lon="8.853903232338327"><ele>365.0</ele><time>2026-03-29T08:23:28Z</time></trkpt><trkpt lat="45.81192649157616" lon="8.853859087064656"><ele>365.1666666666667</ele><time>2026-03-29T08:23:29Z</time></trkpt><trkpt lat="45.811993396318655" lon="8.853803786544146"><ele>365.33333333333337</ele><time>2026-03-29T08:23:30Z</time></trkpt><trkpt lat="45.8120413515317" lon="8.853728559864573"><ele>365.5</ele><time>2026-03-29T08:23:31Z</time></trkpt><trkpt lat="45.81210154442231" lon="8.853664268575434"><ele>365.6666666666667</ele><time>2026-03-29T08:23:32Z</time></trkpt><trkpt lat="45.812172200771066" lon="8.853575063654539"><ele>365.8333333333333</ele><time>2026-03-29T08:23:33Z</time></trkpt><trkpt lat="45.812249522342505" lon="8.85348072095803"><ele>366.0</ele><time>2026-03-29T08:23:34Z</time></trkpt><trkpt lat="45.81232816171934" lon="8.853388356143018"><ele>366.6</ele><time>2026-03-29T08:23:35Z</time></trkpt><trkpt lat="45.812406945996656" lon="8.853293103680194"><ele>367.20000000000005</ele><time>2026-03-29T08:23:36Z</time></trkpt><trkpt lat="45.81249512491519" lon="8.853186535931584"><ele>367.79999999999995</ele><time>2026-03-29T08:23:37Z</time></trkpt><trkpt lat="45.8125744329396" lon="8.853090936041324"><ele>368.4</ele><time>2026-03-29T08:23:38Z</time></trkpt><trkpt lat="45.812650268955444" lon="8.85298726553236"><ele>369.0</ele><time>2026-03-29T08:23:39Z</time></trkpt><trkpt lat="45.8127208839455" lon="8.852894132179827"><ele>369.5</ele><time>2026-03-29T08:23:40Z</time></trkpt><trkpt lat="45.812798710871895" lon="8.852799411239335"><ele>370.0</ele><time>2026-03-29T08:23:41Z</time></trkpt><trkpt lat="45.81288073860645" lon="8.852685799627029"><ele>370.5</ele><time>2026-03-29T08:23:42Z</time></trkpt><trkpt lat="45.812968548619054" lon="8.852572849965908"><ele>371.0</ele><time>2026-03-29T08:23:43Z</time></trkpt><trkpt lat="45.81305904544373" lon="8.852455584487638"><ele>371.0</ele><time>2026-03-29T08:23:44Z</time></trkpt><trkpt lat="45.813153158931954" lon="8.852339492420374"><ele>371.0</ele><time>2026-03-29T08:23:45Z</time></trkpt><trkpt lat="45.81325810799537" lon="8.852220229591294"><ele>371.0</ele><time>2026-03-29T08:23:46Z</time></trkpt><trkpt lat="45.8133718416537" lon="8.852087002475999"><ele>371.0</ele><time>2026-03-29T08:23:47Z</time></trkpt><trkpt lat="45.81349151613325" lon="8.851935242032706"><ele>372.5</ele><time>2026-03-29T08:23:48Z</time></trkpt><trkpt lat="45.81359982524747" lon="8.85179585952058"><ele>374.0</ele><time>2026-03-29T08:23:49Z</time></trkpt><trkpt lat="45.81370146114649" lon="8.851662664723463"><ele>375.5</ele><time>2026-03-29T08:23:50Z</time></trkpt><trkpt lat="45.813804011116055" lon="8.851529042498955"><ele>377.0</ele><time>2026-03-29T08:23:51Z</time></trkpt><trkpt lat="45.813905101579756" lon="8.85138393460497"><ele>377.0</ele><time>2026-03-29T08:23:52Z</time></trkpt><trkpt lat="45.81398703940467" lon="8.851206265553811"><ele>377.0</ele><time>2026-03-29T08:23:53Z</time></trkpt><trkpt lat="45.81404209000954" lon="8.851006548151767"><ele>377.0</ele><time>2026-03-29T08:23:54Z</time></trkpt><trkpt lat="45.814082362875794" lon="8.85080280470877"><ele>377.0</ele><time>2026-03-29T08:23:55Z</time></trkpt><trkpt lat="45.81413358619334" lon="8.850609693421836"><ele>376.0</ele><time>2026-03-29T08:23:56Z</time></trkpt><trkpt lat="45.81419856974643" lon="8.850441591737054"><ele>375.0</ele><time>2026-03-29T08:23:57Z</time></trkpt><trkpt lat="45.81427912950837" lon="8.850284547441369"><ele>374.0</ele><time>2026-03-29T08:23:58Z</time></trkpt><trkpt lat="45.814366410933545" lon="8.85015778178171"><ele>373.0</ele><time>2026-03-29T08:23:59Z</time></trkpt><trkpt lat="45.814449821061565" lon="8.850043912960622"><ele>372.5</ele><time>2026-03-29T08:24:00Z</time></trkpt><trkpt lat="45.81453233769029" lon="8.849927757530686"><ele>372.0</ele><time>2026-03-29T08:24:01Z</time></trkpt><trkpt lat="45.81461716169336" lon="8.849788119471283"><ele>371.5</ele><time>2026-03-29T08:24:02Z</time></trkpt><trkpt lat="45.814705199513966" lon="8.849652754848517"><ele>371.0</ele><time>2026-03-29T08:24:03Z</time></trkpt><trkpt lat="45.81478933083142" lon="8.849525478460308"><ele>371.0</ele><time>2026-03-29T08:24:04Z</time></trkpt><trkpt lat="45.81487391420912" lon="8.849391315302041"><ele>371.0</ele><time>2026-03-29T08:24:05Z</time></trkpt><trkpt lat="45.81495705083946" lon="8.849256805893575"><ele>371.0</ele><time>2026-03-29T08:24:06Z</time></trkpt><trkpt lat="45.81503607177324" lon="8.849138204991169"><ele>371.0</ele><time>2026-03-29T08:24:07Z</time></trkpt><trkpt lat="45.81509751433659" lon="8.849065730643407"><ele>371.0</ele><time>2026-03-29T08:24:08Z</time></trkpt><trkpt lat="45.815144657060785" lon="8.848979429014234"><ele>371.0</ele><time>2026-03-29T08:24:10Z</time></trkpt><trkpt lat="45.81518811164864" lon="8.848889492186798"><ele>371.0</ele><time>2026-03-29T08:24:42Z</time></trkpt><trkpt lat="45.81527218852879" lon="8.848752762047448"><ele>371.0</ele><time>2026-03-29T08:24:44Z</time></trkpt><trkpt lat="45.81532127650403" lon="8.848671383086813"><ele>371.0</ele><time>2026-03-29T08:24:45Z</time></trkpt><trkpt lat="45.81537627068775" lon="8.848580341944725"><ele>371.0</ele><time>2026-03-29T08:24:46Z</time></trkpt><trkpt lat="45.815429698045776" lon="8.84849230317204"><ele>371.0</ele><time>2026-03-29T08:24:47Z</time></trkpt><trkpt lat="45.81547675039571" lon="8.848415193117544"><ele>371.25</ele><time>2026-03-29T08:24:48Z</time></trkpt><trkpt lat="45.815518622701525" lon="8.848346381846355"><ele>371.5</ele><time>2026-03-29T08:24:49Z</time></trkpt><trkpt lat="45.81556522020568" lon="8.848265652969104"><ele>371.75</ele><time>2026-03-29T08:24:50Z</time></trkpt><trkpt lat="45.81561506623929" lon="8.84817929608623"><ele>372.0</ele><time>2026-03-29T08:24:51Z</time></trkpt><trkpt lat="45.81587663087526" lon="8.84776713828438"><ele>372.0</ele><time>2026-03-29T08:24:53Z</time></trkpt><trkpt lat="45.815928976816075" lon="8.847658651793125"><ele>372.0</ele><time>2026-03-29T08:24:54Z</time></trkpt><trkpt lat="45.816001815888555" lon="8.84754953168539"><ele>372.0</ele><time>2026-03-29T08:24:55Z</time></trkpt><trkpt lat="45.81606559791516" lon="8.84745053483491"><ele>372.0</ele><time>2026-03-29T08:24:56Z</time></trkpt><trkpt lat="45.8161142354086" lon="8.847374262344603"><ele>372.0</ele><time>2026-03-29T08:24:57Z</time></trkpt><trkpt lat="45.81618598276756" lon="8.847261037347026"><ele>372.0</ele><time>2026-03-29T08:24:58Z</time></trkpt><trkpt lat="45.816323933575255" lon="8.847050579581422"><ele>372.0</ele><time>2026-03-29T08:25:00Z</time></trkpt><trkpt lat="45.816387662938624" lon="8.84694789388751"><ele>372.0</ele><time>2026-03-29T08:25:01Z</time></trkpt><trkpt lat="45.81645945269309" lon="8.84683142145857"><ele>372.0</ele><time>2026-03-29T08:25:02Z</time></trkpt><trkpt lat="45.81653815997217" lon="8.84671653903569"><ele>372.0</ele><time>2026-03-29T08:25:03Z</time></trkpt><trkpt lat="45.816603302350515" lon="8.846593635652535"><ele>372.0</ele><time>2026-03-29T08:25:04Z</time></trkpt><trkpt lat="45.81667772524176" lon="8.846480587654533"><ele>372.0</ele><time>2026-03-29T08:25:05Z</time></trkpt><trkpt lat="45.81673720827899" lon="8.84638309140124"><ele>372.0</ele><time>2026-03-29T08:25:06Z</time></trkpt><trkpt lat="45.81679219350505" lon="8.84629429500801"><ele>372.0</ele><time>2026-03-29T08:25:07Z</time></trkpt><trkpt lat="45.816840084139" lon="8.846209657167728"><ele>372.1666666666667</ele><time>2026-03-29T08:25:08Z</time></trkpt><trkpt lat="45.81688919466069" lon="8.846115575382727"><ele>372.3333333333333</ele><time>2026-03-29T08:25:09Z</time></trkpt><trkpt lat="45.81694374988763" lon="8.846034999231952"><ele>372.5</ele><time>2026-03-29T08:25:10Z</time></trkpt><trkpt lat="45.81700803840145" lon="8.845952825350125"><ele>372.66666666666663</ele><time>2026-03-29T08:25:11Z</time></trkpt><trkpt lat="45.817064650553036" lon="8.845865473820028"><ele>372.8333333333333</ele><time>2026-03-29T08:25:11.999Z</time></trkpt><trkpt lat="45.81712305842582" lon="8.845772090136933"><ele>373.0</ele><time>2026-03-29T08:25:13.001Z</time></trkpt><trkpt lat="45.81718373601305" lon="8.845674310031434"><ele>373.2</ele><time>2026-03-29T08:25:14.001Z</time></trkpt><trkpt lat="45.817247358329766" lon="8.845561732812708"><ele>373.4</ele><time>2026-03-29T08:25:15.001Z</time></trkpt><trkpt lat="45.81730665144401" lon="8.845467660104479"><ele>373.59999999999997</ele><time>2026-03-29T08:25:16.001Z</time></trkpt><trkpt lat="45.81737623940612" lon="8.845359177409096"><ele>373.79999999999995</ele><time>2026-03-29T08:25:17.001Z</time></trkpt><trkpt lat="45.81743515364121" lon="8.845252610933933"><ele>374.0</ele><time>2026-03-29T08:25:18.001Z</time></trkpt><trkpt lat="45.81750420318459" lon="8.845148477165248"><ele>374.0</ele><time>2026-03-29T08:25:19.001Z</time></trkpt><trkpt lat="45.817572434852416" lon="8.845039063992227"><ele>374.0</ele><time>2026-03-29T08:25:20.001Z</time></trkpt><trkpt lat="45.81763639343226" lon="8.84493412413125"><ele>374.0</ele><time>2026-03-29T08:25:21.001Z</time></trkpt><trkpt lat="45.81770323398415" lon="8.84483445172407"><ele>374.0</ele><time>2026-03-29T08:25:22.001Z</time></trkpt><trkpt lat="45.817765998058675" lon="8.844745970021485"><ele>374.0</ele><time>2026-03-29T08:25:23.001Z</time></trkpt><trkpt lat="45.817822015618376" lon="8.844662456333195"><ele>374.0</ele><time>2026-03-29T08:25:24.001Z</time></trkpt><trkpt lat="45.81786659215411" lon="8.844592622960327"><ele>374.0</ele><time>2026-03-29T08:25:25Z</time></trkpt><trkpt lat="45.81793925443606" lon="8.844484707294692"><ele>374.0</ele><time>2026-03-29T08:25:27Z</time></trkpt><trkpt lat="45.81804520962971" lon="8.844347746151675"><ele>374.0</ele><time>2026-03-29T08:25:29Z</time></trkpt><trkpt lat="45.81810263620429" lon="8.84426737178651"><ele>374.0</ele><time>2026-03-29T08:25:30Z</time></trkpt><trkpt lat="45.81817788853574" lon="8.844174099823874"><ele>374.2</ele><time>2026-03-29T08:25:31Z</time></trkpt><trkpt lat="45.81823883799233" lon="8.844106612181118"><ele>374.4</ele><time>2026-03-29T08:25:32Z</time></trkpt><trkpt lat="45.81829817991194" lon="8.843991889708812"><ele>374.6</ele><time>2026-03-29T08:25:33Z</time></trkpt><trkpt lat="45.81835415985884" lon="8.843873641906368"><ele>374.8</ele><time>2026-03-29T08:25:34Z</time></trkpt><trkpt lat="45.818403964383826" lon="8.843767682358232"><ele>375.0</ele><time>2026-03-29T08:25:35Z</time></trkpt><trkpt lat="45.818461937252316" lon="8.843646681397411"><ele>375.0</ele><time>2026-03-29T08:25:36Z</time></trkpt><trkpt lat="45.81852534608221" lon="8.843529362800693"><ele>375.0</ele><time>2026-03-29T08:25:37Z</time></trkpt><trkpt lat="45.818584010264914" lon="8.843409864295051"><ele>375.0</ele><time>2026-03-29T08:25:38Z</time></trkpt><trkpt lat="45.81867039658549" lon="8.843282015148633"><ele>375.0</ele><time>2026-03-29T08:25:39Z</time></trkpt><trkpt lat="45.81874190122198" lon="8.843156663230845"><ele>375.0</ele><time>2026-03-29T08:25:40Z</time></trkpt><trkpt lat="45.81881457762072" lon="8.843040242595778"><ele>375.0</ele><time>2026-03-29T08:25:41Z</time></trkpt><trkpt lat="45.818895752523645" lon="8.842915822380458"><ele>375.0</ele><time>2026-03-29T08:25:42Z</time></trkpt><trkpt lat="45.81898367218468" lon="8.842792813004282"><ele>375.0</ele><time>2026-03-29T08:25:43Z</time></trkpt><trkpt lat="45.819054758087276" lon="8.84266929224365"><ele>375.0</ele><time>2026-03-29T08:25:44Z</time></trkpt><trkpt lat="45.81913914698789" lon="8.84253595980566"><ele>375.25</ele><time>2026-03-29T08:25:45Z</time></trkpt><trkpt lat="45.81922496413383" lon="8.842404177667449"><ele>375.5</ele><time>2026-03-29T08:25:46Z</time></trkpt><trkpt lat="45.81930580029007" lon="8.842280156290501"><ele>375.75</ele><time>2026-03-29T08:25:47Z</time></trkpt><trkpt lat="45.81937429627754" lon="8.842153491578491"><ele>376.0</ele><time>2026-03-29T08:25:48Z</time></trkpt><trkpt lat="45.819439660261736" lon="8.842038911451274"><ele>376.16666666666663</ele><time>2026-03-29T08:25:49Z</time></trkpt><trkpt lat="45.81951675862224" lon="8.841940345512928"><ele>376.3333333333333</ele><time>2026-03-29T08:25:50Z</time></trkpt><trkpt lat="45.81957082768345" lon="8.84184157475407"><ele>376.5</ele><time>2026-03-29T08:25:51Z</time></trkpt><trkpt lat="45.81963041873727" lon="8.841750959291"><ele>376.6666666666667</ele><time>2026-03-29T08:25:52Z</time></trkpt><trkpt lat="45.81967680576869" lon="8.841670127678876"><ele>376.83333333333337</ele><time>2026-03-29T08:25:53Z</time></trkpt><trkpt lat="45.81973090766149" lon="8.841578444371502"><ele>377.0</ele><time>2026-03-29T08:25:54Z</time></trkpt><trkpt lat="45.81980919365665" lon="8.84146777160692"><ele>376.99999999999994</ele><time>2026-03-29T08:25:56Z</time></trkpt><trkpt lat="45.81985298691736" lon="8.841393248264971"><ele>377.0</ele><time>2026-03-29T08:25:57Z</time></trkpt><trkpt lat="45.819899099066916" lon="8.841321341437817"><ele>377.0</ele><time>2026-03-29T08:25:58Z</time></trkpt><trkpt lat="45.81994095698826" lon="8.841252227693289"><ele>377.0</ele><time>2026-03-29T08:25:59Z</time></trkpt><trkpt lat="45.81998212819034" lon="8.841175798250676"><ele>377.0</ele><time>2026-03-29T08:26:00Z</time></trkpt><trkpt lat="45.820023306651024" lon="8.8410877055837"><ele>376.99999999999994</ele><time>2026-03-29T08:26:01Z</time></trkpt><trkpt lat="45.82007560506151" lon="8.841000247038611"><ele>377.0</ele><time>2026-03-29T08:26:02Z</time></trkpt><trkpt lat="45.820126483059724" lon="8.840899219485959"><ele>376.6</ele><time>2026-03-29T08:26:03Z</time></trkpt><trkpt lat="45.82017830163885" lon="8.840792695148117"><ele>376.20000000000005</ele><time>2026-03-29T08:26:04Z</time></trkpt><trkpt lat="45.82024907231012" lon="8.840681031044939"><ele>375.8</ele><time>2026-03-29T08:26:05Z</time></trkpt><trkpt lat="45.820329390635074" lon="8.84055507222432"><ele>375.4</ele><time>2026-03-29T08:26:06Z</time></trkpt><trkpt lat="45.820403795389126" lon="8.840434322389545"><ele>375.0</ele><time>2026-03-29T08:26:07Z</time></trkpt><trkpt lat="45.82047336429913" lon="8.840327042584095"><ele>375.0</ele><time>2026-03-29T08:26:08Z</time></trkpt><trkpt lat="45.82054403704981" lon="8.840220748995769"><ele>375.0</ele><time>2026-03-29T08:26:09Z</time></trkpt><trkpt lat="45.82061696639875" lon="8.840100759069474"><ele>375.0</ele><time>2026-03-29T08:26:10Z</time></trkpt><trkpt lat="45.8206915512461" lon="8.839978809222472"><ele>375.0</ele><time>2026-03-29T08:26:11Z</time></trkpt><trkpt lat="45.820769428779094" lon="8.839856788411094"><ele>375.0</ele><time>2026-03-29T08:26:12Z</time></trkpt><trkpt lat="45.82084571168688" lon="8.839744112954111"><ele>375.2</ele><time>2026-03-29T08:26:13Z</time></trkpt><trkpt lat="45.820921417424934" lon="8.8396409483126"><ele>375.4</ele><time>2026-03-29T08:26:14Z</time></trkpt><trkpt lat="45.82099943034777" lon="8.839496563608765"><ele>375.6</ele><time>2026-03-29T08:26:15Z</time></trkpt><trkpt lat="45.8210722178723" lon="8.839389524713624"><ele>375.8</ele><time>2026-03-29T08:26:16Z</time></trkpt><trkpt lat="45.82115383019454" lon="8.839276648103398"><ele>376.0</ele><time>2026-03-29T08:26:17Z</time></trkpt><trkpt lat="45.82122957159035" lon="8.83915951715475"><ele>376.4</ele><time>2026-03-29T08:26:18Z</time></trkpt><trkpt lat="45.82129471645476" lon="8.839033904983411"><ele>376.8</ele><time>2026-03-29T08:26:19Z</time></trkpt><trkpt lat="45.82135181147789" lon="8.838898431747477"><ele>377.2</ele><time>2026-03-29T08:26:20Z</time></trkpt><trkpt lat="45.82143362752147" lon="8.838826152151261"><ele>377.59999999999997</ele><time>2026-03-29T08:26:21Z</time></trkpt><trkpt lat="45.82149909210468" lon="8.83872694445968"><ele>378.0</ele><time>2026-03-29T08:26:22Z</time></trkpt><trkpt lat="45.82156658287351" lon="8.838637932413938"><ele>378.0</ele><time>2026-03-29T08:26:23Z</time></trkpt><trkpt lat="45.821628998908345" lon="8.838522565501616"><ele>378.0</ele><time>2026-03-29T08:26:24Z</time></trkpt><trkpt lat="45.82170551439789" lon="8.838408627044387"><ele>378.0</ele><time>2026-03-29T08:26:25Z</time></trkpt><trkpt lat="45.82178684683445" lon="8.838293926458457"><ele>378.0</ele><time>2026-03-29T08:26:26Z</time></trkpt><trkpt lat="45.8218464084099" lon="8.838174886707883"><ele>378.0</ele><time>2026-03-29T08:26:27Z</time></trkpt><trkpt lat="45.821913102626205" lon="8.838059899540346"><ele>378.2</ele><time>2026-03-29T08:26:28Z</time></trkpt><trkpt lat="45.82198790628049" lon="8.83794170426131"><ele>378.4</ele><time>2026-03-29T08:26:29Z</time></trkpt><trkpt lat="45.82206004074456" lon="8.837819157205338"><ele>378.59999999999997</ele><time>2026-03-29T08:26:30Z</time></trkpt><trkpt lat="45.822135360092396" lon="8.837703047078914"><ele>378.79999999999995</ele><time>2026-03-29T08:26:31Z</time></trkpt><trkpt lat="45.82220786014011" lon="8.83760148694837"><ele>379.0</ele><time>2026-03-29T08:26:32Z</time></trkpt><trkpt lat="45.822277330791664" lon="8.83749484615237"><ele>379.2</ele><time>2026-03-29T08:26:33Z</time></trkpt><trkpt lat="45.822347637320284" lon="8.837381960356403"><ele>379.4</ele><time>2026-03-29T08:26:34Z</time></trkpt><trkpt lat="45.822422552277466" lon="8.837272461307945"><ele>379.6</ele><time>2026-03-29T08:26:35Z</time></trkpt><trkpt lat="45.822504487763894" lon="8.837153263513144"><ele>379.8</ele><time>2026-03-29T08:26:36Z</time></trkpt><trkpt lat="45.82256329601179" lon="8.83705157521911"><ele>380.0</ele><time>2026-03-29T08:26:37Z</time></trkpt><trkpt lat="45.82262467608368" lon="8.836949118675633"><ele>380.0</ele><time>2026-03-29T08:26:38Z</time></trkpt><trkpt lat="45.82265177846357" lon="8.836841715164914"><ele>380.0</ele><time>2026-03-29T08:26:39Z</time></trkpt><trkpt lat="45.822706363600744" lon="8.836677243505054"><ele>380.0</ele><time>2026-03-29T08:26:41Z</time></trkpt><trkpt lat="45.82274017064361" lon="8.836574295171605"><ele>380.0</ele><time>2026-03-29T08:26:44Z</time></trkpt><trkpt lat="45.82274409806955" lon="8.836443663089723"><ele>380.0</ele><time>2026-03-29T08:28:07Z</time></trkpt><trkpt lat="45.82277441642744" lon="8.83634431623252"><ele>380.5</ele><time>2026-03-29T08:28:08Z</time></trkpt><trkpt lat="45.82279880811076" lon="8.836237577138267"><ele>381.0</ele><time>2026-03-29T08:28:09Z</time></trkpt><trkpt lat="45.82283001906609" lon="8.836130954739955"><ele>381.5</ele><time>2026-03-29T08:28:10Z</time></trkpt><trkpt lat="45.82286073199751" lon="8.836017940579767"><ele>382.0</ele><time>2026-03-29T08:28:11Z</time></trkpt><trkpt lat="45.8228647400581" lon="8.835889331170419"><ele>382.5</ele><time>2026-03-29T08:28:12Z</time></trkpt><trkpt lat="45.82285173953918" lon="8.835788319914577"><ele>383.0</ele><time>2026-03-29T08:28:13Z</time></trkpt><trkpt lat="45.822882186104934" lon="8.835694432328358"><ele>383.2</ele><time>2026-03-29T08:28:14Z</time></trkpt><trkpt lat="45.822894259444126" lon="8.83559393932827"><ele>383.4</ele><time>2026-03-29T08:28:15Z</time></trkpt><trkpt lat="45.823062205055564" lon="8.835594163136108"><ele>383.59999999999997</ele><time>2026-03-29T08:28:16Z</time></trkpt><trkpt lat="45.823130163872726" lon="8.835547563280008"><ele>383.79999999999995</ele><time>2026-03-29T08:28:17Z</time></trkpt><trkpt lat="45.82319964976157" lon="8.835504411582365"><ele>384.0</ele><time>2026-03-29T08:28:18Z</time></trkpt><trkpt lat="45.823273735314466" lon="8.83544091092563"><ele>384.0</ele><time>2026-03-29T08:28:19Z</time></trkpt><trkpt lat="45.82337537901606" lon="8.835480745150413"><ele>384.0</ele><time>2026-03-29T08:28:20Z</time></trkpt><trkpt lat="45.823482789292356" lon="8.835468478618607"><ele>384.0</ele><time>2026-03-29T08:28:21Z</time></trkpt><trkpt lat="45.82358329484221" lon="8.83546019510501"><ele>384.0</ele><time>2026-03-29T08:28:22Z</time></trkpt><trkpt lat="45.823681389308675" lon="8.835452460387119"><ele>384.0</ele><time>2026-03-29T08:28:23Z</time></trkpt><trkpt lat="45.82375609405471" lon="8.835446569938476"><ele>383.79999999999995</ele><time>2026-03-29T08:28:24Z</time></trkpt><trkpt lat="45.82383934329786" lon="8.835439106204564"><ele>383.59999999999997</ele><time>2026-03-29T08:28:25Z</time></trkpt><trkpt lat="45.82392577465151" lon="8.835428969194265"><ele>383.4</ele><time>2026-03-29T08:28:26Z</time></trkpt><trkpt lat="45.82401773477542" lon="8.835418183770447"><ele>383.2</ele><time>2026-03-29T08:28:27Z</time></trkpt><trkpt lat="45.824102437643795" lon="8.835407630815757"><ele>383.0</ele><time>2026-03-29T08:28:28Z</time></trkpt><trkpt lat="45.8242366193403" lon="8.835390989586394"><ele>383.25</ele><time>2026-03-29T08:28:29Z</time></trkpt><trkpt lat="45.82435516342143" lon="8.835379581741932"><ele>383.5</ele><time>2026-03-29T08:28:30Z</time></trkpt><trkpt lat="45.824467998941856" lon="8.835372628722421"><ele>383.75</ele><time>2026-03-29T08:28:31Z</time></trkpt><trkpt lat="45.824590534619716" lon="8.835363522620982"><ele>384.0</ele><time>2026-03-29T08:28:32Z</time></trkpt><trkpt lat="45.82471243535456" lon="8.835353664633892"><ele>384.0</ele><time>2026-03-29T08:28:33Z</time></trkpt><trkpt lat="45.82491790671159" lon="8.835335764901306"><ele>384.0</ele><time>2026-03-29T08:28:34Z</time></trkpt><trkpt lat="45.82502546571636" lon="8.835326117462843"><ele>384.0</ele><time>2026-03-29T08:28:34.999Z</time></trkpt><trkpt lat="45.82511078607915" lon="8.835318625531366"><ele>384.0</ele><time>2026-03-29T08:28:35.999Z</time></trkpt><trkpt lat="45.8252529053074" lon="8.835307564651716"><ele>383.5</ele><time>2026-03-29T08:28:36.999Z</time></trkpt><trkpt lat="45.82538560310581" lon="8.835288627998096"><ele>383.0</ele><time>2026-03-29T08:28:37.999Z</time></trkpt><trkpt lat="45.82550226479205" lon="8.83528375582056"><ele>382.5</ele><time>2026-03-29T08:28:38.999Z</time></trkpt><trkpt lat="45.82560767551757" lon="8.835281578740862"><ele>382.0</ele><time>2026-03-29T08:28:39.999Z</time></trkpt><trkpt lat="45.825721799437474" lon="8.835284024231782"><ele>382.0</ele><time>2026-03-29T08:28:40.999Z</time></trkpt><trkpt lat="45.82583200370246" lon="8.835286461368748"><ele>382.0</ele><time>2026-03-29T08:28:41.999Z</time></trkpt><trkpt lat="45.825946168208596" lon="8.83528761171216"><ele>382.0</ele><time>2026-03-29T08:28:42.999Z</time></trkpt><trkpt lat="45.82605605738451" lon="8.835264992150764"><ele>382.0</ele><time>2026-03-29T08:28:43.999Z</time></trkpt><trkpt lat="45.82616859597918" lon="8.835239613871959"><ele>382.0</ele><time>2026-03-29T08:28:44.999Z</time></trkpt><trkpt lat="45.82630081590006" lon="8.835221886516365"><ele>382.25</ele><time>2026-03-29T08:28:45.999Z</time></trkpt><trkpt lat="45.826423963996" lon="8.835206984957681"><ele>382.5</ele><time>2026-03-29T08:28:46.999Z</time></trkpt><trkpt lat="45.826546832307464" lon="8.835209196449581"><ele>382.75</ele><time>2026-03-29T08:28:47.999Z</time></trkpt><trkpt lat="45.826676876157705" lon="8.835188484680552"><ele>383.0</ele><time>2026-03-29T08:28:48.999Z</time></trkpt><trkpt lat="45.82680973777842" lon="8.835169061296178"><ele>383.4</ele><time>2026-03-29T08:28:49.999Z</time></trkpt><trkpt lat="45.82692547611004" lon="8.835156031226207"><ele>383.79999999999995</ele><time>2026-03-29T08:28:50.999Z</time></trkpt><trkpt lat="45.82702750707042" lon="8.835131940651651"><ele>384.2</ele><time>2026-03-29T08:28:51.999Z</time></trkpt><trkpt lat="45.82712178461231" lon="8.835112046868423"><ele>384.6</ele><time>2026-03-29T08:28:52.999Z</time></trkpt><trkpt lat="45.82721682053844" lon="8.835098696854711"><ele>385.0</ele><time>2026-03-29T08:28:53.999Z</time></trkpt><trkpt lat="45.82731311423978" lon="8.835134421840788"><ele>385.6</ele><time>2026-03-29T08:28:54.999Z</time></trkpt><trkpt lat="45.82740628130103" lon="8.835125346967255"><ele>386.2</ele><time>2026-03-29T08:28:55.999Z</time></trkpt><trkpt lat="45.82748899472696" lon="8.8350975861907"><ele>386.79999999999995</ele><time>2026-03-29T08:28:56.999Z</time></trkpt><trkpt lat="45.82758434755266" lon="8.835097203525082"><ele>387.4</ele><time>2026-03-29T08:28:57.999Z</time></trkpt><trkpt lat="45.827676405262295" lon="8.83509509439582"><ele>388.0</ele><time>2026-03-29T08:28:58.999Z</time></trkpt><trkpt lat="45.82777618435728" lon="8.835103063306653"><ele>388.2</ele><time>2026-03-29T08:28:59.999Z</time></trkpt><trkpt lat="45.82786659113939" lon="8.835100951930789"><ele>388.4</ele><time>2026-03-29T08:29:00.999Z</time></trkpt><trkpt lat="45.827973139281596" lon="8.835087935947374"><ele>388.59999999999997</ele><time>2026-03-29T08:29:01.999Z</time></trkpt><trkpt lat="45.82807186366138" lon="8.835073571416716"><ele>388.79999999999995</ele><time>2026-03-29T08:29:02.999Z</time></trkpt><trkpt lat="45.828168687356765" lon="8.835054660899521"><ele>389.0</ele><time>2026-03-29T08:29:03.999Z</time></trkpt><trkpt lat="45.82826417102548" lon="8.835030742945749"><ele>389.0</ele><time>2026-03-29T08:29:04.999Z</time></trkpt><trkpt lat="45.82836025833113" lon="8.83501249710975"><ele>389.0</ele><time>2026-03-29T08:29:05.999Z</time></trkpt><trkpt lat="45.82845475480919" lon="8.835000430621507"><ele>389.0</ele><time>2026-03-29T08:29:06.999Z</time></trkpt><trkpt lat="45.828547344850236" lon="8.834985645224469"><ele>389.0</ele><time>2026-03-29T08:29:07.999Z</time></trkpt><trkpt lat="45.82863745491759" lon="8.8349750480789"><ele>389.0</ele><time>2026-03-29T08:29:08.999Z</time></trkpt><trkpt lat="45.82873562756105" lon="8.834965246454571"><ele>389.0</ele><time>2026-03-29T08:29:09.999Z</time></trkpt><trkpt lat="45.82883009660353" lon="8.834952970663783"><ele>389.0</ele><time>2026-03-29T08:29:10.999Z</time></trkpt><trkpt lat="45.82893539548232" lon="8.834960527561657"><ele>389.0</ele><time>2026-03-29T08:29:11.999Z</time></trkpt><trkpt lat="45.82902969513416" lon="8.834948489301492"><ele>389.0</ele><time>2026-03-29T08:29:12.999Z</time></trkpt><trkpt lat="45.82911955854624" lon="8.834921586020709"><ele>389.0</ele><time>2026-03-29T08:29:13.999Z</time></trkpt><trkpt lat="45.82919975038955" lon="8.834905934896554"><ele>389.0</ele><time>2026-03-29T08:29:14.999Z</time></trkpt><trkpt lat="45.8292874726367" lon="8.834898435934294"><ele>389.0</ele><time>2026-03-29T08:29:15.999Z</time></trkpt><trkpt lat="45.82938538014875" lon="8.834894329150583"><ele>389.0</ele><time>2026-03-29T08:29:16.999Z</time></trkpt><trkpt lat="45.829477368238116" lon="8.8348795995794"><ele>389.0</ele><time>2026-03-29T08:29:17.999Z</time></trkpt><trkpt lat="45.82957089872532" lon="8.834882853348514"><ele>389.0</ele><time>2026-03-29T08:29:18.999Z</time></trkpt><trkpt lat="45.829666778041556" lon="8.834871712443052"><ele>389.16666666666663</ele><time>2026-03-29T08:29:19.999Z</time></trkpt><trkpt lat="45.82974862365014" lon="8.834862202207114"><ele>389.3333333333333</ele><time>2026-03-29T08:29:20.999Z</time></trkpt><trkpt lat="45.829835918375295" lon="8.834852058914073"><ele>389.5</ele><time>2026-03-29T08:29:21.999Z</time></trkpt><trkpt lat="45.829919024816064" lon="8.834842438262443"><ele>389.66666666666663</ele><time>2026-03-29T08:29:22.999Z</time></trkpt><trkpt lat="45.82999516671984" lon="8.834833612668067"><ele>389.8333333333333</ele><time>2026-03-29T08:29:23.999Z</time></trkpt><trkpt lat="45.83006197851923" lon="8.834825868537681"><ele>390.0</ele><time>2026-03-29T08:29:25Z</time></trkpt><trkpt lat="45.83017401587578" lon="8.834812882371258"><ele>390.0</ele><time>2026-03-29T08:29:27Z</time></trkpt><trkpt lat="45.8302390896442" lon="8.834805485510259"><ele>390.0</ele><time>2026-03-29T08:29:28Z</time></trkpt><trkpt lat="45.83031116226992" lon="8.83479725234976"><ele>390.0</ele><time>2026-03-29T08:29:29Z</time></trkpt><trkpt lat="45.83038410269598" lon="8.834769605604954"><ele>390.0</ele><time>2026-03-29T08:29:30Z</time></trkpt><trkpt lat="45.83049184846306" lon="8.834768182027018"><ele>390.0</ele><time>2026-03-29T08:29:32Z</time></trkpt><trkpt lat="45.83059967355901" lon="8.834836892822748"><ele>390.0</ele><time>2026-03-29T08:29:34Z</time></trkpt><trkpt lat="45.83069040535515" lon="8.834802723455134"><ele>390.0</ele><time>2026-03-29T08:29:36Z</time></trkpt><trkpt lat="45.83070691395066" lon="8.834626357016008"><ele>390.0</ele><time>2026-03-29T08:29:38Z</time></trkpt><trkpt lat="45.83067055529253" lon="8.834544548068754"><ele>390.0</ele><time>2026-03-29T08:29:39Z</time></trkpt><trkpt lat="45.83063051937249" lon="8.834462724808278"><ele>390.0</ele><time>2026-03-29T08:29:40Z</time></trkpt><trkpt lat="45.830610966799185" lon="8.834359620680925"><ele>390.0</ele><time>2026-03-29T08:29:41Z</time></trkpt><trkpt lat="45.83060872307986" lon="8.834222451255245"><ele>390.0</ele><time>2026-03-29T08:29:42Z</time></trkpt><trkpt lat="45.83060554526059" lon="8.834083815314454"><ele>390.0</ele><time>2026-03-29T08:29:43Z</time></trkpt><trkpt lat="45.83059921177503" lon="8.833950162124395"><ele>390.0</ele><time>2026-03-29T08:29:44Z</time></trkpt><trkpt lat="45.83059010510609" lon="8.833813331841975"><ele>390.0</ele><time>2026-03-29T08:29:45Z</time></trkpt><trkpt lat="45.83058504399582" lon="8.833676424103631"><ele>390.0</ele><time>2026-03-29T08:29:46Z</time></trkpt><trkpt lat="45.83057783102297" lon="8.833541540254087"><ele>390.0</ele><time>2026-03-29T08:29:47Z</time></trkpt><trkpt lat="45.830571907081875" lon="8.833401152769731"><ele>390.2</ele><time>2026-03-29T08:29:48Z</time></trkpt><trkpt lat="45.830566737422636" lon="8.833249790111946"><ele>390.4</ele><time>2026-03-29T08:29:49Z</time></trkpt><trkpt lat="45.83056651473176" lon="8.833104509349072"><ele>390.6</ele><time>2026-03-29T08:29:50Z</time></trkpt><trkpt lat="45.83056409534103" lon="8.832956959994023"><ele>390.8</ele><time>2026-03-29T08:29:51Z</time></trkpt><trkpt lat="45.830556475452866" lon="8.832807940275769"><ele>391.0</ele><time>2026-03-29T08:29:52Z</time></trkpt><trkpt lat="45.8305504892072" lon="8.832657718428843"><ele>391.20000000000005</ele><time>2026-03-29T08:29:53Z</time></trkpt><trkpt lat="45.83054625560154" lon="8.832517854336105"><ele>391.40000000000003</ele><time>2026-03-29T08:29:54Z</time></trkpt><trkpt lat="45.830540124233785" lon="8.832373875388122"><ele>391.6</ele><time>2026-03-29T08:29:55Z</time></trkpt><trkpt lat="45.830531840130554" lon="8.83222703673958"><ele>391.8</ele><time>2026-03-29T08:29:56Z</time></trkpt><trkpt lat="45.830524951161266" lon="8.832077762433425"><ele>392.0</ele><time>2026-03-29T08:29:57Z</time></trkpt><trkpt lat="45.83052238232394" lon="8.831925516538476"><ele>392.20000000000005</ele><time>2026-03-29T08:29:58Z</time></trkpt><trkpt lat="45.83051349081736" lon="8.831772264271383"><ele>392.4</ele><time>2026-03-29T08:29:59Z</time></trkpt><trkpt lat="45.83051000952588" lon="8.831610351642341"><ele>392.6</ele><time>2026-03-29T08:30:00Z</time></trkpt><trkpt lat="45.830505192489454" lon="8.831448737677707"><ele>392.79999999999995</ele><time>2026-03-29T08:30:01Z</time></trkpt><trkpt lat="45.830502450257335" lon="8.831288960795293"><ele>393.0</ele><time>2026-03-29T08:30:02Z</time></trkpt><trkpt lat="45.83049551505051" lon="8.83112862953553"><ele>393.5</ele><time>2026-03-29T08:30:03Z</time></trkpt><trkpt lat="45.83048802561352" lon="8.830969944045416"><ele>394.0</ele><time>2026-03-29T08:30:04Z</time></trkpt><trkpt lat="45.830481922339224" lon="8.83081425412935"><ele>394.5</ele><time>2026-03-29T08:30:05Z</time></trkpt><trkpt lat="45.83048662866118" lon="8.830641270638521"><ele>395.0</ele><time>2026-03-29T08:30:06Z</time></trkpt><trkpt lat="45.830465796259865" lon="8.83045607602622"><ele>395.0</ele><time>2026-03-29T08:30:07Z</time></trkpt><trkpt lat="45.830460518456206" lon="8.83029994492218"><ele>395.0</ele><time>2026-03-29T08:30:08Z</time></trkpt><trkpt lat="45.8304550833049" lon="8.830137114334034"><ele>395.0</ele><time>2026-03-29T08:30:09Z</time></trkpt><trkpt lat="45.83044663362698" lon="8.829973776290869"><ele>395.0</ele><time>2026-03-29T08:30:10Z</time></trkpt><trkpt lat="45.830445577659326" lon="8.829808463476466"><ele>395.4</ele><time>2026-03-29T08:30:11Z</time></trkpt><trkpt lat="45.83044030014239" lon="8.82966501944341"><ele>395.8</ele><time>2026-03-29T08:30:12Z</time></trkpt><trkpt lat="45.83043358428399" lon="8.829520340129978"><ele>396.20000000000005</ele><time>2026-03-29T08:30:13Z</time></trkpt><trkpt lat="45.83042745439978" lon="8.82937488989378"><ele>396.6</ele><time>2026-03-29T08:30:14Z</time></trkpt><trkpt lat="45.830420352806875" lon="8.829218970463977"><ele>397.0</ele><time>2026-03-29T08:30:15Z</time></trkpt><trkpt lat="45.830416913672565" lon="8.829049284500142"><ele>397.25</ele><time>2026-03-29T08:30:16Z</time></trkpt><trkpt lat="45.830401239766864" lon="8.828856709862402"><ele>397.5</ele><time>2026-03-29T08:30:17Z</time></trkpt><trkpt lat="45.83039643832369" lon="8.828642528215921"><ele>397.75</ele><time>2026-03-29T08:30:18Z</time></trkpt><trkpt lat="45.830398288804204" lon="8.82841243502922"><ele>398.0</ele><time>2026-03-29T08:30:19Z</time></trkpt><trkpt lat="45.830381683486934" lon="8.828168528303328"><ele>399.0</ele><time>2026-03-29T08:30:20Z</time></trkpt><trkpt lat="45.830374142388955" lon="8.827931852403685"><ele>400.0</ele><time>2026-03-29T08:30:21Z</time></trkpt><trkpt lat="45.83036894727889" lon="8.827690561059297"><ele>401.0</ele><time>2026-03-29T08:30:22Z</time></trkpt><trkpt lat="45.830358776781374" lon="8.827452147321857"><ele>401.0</ele><time>2026-03-29T08:30:23Z</time></trkpt><trkpt lat="45.83034694344697" lon="8.827230882274398"><ele>401.0</ele><time>2026-03-29T08:30:24Z</time></trkpt><trkpt lat="45.83033339543059" lon="8.826997032493491"><ele>401.0</ele><time>2026-03-29T08:30:25Z</time></trkpt><trkpt lat="45.83033120379007" lon="8.826792841852798"><ele>401.5</ele><time>2026-03-29T08:30:26Z</time></trkpt><trkpt lat="45.830331442925946" lon="8.826609611314497"><ele>402.0</ele><time>2026-03-29T08:30:27Z</time></trkpt><trkpt lat="45.83031843249376" lon="8.826412829024617"><ele>402.5</ele><time>2026-03-29T08:30:28Z</time></trkpt><trkpt lat="45.83031438142734" lon="8.8262132845375"><ele>403.0</ele><time>2026-03-29T08:30:29Z</time></trkpt><trkpt lat="45.830307330662485" lon="8.826001619234798"><ele>402.75</ele><time>2026-03-29T08:30:30Z</time></trkpt><trkpt lat="45.8303024497944" lon="8.825807264908718"><ele>402.5</ele><time>2026-03-29T08:30:30.999Z</time></trkpt><trkpt lat="45.8302947408358" lon="8.82562922046292"><ele>402.25</ele><time>2026-03-29T08:30:31.999Z</time></trkpt><trkpt lat="45.83028989036248" lon="8.825470674269122"><ele>402.0</ele><time>2026-03-29T08:30:32.999Z</time></trkpt><trkpt lat="45.830274402705136" lon="8.825321921707657"><ele>402.0</ele><time>2026-03-29T08:30:33.999Z</time></trkpt><trkpt lat="45.83024499964203" lon="8.825173995321808"><ele>402.0</ele><time>2026-03-29T08:30:34.999Z</time></trkpt><trkpt lat="45.83018012754525" lon="8.825015665279905"><ele>402.0</ele><time>2026-03-29T08:30:35.999Z</time></trkpt><trkpt lat="45.83008578580756" lon="8.824867461840327"><ele>402.0</ele><time>2026-03-29T08:30:36.999Z</time></trkpt><trkpt lat="45.82998304090376" lon="8.8247432017694"><ele>403.0</ele><time>2026-03-29T08:30:37.999Z</time></trkpt><trkpt lat="45.82989580619248" lon="8.8246238464069"><ele>404.0</ele><time>2026-03-29T08:30:38.999Z</time></trkpt><trkpt lat="45.82981977122046" lon="8.82450323010123"><ele>405.0</ele><time>2026-03-29T08:30:39.999Z</time></trkpt><trkpt lat="45.82975389896525" lon="8.824390650566155"><ele>406.0</ele><time>2026-03-29T08:30:40.999Z</time></trkpt><trkpt lat="45.82969191253491" lon="8.82428788232551"><ele>407.0</ele><time>2026-03-29T08:30:41.999Z</time></trkpt><trkpt lat="45.82963270054713" lon="8.824193273843566"><ele>406.99999999999994</ele><time>2026-03-29T08:30:42.999Z</time></trkpt><trkpt lat="45.829580276074076" lon="8.824101294959746"><ele>407.0</ele><time>2026-03-29T08:30:43.999Z</time></trkpt><trkpt lat="45.82953078730292" lon="8.824028887115063"><ele>407.0</ele><time>2026-03-29T08:30:44.999Z</time></trkpt><trkpt lat="45.82947341137958" lon="8.823941845069626"><ele>407.0</ele><time>2026-03-29T08:30:46.999Z</time></trkpt><trkpt lat="45.82941049094987" lon="8.823869757535682"><ele>406.99999999999994</ele><time>2026-03-29T08:31:14.999Z</time></trkpt><trkpt lat="45.829360664437495" lon="8.823794141459132"><ele>407.0</ele><time>2026-03-29T08:31:16.999Z</time></trkpt><trkpt lat="45.82935792103682" lon="8.823674539629247"><ele>407.0</ele><time>2026-03-29T08:31:18.999Z</time></trkpt><trkpt lat="45.829495911472215" lon="8.82361651930169"><ele>407.0</ele><time>2026-03-29T08:31:20.999Z</time></trkpt><trkpt lat="45.82958880440781" lon="8.823614396588326"><ele>407.0</ele><time>2026-03-29T08:31:21.999Z</time></trkpt><trkpt lat="45.82967969192929" lon="8.823593295646031"><ele>407.0</ele><time>2026-03-29T08:31:22.999Z</time></trkpt><trkpt lat="45.8297748643923" lon="8.823569471959935"><ele>407.0</ele><time>2026-03-29T08:31:23.999Z</time></trkpt><trkpt lat="45.82989080896591" lon="8.823531901271792"><ele>407.0</ele><time>2026-03-29T08:31:24.999Z</time></trkpt><trkpt lat="45.83000483498577" lon="8.823506904988601"><ele>407.0</ele><time>2026-03-29T08:31:25.999Z</time></trkpt><trkpt lat="45.830128159379164" lon="8.8234781614547"><ele>407.0</ele><time>2026-03-29T08:31:26.999Z</time></trkpt><trkpt lat="45.83025321480341" lon="8.823451567432182"><ele>407.0</ele><time>2026-03-29T08:31:27.999Z</time></trkpt><trkpt lat="45.83037382972195" lon="8.823434594078"><ele>408.25</ele><time>2026-03-29T08:31:28.999Z</time></trkpt><trkpt lat="45.83049294932536" lon="8.82340517046908"><ele>409.5</ele><time>2026-03-29T08:31:29.999Z</time></trkpt><trkpt lat="45.83060720629019" lon="8.823383870413446"><ele>410.75</ele><time>2026-03-29T08:31:31Z</time></trkpt><trkpt lat="45.83072413882283" lon="8.823368726715628"><ele>412.0</ele><time>2026-03-29T08:31:32Z</time></trkpt><trkpt lat="45.83084228580879" lon="8.823344512730834"><ele>412.0</ele><time>2026-03-29T08:31:33Z</time></trkpt><trkpt lat="45.83095820023321" lon="8.823319102578576"><ele>412.0</ele><time>2026-03-29T08:31:34Z</time></trkpt><trkpt lat="45.8310479006011" lon="8.823235066318492"><ele>412.0</ele><time>2026-03-29T08:31:35Z</time></trkpt><trkpt lat="45.83116600455178" lon="8.823200704202101"><ele>412.0</ele><time>2026-03-29T08:31:36Z</time></trkpt><trkpt lat="45.83128421475322" lon="8.82312643067549"><ele>412.25</ele><time>2026-03-29T08:31:37Z</time></trkpt><trkpt lat="45.831405241568326" lon="8.823072608035034"><ele>412.5</ele><time>2026-03-29T08:31:38Z</time></trkpt><trkpt lat="45.831506011243576" lon="8.82296524320739"><ele>412.75</ele><time>2026-03-29T08:31:39Z</time></trkpt><trkpt lat="45.83161772752715" lon="8.822868579007924"><ele>413.0</ele><time>2026-03-29T08:31:40Z</time></trkpt><trkpt lat="45.831717170534446" lon="8.822754607828879"><ele>412.75</ele><time>2026-03-29T08:31:41Z</time></trkpt><trkpt lat="45.83181387519598" lon="8.822641243381096"><ele>412.5</ele><time>2026-03-29T08:31:42Z</time></trkpt><trkpt lat="45.8319100506348" lon="8.822526628577283"><ele>412.25</ele><time>2026-03-29T08:31:43Z</time></trkpt><trkpt lat="45.83200542608741" lon="8.822411116325808"><ele>412.0</ele><time>2026-03-29T08:31:44Z</time></trkpt><trkpt lat="45.83210180585703" lon="8.82229351158422"><ele>412.0</ele><time>2026-03-29T08:31:45Z</time></trkpt><trkpt lat="45.832202477722475" lon="8.822176918427987"><ele>412.0</ele><time>2026-03-29T08:31:46Z</time></trkpt><trkpt lat="45.832302391732554" lon="8.82205505326395"><ele>412.0</ele><time>2026-03-29T08:31:47Z</time></trkpt><trkpt lat="45.832407865381704" lon="8.821930798621219"><ele>412.0</ele><time>2026-03-29T08:31:48Z</time></trkpt><trkpt lat="45.83252054964904" lon="8.82180529882193"><ele>412.25</ele><time>2026-03-29T08:31:49Z</time></trkpt><trkpt lat="45.83263439785444" lon="8.821673293826901"><ele>412.5</ele><time>2026-03-29T08:31:50Z</time></trkpt><trkpt lat="45.83274221851678" lon="8.821545840482047"><ele>412.75</ele><time>2026-03-29T08:31:51Z</time></trkpt><trkpt lat="45.832850477350725" lon="8.821414589775499"><ele>413.0</ele><time>2026-03-29T08:31:52Z</time></trkpt><trkpt lat="45.83295474016912" lon="8.82128193170968"><ele>413.0</ele><time>2026-03-29T08:31:53Z</time></trkpt><trkpt lat="45.833067258774065" lon="8.82115348543064"><ele>413.0</ele><time>2026-03-29T08:31:54Z</time></trkpt><trkpt lat="45.833173361834476" lon="8.821034123220484"><ele>413.0</ele><time>2026-03-29T08:31:55Z</time></trkpt><trkpt lat="45.833273931620056" lon="8.820917116792717"><ele>413.0</ele><time>2026-03-29T08:31:56Z</time></trkpt><trkpt lat="45.833375336770665" lon="8.820794728413167"><ele>412.75</ele><time>2026-03-29T08:31:57Z</time></trkpt><trkpt lat="45.8334772471775" lon="8.820676947860086"><ele>412.5</ele><time>2026-03-29T08:31:58Z</time></trkpt><trkpt lat="45.8335764935771" lon="8.820557385891465"><ele>412.25</ele><time>2026-03-29T08:31:59Z</time></trkpt><trkpt lat="45.833675384896935" lon="8.820435460142994"><ele>412.0</ele><time>2026-03-29T08:32:00Z</time></trkpt><trkpt lat="45.8337794187236" lon="8.820317868287992"><ele>412.0</ele><time>2026-03-29T08:32:01Z</time></trkpt><trkpt lat="45.83388341382407" lon="8.820196135542869"><ele>412.0</ele><time>2026-03-29T08:32:02Z</time></trkpt><trkpt lat="45.83398702378991" lon="8.82007298588647"><ele>412.0</ele><time>2026-03-29T08:32:03Z</time></trkpt><trkpt lat="45.83409843526345" lon="8.819941128571275"><ele>412.0</ele><time>2026-03-29T08:32:04Z</time></trkpt><trkpt lat="45.83421056459578" lon="8.81981010247537"><ele>413.33333333333337</ele><time>2026-03-29T08:32:05Z</time></trkpt><trkpt lat="45.83432832804809" lon="8.819659748931507"><ele>414.66666666666663</ele><time>2026-03-29T08:32:06Z</time></trkpt><trkpt lat="45.83444763510096" lon="8.819520261703229"><ele>416.0</ele><time>2026-03-29T08:32:07Z</time></trkpt><trkpt lat="45.83456440571101" lon="8.819378990740978"><ele>416.75</ele><time>2026-03-29T08:32:08Z</time></trkpt><trkpt lat="45.83468292474326" lon="8.819247510112667"><ele>417.5</ele><time>2026-03-29T08:32:09Z</time></trkpt><trkpt lat="45.8347953499119" lon="8.819112070865717"><ele>418.25</ele><time>2026-03-29T08:32:10Z</time></trkpt><trkpt lat="45.83490683050845" lon="8.818978303323222"><ele>419.0</ele><time>2026-03-29T08:32:11Z</time></trkpt><trkpt lat="45.835022531686526" lon="8.81885636420958"><ele>419.0</ele><time>2026-03-29T08:32:12Z</time></trkpt><trkpt lat="45.8351288930602" lon="8.81873138254511"><ele>419.0</ele><time>2026-03-29T08:32:13Z</time></trkpt><trkpt lat="45.835238382769184" lon="8.8186028751729"><ele>419.0</ele><time>2026-03-29T08:32:14Z</time></trkpt><trkpt lat="45.835347992591345" lon="8.818467332361973"><ele>419.0</ele><time>2026-03-29T08:32:15Z</time></trkpt><trkpt lat="45.83545784591823" lon="8.81834674521915"><ele>419.5</ele><time>2026-03-29T08:32:16Z</time></trkpt><trkpt lat="45.83556631933896" lon="8.81822610896725"><ele>420.0</ele><time>2026-03-29T08:32:17Z</time></trkpt><trkpt lat="45.835674655027105" lon="8.818107511974807"><ele>420.5</ele><time>2026-03-29T08:32:18Z</time></trkpt><trkpt lat="45.835795337174716" lon="8.817946694780051"><ele>421.0</ele><time>2026-03-29T08:32:19Z</time></trkpt><trkpt lat="45.83590814387423" lon="8.817825620702935"><ele>421.0</ele><time>2026-03-29T08:32:20Z</time></trkpt><trkpt lat="45.836020348985215" lon="8.817693479073252"><ele>421.0</ele><time>2026-03-29T08:32:21Z</time></trkpt><trkpt lat="45.83612947617567" lon="8.817552678415147"><ele>421.0</ele><time>2026-03-29T08:32:22Z</time></trkpt><trkpt lat="45.836240307107026" lon="8.817413605194663"><ele>421.0</ele><time>2026-03-29T08:32:23Z</time></trkpt><trkpt lat="45.83635058530082" lon="8.817282385218222"><ele>421.0</ele><time>2026-03-29T08:32:24Z</time></trkpt><trkpt lat="45.83645270835827" lon="8.817170791046776"><ele>421.0</ele><time>2026-03-29T08:32:25Z</time></trkpt><trkpt lat="45.83657103583579" lon="8.817033409006047"><ele>421.0</ele><time>2026-03-29T08:32:26Z</time></trkpt><trkpt lat="45.83666608618407" lon="8.816920821352365"><ele>421.0</ele><time>2026-03-29T08:32:27Z</time></trkpt><trkpt lat="45.83675965859235" lon="8.816814072674646"><ele>421.0</ele><time>2026-03-29T08:32:28Z</time></trkpt><trkpt lat="45.83683635523183" lon="8.816729567700264"><ele>421.0</ele><time>2026-03-29T08:32:29Z</time></trkpt><trkpt lat="45.83689233352233" lon="8.816658010270311"><ele>421.0</ele><time>2026-03-29T08:32:30Z</time></trkpt><trkpt lat="45.836952016070896" lon="8.81659321543306"><ele>421.0</ele><time>2026-03-29T08:32:31Z</time></trkpt><trkpt lat="45.83704857608772" lon="8.81647189565794"><ele>421.0</ele><time>2026-03-29T08:32:32.999Z</time></trkpt><trkpt lat="45.837104971064925" lon="8.81639919113307"><ele>421.00000000000006</ele><time>2026-03-29T08:32:33.999Z</time></trkpt><trkpt lat="45.83715800007455" lon="8.816337969742223"><ele>421.0</ele><time>2026-03-29T08:32:34.999Z</time></trkpt><trkpt lat="45.83721079727629" lon="8.816270761866905"><ele>421.0</ele><time>2026-03-29T08:32:35.999Z</time></trkpt><trkpt lat="45.837266605789594" lon="8.816213339080141"><ele>421.0</ele><time>2026-03-29T08:32:36.999Z</time></trkpt><trkpt lat="45.837326476334106" lon="8.816149758970633"><ele>421.00000000000006</ele><time>2026-03-29T08:32:37.999Z</time></trkpt><trkpt lat="45.837397250288426" lon="8.816073484152263"><ele>421.0</ele><time>2026-03-29T08:32:38.999Z</time></trkpt><trkpt lat="45.837469742124625" lon="8.81599648094728"><ele>421.20000000000005</ele><time>2026-03-29T08:32:39.999Z</time></trkpt><trkpt lat="45.83753648613465" lon="8.81590580326798"><ele>421.40000000000003</ele><time>2026-03-29T08:32:40.999Z</time></trkpt><trkpt lat="45.837608658910064" lon="8.815828541086981"><ele>421.6</ele><time>2026-03-29T08:32:41.999Z</time></trkpt><trkpt lat="45.83769065372832" lon="8.815747735015567"><ele>421.8</ele><time>2026-03-29T08:32:42.999Z</time></trkpt><trkpt lat="45.83777546763902" lon="8.815650304233534"><ele>422.0</ele><time>2026-03-29T08:32:43.999Z</time></trkpt><trkpt lat="45.83784366552004" lon="8.815542915893042"><ele>422.20000000000005</ele><time>2026-03-29T08:32:44.999Z</time></trkpt><trkpt lat="45.837920863416855" lon="8.815441859873005"><ele>422.4</ele><time>2026-03-29T08:32:45.999Z</time></trkpt><trkpt lat="45.83800374738769" lon="8.815343060662514"><ele>422.6</ele><time>2026-03-29T08:32:46.999Z</time></trkpt><trkpt lat="45.838080320289386" lon="8.815254085704913"><ele>422.79999999999995</ele><time>2026-03-29T08:32:47.999Z</time></trkpt><trkpt lat="45.838160449497956" lon="8.815168380184332"><ele>423.0</ele><time>2026-03-29T08:32:48.999Z</time></trkpt><trkpt lat="45.83823581744997" lon="8.815097828673705"><ele>423.0</ele><time>2026-03-29T08:32:49.999Z</time></trkpt><trkpt lat="45.8383017598209" lon="8.815009060239744"><ele>423.0</ele><time>2026-03-29T08:32:50.999Z</time></trkpt><trkpt lat="45.838373789057705" lon="8.814917998633176"><ele>423.0</ele><time>2026-03-29T08:32:51.999Z</time></trkpt><trkpt lat="45.838444209932554" lon="8.81483690299409"><ele>423.0</ele><time>2026-03-29T08:32:52.999Z</time></trkpt><trkpt lat="45.83850919267666" lon="8.814757993762766"><ele>423.0</ele><time>2026-03-29T08:32:53.999Z</time></trkpt><trkpt lat="45.83857078136525" lon="8.814675132366471"><ele>423.0</ele><time>2026-03-29T08:32:54.999Z</time></trkpt><trkpt lat="45.838623739712" lon="8.814565525985397"><ele>425.8333333333333</ele><time>2026-03-29T08:32:55.999Z</time></trkpt><trkpt lat="45.838669821741284" lon="8.814456348178672"><ele>428.66666666666663</ele><time>2026-03-29T08:32:56.999Z</time></trkpt><trkpt lat="45.83870025671916" lon="8.814350487183146"><ele>431.5</ele><time>2026-03-29T08:32:57.999Z</time></trkpt><trkpt lat="45.838730027133785" lon="8.814231461892959"><ele>434.3333333333333</ele><time>2026-03-29T08:32:58.999Z</time></trkpt><trkpt lat="45.83875122854483" lon="8.814125623174597"><ele>437.16666666666663</ele><time>2026-03-29T08:32:59.999Z</time></trkpt><trkpt lat="45.838766356620305" lon="8.814026219165902"><ele>440.0</ele><time>2026-03-29T08:33:00.999Z</time></trkpt><trkpt lat="45.83877296071617" lon="8.81391265145169"><ele>440.99999999999994</ele><time>2026-03-29T08:33:01.999Z</time></trkpt><trkpt lat="45.83878187944098" lon="8.813816981667662"><ele>442.0</ele><time>2026-03-29T08:33:02.999Z</time></trkpt><trkpt lat="45.83879380421486" lon="8.813726055935556"><ele>443.0</ele><time>2026-03-29T08:33:03.999Z</time></trkpt><trkpt lat="45.83880396198336" lon="8.81361966686622"><ele>444.0</ele><time>2026-03-29T08:33:04.999Z</time></trkpt><trkpt lat="45.83881667378648" lon="8.81351078066833"><ele>444.99999999999994</ele><time>2026-03-29T08:33:05.999Z</time></trkpt><trkpt lat="45.838819705010174" lon="8.81339399300858"><ele>446.0</ele><time>2026-03-29T08:33:06.999Z</time></trkpt><trkpt lat="45.83883515793667" lon="8.813265234891377"><ele>447.20000000000005</ele><time>2026-03-29T08:33:07.999Z</time></trkpt><trkpt lat="45.83885404164044" lon="8.813149726627026"><ele>448.40000000000003</ele><time>2026-03-29T08:33:08.999Z</time></trkpt><trkpt lat="45.838867625194915" lon="8.813035097121194"><ele>449.6</ele><time>2026-03-29T08:33:09.999Z</time></trkpt><trkpt lat="45.83886793570952" lon="8.81289903750686"><ele>450.8</ele><time>2026-03-29T08:33:10.999Z</time></trkpt><trkpt lat="45.83888533987952" lon="8.812767897720242"><ele>452.0</ele><time>2026-03-29T08:33:11.999Z</time></trkpt><trkpt lat="45.83890012331051" lon="8.812615629053658"><ele>452.0</ele><time>2026-03-29T08:33:12.999Z</time></trkpt><trkpt lat="45.83891163103148" lon="8.8124444248269"><ele>452.0</ele><time>2026-03-29T08:33:13.999Z</time></trkpt><trkpt lat="45.83892479753509" lon="8.812292178162359"><ele>452.0</ele><time>2026-03-29T08:33:14.999Z</time></trkpt><trkpt lat="45.838941508329235" lon="8.812129232983631"><ele>452.0</ele><time>2026-03-29T08:33:15.999Z</time></trkpt><trkpt lat="45.83896117259142" lon="8.811970476360427"><ele>452.0</ele><time>2026-03-29T08:33:16.999Z</time></trkpt><trkpt lat="45.838980721024285" lon="8.811835496617887"><ele>452.00000000000006</ele><time>2026-03-29T08:33:17.999Z</time></trkpt><trkpt lat="45.83898760876366" lon="8.811674313367885"><ele>452.00000000000006</ele><time>2026-03-29T08:33:18.999Z</time></trkpt><trkpt lat="45.83899913819722" lon="8.811534232446784"><ele>452.0</ele><time>2026-03-29T08:33:19.999Z</time></trkpt><trkpt lat="45.839011506278695" lon="8.811424654860128"><ele>452.0</ele><time>2026-03-29T08:33:20.999Z</time></trkpt><trkpt lat="45.83902038010977" lon="8.81132353253745"><ele>451.8571428571429</ele><time>2026-03-29T08:33:21.999Z</time></trkpt><trkpt lat="45.839028067655406" lon="8.81123022277808"><ele>451.71428571428567</ele><time>2026-03-29T08:33:22.999Z</time></trkpt><trkpt lat="45.839057944913236" lon="8.81114645430409"><ele>451.57142857142856</ele><time>2026-03-29T08:33:23.999Z</time></trkpt><trkpt lat="45.83910795194875" lon="8.81108108274984"><ele>451.42857142857144</ele><time>2026-03-29T08:33:24.999Z</time></trkpt><trkpt lat="45.839178238480244" lon="8.811035148321306"><ele>451.28571428571433</ele><time>2026-03-29T08:33:25.999Z</time></trkpt><trkpt lat="45.83925395793274" lon="8.8110149290882"><ele>451.1428571428571</ele><time>2026-03-29T08:33:26.999Z</time></trkpt><trkpt lat="45.83932212310028" lon="8.811001893777352"><ele>451.0</ele><time>2026-03-29T08:33:27.999Z</time></trkpt><trkpt lat="45.83938899785214" lon="8.810983059514557"><ele>452.4</ele><time>2026-03-29T08:33:28.999Z</time></trkpt><trkpt lat="45.83949250695638" lon="8.810958076481828"><ele>453.8</ele><time>2026-03-29T08:33:30.999Z</time></trkpt><trkpt lat="45.839609463788506" lon="8.810937020499255"><ele>455.19999999999993</ele><time>2026-03-29T08:33:32.999Z</time></trkpt><trkpt lat="45.839683619771506" lon="8.810918397306363"><ele>456.59999999999997</ele><time>2026-03-29T08:33:33.999Z</time></trkpt><trkpt lat="45.839767410645635" lon="8.810897378889768"><ele>458.0</ele><time>2026-03-29T08:33:34.999Z</time></trkpt><trkpt lat="45.8398580775841" lon="8.810873046628307"><ele>457.99999999999994</ele><time>2026-03-29T08:33:35.999Z</time></trkpt><trkpt lat="45.839949270173676" lon="8.810890867239937"><ele>458.0</ele><time>2026-03-29T08:33:37Z</time></trkpt><trkpt lat="45.84003229350549" lon="8.810880183750346"><ele>458.0</ele><time>2026-03-29T08:33:38Z</time></trkpt><trkpt lat="45.8401060127604" lon="8.810870263970846"><ele>458.0</ele><time>2026-03-29T08:33:39Z</time></trkpt><trkpt lat="45.84017101476078" lon="8.810859579385616"><ele>457.99999999999994</ele><time>2026-03-29T08:33:40Z</time></trkpt><trkpt lat="45.84024196866679" lon="8.81084791654447"><ele>458.0</ele><time>2026-03-29T08:33:41Z</time></trkpt><trkpt lat="45.84032823467825" lon="8.810838727109056"><ele>458.66666666666663</ele><time>2026-03-29T08:33:42Z</time></trkpt><trkpt lat="45.840415975153135" lon="8.810834632727447"><ele>459.3333333333333</ele><time>2026-03-29T08:33:43Z</time></trkpt><trkpt lat="45.84049196525334" lon="8.810829882294028"><ele>460.0</ele><time>2026-03-29T08:33:44Z</time></trkpt><trkpt lat="45.84057085053714" lon="8.81082495481888"><ele>460.66666666666663</ele><time>2026-03-29T08:33:45Z</time></trkpt><trkpt lat="45.84066831569591" lon="8.81082068493403"><ele>461.3333333333333</ele><time>2026-03-29T08:33:46Z</time></trkpt><trkpt lat="45.840751628843876" lon="8.810809979559712"><ele>462.0</ele><time>2026-03-29T08:33:47Z</time></trkpt><trkpt lat="45.84086015807414" lon="8.81075077333124"><ele>462.0</ele><time>2026-03-29T08:33:48Z</time></trkpt><trkpt lat="45.840934598646406" lon="8.81067738313153"><ele>462.00000000000006</ele><time>2026-03-29T08:33:49Z</time></trkpt><trkpt lat="45.84100770356295" lon="8.810557303202382"><ele>462.00000000000006</ele><time>2026-03-29T08:33:50Z</time></trkpt><trkpt lat="45.84106927174654" lon="8.810435498878533"><ele>462.0</ele><time>2026-03-29T08:33:51Z</time></trkpt><trkpt lat="45.84114714536761" lon="8.810305259228215"><ele>462.0</ele><time>2026-03-29T08:33:52Z</time></trkpt><trkpt lat="45.841224940168736" lon="8.810171753327205"><ele>462.5</ele><time>2026-03-29T08:33:53Z</time></trkpt><trkpt lat="45.841299642901056" lon="8.810043383492005"><ele>463.0</ele><time>2026-03-29T08:33:54Z</time></trkpt><trkpt lat="45.84137095772504" lon="8.809920835503208"><ele>463.5</ele><time>2026-03-29T08:33:55Z</time></trkpt><trkpt lat="45.841446332407195" lon="8.809791310930127"><ele>464.0</ele><time>2026-03-29T08:33:56Z</time></trkpt><trkpt lat="45.8415166844799" lon="8.809665403679054"><ele>464.0</ele><time>2026-03-29T08:33:57Z</time></trkpt><trkpt lat="45.84157529559671" lon="8.809554998346576"><ele>464.0</ele><time>2026-03-29T08:33:58Z</time></trkpt><trkpt lat="45.841617077835735" lon="8.80941614946764"><ele>464.0</ele><time>2026-03-29T08:33:59Z</time></trkpt><trkpt lat="45.84165713107876" lon="8.809281611355367"><ele>464.0</ele><time>2026-03-29T08:34:00Z</time></trkpt><trkpt lat="45.84167730866378" lon="8.809137665919247"><ele>464.0</ele><time>2026-03-29T08:34:01Z</time></trkpt><trkpt lat="45.841701498697994" lon="8.809001391451396"><ele>464.0</ele><time>2026-03-29T08:34:02Z</time></trkpt><trkpt lat="45.84173843156233" lon="8.808872781142252"><ele>464.0</ele><time>2026-03-29T08:34:03Z</time></trkpt><trkpt lat="45.84178554181534" lon="8.808744864107782"><ele>464.0</ele><time>2026-03-29T08:34:04Z</time></trkpt><trkpt lat="45.84186994857298" lon="8.808660303323464"><ele>464.0</ele><time>2026-03-29T08:34:05Z</time></trkpt><trkpt lat="45.84194770093896" lon="8.808578014926706"><ele>464.0</ele><time>2026-03-29T08:34:06Z</time></trkpt><trkpt lat="45.84202099340537" lon="8.80851146040183"><ele>465.0</ele><time>2026-03-29T08:34:07Z</time></trkpt><trkpt lat="45.842088533718744" lon="8.808457978773282"><ele>466.0</ele><time>2026-03-29T08:34:08Z</time></trkpt><trkpt lat="45.8422341498103" lon="8.808312281117466"><ele>467.0</ele><time>2026-03-29T08:34:09Z</time></trkpt><trkpt lat="45.84234129689415" lon="8.808214296793174"><ele>468.0</ele><time>2026-03-29T08:34:10Z</time></trkpt><trkpt lat="45.842447997037446" lon="8.808116511925197"><ele>468.0</ele><time>2026-03-29T08:34:11Z</time></trkpt><trkpt lat="45.84255329141605" lon="8.808021198178839"><ele>468.0</ele><time>2026-03-29T08:34:12Z</time></trkpt><trkpt lat="45.84265582244627" lon="8.807928386020471"><ele>468.0</ele><time>2026-03-29T08:34:13Z</time></trkpt><trkpt lat="45.842758212721066" lon="8.807835698459465"><ele>468.0</ele><time>2026-03-29T08:34:14Z</time></trkpt><trkpt lat="45.84285615333256" lon="8.807746646555254"><ele>469.0</ele><time>2026-03-29T08:34:15Z</time></trkpt><trkpt lat="45.84295621178694" lon="8.807655543965327"><ele>470.0</ele><time>2026-03-29T08:34:16Z</time></trkpt><trkpt lat="45.84304414392207" lon="8.807547161793291"><ele>471.0</ele><time>2026-03-29T08:34:17Z</time></trkpt><trkpt lat="45.84315316949332" lon="8.807456164169485"><ele>472.0</ele><time>2026-03-29T08:34:18Z</time></trkpt><trkpt lat="45.84326196264557" lon="8.807358120032294"><ele>472.0</ele><time>2026-03-29T08:34:19Z</time></trkpt><trkpt lat="45.84335512958257" lon="8.807270354690736"><ele>472.0</ele><time>2026-03-29T08:34:20Z</time></trkpt><trkpt lat="45.843458978682925" lon="8.80717958853948"><ele>472.0</ele><time>2026-03-29T08:34:21Z</time></trkpt><trkpt lat="45.843562548347585" lon="8.80708750527897"><ele>472.0</ele><time>2026-03-29T08:34:22Z</time></trkpt><trkpt lat="45.84365873734058" lon="8.806982740454718"><ele>473.0</ele><time>2026-03-29T08:34:23Z</time></trkpt><trkpt lat="45.84374404262106" lon="8.8068709839576"><ele>474.0</ele><time>2026-03-29T08:34:24Z</time></trkpt><trkpt lat="45.84382805502947" lon="8.806751266319825"><ele>475.0</ele><time>2026-03-29T08:34:25Z</time></trkpt><trkpt lat="45.84389605902161" lon="8.806612566586386"><ele>476.0</ele><time>2026-03-29T08:34:26Z</time></trkpt><trkpt lat="45.84395234723122" lon="8.806480043359581"><ele>476.0</ele><time>2026-03-29T08:34:27Z</time></trkpt><trkpt lat="45.84400355193812" lon="8.806340663703763"><ele>476.0</ele><time>2026-03-29T08:34:28Z</time></trkpt><trkpt lat="45.84403944740496" lon="8.80619836853136"><ele>476.0</ele><time>2026-03-29T08:34:29Z</time></trkpt><trkpt lat="45.84407300968244" lon="8.806042166914128"><ele>476.0</ele><time>2026-03-29T08:34:30Z</time></trkpt><trkpt lat="45.8441236267784" lon="8.805888899400879"><ele>476.0</ele><time>2026-03-29T08:34:31Z</time></trkpt><trkpt lat="45.84417715637131" lon="8.805741915316577"><ele>476.0</ele><time>2026-03-29T08:34:32Z</time></trkpt><trkpt lat="45.84424835472252" lon="8.805618916204716"><ele>476.0</ele><time>2026-03-29T08:34:33Z</time></trkpt><trkpt lat="45.84434092480739" lon="8.805532454379637"><ele>476.0</ele><time>2026-03-29T08:34:34Z</time></trkpt><trkpt lat="45.844430013760814" lon="8.805430883219273"><ele>476.0</ele><time>2026-03-29T08:34:34.999Z</time></trkpt><trkpt lat="45.84450360394111" lon="8.80530131076943"><ele>476.75</ele><time>2026-03-29T08:34:35.999Z</time></trkpt><trkpt lat="45.844542542693326" lon="8.805141393823945"><ele>477.5</ele><time>2026-03-29T08:34:36.999Z</time></trkpt><trkpt lat="45.84455778298698" lon="8.804974697008486"><ele>478.25</ele><time>2026-03-29T08:34:37.999Z</time></trkpt><trkpt lat="45.84452697735091" lon="8.804800590434887"><ele>479.0</ele><time>2026-03-29T08:34:38.999Z</time></trkpt><trkpt lat="45.84453050521708" lon="8.804624370820207"><ele>479.0</ele><time>2026-03-29T08:34:39.999Z</time></trkpt><trkpt lat="45.84451291306745" lon="8.804465256091117"><ele>479.0</ele><time>2026-03-29T08:34:40.999Z</time></trkpt><trkpt lat="45.84452434979678" lon="8.804312077994888"><ele>479.0</ele><time>2026-03-29T08:34:41.999Z</time></trkpt><trkpt lat="45.84455491516627" lon="8.804156385066713"><ele>479.0</ele><time>2026-03-29T08:34:42.999Z</time></trkpt><trkpt lat="45.84462187207221" lon="8.804029360422716"><ele>479.0</ele><time>2026-03-29T08:34:43.999Z</time></trkpt><trkpt lat="45.84468701996632" lon="8.803888596801839"><ele>480.25</ele><time>2026-03-29T08:34:44.999Z</time></trkpt><trkpt lat="45.84475407775553" lon="8.803737666099195"><ele>481.5</ele><time>2026-03-29T08:34:45.999Z</time></trkpt><trkpt lat="45.8448247875645" lon="8.803579634459574"><ele>482.75</ele><time>2026-03-29T08:34:46.999Z</time></trkpt><trkpt lat="45.84488539730459" lon="8.803405748301756"><ele>484.0</ele><time>2026-03-29T08:34:47.999Z</time></trkpt><trkpt lat="45.844970884104356" lon="8.803257243714613"><ele>484.0</ele><time>2026-03-29T08:34:48.999Z</time></trkpt><trkpt lat="45.84506153051245" lon="8.803123889416575"><ele>484.0</ele><time>2026-03-29T08:34:49.999Z</time></trkpt><trkpt lat="45.84515477285354" lon="8.803012669936274"><ele>484.0</ele><time>2026-03-29T08:34:50.999Z</time></trkpt><trkpt lat="45.845256040973844" lon="8.802920521043758"><ele>484.0</ele><time>2026-03-29T08:34:51.999Z</time></trkpt><trkpt lat="45.84536755476009" lon="8.802860553629719"><ele>485.4</ele><time>2026-03-29T08:34:52.999Z</time></trkpt><trkpt lat="45.845462454264414" lon="8.802773809822869"><ele>486.79999999999995</ele><time>2026-03-29T08:34:53.999Z</time></trkpt><trkpt lat="45.845552808993254" lon="8.802718001899017"><ele>488.20000000000005</ele><time>2026-03-29T08:34:54.999Z</time></trkpt><trkpt lat="45.845637728414204" lon="8.802673180019516"><ele>489.6</ele><time>2026-03-29T08:34:55.999Z</time></trkpt><trkpt lat="45.84571339975556" lon="8.802642731430492"><ele>491.0</ele><time>2026-03-29T08:34:56.999Z</time></trkpt><trkpt lat="45.8457982739616" lon="8.802623870891487"><ele>491.6</ele><time>2026-03-29T08:34:57.999Z</time></trkpt><trkpt lat="45.84589519135974" lon="8.802619824771714"><ele>492.20000000000005</ele><time>2026-03-29T08:34:58.999Z</time></trkpt><trkpt lat="45.84599511485529" lon="8.80262804375962"><ele>492.79999999999995</ele><time>2026-03-29T08:34:59.999Z</time></trkpt><trkpt lat="45.846084484213314" lon="8.802644119513758"><ele>493.4</ele><time>2026-03-29T08:35:00.999Z</time></trkpt><trkpt lat="45.846177123198714" lon="8.802713581978603"><ele>494.0</ele><time>2026-03-29T08:35:01.999Z</time></trkpt><trkpt lat="45.84624701652911" lon="8.80274272273443"><ele>493.99999999999994</ele><time>2026-03-29T08:35:02.999Z</time></trkpt><trkpt lat="45.846321883651854" lon="8.80282382679011"><ele>494.0</ele><time>2026-03-29T08:35:03.999Z</time></trkpt><trkpt lat="45.84638709554303" lon="8.802897490750867"><ele>494.0</ele><time>2026-03-29T08:35:04.999Z</time></trkpt><trkpt lat="45.84644215920263" lon="8.802962499522135"><ele>494.0</ele><time>2026-03-29T08:35:05.999Z</time></trkpt><trkpt lat="45.84649758856689" lon="8.803020782527453"><ele>493.99999999999994</ele><time>2026-03-29T08:35:06.999Z</time></trkpt><trkpt lat="45.846558086151056" lon="8.803102930420641"><ele>494.0</ele><time>2026-03-29T08:35:08.999Z</time></trkpt><trkpt lat="45.84661611290415" lon="8.803185167233389"><ele>493.99999999999994</ele><time>2026-03-29T08:35:20.999Z</time></trkpt><trkpt lat="45.846685420638806" lon="8.80328769822684"><ele>494.0</ele><time>2026-03-29T08:35:22.999Z</time></trkpt><trkpt lat="45.84674295132823" lon="8.803392510803095"><ele>494.0</ele><time>2026-03-29T08:35:24.999Z</time></trkpt><trkpt lat="45.84678558115296" lon="8.803513486405997"><ele>494.0</ele><time>2026-03-29T08:35:26.999Z</time></trkpt><trkpt lat="45.84681037413588" lon="8.803600592701953"><ele>493.99999999999994</ele><time>2026-03-29T08:35:28.999Z</time></trkpt><trkpt lat="45.84685399532189" lon="8.803693417956424"><ele>494.0</ele><time>2026-03-29T08:35:30.999Z</time></trkpt><trkpt lat="45.846922861753804" lon="8.803798947814576"><ele>496.0</ele><time>2026-03-29T08:35:32.999Z</time></trkpt><trkpt lat="45.8470513349223" lon="8.803789632001628"><ele>498.0</ele><time>2026-03-29T08:35:34.999Z</time></trkpt><trkpt lat="45.847135195358256" lon="8.803804705498354"><ele>500.0</ele><time>2026-03-29T08:35:35.999Z</time></trkpt><trkpt lat="45.847209836115105" lon="8.803845174579118"><ele>502.0</ele><time>2026-03-29T08:35:36.999Z</time></trkpt><trkpt lat="45.84730147946676" lon="8.803882798459732"><ele>504.0</ele><time>2026-03-29T08:35:37.999Z</time></trkpt><trkpt lat="45.8474046433603" lon="8.803964915775973"><ele>504.0</ele><time>2026-03-29T08:35:38.999Z</time></trkpt><trkpt lat="45.84752553711896" lon="8.803936866433103"><ele>504.0</ele><time>2026-03-29T08:35:39.999Z</time></trkpt><trkpt lat="45.847650094853925" lon="8.803888060668946"><ele>504.0</ele><time>2026-03-29T08:35:40.999Z</time></trkpt><trkpt lat="45.84776897387275" lon="8.803818741184621"><ele>504.0</ele><time>2026-03-29T08:35:41.999Z</time></trkpt><trkpt lat="45.847882672708046" lon="8.803738473252176"><ele>504.0</ele><time>2026-03-29T08:35:43Z</time></trkpt><trkpt lat="45.84800880112018" lon="8.803644846140307"><ele>504.0</ele><time>2026-03-29T08:35:44Z</time></trkpt><trkpt lat="45.84812420019623" lon="8.803551157222273"><ele>504.0</ele><time>2026-03-29T08:35:45Z</time></trkpt><trkpt lat="45.84822321253037" lon="8.803476077156873"><ele>504.0</ele><time>2026-03-29T08:35:46Z</time></trkpt><trkpt lat="45.848309930216885" lon="8.803403757662535"><ele>504.0</ele><time>2026-03-29T08:35:47Z</time></trkpt><trkpt lat="45.84839476657092" lon="8.803352066446665"><ele>504.0</ele><time>2026-03-29T08:35:48Z</time></trkpt><trkpt lat="45.84847198908224" lon="8.803306941823488"><ele>504.0</ele><time>2026-03-29T08:35:49Z</time></trkpt><trkpt lat="45.84855093397393" lon="8.803256603290903"><ele>504.0</ele><time>2026-03-29T08:35:50Z</time></trkpt><trkpt lat="45.84863627033611" lon="8.803198735042145"><ele>504.0</ele><time>2026-03-29T08:35:51Z</time></trkpt><trkpt lat="45.848730664766805" lon="8.803129856965853"><ele>500.4</ele><time>2026-03-29T08:35:52Z</time></trkpt><trkpt lat="45.84882803985134" lon="8.80304856793523"><ele>496.79999999999995</ele><time>2026-03-29T08:35:53Z</time></trkpt><trkpt lat="45.84891333002026" lon="8.802978093059355"><ele>493.20000000000005</ele><time>2026-03-29T08:35:54Z</time></trkpt><trkpt lat="45.849008464974794" lon="8.802905625584744"><ele>489.6</ele><time>2026-03-29T08:35:55Z</time></trkpt><trkpt lat="45.849108470282346" lon="8.802831744454448"><ele>486.0</ele><time>2026-03-29T08:35:56Z</time></trkpt><trkpt lat="45.849206605720816" lon="8.80276758400795"><ele>486.0</ele><time>2026-03-29T08:35:57Z</time></trkpt><trkpt lat="45.84928853260003" lon="8.802695784046474"><ele>486.0</ele><time>2026-03-29T08:35:58Z</time></trkpt><trkpt lat="45.849379297354616" lon="8.802640750571891"><ele>486.0</ele><time>2026-03-29T08:35:59Z</time></trkpt><trkpt lat="45.84947238781963" lon="8.802607134898741"><ele>486.0</ele><time>2026-03-29T08:36:00Z</time></trkpt><trkpt lat="45.849561475701435" lon="8.80258811965892"><ele>486.0</ele><time>2026-03-29T08:36:01Z</time></trkpt><trkpt lat="45.84964033498315" lon="8.802593628966077"><ele>485.5</ele><time>2026-03-29T08:36:02Z</time></trkpt><trkpt lat="45.84971982344912" lon="8.802610456612102"><ele>485.0</ele><time>2026-03-29T08:36:03Z</time></trkpt><trkpt lat="45.84980219791938" lon="8.80262935115566"><ele>484.5</ele><time>2026-03-29T08:36:04Z</time></trkpt><trkpt lat="45.84989440007665" lon="8.802647631465492"><ele>484.0</ele><time>2026-03-29T08:36:05Z</time></trkpt><trkpt lat="45.84999005329996" lon="8.802663827818568"><ele>483.5</ele><time>2026-03-29T08:36:06Z</time></trkpt><trkpt lat="45.85008018471534" lon="8.802672121025308"><ele>483.0</ele><time>2026-03-29T08:36:07Z</time></trkpt><trkpt lat="45.85016562227872" lon="8.802744251465576"><ele>482.6666666666667</ele><time>2026-03-29T08:36:08Z</time></trkpt><trkpt lat="45.850257052606615" lon="8.802752479753911"><ele>482.33333333333337</ele><time>2026-03-29T08:36:09Z</time></trkpt><trkpt lat="45.850338590215856" lon="8.802760698753307"><ele>482.0</ele><time>2026-03-29T08:36:10Z</time></trkpt><trkpt lat="45.85043004705826" lon="8.802787119442982"><ele>481.6666666666667</ele><time>2026-03-29T08:36:11Z</time></trkpt><trkpt lat="45.85051749356456" lon="8.802781269700242"><ele>481.33333333333337</ele><time>2026-03-29T08:36:12Z</time></trkpt><trkpt lat="45.85058021890433" lon="8.80279442767673"><ele>481.0</ele><time>2026-03-29T08:36:13Z</time></trkpt><trkpt lat="45.85071465282596" lon="8.802781717111555"><ele>481.00000000000006</ele><time>2026-03-29T08:36:14Z</time></trkpt><trkpt lat="45.85079299921155" lon="8.802787317801693"><ele>481.0</ele><time>2026-03-29T08:36:15Z</time></trkpt><trkpt lat="45.850908274680855" lon="8.802835789336484"><ele>481.0</ele><time>2026-03-29T08:36:17Z</time></trkpt><trkpt lat="45.850971712184524" lon="8.802860428119468"><ele>481.0</ele><time>2026-03-29T08:36:19Z</time></trkpt><trkpt lat="45.851072949019695" lon="8.8029232767656"><ele>481.00000000000006</ele><time>2026-03-29T08:36:21Z</time></trkpt><trkpt lat="45.85113525124797" lon="8.802962368962284"><ele>481.0</ele><time>2026-03-29T08:36:22Z</time></trkpt><trkpt lat="45.851202084124104" lon="8.80301308203959"><ele>481.0</ele><time>2026-03-29T08:36:23Z</time></trkpt><trkpt lat="45.85135664912148" lon="8.803132961479575"><ele>481.0</ele><time>2026-03-29T08:36:25Z</time></trkpt><trkpt lat="45.851444183995014" lon="8.80319867834123"><ele>481.0</ele><time>2026-03-29T08:36:26Z</time></trkpt><trkpt lat="45.85153275058938" lon="8.803252490721874"><ele>481.0</ele><time>2026-03-29T08:36:27Z</time></trkpt><trkpt lat="45.85161608138631" lon="8.803295191496021"><ele>481.00000000000006</ele><time>2026-03-29T08:36:28Z</time></trkpt><trkpt lat="45.85170482430528" lon="8.803333120842778"><ele>481.0</ele><time>2026-03-29T08:36:29Z</time></trkpt><trkpt lat="45.85178549181158" lon="8.80336504829868"><ele>481.0</ele><time>2026-03-29T08:36:30Z</time></trkpt><trkpt lat="45.851867201173256" lon="8.80339734253924"><ele>481.0</ele><time>2026-03-29T08:36:31Z</time></trkpt><trkpt lat="45.85196250072845" lon="8.8034265100427"><ele>481.00000000000006</ele><time>2026-03-29T08:36:32Z</time></trkpt><trkpt lat="45.85204263892781" lon="8.803448490041365"><ele>481.0</ele><time>2026-03-29T08:36:33Z</time></trkpt><trkpt lat="45.85212341881878" lon="8.80345131683483"><ele>481.50000000000006</ele><time>2026-03-29T08:36:34Z</time></trkpt><trkpt lat="45.852194773177764" lon="8.803444432420681"><ele>482.0</ele><time>2026-03-29T08:36:35Z</time></trkpt><trkpt lat="45.85228248574814" lon="8.803415372584539"><ele>482.5</ele><time>2026-03-29T08:36:36Z</time></trkpt><trkpt lat="45.8523691406695" lon="8.803390843795244"><ele>483.0</ele><time>2026-03-29T08:36:37Z</time></trkpt><trkpt lat="45.85246104598516" lon="8.803363578484333"><ele>483.50000000000006</ele><time>2026-03-29T08:36:38Z</time></trkpt><trkpt lat="45.85255364512507" lon="8.803336107270383"><ele>484.0</ele><time>2026-03-29T08:36:39Z</time></trkpt><trkpt lat="45.852634317110116" lon="8.803312174531417"><ele>485.6666666666667</ele><time>2026-03-29T08:36:40Z</time></trkpt><trkpt lat="45.8527276081677" lon="8.803282955188724"><ele>487.33333333333337</ele><time>2026-03-29T08:36:41Z</time></trkpt><trkpt lat="45.852818155770194" lon="8.803252295674346"><ele>489.0</ele><time>2026-03-29T08:36:42Z</time></trkpt><trkpt lat="45.852898032166074" lon="8.803226322955235"><ele>490.66666666666663</ele><time>2026-03-29T08:36:43Z</time></trkpt><trkpt lat="45.85297089926245" lon="8.803205000803402"><ele>492.3333333333333</ele><time>2026-03-29T08:36:44Z</time></trkpt><trkpt lat="45.85305466184244" lon="8.803191905450394"><ele>494.0</ele><time>2026-03-29T08:36:44.999Z</time></trkpt><trkpt lat="45.853127399654205" lon="8.803198172503487"><ele>494.0</ele><time>2026-03-29T08:36:45.999Z</time></trkpt><trkpt lat="45.85321443436512" lon="8.803211363898841"><ele>494.0</ele><time>2026-03-29T08:36:46.999Z</time></trkpt><trkpt lat="45.853294212514875" lon="8.803245483898305"><ele>494.0</ele><time>2026-03-29T08:36:47.999Z</time></trkpt><trkpt lat="45.85338743429752" lon="8.803284521902519"><ele>494.0</ele><time>2026-03-29T08:36:48.999Z</time></trkpt><trkpt lat="45.85348466703892" lon="8.803324548531275"><ele>494.0</ele><time>2026-03-29T08:36:49.999Z</time></trkpt><trkpt lat="45.85358347287234" lon="8.803366908743376"><ele>494.4</ele><time>2026-03-29T08:36:50.999Z</time></trkpt><trkpt lat="45.85368976879109" lon="8.803417771340886"><ele>494.79999999999995</ele><time>2026-03-29T08:36:51.999Z</time></trkpt><trkpt lat="45.8537856840493" lon="8.80346215560001"><ele>495.20000000000005</ele><time>2026-03-29T08:36:52.999Z</time></trkpt><trkpt lat="45.853882386135034" lon="8.803501268648095"><ele>495.6</ele><time>2026-03-29T08:36:53.999Z</time></trkpt><trkpt lat="45.85397380060325" lon="8.803534510267566"><ele>496.0</ele><time>2026-03-29T08:36:54.999Z</time></trkpt><trkpt lat="45.854062817555274" lon="8.803562130102065"><ele>496.0</ele><time>2026-03-29T08:36:55.999Z</time></trkpt><trkpt lat="45.85416502527252" lon="8.803593740536593"><ele>496.0</ele><time>2026-03-29T08:36:56.999Z</time></trkpt><trkpt lat="45.854250285560084" lon="8.80362774068424"><ele>496.0</ele><time>2026-03-29T08:36:57.999Z</time></trkpt><trkpt lat="45.854340185261684" lon="8.803675106415088"><ele>496.0</ele><time>2026-03-29T08:36:58.999Z</time></trkpt><trkpt lat="45.85442954127324" lon="8.803704977743052"><ele>496.0</ele><time>2026-03-29T08:36:59.999Z</time></trkpt><trkpt lat="45.85451132480682" lon="8.803753819507122"><ele>498.4</ele><time>2026-03-29T08:37:00.999Z</time></trkpt><trkpt lat="45.85459839513986" lon="8.80375979987142"><ele>500.8</ele><time>2026-03-29T08:37:01.999Z</time></trkpt><trkpt lat="45.85469435468177" lon="8.80376128549096"><ele>503.19999999999993</ele><time>2026-03-29T08:37:02.999Z</time></trkpt><trkpt lat="45.854797330204136" lon="8.803761441584575"><ele>505.59999999999997</ele><time>2026-03-29T08:37:03.999Z</time></trkpt><trkpt lat="45.854896638726544" lon="8.803743311755388"><ele>508.0</ele><time>2026-03-29T08:37:04.999Z</time></trkpt><trkpt lat="45.855009291280695" lon="8.803749100325744"><ele>510.0</ele><time>2026-03-29T08:37:05.999Z</time></trkpt><trkpt lat="45.85513184128416" lon="8.803727858525681"><ele>512.0</ele><time>2026-03-29T08:37:06.999Z</time></trkpt><trkpt lat="45.85526208266371" lon="8.803697568627282"><ele>514.0</ele><time>2026-03-29T08:37:07.999Z</time></trkpt><trkpt lat="45.855383454517444" lon="8.80366008093318"><ele>516.0</ele><time>2026-03-29T08:37:08.999Z</time></trkpt><trkpt lat="45.855484857410765" lon="8.80360352103067"><ele>516.0</ele><time>2026-03-29T08:37:09.999Z</time></trkpt><trkpt lat="45.85557053644084" lon="8.803585767295644"><ele>516.0</ele><time>2026-03-29T08:37:10.999Z</time></trkpt><trkpt lat="45.85564667290354" lon="8.80356813044736"><ele>516.0</ele><time>2026-03-29T08:37:11.999Z</time></trkpt><trkpt lat="45.855752431019255" lon="8.803561733623965"><ele>516.0</ele><time>2026-03-29T08:37:13.999Z</time></trkpt><trkpt lat="45.855864110226676" lon="8.803549429852803"><ele>516.0</ele><time>2026-03-29T08:37:15.999Z</time></trkpt><trkpt lat="45.855968159665615" lon="8.803524670534143"><ele>516.6666666666666</ele><time>2026-03-29T08:37:17.999Z</time></trkpt><trkpt lat="45.85603982438182" lon="8.803503875143772"><ele>517.3333333333334</ele><time>2026-03-29T08:37:19.999Z</time></trkpt><trkpt lat="45.85610238237548" lon="8.803483304952428"><ele>518.0</ele><time>2026-03-29T08:37:21.999Z</time></trkpt><trkpt lat="45.85618547499489" lon="8.803465991583007"><ele>518.6666666666667</ele><time>2026-03-29T08:37:25.999Z</time></trkpt><trkpt lat="45.85627095500526" lon="8.803477490960839"><ele>519.3333333333334</ele><time>2026-03-29T08:37:26.999Z</time></trkpt><trkpt lat="45.856348359320265" lon="8.803482522406197"><ele>520.0</ele><time>2026-03-29T08:37:27.999Z</time></trkpt><trkpt lat="45.856437773898854" lon="8.803470452998814"><ele>520.8</ele><time>2026-03-29T08:37:28.999Z</time></trkpt><trkpt lat="45.85652164860962" lon="8.803451958657652"><ele>521.6</ele><time>2026-03-29T08:37:29.999Z</time></trkpt><trkpt lat="45.856622906978565" lon="8.803451287651134"><ele>522.4</ele><time>2026-03-29T08:37:30.999Z</time></trkpt><trkpt lat="45.85672497399389" lon="8.803474186391911"><ele>523.2</ele><time>2026-03-29T08:37:31.999Z</time></trkpt><trkpt lat="45.856830723423435" lon="8.80351395691581"><ele>524.0</ele><time>2026-03-29T08:37:32.999Z</time></trkpt><trkpt lat="45.8569395830471" lon="8.803565662148564"><ele>524.0</ele><time>2026-03-29T08:37:33.999Z</time></trkpt><trkpt lat="45.85703690236584" lon="8.803662207160327"><ele>524.0</ele><time>2026-03-29T08:37:34.999Z</time></trkpt><trkpt lat="45.85715110567375" lon="8.803764717295891"><ele>524.0</ele><time>2026-03-29T08:37:35.999Z</time></trkpt><trkpt lat="45.85725923300023" lon="8.80385226726334"><ele>524.0</ele><time>2026-03-29T08:37:36.999Z</time></trkpt><trkpt lat="45.857358068478526" lon="8.803950236719722"><ele>524.0</ele><time>2026-03-29T08:37:37.999Z</time></trkpt><trkpt lat="45.85747300567012" lon="8.804046784158768"><ele>524.0</ele><time>2026-03-29T08:37:38.999Z</time></trkpt><trkpt lat="45.85757512573828" lon="8.804145855124839"><ele>524.0</ele><time>2026-03-29T08:37:39.999Z</time></trkpt><trkpt lat="45.85767911085527" lon="8.804244064529447"><ele>524.0</ele><time>2026-03-29T08:37:40.999Z</time></trkpt><trkpt lat="45.857782980336005" lon="8.804350922369013"><ele>523.25</ele><time>2026-03-29T08:37:41.999Z</time></trkpt><trkpt lat="45.857890796464055" lon="8.804463016753543"><ele>522.5</ele><time>2026-03-29T08:37:42.999Z</time></trkpt><trkpt lat="45.857995189063395" lon="8.804576692375328"><ele>521.75</ele><time>2026-03-29T08:37:43.999Z</time></trkpt><trkpt lat="45.85808809713741" lon="8.804692516342522"><ele>521.0</ele><time>2026-03-29T08:37:44.999Z</time></trkpt><trkpt lat="45.85819457295761" lon="8.804789962923472"><ele>521.0</ele><time>2026-03-29T08:37:45.999Z</time></trkpt><trkpt lat="45.85830535073823" lon="8.80487553904715"><ele>521.0</ele><time>2026-03-29T08:37:46.999Z</time></trkpt><trkpt lat="45.85843516224229" lon="8.804934042548963"><ele>521.0</ele><time>2026-03-29T08:37:47.999Z</time></trkpt><trkpt lat="45.85858195070872" lon="8.804978921999869"><ele>521.0</ele><time>2026-03-29T08:37:49Z</time></trkpt><trkpt lat="45.85871838910217" lon="8.805041633729804"><ele>521.5</ele><time>2026-03-29T08:37:50Z</time></trkpt><trkpt lat="45.85883457075883" lon="8.805086109010142"><ele>522.0</ele><time>2026-03-29T08:37:51Z</time></trkpt><trkpt lat="45.85895510704867" lon="8.805058156501262"><ele>522.5</ele><time>2026-03-29T08:37:52Z</time></trkpt><trkpt lat="45.85906394420193" lon="8.805116192028617"><ele>523.0</ele><time>2026-03-29T08:37:53Z</time></trkpt><trkpt lat="45.85916016171373" lon="8.805211335196594"><ele>524.25</ele><time>2026-03-29T08:37:54Z</time></trkpt><trkpt lat="45.859250347290484" lon="8.80535532012378"><ele>525.5</ele><time>2026-03-29T08:37:55Z</time></trkpt><trkpt lat="45.85932877703545" lon="8.805502898625136"><ele>526.75</ele><time>2026-03-29T08:37:56Z</time></trkpt><trkpt lat="45.8594108683507" lon="8.805650217957048"><ele>528.0</ele><time>2026-03-29T08:37:57Z</time></trkpt><trkpt lat="45.85949818572751" lon="8.805767636452986"><ele>528.0</ele><time>2026-03-29T08:37:58Z</time></trkpt><trkpt lat="45.85960814863212" lon="8.80585653012922"><ele>528.0</ele><time>2026-03-29T08:37:59Z</time></trkpt><trkpt lat="45.85974974393537" lon="8.805909637156352"><ele>528.0</ele><time>2026-03-29T08:38:00Z</time></trkpt><trkpt lat="45.85991262139394" lon="8.805961094723104"><ele>528.0</ele><time>2026-03-29T08:38:01Z</time></trkpt><trkpt lat="45.86009537853535" lon="8.806006969611555"><ele>525.3333333333334</ele><time>2026-03-29T08:38:02Z</time></trkpt><trkpt lat="45.860281126512476" lon="8.806048093987869"><ele>522.6666666666667</ele><time>2026-03-29T08:38:03Z</time></trkpt><trkpt lat="45.860462030006815" lon="8.806095398495033"><ele>520.0</ele><time>2026-03-29T08:38:04Z</time></trkpt><trkpt lat="45.86062882811882" lon="8.806137370079751"><ele>520.0</ele><time>2026-03-29T08:38:05Z</time></trkpt><trkpt lat="45.86079229764896" lon="8.806175470144135"><ele>520.0</ele><time>2026-03-29T08:38:06Z</time></trkpt><trkpt lat="45.86095689614879" lon="8.806196462868664"><ele>520.0</ele><time>2026-03-29T08:38:07Z</time></trkpt><trkpt lat="45.861124742091064" lon="8.806200543494166"><ele>520.6666666666667</ele><time>2026-03-29T08:38:08Z</time></trkpt><trkpt lat="45.86129153968996" lon="8.806187277013725"><ele>521.3333333333334</ele><time>2026-03-29T08:38:09Z</time></trkpt><trkpt lat="45.86144819389426" lon="8.80615164967855"><ele>522.0</ele><time>2026-03-29T08:38:10Z</time></trkpt><trkpt lat="45.86159161189247" lon="8.806116283982512"><ele>522.0</ele><time>2026-03-29T08:38:11Z</time></trkpt><trkpt lat="45.86172612129531" lon="8.806099218883809"><ele>522.0</ele><time>2026-03-29T08:38:12Z</time></trkpt><trkpt lat="45.861834050294625" lon="8.80606849633668"><ele>522.0</ele><time>2026-03-29T08:38:13Z</time></trkpt><trkpt lat="45.86192741311206" lon="8.806037588165411"><ele>522.0</ele><time>2026-03-29T08:38:14Z</time></trkpt><trkpt lat="45.86200606743287" lon="8.806003337971333"><ele>522.0</ele><time>2026-03-29T08:38:15Z</time></trkpt><trkpt lat="45.86209695872769" lon="8.805921308453184"><ele>522.5</ele><time>2026-03-29T08:38:17Z</time></trkpt><trkpt lat="45.862168338360654" lon="8.805871680545255"><ele>523.0</ele><time>2026-03-29T08:38:20Z</time></trkpt><trkpt lat="45.862225336980195" lon="8.805817873771169"><ele>523.5</ele><time>2026-03-29T08:38:22Z</time></trkpt><trkpt lat="45.86232785469015" lon="8.805697061166823"><ele>524.0</ele><time>2026-03-29T08:38:24Z</time></trkpt><trkpt lat="45.86238690614582" lon="8.805623815219516"><ele>524.5</ele><time>2026-03-29T08:38:25Z</time></trkpt><trkpt lat="45.86245847289982" lon="8.805559221865622"><ele>525.0</ele><time>2026-03-29T08:38:26Z</time></trkpt><trkpt lat="45.86252809257621" lon="8.80550359143661"><ele>525.0</ele><time>2026-03-29T08:38:27Z</time></trkpt><trkpt lat="45.862593647273684" lon="8.80545347064281"><ele>525.0</ele><time>2026-03-29T08:38:28Z</time></trkpt><trkpt lat="45.86266343133885" lon="8.805436886273677"><ele>525.0</ele><time>2026-03-29T08:38:29Z</time></trkpt><trkpt lat="45.86274084518173" lon="8.805453562757275"><ele>525.0</ele><time>2026-03-29T08:38:30Z</time></trkpt><trkpt lat="45.862817440023356" lon="8.805468899779248"><ele>525.0</ele><time>2026-03-29T08:38:31Z</time></trkpt><trkpt lat="45.86290733485294" lon="8.80546886871389"><ele>525.0</ele><time>2026-03-29T08:38:32Z</time></trkpt><trkpt lat="45.862989671694" lon="8.805465677972066"><ele>525.2</ele><time>2026-03-29T08:38:33Z</time></trkpt><trkpt lat="45.86307970712869" lon="8.805461481303396"><ele>525.4</ele><time>2026-03-29T08:38:34Z</time></trkpt><trkpt lat="45.86317359465845" lon="8.805465082102499"><ele>525.6</ele><time>2026-03-29T08:38:35Z</time></trkpt><trkpt lat="45.86327310668979" lon="8.805460911090375"><ele>525.8</ele><time>2026-03-29T08:38:36Z</time></trkpt><trkpt lat="45.86338986944851" lon="8.805441456198906"><ele>526.0</ele><time>2026-03-29T08:38:37Z</time></trkpt><trkpt lat="45.86350165873454" lon="8.805418728020381"><ele>528.0</ele><time>2026-03-29T08:38:38Z</time></trkpt><trkpt lat="45.863630367237846" lon="8.805410056831318"><ele>530.0</ele><time>2026-03-29T08:38:39Z</time></trkpt><trkpt lat="45.86376481774143" lon="8.805415264188229"><ele>532.0</ele><time>2026-03-29T08:38:40Z</time></trkpt><trkpt lat="45.8638991135717" lon="8.805418986191926"><ele>534.0</ele><time>2026-03-29T08:38:41Z</time></trkpt><trkpt lat="45.86402653646213" lon="8.805417221287183"><ele>534.0</ele><time>2026-03-29T08:38:42Z</time></trkpt><trkpt lat="45.8641555972941" lon="8.805414942518082"><ele>534.0</ele><time>2026-03-29T08:38:43Z</time></trkpt><trkpt lat="45.86429465150579" lon="8.805403422040612"><ele>534.0</ele><time>2026-03-29T08:38:44Z</time></trkpt><trkpt lat="45.864438504878656" lon="8.805406961287268"><ele>534.0</ele><time>2026-03-29T08:38:45Z</time></trkpt><trkpt lat="45.86460528928616" lon="8.80542746061448"><ele>536.0</ele><time>2026-03-29T08:38:46Z</time></trkpt><trkpt lat="45.864769458111645" lon="8.805438463104284"><ele>538.0</ele><time>2026-03-29T08:38:47Z</time></trkpt><trkpt lat="45.864907576300524" lon="8.805444310777117"><ele>540.0</ele><time>2026-03-29T08:38:48Z</time></trkpt><trkpt lat="45.86502445904965" lon="8.805433730825682"><ele>542.0</ele><time>2026-03-29T08:38:49Z</time></trkpt><trkpt lat="45.86512598835282" lon="8.80539184798561"><ele>542.75</ele><time>2026-03-29T08:38:50Z</time></trkpt><trkpt lat="45.86523711661914" lon="8.805291651438585"><ele>543.5</ele><time>2026-03-29T08:38:51Z</time></trkpt><trkpt lat="45.865352953765665" lon="8.80518016079753"><ele>544.25</ele><time>2026-03-29T08:38:52Z</time></trkpt><trkpt lat="45.865439553879895" lon="8.805065337771584"><ele>545.0</ele><time>2026-03-29T08:38:53Z</time></trkpt><trkpt lat="45.865491740940925" lon="8.804956669190576"><ele>545.0</ele><time>2026-03-29T08:38:54Z</time></trkpt><trkpt lat="45.865551161912286" lon="8.80482506540006"><ele>545.0</ele><time>2026-03-29T08:38:55Z</time></trkpt><trkpt lat="45.86560176912925" lon="8.804731765645483"><ele>545.0</ele><time>2026-03-29T08:38:55.999Z</time></trkpt><trkpt lat="45.86565607832701" lon="8.804672110760855"><ele>545.0</ele><time>2026-03-29T08:38:56.999Z</time></trkpt><trkpt lat="45.86572151262671" lon="8.804635730255264"><ele>545.0</ele><time>2026-03-29T08:38:57.999Z</time></trkpt><trkpt lat="45.865817458889566" lon="8.804607676959089"><ele>545.0</ele><time>2026-03-29T08:38:58.999Z</time></trkpt><trkpt lat="45.8659316334304" lon="8.804577608559535"><ele>545.25</ele><time>2026-03-29T08:38:59.999Z</time></trkpt><trkpt lat="45.86605690946052" lon="8.804524876422196"><ele>545.5</ele><time>2026-03-29T08:39:00.999Z</time></trkpt><trkpt lat="45.86617954872484" lon="8.804489883161368"><ele>545.75</ele><time>2026-03-29T08:39:01.999Z</time></trkpt><trkpt lat="45.86631603787829" lon="8.804454418472822"><ele>546.0</ele><time>2026-03-29T08:39:02.999Z</time></trkpt><trkpt lat="45.866455386752094" lon="8.804420100934687"><ele>546.0</ele><time>2026-03-29T08:39:03.999Z</time></trkpt><trkpt lat="45.866603625626404" lon="8.804391090700785"><ele>546.0</ele><time>2026-03-29T08:39:04.999Z</time></trkpt><trkpt lat="45.86674842389795" lon="8.804353660358483"><ele>546.0</ele><time>2026-03-29T08:39:05.999Z</time></trkpt><trkpt lat="45.86689458623404" lon="8.804326268420958"><ele>546.0</ele><time>2026-03-29T08:39:06.999Z</time></trkpt><trkpt lat="45.86702800691151" lon="8.804301709964918"><ele>544.75</ele><time>2026-03-29T08:39:07.999Z</time></trkpt><trkpt lat="45.867165525050375" lon="8.804282352716086"><ele>543.5</ele><time>2026-03-29T08:39:08.999Z</time></trkpt><trkpt lat="45.86729946633331" lon="8.804263107597926"><ele>542.25</ele><time>2026-03-29T08:39:09.999Z</time></trkpt><trkpt lat="45.867429730073674" lon="8.804248756448823"><ele>541.0</ele><time>2026-03-29T08:39:10.999Z</time></trkpt><trkpt lat="45.867567187894686" lon="8.804232540357049"><ele>542.75</ele><time>2026-03-29T08:39:11.999Z</time></trkpt><trkpt lat="45.867704641208555" lon="8.804209892829155"><ele>544.5</ele><time>2026-03-29T08:39:12.999Z</time></trkpt><trkpt lat="45.867841214216845" lon="8.804195046724404"><ele>546.25</ele><time>2026-03-29T08:39:13.999Z</time></trkpt><trkpt lat="45.867979591239234" lon="8.804179923148475"><ele>548.0</ele><time>2026-03-29T08:39:14.999Z</time></trkpt><trkpt lat="45.868114949905" lon="8.804156177771759"><ele>548.0</ele><time>2026-03-29T08:39:15.999Z</time></trkpt><trkpt lat="45.86825381455456" lon="8.804144663531616"><ele>548.0</ele><time>2026-03-29T08:39:16.999Z</time></trkpt><trkpt lat="45.86839326408578" lon="8.80416627328678"><ele>548.0</ele><time>2026-03-29T08:39:17.999Z</time></trkpt><trkpt lat="45.868533380590996" lon="8.804214068412323"><ele>548.0</ele><time>2026-03-29T08:39:18.999Z</time></trkpt><trkpt lat="45.868671225739774" lon="8.804291051476953"><ele>550.5</ele><time>2026-03-29T08:39:19.999Z</time></trkpt><trkpt lat="45.86880472655209" lon="8.804379605537148"><ele>553.0</ele><time>2026-03-29T08:39:20.999Z</time></trkpt><trkpt lat="45.86894030135823" lon="8.80447904150191"><ele>555.5</ele><time>2026-03-29T08:39:21.999Z</time></trkpt><trkpt lat="45.869064487648174" lon="8.804548576146493"><ele>558.0</ele><time>2026-03-29T08:39:22.999Z</time></trkpt><trkpt lat="45.86918776367512" lon="8.804596814027942"><ele>558.5</ele><time>2026-03-29T08:39:23.999Z</time></trkpt><trkpt lat="45.86932470797822" lon="8.804616835263149"><ele>559.0</ele><time>2026-03-29T08:39:24.999Z</time></trkpt><trkpt lat="45.86945835095695" lon="8.804601695218924"><ele>559.5</ele><time>2026-03-29T08:39:25.999Z</time></trkpt><trkpt lat="45.86959466225981" lon="8.804593381424672"><ele>560.0</ele><time>2026-03-29T08:39:26.999Z</time></trkpt><trkpt lat="45.86972800500819" lon="8.804587578769384"><ele>560.0</ele><time>2026-03-29T08:39:27.999Z</time></trkpt><trkpt lat="45.86987764968729" lon="8.804568778476785"><ele>560.0</ele><time>2026-03-29T08:39:28.999Z</time></trkpt><trkpt lat="45.87004757709005" lon="8.804551831879497"><ele>560.0</ele><time>2026-03-29T08:39:29.999Z</time></trkpt><trkpt lat="45.8702364927412" lon="8.804563190732855"><ele>559.3333333333333</ele><time>2026-03-29T08:39:30.999Z</time></trkpt><trkpt lat="45.870428787645274" lon="8.804560599847884"><ele>558.6666666666666</ele><time>2026-03-29T08:39:31.999Z</time></trkpt><trkpt lat="45.87061177162222" lon="8.80455687462672"><ele>558.0</ele><time>2026-03-29T08:39:32.999Z</time></trkpt><trkpt lat="45.87076155057458" lon="8.804547838499344"><ele>558.0</ele><time>2026-03-29T08:39:33.999Z</time></trkpt><trkpt lat="45.870901321149326" lon="8.804540908852063"><ele>558.0</ele><time>2026-03-29T08:39:34.999Z</time></trkpt><trkpt lat="45.871031176877366" lon="8.804541558997377"><ele>558.0</ele><time>2026-03-29T08:39:35.999Z</time></trkpt><trkpt lat="45.871148994929676" lon="8.804529745249047"><ele>558.0</ele><time>2026-03-29T08:39:36.999Z</time></trkpt><trkpt lat="45.87125602801041" lon="8.804518628815053"><ele>558.4</ele><time>2026-03-29T08:39:37.999Z</time></trkpt><trkpt lat="45.87135799667509" lon="8.80451733382837"><ele>558.8</ele><time>2026-03-29T08:39:38.999Z</time></trkpt><trkpt lat="45.87145934198664" lon="8.804513338412361"><ele>559.2</ele><time>2026-03-29T08:39:39.999Z</time></trkpt><trkpt lat="45.871566515035255" lon="8.804519313012056"><ele>559.6</ele><time>2026-03-29T08:39:40.999Z</time></trkpt><trkpt lat="45.871672929094764" lon="8.804546232807867"><ele>560.0</ele><time>2026-03-29T08:39:41.999Z</time></trkpt><trkpt lat="45.871786537796524" lon="8.804579050245136"><ele>560.25</ele><time>2026-03-29T08:39:42.999Z</time></trkpt><trkpt lat="45.87190004984176" lon="8.804621700133666"><ele>560.5</ele><time>2026-03-29T08:39:43.999Z</time></trkpt><trkpt lat="45.87201552039921" lon="8.804674801420344"><ele>560.75</ele><time>2026-03-29T08:39:44.999Z</time></trkpt><trkpt lat="45.872140201812044" lon="8.804726809854849"><ele>561.0</ele><time>2026-03-29T08:39:45.999Z</time></trkpt><trkpt lat="45.87226736755831" lon="8.8047887987818"><ele>561.0</ele><time>2026-03-29T08:39:46.999Z</time></trkpt><trkpt lat="45.872390836855644" lon="8.804878887080037"><ele>561.0</ele><time>2026-03-29T08:39:47.999Z</time></trkpt><trkpt lat="45.87251168251888" lon="8.804995547413832"><ele>561.0</ele><time>2026-03-29T08:39:48.999Z</time></trkpt><trkpt lat="45.87263628849069" lon="8.805118038028677"><ele>561.0</ele><time>2026-03-29T08:39:49.999Z</time></trkpt><trkpt lat="45.87276173602556" lon="8.805227662149667"><ele>562.25</ele><time>2026-03-29T08:39:50.999Z</time></trkpt><trkpt lat="45.87288965175998" lon="8.805330522253962"><ele>563.5</ele><time>2026-03-29T08:39:51.999Z</time></trkpt><trkpt lat="45.87300585842055" lon="8.805428348397939"><ele>564.75</ele><time>2026-03-29T08:39:52.999Z</time></trkpt><trkpt lat="45.87311504096203" lon="8.805504829410546"><ele>566.0</ele><time>2026-03-29T08:39:53.999Z</time></trkpt><trkpt lat="45.8732144285064" lon="8.80556951464658"><ele>566.0</ele><time>2026-03-29T08:39:55Z</time></trkpt><trkpt lat="45.87330433391708" lon="8.80560269891052"><ele>566.0</ele><time>2026-03-29T08:39:56Z</time></trkpt><trkpt lat="45.87338171708687" lon="8.805619266154473"><ele>566.0</ele><time>2026-03-29T08:39:57Z</time></trkpt><trkpt lat="45.87345402396658" lon="8.805627825453293"><ele>566.0</ele><time>2026-03-29T08:39:58Z</time></trkpt><trkpt lat="45.873535926581056" lon="8.805609693253459"><ele>566.0</ele><time>2026-03-29T08:40:00Z</time></trkpt><trkpt lat="45.87363951406434" lon="8.805571076891573"><ele>566.0</ele><time>2026-03-29T08:40:14Z</time></trkpt><trkpt lat="45.87373946765222" lon="8.80549669583554"><ele>567.1666666666666</ele><time>2026-03-29T08:40:16Z</time></trkpt><trkpt lat="45.87383219977776" lon="8.805450471514648"><ele>568.3333333333333</ele><time>2026-03-29T08:40:18Z</time></trkpt><trkpt lat="45.873893106940514" lon="8.805416141755764"><ele>569.5</ele><time>2026-03-29T08:40:20Z</time></trkpt><trkpt lat="45.87395393392101" lon="8.805376450649923"><ele>570.6666666666666</ele><time>2026-03-29T08:40:23Z</time></trkpt><trkpt lat="45.87404749898236" lon="8.805258900703956"><ele>571.8333333333334</ele><time>2026-03-29T08:40:34Z</time></trkpt><trkpt lat="45.87412801813859" lon="8.80520068884711"><ele>573.0</ele><time>2026-03-29T08:40:35Z</time></trkpt><trkpt lat="45.87420552862081" lon="8.805149437154185"><ele>571.25</ele><time>2026-03-29T08:40:36Z</time></trkpt><trkpt lat="45.874306567543435" lon="8.805089902866781"><ele>569.5</ele><time>2026-03-29T08:40:37Z</time></trkpt><trkpt lat="45.874412896124774" lon="8.805026745257493"><ele>567.75</ele><time>2026-03-29T08:40:38Z</time></trkpt><trkpt lat="45.874520956945474" lon="8.80496897017042"><ele>566.0</ele><time>2026-03-29T08:40:39Z</time></trkpt><trkpt lat="45.87462673576608" lon="8.80491617074762"><ele>566.0</ele><time>2026-03-29T08:40:40Z</time></trkpt><trkpt lat="45.87473387817752" lon="8.80487348776765"><ele>566.0</ele><time>2026-03-29T08:40:41Z</time></trkpt><trkpt lat="45.8748462854649" lon="8.804851793624826"><ele>566.0</ele><time>2026-03-29T08:40:42Z</time></trkpt><trkpt lat="45.87494196618796" lon="8.804850312063985"><ele>566.0</ele><time>2026-03-29T08:40:43Z</time></trkpt><trkpt lat="45.87502592835189" lon="8.804851561156449"><ele>566.0</ele><time>2026-03-29T08:40:44Z</time></trkpt><trkpt lat="45.87512781991081" lon="8.804831856815312"><ele>566.2</ele><time>2026-03-29T08:40:46Z</time></trkpt><trkpt lat="45.87518374828341" lon="8.804737843977644"><ele>566.4000000000001</ele><time>2026-03-29T08:40:49Z</time></trkpt><trkpt lat="45.87529478847253" lon="8.804711320753992"><ele>566.6</ele><time>2026-03-29T08:40:51Z</time></trkpt><trkpt lat="45.87540957862177" lon="8.804714583107806"><ele>566.8000000000001</ele><time>2026-03-29T08:40:52.999Z</time></trkpt><trkpt lat="45.87549993997898" lon="8.804667838778258"><ele>567.0</ele><time>2026-03-29T08:40:54.999Z</time></trkpt><trkpt lat="45.875562590445824" lon="8.804610945478661"><ele>567.0</ele><time>2026-03-29T08:40:56.999Z</time></trkpt><trkpt lat="45.875636317741574" lon="8.804226670193316"><ele>567.0</ele><time>2026-03-29T08:43:41.999Z</time></trkpt><trkpt lat="45.87571559313825" lon="8.804340110045459"><ele>567.0</ele><time>2026-03-29T08:43:43.999Z</time></trkpt><trkpt lat="45.87560875876408" lon="8.804320293983029"><ele>567.0</ele><time>2026-03-29T08:44:06Z</time></trkpt><trkpt lat="45.87569199972429" lon="8.804394342013453"><ele>567.0</ele><time>2026-03-29T08:44:08Z</time></trkpt><trkpt lat="45.875744177071546" lon="8.804449159660196"><ele>567.0</ele><time>2026-03-29T08:44:11Z</time></trkpt><trkpt lat="45.87580151793188" lon="8.804574996292429"><ele>567.0</ele><time>2026-03-29T08:44:18Z</time></trkpt><trkpt lat="45.87574066849507" lon="8.804651470526885"><ele>567.0</ele><time>2026-03-29T08:44:22Z</time></trkpt><trkpt lat="45.87567340067037" lon="8.804679370787193"><ele>567.0</ele><time>2026-03-29T08:44:26Z</time></trkpt><trkpt lat="45.87559840089911" lon="8.804682628469214"><ele>567.0</ele><time>2026-03-29T08:44:31Z</time></trkpt><trkpt lat="45.87555002807773" lon="8.80461642572473"><ele>567.0</ele><time>2026-03-29T08:44:38Z</time></trkpt><trkpt lat="45.875460074274635" lon="8.804557025486762"><ele>567.0</ele><time>2026-03-29T08:45:41.999Z</time></trkpt><trkpt lat="45.87538872278569" lon="8.80457258177251"><ele>567.0</ele><time>2026-03-29T08:45:42.999Z</time></trkpt><trkpt lat="45.8752834738352" lon="8.804645461391337"><ele>567.0</ele><time>2026-03-29T08:45:44.999Z</time></trkpt><trkpt lat="45.875219629704965" lon="8.804699290821068"><ele>567.0</ele><time>2026-03-29T08:45:45.999Z</time></trkpt><trkpt lat="45.875159246964145" lon="8.80479273901184"><ele>567.0</ele><time>2026-03-29T08:45:48.999Z</time></trkpt><trkpt lat="45.87519271417858" lon="8.804888117434883"><ele>567.0</ele><time>2026-03-29T08:45:55Z</time></trkpt><trkpt lat="45.875333581398095" lon="8.804879341344764"><ele>567.0</ele><time>2026-03-29T08:45:57Z</time></trkpt><trkpt lat="45.87541619043817" lon="8.804863489986413"><ele>567.0</ele><time>2026-03-29T08:45:58Z</time></trkpt><trkpt lat="45.87551512467499" lon="8.804870169958921"><ele>567.0</ele><time>2026-03-29T08:45:59Z</time></trkpt><trkpt lat="45.87562619084935" lon="8.804880170907252"><ele>567.0</ele><time>2026-03-29T08:46:00Z</time></trkpt><trkpt lat="45.87574763475482" lon="8.804868740851916"><ele>567.0</ele><time>2026-03-29T08:46:01Z</time></trkpt><trkpt lat="45.87585528795039" lon="8.804830527388388"><ele>567.0</ele><time>2026-03-29T08:46:02Z</time></trkpt><trkpt lat="45.87597443519245" lon="8.804780063920738"><ele>567.0</ele><time>2026-03-29T08:46:03Z</time></trkpt><trkpt lat="45.87608815709594" lon="8.804722147348361"><ele>568.0</ele><time>2026-03-29T08:46:04Z</time></trkpt><trkpt lat="45.87620101926995" lon="8.804671143767873"><ele>569.0</ele><time>2026-03-29T08:46:05Z</time></trkpt><trkpt lat="45.876316674895236" lon="8.804628339702598"><ele>570.0</ele><time>2026-03-29T08:46:06Z</time></trkpt><trkpt lat="45.87643520873813" lon="8.804572952209794"><ele>571.0</ele><time>2026-03-29T08:46:07Z</time></trkpt><trkpt lat="45.87655267216606" lon="8.804516882053637"><ele>571.0</ele><time>2026-03-29T08:46:08Z</time></trkpt><trkpt lat="45.87667252815063" lon="8.804420802629762"><ele>571.0</ele><time>2026-03-29T08:46:09Z</time></trkpt><trkpt lat="45.876780818239936" lon="8.804272662975846"><ele>571.0</ele><time>2026-03-29T08:46:10Z</time></trkpt><trkpt lat="45.87689409653218" lon="8.804114643965587"><ele>571.0</ele><time>2026-03-29T08:46:11Z</time></trkpt><trkpt lat="45.87702122143349" lon="8.80393733725057"><ele>568.6666666666667</ele><time>2026-03-29T08:46:12Z</time></trkpt><trkpt lat="45.877150823475496" lon="8.803777380768093"><ele>566.3333333333334</ele><time>2026-03-29T08:46:13Z</time></trkpt><trkpt lat="45.87728064813711" lon="8.80361971291305"><ele>564.0</ele><time>2026-03-29T08:46:14Z</time></trkpt><trkpt lat="45.87740211459596" lon="8.803454754295482"><ele>561.6666666666666</ele><time>2026-03-29T08:46:15Z</time></trkpt><trkpt lat="45.877518752833744" lon="8.803293217781153"><ele>559.3333333333333</ele><time>2026-03-29T08:46:16Z</time></trkpt><trkpt lat="45.87763392691806" lon="8.803157328841818"><ele>557.0</ele><time>2026-03-29T08:46:17Z</time></trkpt><trkpt lat="45.877771465441" lon="8.803033717947592"><ele>557.0</ele><time>2026-03-29T08:46:18Z</time></trkpt><trkpt lat="45.87792601524551" lon="8.802911474127493"><ele>557.0</ele><time>2026-03-29T08:46:19Z</time></trkpt><trkpt lat="45.87810402398779" lon="8.802793127271064"><ele>557.0</ele><time>2026-03-29T08:46:20Z</time></trkpt><trkpt lat="45.87828799604314" lon="8.802663258139724"><ele>554.3333333333333</ele><time>2026-03-29T08:46:21Z</time></trkpt><trkpt lat="45.87846481899391" lon="8.80254442392026"><ele>551.6666666666666</ele><time>2026-03-29T08:46:22Z</time></trkpt><trkpt lat="45.87862648212969" lon="8.802420625965492"><ele>549.0</ele><time>2026-03-29T08:46:23Z</time></trkpt><trkpt lat="45.87877449402337" lon="8.80229435742863"><ele>549.0</ele><time>2026-03-29T08:46:24Z</time></trkpt><trkpt lat="45.878918799552984" lon="8.802150221874324"><ele>549.0</ele><time>2026-03-29T08:46:25Z</time></trkpt><trkpt lat="45.87905971753281" lon="8.801968553522544"><ele>549.0</ele><time>2026-03-29T08:46:25.999Z</time></trkpt><trkpt lat="45.87920984490304" lon="8.801752827352372"><ele>549.0</ele><time>2026-03-29T08:46:26.999Z</time></trkpt><trkpt lat="45.87935979011588" lon="8.801517027496903"><ele>549.0</ele><time>2026-03-29T08:46:27.999Z</time></trkpt><trkpt lat="45.87951640706321" lon="8.80128718227624"><ele>549.0</ele><time>2026-03-29T08:46:28.999Z</time></trkpt><trkpt lat="45.879676808307885" lon="8.801076606246424"><ele>543.6666666666666</ele><time>2026-03-29T08:46:29.999Z</time></trkpt><trkpt lat="45.87982418361442" lon="8.8008738027723"><ele>538.3333333333333</ele><time>2026-03-29T08:46:30.999Z</time></trkpt><trkpt lat="45.8799555231034" lon="8.800655905907865"><ele>533.0</ele><time>2026-03-29T08:46:31.999Z</time></trkpt><trkpt lat="45.88006700809799" lon="8.800418812665953"><ele>534.6666666666666</ele><time>2026-03-29T08:46:32.999Z</time></trkpt><trkpt lat="45.8801703821344" lon="8.800175252315107"><ele>536.3333333333334</ele><time>2026-03-29T08:46:33.999Z</time></trkpt><trkpt lat="45.88027070951958" lon="8.799943632505551"><ele>538.0</ele><time>2026-03-29T08:46:34.999Z</time></trkpt><trkpt lat="45.880365414776875" lon="8.79973247391562"><ele>538.0</ele><time>2026-03-29T08:46:35.999Z</time></trkpt><trkpt lat="45.88045620038289" lon="8.799537944387504"><ele>538.0</ele><time>2026-03-29T08:46:36.999Z</time></trkpt><trkpt lat="45.880571651031886" lon="8.799345972216882"><ele>538.0</ele><time>2026-03-29T08:46:37.999Z</time></trkpt><trkpt lat="45.88070953605896" lon="8.79918457863778"><ele>540.3333333333334</ele><time>2026-03-29T08:46:38.999Z</time></trkpt><trkpt lat="45.88086925996567" lon="8.799027802806071"><ele>542.6666666666666</ele><time>2026-03-29T08:46:39.999Z</time></trkpt><trkpt lat="45.881033161228366" lon="8.798863760591868"><ele>545.0</ele><time>2026-03-29T08:46:40.999Z</time></trkpt><trkpt lat="45.88119838440731" lon="8.798679727682297"><ele>539.0</ele><time>2026-03-29T08:46:41.999Z</time></trkpt><trkpt lat="45.881371769502834" lon="8.798475845038041"><ele>533.0</ele><time>2026-03-29T08:46:42.999Z</time></trkpt><trkpt lat="45.88154291309285" lon="8.798279715651775"><ele>527.0</ele><time>2026-03-29T08:46:43.999Z</time></trkpt><trkpt lat="45.881711636693204" lon="8.798086156742928"><ele>540.5</ele><time>2026-03-29T08:46:44.999Z</time></trkpt><trkpt lat="45.88188729829076" lon="8.797883959337318"><ele>554.0</ele><time>2026-03-29T08:46:45.999Z</time></trkpt><trkpt lat="45.88206773797316" lon="8.797681720106379"><ele>545.3333333333333</ele><time>2026-03-29T08:46:46.999Z</time></trkpt><trkpt lat="45.882229410500386" lon="8.797483250964925"><ele>536.6666666666666</ele><time>2026-03-29T08:46:47.999Z</time></trkpt><trkpt lat="45.88239404912153" lon="8.797301772860383"><ele>528.0</ele><time>2026-03-29T08:46:48.999Z</time></trkpt><trkpt lat="45.882547727918585" lon="8.797129488396406"><ele>527.3333333333334</ele><time>2026-03-29T08:46:49.999Z</time></trkpt><trkpt lat="45.88270131925086" lon="8.797010164837783"><ele>526.6666666666667</ele><time>2026-03-29T08:46:50.999Z</time></trkpt><trkpt lat="45.88286248103484" lon="8.79684124120914"><ele>526.0</ele><time>2026-03-29T08:46:51.999Z</time></trkpt><trkpt lat="45.88304989357468" lon="8.796728934969826"><ele>526.0</ele><time>2026-03-29T08:46:52.999Z</time></trkpt><trkpt lat="45.88324468218915" lon="8.796619474607157"><ele>526.0</ele><time>2026-03-29T08:46:53.999Z</time></trkpt><trkpt lat="45.883445921969134" lon="8.796499724988129"><ele>526.0</ele><time>2026-03-29T08:46:54.999Z</time></trkpt><trkpt lat="45.88364327747725" lon="8.796372273738653"><ele>522.6666666666667</ele><time>2026-03-29T08:46:55.999Z</time></trkpt><trkpt lat="45.883836956586016" lon="8.796243912463806"><ele>519.3333333333334</ele><time>2026-03-29T08:46:56.999Z</time></trkpt><trkpt lat="45.88402430358557" lon="8.796122464934133"><ele>516.0</ele><time>2026-03-29T08:46:57.999Z</time></trkpt><trkpt lat="45.88420046392484" lon="8.796000896931623"><ele>521.6666666666666</ele><time>2026-03-29T08:46:58.999Z</time></trkpt><trkpt lat="45.88436642448347" lon="8.795888960281996"><ele>527.3333333333333</ele><time>2026-03-29T08:46:59.999Z</time></trkpt><trkpt lat="45.884530851550366" lon="8.79578429065985"><ele>533.0</ele><time>2026-03-29T08:47:00.999Z</time></trkpt><trkpt lat="45.88469516387999" lon="8.795695641310605"><ele>533.0</ele><time>2026-03-29T08:47:01.999Z</time></trkpt><trkpt lat="45.884866277303516" lon="8.79560512497482"><ele>533.0</ele><time>2026-03-29T08:47:02.999Z</time></trkpt><trkpt lat="45.885034014129864" lon="8.795518997739343"><ele>533.0</ele><time>2026-03-29T08:47:03.999Z</time></trkpt><trkpt lat="45.885195495911766" lon="8.795434036754944"><ele>528.0</ele><time>2026-03-29T08:47:04.999Z</time></trkpt><trkpt lat="45.88534829309688" lon="8.795370639005938"><ele>523.0</ele><time>2026-03-29T08:47:05.999Z</time></trkpt><trkpt lat="45.88553333079545" lon="8.795247380319177"><ele>518.0</ele><time>2026-03-29T08:47:06.999Z</time></trkpt><trkpt lat="45.885698067466286" lon="8.795125668694867"><ele>518.0</ele><time>2026-03-29T08:47:07.999Z</time></trkpt><trkpt lat="45.885859504188495" lon="8.79499642026907"><ele>518.0</ele><time>2026-03-29T08:47:08.999Z</time></trkpt><trkpt lat="45.88602905026213" lon="8.79488515274131"><ele>518.0</ele><time>2026-03-29T08:47:09.999Z</time></trkpt><trkpt lat="45.88618744475324" lon="8.794751399931659"><ele>517.3333333333333</ele><time>2026-03-29T08:47:10.999Z</time></trkpt><trkpt lat="45.88633338215191" lon="8.794606395502647"><ele>516.6666666666666</ele><time>2026-03-29T08:47:11.999Z</time></trkpt><trkpt lat="45.88647067291832" lon="8.794460685315801"><ele>516.0</ele><time>2026-03-29T08:47:12.999Z</time></trkpt><trkpt lat="45.88660973101681" lon="8.794319474939693"><ele>516.0</ele><time>2026-03-29T08:47:13.999Z</time></trkpt><trkpt lat="45.88672065378088" lon="8.79421126360257"><ele>516.0</ele><time>2026-03-29T08:47:14.999Z</time></trkpt><trkpt lat="45.88683368234995" lon="8.794099945428421"><ele>516.0</ele><time>2026-03-29T08:47:15.999Z</time></trkpt><trkpt lat="45.88694742167747" lon="8.793994982921186"><ele>516.0</ele><time>2026-03-29T08:47:16.999Z</time></trkpt><trkpt lat="45.887056392467784" lon="8.79388439512522"><ele>516.5</ele><time>2026-03-29T08:47:17.999Z</time></trkpt><trkpt lat="45.88716927848438" lon="8.79375527773225"><ele>517.0</ele><time>2026-03-29T08:47:18.999Z</time></trkpt><trkpt lat="45.8872831172875" lon="8.793664414336874"><ele>517.5</ele><time>2026-03-29T08:47:19.999Z</time></trkpt><trkpt lat="45.88738573720736" lon="8.79355773542643"><ele>518.0</ele><time>2026-03-29T08:47:20.999Z</time></trkpt><trkpt lat="45.88747719767467" lon="8.793451007319714"><ele>518.0</ele><time>2026-03-29T08:47:21.999Z</time></trkpt><trkpt lat="45.88756255674822" lon="8.793353661526506"><ele>518.0</ele><time>2026-03-29T08:47:22.999Z</time></trkpt><trkpt lat="45.88763307212578" lon="8.793235297470721"><ele>518.0</ele><time>2026-03-29T08:47:23.999Z</time></trkpt><trkpt lat="45.88769143906433" lon="8.79309639046052"><ele>518.0</ele><time>2026-03-29T08:47:24.999Z</time></trkpt><trkpt lat="45.88774499174453" lon="8.792945543687305"><ele>518.0</ele><time>2026-03-29T08:47:25.999Z</time></trkpt><trkpt lat="45.88778446854371" lon="8.792780290338923"><ele>518.4</ele><time>2026-03-29T08:47:26.999Z</time></trkpt><trkpt lat="45.88781225168513" lon="8.79262562539804"><ele>518.8</ele><time>2026-03-29T08:47:27.999Z</time></trkpt><trkpt lat="45.887847419851134" lon="8.792464849603602"><ele>519.2</ele><time>2026-03-29T08:47:28.999Z</time></trkpt><trkpt lat="45.88788196052796" lon="8.792312753790089"><ele>519.6</ele><time>2026-03-29T08:47:29.999Z</time></trkpt><trkpt lat="45.88788882936905" lon="8.79215820986846"><ele>520.0</ele><time>2026-03-29T08:47:30.999Z</time></trkpt><trkpt lat="45.8879021755066" lon="8.792014432623812"><ele>520.0</ele><time>2026-03-29T08:47:31.999Z</time></trkpt><trkpt lat="45.887914507012496" lon="8.791876429546393"><ele>520.0</ele><time>2026-03-29T08:47:32.999Z</time></trkpt><trkpt lat="45.88792707818126" lon="8.791749465154021"><ele>520.0</ele><time>2026-03-29T08:47:33.999Z</time></trkpt><trkpt lat="45.88794055491636" lon="8.79163432873575"><ele>520.0</ele><time>2026-03-29T08:47:34.999Z</time></trkpt><trkpt lat="45.88794782953659" lon="8.79152381179298"><ele>520.0</ele><time>2026-03-29T08:47:35.999Z</time></trkpt><trkpt lat="45.88795467011311" lon="8.791405544417062"><ele>520.0</ele><time>2026-03-29T08:47:36.999Z</time></trkpt><trkpt lat="45.88797558170021" lon="8.791281250039118"><ele>519.3333333333334</ele><time>2026-03-29T08:47:37.999Z</time></trkpt><trkpt lat="45.88798615241483" lon="8.791175791067719"><ele>518.6666666666667</ele><time>2026-03-29T08:47:38.999Z</time></trkpt><trkpt lat="45.88799430058127" lon="8.791078415405474"><ele>518.0</ele><time>2026-03-29T08:47:39.999Z</time></trkpt><trkpt lat="45.8880173737812" lon="8.790913279681218"><ele>517.3333333333334</ele><time>2026-03-29T08:47:41.999Z</time></trkpt><trkpt lat="45.888026391319386" lon="8.790823514243105"><ele>516.6666666666666</ele><time>2026-03-29T08:47:43.998Z</time></trkpt><trkpt lat="45.88801861027386" lon="8.790728252989771"><ele>516.0</ele><time>2026-03-29T08:47:50.998Z</time></trkpt><trkpt lat="45.888031021789736" lon="8.790563150513764"><ele>516.0</ele><time>2026-03-29T08:47:52.998Z</time></trkpt><trkpt lat="45.88805905070989" lon="8.7904713050401"><ele>516.0</ele><time>2026-03-29T08:47:53.998Z</time></trkpt><trkpt lat="45.88806916787473" lon="8.790366975433603"><ele>516.0</ele><time>2026-03-29T08:47:54.998Z</time></trkpt><trkpt lat="45.88808161933186" lon="8.790254843857111"><ele>516.0</ele><time>2026-03-29T08:47:55.998Z</time></trkpt><trkpt lat="45.88808704445584" lon="8.790138469388696"><ele>516.0</ele><time>2026-03-29T08:47:56.999Z</time></trkpt><trkpt lat="45.88810801919318" lon="8.790001503671238"><ele>516.0</ele><time>2026-03-29T08:47:57.999Z</time></trkpt><trkpt lat="45.88815103700916" lon="8.78987886106052"><ele>515.2</ele><time>2026-03-29T08:47:58.999Z</time></trkpt><trkpt lat="45.88818939532219" lon="8.789756816871627"><ele>514.4000000000001</ele><time>2026-03-29T08:47:59.999Z</time></trkpt><trkpt lat="45.88822289959815" lon="8.789625359874776"><ele>513.6</ele><time>2026-03-29T08:48:00.999Z</time></trkpt><trkpt lat="45.88827979041183" lon="8.789504268854081"><ele>512.8000000000001</ele><time>2026-03-29T08:48:01.999Z</time></trkpt><trkpt lat="45.88835989315252" lon="8.789401960197852"><ele>512.0</ele><time>2026-03-29T08:48:02.999Z</time></trkpt><trkpt lat="45.88843448145544" lon="8.789289703392852"><ele>511.75</ele><time>2026-03-29T08:48:03.999Z</time></trkpt><trkpt lat="45.88852140774983" lon="8.789188964604547"><ele>511.5</ele><time>2026-03-29T08:48:04.999Z</time></trkpt><trkpt lat="45.888616308781096" lon="8.78910467455585"><ele>511.25</ele><time>2026-03-29T08:48:06Z</time></trkpt><trkpt lat="45.888722981935665" lon="8.789049435326335"><ele>511.0</ele><time>2026-03-29T08:48:07Z</time></trkpt><trkpt lat="45.88882312175301" lon="8.788963445510563"><ele>511.0</ele><time>2026-03-29T08:48:08Z</time></trkpt><trkpt lat="45.88891770224531" lon="8.788893714246507"><ele>511.0</ele><time>2026-03-29T08:48:09Z</time></trkpt><trkpt lat="45.889021018163206" lon="8.788849589628146"><ele>511.0</ele><time>2026-03-29T08:48:10Z</time></trkpt><trkpt lat="45.88911241557743" lon="8.788767416805173"><ele>511.0</ele><time>2026-03-29T08:48:11Z</time></trkpt><trkpt lat="45.88919989630892" lon="8.788692735885826"><ele>511.0</ele><time>2026-03-29T08:48:12Z</time></trkpt><trkpt lat="45.88929660560708" lon="8.788625877055303"><ele>511.6</ele><time>2026-03-29T08:48:13Z</time></trkpt><trkpt lat="45.889361263841" lon="8.788528502663516"><ele>512.2</ele><time>2026-03-29T08:48:14Z</time></trkpt><trkpt lat="45.889436149274516" lon="8.788441339704278"><ele>512.8</ele><time>2026-03-29T08:48:15Z</time></trkpt><trkpt lat="45.88948190314365" lon="8.788342777321303"><ele>513.4</ele><time>2026-03-29T08:48:16Z</time></trkpt><trkpt lat="45.88953507275632" lon="8.78829116616825"><ele>514.0</ele><time>2026-03-29T08:48:17Z</time></trkpt><trkpt lat="45.8896161741999" lon="8.78816383754046"><ele>512.8</ele><time>2026-03-29T08:48:19Z</time></trkpt><trkpt lat="45.88967187187984" lon="8.78811919487106"><ele>511.59999999999997</ele><time>2026-03-29T08:48:22Z</time></trkpt><trkpt lat="45.8897061478215" lon="8.788035770033144"><ele>510.4</ele><time>2026-03-29T08:52:29.999Z</time></trkpt><trkpt lat="45.8895548252821" lon="8.788155801075703"><ele>509.2</ele><time>2026-03-29T08:52:36.999Z</time></trkpt><trkpt lat="45.889482084967455" lon="8.788297725941339"><ele>508.0</ele><time>2026-03-29T08:52:38.999Z</time></trkpt><trkpt lat="45.88943728366734" lon="8.788368794620732"><ele>508.00000000000006</ele><time>2026-03-29T08:52:39.999Z</time></trkpt><trkpt lat="45.88938829643796" lon="8.788435676775103"><ele>508.0</ele><time>2026-03-29T08:52:40.999Z</time></trkpt><trkpt lat="45.88933597123646" lon="8.788497465507534"><ele>508.0</ele><time>2026-03-29T08:52:41.999Z</time></trkpt><trkpt lat="45.889281522990615" lon="8.788557882471256"><ele>508.0</ele><time>2026-03-29T08:52:42.999Z</time></trkpt><trkpt lat="45.88921569829173" lon="8.788639780879317"><ele>508.00000000000006</ele><time>2026-03-29T08:52:43.999Z</time></trkpt><trkpt lat="45.8891343806862" lon="8.788705157656374"><ele>508.0</ele><time>2026-03-29T08:52:44.999Z</time></trkpt><trkpt lat="45.889054121849085" lon="8.788758998526927"><ele>508.59999999999997</ele><time>2026-03-29T08:52:45.999Z</time></trkpt><trkpt lat="45.888960563218255" lon="8.788816460022858"><ele>509.19999999999993</ele><time>2026-03-29T08:52:46.999Z</time></trkpt><trkpt lat="45.88886081965263" lon="8.788883113068568"><ele>509.8</ele><time>2026-03-29T08:52:47.999Z</time></trkpt><trkpt lat="45.88876223104159" lon="8.788958825354559"><ele>510.4</ele><time>2026-03-29T08:52:48.999Z</time></trkpt><trkpt lat="45.88865458641384" lon="8.78904243645443"><ele>511.0</ele><time>2026-03-29T08:52:49.999Z</time></trkpt><trkpt lat="45.88853821354252" lon="8.789136709372317"><ele>511.25</ele><time>2026-03-29T08:52:50.999Z</time></trkpt><trkpt lat="45.888415645524496" lon="8.789259719901358"><ele>511.5</ele><time>2026-03-29T08:52:51.999Z</time></trkpt><trkpt lat="45.88832346092781" lon="8.789395785599908"><ele>511.75</ele><time>2026-03-29T08:52:52.999Z</time></trkpt><trkpt lat="45.88825283298815" lon="8.78951385789303"><ele>512.0</ele><time>2026-03-29T08:52:53.999Z</time></trkpt><trkpt lat="45.88819100240096" lon="8.789646223468136"><ele>512.0</ele><time>2026-03-29T08:52:54.999Z</time></trkpt><trkpt lat="45.88814969607008" lon="8.78976972077252"><ele>512.0</ele><time>2026-03-29T08:52:55.999Z</time></trkpt><trkpt lat="45.88811908149935" lon="8.789881570257618"><ele>512.0</ele><time>2026-03-29T08:52:56.999Z</time></trkpt><trkpt lat="45.88808843550513" lon="8.789983178984864"><ele>512.0</ele><time>2026-03-29T08:52:57.999Z</time></trkpt><trkpt lat="45.88805712271792" lon="8.790111261529544"><ele>512.0</ele><time>2026-03-29T08:52:58.999Z</time></trkpt><trkpt lat="45.888041897756395" lon="8.790280764350129"><ele>512.8000000000001</ele><time>2026-03-29T08:53:00.999Z</time></trkpt><trkpt lat="45.88802442050677" lon="8.790428658942915"><ele>513.6</ele><time>2026-03-29T08:53:02.999Z</time></trkpt><trkpt lat="45.888017350598155" lon="8.790556248711713"><ele>514.4000000000001</ele><time>2026-03-29T08:53:04.999Z</time></trkpt><trkpt lat="45.88801495588692" lon="8.790647013026085"><ele>515.2</ele><time>2026-03-29T08:53:07.999Z</time></trkpt><trkpt lat="45.88798803200105" lon="8.79077344078724"><ele>516.0</ele><time>2026-03-29T08:53:16.999Z</time></trkpt><trkpt lat="45.887983722343314" lon="8.790935850346642"><ele>515.8</ele><time>2026-03-29T08:53:18.999Z</time></trkpt><trkpt lat="45.88797718117599" lon="8.791050753873721"><ele>515.6</ele><time>2026-03-29T08:53:19.999Z</time></trkpt><trkpt lat="45.88796063519364" lon="8.791217740182041"><ele>515.4</ele><time>2026-03-29T08:53:20.999Z</time></trkpt><trkpt lat="45.887948357144836" lon="8.791360946957765"><ele>515.2</ele><time>2026-03-29T08:53:21.999Z</time></trkpt><trkpt lat="45.88793142755501" lon="8.79150895266492"><ele>515.0</ele><time>2026-03-29T08:53:22.999Z</time></trkpt><trkpt lat="45.88791335972311" lon="8.79166625675081"><ele>515.0</ele><time>2026-03-29T08:53:23.999Z</time></trkpt><trkpt lat="45.887905619187286" lon="8.791818862093079"><ele>515.0</ele><time>2026-03-29T08:53:24.999Z</time></trkpt><trkpt lat="45.88789350151792" lon="8.791973025996544"><ele>515.0</ele><time>2026-03-29T08:53:25.999Z</time></trkpt><trkpt lat="45.88786488003215" lon="8.792121960218145"><ele>515.0</ele><time>2026-03-29T08:53:26.999Z</time></trkpt><trkpt lat="45.88786292068088" lon="8.792283549304807"><ele>515.0</ele><time>2026-03-29T08:53:27.999Z</time></trkpt><trkpt lat="45.88784084340293" lon="8.792455622957121"><ele>516.25</ele><time>2026-03-29T08:53:28.999Z</time></trkpt><trkpt lat="45.88781708521062" lon="8.792610066400066"><ele>517.5</ele><time>2026-03-29T08:53:29.999Z</time></trkpt><trkpt lat="45.88776637714901" lon="8.792755561831077"><ele>518.75</ele><time>2026-03-29T08:53:30.999Z</time></trkpt><trkpt lat="45.88772096958019" lon="8.792909161924408"><ele>520.0</ele><time>2026-03-29T08:53:31.999Z</time></trkpt><trkpt lat="45.88768802642772" lon="8.793069223974433"><ele>519.5</ele><time>2026-03-29T08:53:32.999Z</time></trkpt><trkpt lat="45.887619759779135" lon="8.793210593401328"><ele>519.0</ele><time>2026-03-29T08:53:33.999Z</time></trkpt><trkpt lat="45.887543423466326" lon="8.793345204825604"><ele>518.5</ele><time>2026-03-29T08:53:34.999Z</time></trkpt><trkpt lat="45.88745823469157" lon="8.793475652416967"><ele>518.0</ele><time>2026-03-29T08:53:35.999Z</time></trkpt><trkpt lat="45.887354516442514" lon="8.793600405613475"><ele>524.0</ele><time>2026-03-29T08:53:36.999Z</time></trkpt><trkpt lat="45.88722732574717" lon="8.793717440425562"><ele>530.0</ele><time>2026-03-29T08:53:37.999Z</time></trkpt><trkpt lat="45.88709851946765" lon="8.793849844831893"><ele>536.0</ele><time>2026-03-29T08:53:38.999Z</time></trkpt><trkpt lat="45.88695987673882" lon="8.793975581515483"><ele>536.0</ele><time>2026-03-29T08:53:39.999Z</time></trkpt><trkpt lat="45.88680587310692" lon="8.794119920613662"><ele>536.0</ele><time>2026-03-29T08:53:40.999Z</time></trkpt><trkpt lat="45.88664811092223" lon="8.794272609052541"><ele>536.0</ele><time>2026-03-29T08:53:41.999Z</time></trkpt><trkpt lat="45.8864962574322" lon="8.79443375409482"><ele>536.3333333333333</ele><time>2026-03-29T08:53:42.999Z</time></trkpt><trkpt lat="45.88632845904056" lon="8.794592879948349"><ele>536.6666666666666</ele><time>2026-03-29T08:53:43.999Z</time></trkpt><trkpt lat="45.88616557673704" lon="8.794743520854853"><ele>537.0</ele><time>2026-03-29T08:53:44.999Z</time></trkpt><trkpt lat="45.886013243600516" lon="8.79489189077675"><ele>542.0</ele><time>2026-03-29T08:53:45.999Z</time></trkpt><trkpt lat="45.88585146552202" lon="8.794996355465564"><ele>547.0</ele><time>2026-03-29T08:53:46.999Z</time></trkpt><trkpt lat="45.885688025891156" lon="8.795122053894223"><ele>552.0</ele><time>2026-03-29T08:53:47.999Z</time></trkpt><trkpt lat="45.88552358468005" lon="8.795223178761827"><ele>552.0</ele><time>2026-03-29T08:53:48.999Z</time></trkpt><trkpt lat="45.88536013513184" lon="8.79532145893676"><ele>552.0</ele><time>2026-03-29T08:53:49.999Z</time></trkpt><trkpt lat="45.88519817802553" lon="8.795423199664759"><ele>552.0</ele><time>2026-03-29T08:53:50.999Z</time></trkpt><trkpt lat="45.88503378518616" lon="8.795522277842782"><ele>545.6666666666666</ele><time>2026-03-29T08:53:51.999Z</time></trkpt><trkpt lat="45.88485712258467" lon="8.795595144799625"><ele>539.3333333333333</ele><time>2026-03-29T08:53:52.999Z</time></trkpt><trkpt lat="45.8846844703501" lon="8.795663810183324"><ele>533.0</ele><time>2026-03-29T08:53:53.999Z</time></trkpt><trkpt lat="45.88451497286113" lon="8.795751381312588"><ele>533.0</ele><time>2026-03-29T08:53:54.999Z</time></trkpt><trkpt lat="45.88435580920772" lon="8.795868328488615"><ele>533.0</ele><time>2026-03-29T08:53:55.999Z</time></trkpt><trkpt lat="45.88418494092767" lon="8.79598594119406"><ele>533.0</ele><time>2026-03-29T08:53:56.999Z</time></trkpt><trkpt lat="45.8840153718284" lon="8.796095530175652"><ele>537.6666666666666</ele><time>2026-03-29T08:53:57.999Z</time></trkpt><trkpt lat="45.883850867095184" lon="8.79619957647772"><ele>542.3333333333334</ele><time>2026-03-29T08:53:58.999Z</time></trkpt><trkpt lat="45.88368332398891" lon="8.796308503528055"><ele>547.0</ele><time>2026-03-29T08:53:59.999Z</time></trkpt><trkpt lat="45.883518401561155" lon="8.79642173438112"><ele>540.0</ele><time>2026-03-29T08:54:00.999Z</time></trkpt><trkpt lat="45.883349184628955" lon="8.796521807784988"><ele>533.0</ele><time>2026-03-29T08:54:01.999Z</time></trkpt><trkpt lat="45.88318036780067" lon="8.796630434133453"><ele>526.0</ele><time>2026-03-29T08:54:02.999Z</time></trkpt><trkpt lat="45.88301047026049" lon="8.796731435410255"><ele>526.0</ele><time>2026-03-29T08:54:03.999Z</time></trkpt><trkpt lat="45.882858266508535" lon="8.796785005092222"><ele>526.0</ele><time>2026-03-29T08:54:04.999Z</time></trkpt><trkpt lat="45.88272536490234" lon="8.796865275124254"><ele>526.0</ele><time>2026-03-29T08:54:05.999Z</time></trkpt><trkpt lat="45.88253852494405" lon="8.797070343473282"><ele>526.6666666666667</ele><time>2026-03-29T08:54:06.999Z</time></trkpt><trkpt lat="45.882385481959474" lon="8.797231539822377"><ele>527.3333333333334</ele><time>2026-03-29T08:54:07.999Z</time></trkpt><trkpt lat="45.882251363712065" lon="8.797417722928106"><ele>528.0</ele><time>2026-03-29T08:54:08.999Z</time></trkpt><trkpt lat="45.88210947557688" lon="8.797602405060864"><ele>527.6666666666666</ele><time>2026-03-29T08:54:09.999Z</time></trkpt><trkpt lat="45.881961297852186" lon="8.797776761703313"><ele>527.3333333333333</ele><time>2026-03-29T08:54:10.999Z</time></trkpt><trkpt lat="45.8818101681192" lon="8.797950800068364"><ele>527.0</ele><time>2026-03-29T08:54:11.999Z</time></trkpt><trkpt lat="45.881661569394424" lon="8.798119492820627"><ele>527.0</ele><time>2026-03-29T08:54:12.999Z</time></trkpt><trkpt lat="45.88150970102202" lon="8.79829952518467"><ele>527.0</ele><time>2026-03-29T08:54:13.999Z</time></trkpt><trkpt lat="45.88135461915429" lon="8.798469329692646"><ele>527.0</ele><time>2026-03-29T08:54:15Z</time></trkpt><trkpt lat="45.88120100494685" lon="8.79863619107175"><ele>527.3333333333333</ele><time>2026-03-29T08:54:16Z</time></trkpt><trkpt lat="45.88104800934369" lon="8.798798426280053"><ele>527.6666666666666</ele><time>2026-03-29T08:54:17Z</time></trkpt><trkpt lat="45.88091071631976" lon="8.798949930532846"><ele>528.0</ele><time>2026-03-29T08:54:18Z</time></trkpt><trkpt lat="45.88078793253241" lon="8.799090053475496"><ele>528.0</ele><time>2026-03-29T08:54:19Z</time></trkpt><trkpt lat="45.880665872117795" lon="8.799222375754248"><ele>528.0</ele><time>2026-03-29T08:54:20Z</time></trkpt><trkpt lat="45.88055253407104" lon="8.79935664031892"><ele>528.0</ele><time>2026-03-29T08:54:21Z</time></trkpt><trkpt lat="45.88044224760663" lon="8.79950735621776"><ele>531.3333333333334</ele><time>2026-03-29T08:54:22Z</time></trkpt><trkpt lat="45.88034580814338" lon="8.79969718199093"><ele>534.6666666666667</ele><time>2026-03-29T08:54:23Z</time></trkpt><trkpt lat="45.880258104769126" lon="8.79990760472992"><ele>538.0</ele><time>2026-03-29T08:54:24Z</time></trkpt><trkpt lat="45.88017188981567" lon="8.800126579345001"><ele>536.3333333333334</ele><time>2026-03-29T08:54:25Z</time></trkpt><trkpt lat="45.88006750782245" lon="8.80031741863671"><ele>534.6666666666666</ele><time>2026-03-29T08:54:26Z</time></trkpt><trkpt lat="45.87997338817177" lon="8.800518329253615"><ele>533.0</ele><time>2026-03-29T08:54:27Z</time></trkpt><trkpt lat="45.87986779303253" lon="8.800713471881199"><ele>533.0</ele><time>2026-03-29T08:54:28Z</time></trkpt><trkpt lat="45.87974612162808" lon="8.800907893686425"><ele>533.0</ele><time>2026-03-29T08:54:29Z</time></trkpt><trkpt lat="45.879625071228666" lon="8.80109391808347"><ele>533.0</ele><time>2026-03-29T08:54:30Z</time></trkpt><trkpt lat="45.879506434441176" lon="8.801290084722867"><ele>534.0</ele><time>2026-03-29T08:54:31Z</time></trkpt><trkpt lat="45.87937381867487" lon="8.80147699151202"><ele>535.0</ele><time>2026-03-29T08:54:32Z</time></trkpt><trkpt lat="45.87924705404188" lon="8.801668449812688"><ele>536.0</ele><time>2026-03-29T08:54:33Z</time></trkpt><trkpt lat="45.879111188837506" lon="8.801833406031449"><ele>540.3333333333333</ele><time>2026-03-29T08:54:34Z</time></trkpt><trkpt lat="45.878986006726194" lon="8.802009344162817"><ele>544.6666666666666</ele><time>2026-03-29T08:54:35Z</time></trkpt><trkpt lat="45.878853944308375" lon="8.802171445298875"><ele>549.0</ele><time>2026-03-29T08:54:36Z</time></trkpt><trkpt lat="45.878714247268924" lon="8.802342078655062"><ele>549.0</ele><time>2026-03-29T08:54:37Z</time></trkpt><trkpt lat="45.87854618184498" lon="8.802466567714117"><ele>549.0</ele><time>2026-03-29T08:54:38Z</time></trkpt><trkpt lat="45.878372450666426" lon="8.802582738067674"><ele>549.0</ele><time>2026-03-29T08:54:39Z</time></trkpt><trkpt lat="45.87820517026482" lon="8.802698797623613"><ele>551.6666666666666</ele><time>2026-03-29T08:54:40Z</time></trkpt><trkpt lat="45.87803955027834" lon="8.802819733180383"><ele>554.3333333333333</ele><time>2026-03-29T08:54:41Z</time></trkpt><trkpt lat="45.87788165119494" lon="8.802941212020244"><ele>557.0</ele><time>2026-03-29T08:54:42Z</time></trkpt><trkpt lat="45.877730499762286" lon="8.803062034932058"><ele>556.25</ele><time>2026-03-29T08:54:43Z</time></trkpt><trkpt lat="45.877585563909946" lon="8.803175997191998"><ele>555.5</ele><time>2026-03-29T08:54:44Z</time></trkpt><trkpt lat="45.87747303763294" lon="8.803303078565042"><ele>554.75</ele><time>2026-03-29T08:54:45Z</time></trkpt><trkpt lat="45.87737710508918" lon="8.803424401681433"><ele>554.0</ele><time>2026-03-29T08:54:46Z</time></trkpt><trkpt lat="45.87726538864811" lon="8.803571752154935"><ele>556.5</ele><time>2026-03-29T08:54:47Z</time></trkpt><trkpt lat="45.87716088495592" lon="8.803712591566493"><ele>559.0</ele><time>2026-03-29T08:54:48Z</time></trkpt><trkpt lat="45.87705254914969" lon="8.803847836624374"><ele>561.5</ele><time>2026-03-29T08:54:49Z</time></trkpt><trkpt lat="45.87693466819657" lon="8.803992935133039"><ele>564.0</ele><time>2026-03-29T08:54:50Z</time></trkpt><trkpt lat="45.87681431322135" lon="8.804155750725725"><ele>563.0</ele><time>2026-03-29T08:54:51Z</time></trkpt><trkpt lat="45.87669084282153" lon="8.804316049134336"><ele>562.0</ele><time>2026-03-29T08:54:52Z</time></trkpt><trkpt lat="45.876555717173645" lon="8.804471144468735"><ele>561.0</ele><time>2026-03-29T08:54:53Z</time></trkpt><trkpt lat="45.8763924037246" lon="8.804582477954716"><ele>563.0</ele><time>2026-03-29T08:54:54Z</time></trkpt><trkpt lat="45.8762218933038" lon="8.804654566895605"><ele>565.0</ele><time>2026-03-29T08:54:55Z</time></trkpt><trkpt lat="45.87603953093762" lon="8.804742414582"><ele>567.0</ele><time>2026-03-29T08:54:56Z</time></trkpt><trkpt lat="45.875863506982896" lon="8.804794521943817"><ele>567.0</ele><time>2026-03-29T08:54:57Z</time></trkpt><trkpt lat="45.87572092248144" lon="8.804847865002312"><ele>567.0</ele><time>2026-03-29T08:54:58Z</time></trkpt><trkpt lat="45.87557376877779" lon="8.80487916942598"><ele>567.0</ele><time>2026-03-29T08:54:59Z</time></trkpt><trkpt lat="45.87541225290949" lon="8.804870897250728"><ele>567.0</ele><time>2026-03-29T08:55:00Z</time></trkpt><trkpt lat="45.8752482643352" lon="8.804859060073555"><ele>567.0</ele><time>2026-03-29T08:55:01Z</time></trkpt><trkpt lat="45.875078968065935" lon="8.804865880547256"><ele>567.0</ele><time>2026-03-29T08:55:02Z</time></trkpt><trkpt lat="45.87491049539727" lon="8.80485159162475"><ele>566.75</ele><time>2026-03-29T08:55:03Z</time></trkpt><trkpt lat="45.874763223608404" lon="8.804865511665895"><ele>566.5</ele><time>2026-03-29T08:55:04Z</time></trkpt><trkpt lat="45.87461687225982" lon="8.804909486941055"><ele>566.25</ele><time>2026-03-29T08:55:05Z</time></trkpt><trkpt lat="45.874475229379655" lon="8.804988899707974"><ele>566.0</ele><time>2026-03-29T08:55:06Z</time></trkpt><trkpt lat="45.87435312036279" lon="8.805081757920245"><ele>567.75</ele><time>2026-03-29T08:55:07Z</time></trkpt><trkpt lat="45.87422774411028" lon="8.805140433939846"><ele>569.5</ele><time>2026-03-29T08:55:08Z</time></trkpt><trkpt lat="45.874109817502216" lon="8.805211073106623"><ele>571.25</ele><time>2026-03-29T08:55:09Z</time></trkpt><trkpt lat="45.87399548914881" lon="8.805283114994513"><ele>573.0</ele><time>2026-03-29T08:55:10Z</time></trkpt><trkpt lat="45.873885913940086" lon="8.805376535695164"><ele>573.0</ele><time>2026-03-29T08:55:11Z</time></trkpt><trkpt lat="45.873753821358676" lon="8.805445568604028"><ele>573.0</ele><time>2026-03-29T08:55:12Z</time></trkpt><trkpt lat="45.87362164487925" lon="8.805520965405425"><ele>573.0</ele><time>2026-03-29T08:55:13Z</time></trkpt><trkpt lat="45.87350284850493" lon="8.805582497191557"><ele>573.0</ele><time>2026-03-29T08:55:14Z</time></trkpt><trkpt lat="45.87338094948207" lon="8.805612385353871"><ele>571.25</ele><time>2026-03-29T08:55:15Z</time></trkpt><trkpt lat="45.87326402574605" lon="8.80555657295784"><ele>569.5</ele><time>2026-03-29T08:55:16Z</time></trkpt><trkpt lat="45.87315089047505" lon="8.805498371871838"><ele>567.75</ele><time>2026-03-29T08:55:17Z</time></trkpt><trkpt lat="45.87304276286116" lon="8.805421973284828"><ele>566.0</ele><time>2026-03-29T08:55:18Z</time></trkpt><trkpt lat="45.8729176975651" lon="8.805325626471607"><ele>566.0</ele><time>2026-03-29T08:55:19Z</time></trkpt><trkpt lat="45.87277675260806" lon="8.805226617569856"><ele>566.0</ele><time>2026-03-29T08:55:20Z</time></trkpt><trkpt lat="45.8726468520614" lon="8.805096994000007"><ele>566.0</ele><time>2026-03-29T08:55:21Z</time></trkpt><trkpt lat="45.87250941130278" lon="8.804977375068628"><ele>564.75</ele><time>2026-03-29T08:55:22Z</time></trkpt><trkpt lat="45.87237681691518" lon="8.804872939345076"><ele>563.5</ele><time>2026-03-29T08:55:23Z</time></trkpt><trkpt lat="45.87225364557476" lon="8.804771361063437"><ele>562.25</ele><time>2026-03-29T08:55:24Z</time></trkpt><trkpt lat="45.87212831565243" lon="8.80468918612606"><ele>561.0</ele><time>2026-03-29T08:55:25Z</time></trkpt><trkpt lat="45.87198996594807" lon="8.804623869886319"><ele>561.0</ele><time>2026-03-29T08:55:26Z</time></trkpt><trkpt lat="45.871849779265816" lon="8.804569355234499"><ele>561.0</ele><time>2026-03-29T08:55:27Z</time></trkpt><trkpt lat="45.87172346426072" lon="8.80453084115761"><ele>561.0</ele><time>2026-03-29T08:55:28Z</time></trkpt><trkpt lat="45.87158514040297" lon="8.804498838757432"><ele>561.0</ele><time>2026-03-29T08:55:29Z</time></trkpt><trkpt lat="45.87143877243586" lon="8.804491191416966"><ele>560.75</ele><time>2026-03-29T08:55:30Z</time></trkpt><trkpt lat="45.87128992242851" lon="8.804518254965185"><ele>560.5</ele><time>2026-03-29T08:55:31Z</time></trkpt><trkpt lat="45.871146886617744" lon="8.804521219240216"><ele>560.25</ele><time>2026-03-29T08:55:32Z</time></trkpt><trkpt lat="45.87099804925495" lon="8.804521873595986"><ele>560.0</ele><time>2026-03-29T08:55:33Z</time></trkpt><trkpt lat="45.870847522030786" lon="8.804524650566046"><ele>559.3333333333333</ele><time>2026-03-29T08:55:34Z</time></trkpt><trkpt lat="45.87068860719769" lon="8.804529079752584"><ele>558.6666666666666</ele><time>2026-03-29T08:55:35Z</time></trkpt><trkpt lat="45.87053046713429" lon="8.804536315343372"><ele>558.0</ele><time>2026-03-29T08:55:36Z</time></trkpt><trkpt lat="45.87038176292001" lon="8.804548638718455"><ele>558.0</ele><time>2026-03-29T08:55:37Z</time></trkpt><trkpt lat="45.87023058528196" lon="8.804535851716993"><ele>558.0</ele><time>2026-03-29T08:55:38Z</time></trkpt><trkpt lat="45.87007449993399" lon="8.804561317426504"><ele>558.0</ele><time>2026-03-29T08:55:39Z</time></trkpt><trkpt lat="45.869908973062124" lon="8.804565263517619"><ele>558.6666666666666</ele><time>2026-03-29T08:55:40Z</time></trkpt><trkpt lat="45.86974102301" lon="8.804551090324"><ele>559.3333333333333</ele><time>2026-03-29T08:55:41Z</time></trkpt><trkpt lat="45.86958034130479" lon="8.804556961263158"><ele>560.0</ele><time>2026-03-29T08:55:42Z</time></trkpt><trkpt lat="45.8694215825204" lon="8.804562761942531"><ele>559.3333333333333</ele><time>2026-03-29T08:55:43Z</time></trkpt><trkpt lat="45.869261593787975" lon="8.80456860756374"><ele>558.6666666666666</ele><time>2026-03-29T08:55:44Z</time></trkpt><trkpt lat="45.86911257434031" lon="8.804549474485098"><ele>558.0</ele><time>2026-03-29T08:55:45Z</time></trkpt><trkpt lat="45.86895906640883" lon="8.804477003190565"><ele>558.0</ele><time>2026-03-29T08:55:46Z</time></trkpt><trkpt lat="45.868813542149226" lon="8.804383539839105"><ele>558.0</ele><time>2026-03-29T08:55:47Z</time></trkpt><trkpt lat="45.868669224212915" lon="8.804316399527512"><ele>558.0</ele><time>2026-03-29T08:55:48Z</time></trkpt><trkpt lat="45.86853501819329" lon="8.804232845727583"><ele>555.5</ele><time>2026-03-29T08:55:49Z</time></trkpt><trkpt lat="45.86839915987366" lon="8.804178724987015"><ele>553.0</ele><time>2026-03-29T08:55:50Z</time></trkpt><trkpt lat="45.86825129384594" lon="8.80415315562968"><ele>550.5</ele><time>2026-03-29T08:55:51Z</time></trkpt><trkpt lat="45.86809267871461" lon="8.804159285355102"><ele>548.0</ele><time>2026-03-29T08:55:52Z</time></trkpt><trkpt lat="45.86793379310722" lon="8.80418966261363"><ele>548.0</ele><time>2026-03-29T08:55:53Z</time></trkpt><trkpt lat="45.86778028763204" lon="8.804204662399249"><ele>548.0</ele><time>2026-03-29T08:55:54Z</time></trkpt><trkpt lat="45.86762859687037" lon="8.804229378578208"><ele>548.0</ele><time>2026-03-29T08:55:55Z</time></trkpt><trkpt lat="45.8674730589184" lon="8.804250682063318"><ele>545.6666666666666</ele><time>2026-03-29T08:55:56Z</time></trkpt><trkpt lat="45.86730394465891" lon="8.804260276249467"><ele>543.3333333333334</ele><time>2026-03-29T08:55:57Z</time></trkpt><trkpt lat="45.867143729811346" lon="8.804282888478438"><ele>541.0</ele><time>2026-03-29T08:55:58Z</time></trkpt><trkpt lat="45.86697726925593" lon="8.804306050863701"><ele>541.0</ele><time>2026-03-29T08:55:59Z</time></trkpt><trkpt lat="45.86681779260534" lon="8.804328240739258"><ele>541.0</ele><time>2026-03-29T08:56:00Z</time></trkpt><trkpt lat="45.8666487751647" lon="8.80435176337756"><ele>541.0</ele><time>2026-03-29T08:56:01Z</time></trkpt><trkpt lat="45.866487372968756" lon="8.804374223228406"><ele>542.0</ele><time>2026-03-29T08:56:02Z</time></trkpt><trkpt lat="45.86633985519608" lon="8.804443036049348"><ele>543.0</ele><time>2026-03-29T08:56:02.999Z</time></trkpt><trkpt lat="45.86620265702785" lon="8.804472690626142"><ele>544.0</ele><time>2026-03-29T08:56:03.999Z</time></trkpt><trkpt lat="45.86607460722091" lon="8.804508127738927"><ele>545.0</ele><time>2026-03-29T08:56:04.999Z</time></trkpt><trkpt lat="45.865943142666865" lon="8.80454433939587"><ele>545.0</ele><time>2026-03-29T08:56:05.999Z</time></trkpt><trkpt lat="45.865826399135685" lon="8.804576291911403"><ele>545.0</ele><time>2026-03-29T08:56:06.999Z</time></trkpt><trkpt lat="45.86571816644645" lon="8.80461364845038"><ele>545.0</ele><time>2026-03-29T08:56:07.999Z</time></trkpt><trkpt lat="45.86561928533974" lon="8.804668239364503"><ele>545.0</ele><time>2026-03-29T08:56:08.999Z</time></trkpt><trkpt lat="45.86553580130752" lon="8.80475831016337"><ele>545.0</ele><time>2026-03-29T08:56:09.999Z</time></trkpt><trkpt lat="45.86545779672513" lon="8.80488298402131"><ele>545.0</ele><time>2026-03-29T08:56:10.999Z</time></trkpt><trkpt lat="45.86538581258706" lon="8.805012517770837"><ele>545.0</ele><time>2026-03-29T08:56:11.999Z</time></trkpt><trkpt lat="45.86532076891013" lon="8.805146500818859"><ele>545.0</ele><time>2026-03-29T08:56:12.999Z</time></trkpt><trkpt lat="45.86523373334593" lon="8.805256012551828"><ele>545.0</ele><time>2026-03-29T08:56:13.999Z</time></trkpt><trkpt lat="45.86513620786381" lon="8.805344897342776"><ele>544.25</ele><time>2026-03-29T08:56:14.999Z</time></trkpt><trkpt lat="45.86503008223267" lon="8.805400766649994"><ele>543.5</ele><time>2026-03-29T08:56:15.999Z</time></trkpt><trkpt lat="45.86490969472823" lon="8.80541242374161"><ele>542.75</ele><time>2026-03-29T08:56:16.999Z</time></trkpt><trkpt lat="45.8647612481981" lon="8.805398910670846"><ele>542.0</ele><time>2026-03-29T08:56:17.999Z</time></trkpt><trkpt lat="45.86460654762334" lon="8.805399013476084"><ele>542.0</ele><time>2026-03-29T08:56:18.999Z</time></trkpt><trkpt lat="45.8644494065102" lon="8.805399483239942"><ele>542.0</ele><time>2026-03-29T08:56:19.999Z</time></trkpt><trkpt lat="45.86429111551905" lon="8.805400034886507"><ele>542.0</ele><time>2026-03-29T08:56:21.001Z</time></trkpt><trkpt lat="45.86414244131965" lon="8.805394735685589"><ele>539.3333333333333</ele><time>2026-03-29T08:56:22.001Z</time></trkpt><trkpt lat="45.8639909230514" lon="8.805388900468964"><ele>536.6666666666666</ele><time>2026-03-29T08:56:23.001Z</time></trkpt><trkpt lat="45.8638409549153" lon="8.805391854983245"><ele>534.0</ele><time>2026-03-29T08:56:24.001Z</time></trkpt><trkpt lat="45.86368368538019" lon="8.80539720223096"><ele>534.0</ele><time>2026-03-29T08:56:25.001Z</time></trkpt><trkpt lat="45.86352681910214" lon="8.805403628915194"><ele>534.0</ele><time>2026-03-29T08:56:26.001Z</time></trkpt><trkpt lat="45.86337237171893" lon="8.805408422995821"><ele>534.0</ele><time>2026-03-29T08:56:27.001Z</time></trkpt><trkpt lat="45.86321463138708" lon="8.805406879952232"><ele>532.0</ele><time>2026-03-29T08:56:28.001Z</time></trkpt><trkpt lat="45.86306794188182" lon="8.805398943241226"><ele>530.0</ele><time>2026-03-29T08:56:29.001Z</time></trkpt><trkpt lat="45.8629300880027" lon="8.805391602895929"><ele>528.0</ele><time>2026-03-29T08:56:30.001Z</time></trkpt><trkpt lat="45.86280051825474" lon="8.80538357646683"><ele>526.0</ele><time>2026-03-29T08:56:31.001Z</time></trkpt><trkpt lat="45.862686988994575" lon="8.805381729900082"><ele>525.8</ele><time>2026-03-29T08:56:32.001Z</time></trkpt><trkpt lat="45.86258710689417" lon="8.805401050938798"><ele>525.6</ele><time>2026-03-29T08:56:33.001Z</time></trkpt><trkpt lat="45.86248741981149" lon="8.805455442574253"><ele>525.4</ele><time>2026-03-29T08:56:34.001Z</time></trkpt><trkpt lat="45.86239156592465" lon="8.805562092879011"><ele>525.2</ele><time>2026-03-29T08:56:35Z</time></trkpt><trkpt lat="45.862306334588915" lon="8.805684580482515"><ele>525.0</ele><time>2026-03-29T08:56:36Z</time></trkpt><trkpt lat="45.8622105259155" lon="8.805805230080647"><ele>525.0</ele><time>2026-03-29T08:56:37Z</time></trkpt><trkpt lat="45.86209983609619" lon="8.805918713191481"><ele>525.0</ele><time>2026-03-29T08:56:38Z</time></trkpt><trkpt lat="45.86197899263141" lon="8.80600729963366"><ele>525.0</ele><time>2026-03-29T08:56:39Z</time></trkpt><trkpt lat="45.86184410488237" lon="8.806080843473538"><ele>525.0</ele><time>2026-03-29T08:56:40Z</time></trkpt><trkpt lat="45.86169132847301" lon="8.806127900872978"><ele>524.0</ele><time>2026-03-29T08:56:41Z</time></trkpt><trkpt lat="45.861524242562965" lon="8.80615849125019"><ele>523.0</ele><time>2026-03-29T08:56:42Z</time></trkpt><trkpt lat="45.86134920481017" lon="8.806174623059755"><ele>522.0</ele><time>2026-03-29T08:56:43Z</time></trkpt><trkpt lat="45.86116884223724" lon="8.806191068119057"><ele>522.0</ele><time>2026-03-29T08:56:44Z</time></trkpt><trkpt lat="45.860985731056225" lon="8.806196841559027"><ele>522.0</ele><time>2026-03-29T08:56:45Z</time></trkpt><trkpt lat="45.86081129439259" lon="8.806181383175367"><ele>522.0</ele><time>2026-03-29T08:56:46Z</time></trkpt><trkpt lat="45.86063971634333" lon="8.806142766622058"><ele>521.3333333333334</ele><time>2026-03-29T08:56:47Z</time></trkpt><trkpt lat="45.860460855984115" lon="8.806083151610435"><ele>520.6666666666667</ele><time>2026-03-29T08:56:48Z</time></trkpt><trkpt lat="45.86028210492777" lon="8.80602454862428"><ele>520.0</ele><time>2026-03-29T08:56:49Z</time></trkpt><trkpt lat="45.86011203957402" lon="8.805982018690893"><ele>522.6666666666667</ele><time>2026-03-29T08:56:50Z</time></trkpt><trkpt lat="45.85996007010335" lon="8.805943311461508"><ele>525.3333333333334</ele><time>2026-03-29T08:56:51Z</time></trkpt><trkpt lat="45.85980387298219" lon="8.80588814638987"><ele>528.0</ele><time>2026-03-29T08:56:52Z</time></trkpt><trkpt lat="45.85965714854338" lon="8.80582895203559"><ele>528.0</ele><time>2026-03-29T08:56:53Z</time></trkpt><trkpt lat="45.85952999274999" lon="8.80576770094652"><ele>528.0</ele><time>2026-03-29T08:56:54Z</time></trkpt><trkpt lat="45.85941766066506" lon="8.805672426816773"><ele>528.0</ele><time>2026-03-29T08:56:55Z</time></trkpt><trkpt lat="45.8593479449798" lon="8.80551471391668"><ele>528.0</ele><time>2026-03-29T08:56:56Z</time></trkpt><trkpt lat="45.85927397034497" lon="8.805358369823546"><ele>526.75</ele><time>2026-03-29T08:56:57Z</time></trkpt><trkpt lat="45.85918661149858" lon="8.80520637380058"><ele>525.5</ele><time>2026-03-29T08:56:58Z</time></trkpt><trkpt lat="45.85907677827678" lon="8.80509225173575"><ele>524.25</ele><time>2026-03-29T08:56:59Z</time></trkpt><trkpt lat="45.858949928358484" lon="8.805016587778457"><ele>523.0</ele><time>2026-03-29T08:57:00Z</time></trkpt><trkpt lat="45.85881292987516" lon="8.804973236413037"><ele>523.0</ele><time>2026-03-29T08:57:01Z</time></trkpt><trkpt lat="45.858667452605985" lon="8.804942866804256"><ele>523.0</ele><time>2026-03-29T08:57:02Z</time></trkpt><trkpt lat="45.85853479010414" lon="8.80491607287806"><ele>523.0</ele><time>2026-03-29T08:57:03Z</time></trkpt><trkpt lat="45.85841818883938" lon="8.804887650675727"><ele>523.0</ele><time>2026-03-29T08:57:04Z</time></trkpt><trkpt lat="45.858314532484385" lon="8.804830803518083"><ele>522.5</ele><time>2026-03-29T08:57:05Z</time></trkpt><trkpt lat="45.858208249021445" lon="8.804736815139083"><ele>522.0</ele><time>2026-03-29T08:57:06Z</time></trkpt><trkpt lat="45.85808828288955" lon="8.804611263806862"><ele>521.5</ele><time>2026-03-29T08:57:07Z</time></trkpt><trkpt lat="45.85795884584134" lon="8.804466240529521"><ele>521.0</ele><time>2026-03-29T08:57:08Z</time></trkpt><trkpt lat="45.85783933075194" lon="8.804353210876277"><ele>521.75</ele><time>2026-03-29T08:57:09Z</time></trkpt><trkpt lat="45.85771894926676" lon="8.804244886499202"><ele>522.5</ele><time>2026-03-29T08:57:10Z</time></trkpt><trkpt lat="45.857596721037076" lon="8.804135285398011"><ele>523.25</ele><time>2026-03-29T08:57:11Z</time></trkpt><trkpt lat="45.857476787992304" lon="8.804023127278425"><ele>524.0</ele><time>2026-03-29T08:57:12Z</time></trkpt><trkpt lat="45.85735832091052" lon="8.803909314511353"><ele>524.0</ele><time>2026-03-29T08:57:13Z</time></trkpt><trkpt lat="45.857248020298805" lon="8.803798572113006"><ele>524.0</ele><time>2026-03-29T08:57:14Z</time></trkpt><trkpt lat="45.857138743662645" lon="8.803692265320157"><ele>524.0</ele><time>2026-03-29T08:57:15Z</time></trkpt><trkpt lat="45.85701994251869" lon="8.80359231950744"><ele>524.0</ele><time>2026-03-29T08:57:16Z</time></trkpt><trkpt lat="45.856893039306414" lon="8.803516135263205"><ele>524.5</ele><time>2026-03-29T08:57:17Z</time></trkpt><trkpt lat="45.85676236909052" lon="8.803464168821938"><ele>525.0</ele><time>2026-03-29T08:57:18Z</time></trkpt><trkpt lat="45.85662384119817" lon="8.803431408461147"><ele>525.5</ele><time>2026-03-29T08:57:19Z</time></trkpt><trkpt lat="45.85648551310552" lon="8.803420081022324"><ele>526.0</ele><time>2026-03-29T08:57:20Z</time></trkpt><trkpt lat="45.85635498438955" lon="8.80342189202887"><ele>526.0</ele><time>2026-03-29T08:57:21Z</time></trkpt><trkpt lat="45.85623936597899" lon="8.80342247767966"><ele>526.0</ele><time>2026-03-29T08:57:22Z</time></trkpt><trkpt lat="45.85613696985184" lon="8.803405952438142"><ele>526.0</ele><time>2026-03-29T08:57:23Z</time></trkpt><trkpt lat="45.85602860081526" lon="8.803357104611347"><ele>526.0</ele><time>2026-03-29T08:57:24Z</time></trkpt><trkpt lat="45.85591523821364" lon="8.80327312399389"><ele>524.75</ele><time>2026-03-29T08:57:25Z</time></trkpt><trkpt lat="45.8557850587643" lon="8.803185987813153"><ele>523.5</ele><time>2026-03-29T08:57:26Z</time></trkpt><trkpt lat="45.85565100781393" lon="8.803084446198886"><ele>522.25</ele><time>2026-03-29T08:57:27Z</time></trkpt><trkpt lat="45.85551959511645" lon="8.802989377513413"><ele>521.0</ele><time>2026-03-29T08:57:28Z</time></trkpt><trkpt lat="45.85538315456326" lon="8.802888201751534"><ele>521.0</ele><time>2026-03-29T08:57:29Z</time></trkpt><trkpt lat="45.855246044825414" lon="8.802793060027254"><ele>521.0</ele><time>2026-03-29T08:57:30Z</time></trkpt><trkpt lat="45.85511386451011" lon="8.80269445850841"><ele>521.0</ele><time>2026-03-29T08:57:31Z</time></trkpt><trkpt lat="45.85499194058189" lon="8.80259902815252"><ele>521.0</ele><time>2026-03-29T08:57:32Z</time></trkpt><trkpt lat="45.854877863598986" lon="8.802493286485694"><ele>520.0</ele><time>2026-03-29T08:57:33Z</time></trkpt><trkpt lat="45.85478650413247" lon="8.802357472421065"><ele>519.0</ele><time>2026-03-29T08:57:34Z</time></trkpt><trkpt lat="45.85472365542141" lon="8.802183363749673"><ele>518.0</ele><time>2026-03-29T08:57:35Z</time></trkpt><trkpt lat="45.85467877703262" lon="8.801992458631435"><ele>517.0</ele><time>2026-03-29T08:57:36Z</time></trkpt><trkpt lat="45.85464174677361" lon="8.8018223872686"><ele>516.75</ele><time>2026-03-29T08:57:37Z</time></trkpt><trkpt lat="45.85457797685734" lon="8.80167992985836"><ele>516.5</ele><time>2026-03-29T08:57:38Z</time></trkpt><trkpt lat="45.85448486360162" lon="8.801576175946565"><ele>516.25</ele><time>2026-03-29T08:57:39Z</time></trkpt><trkpt lat="45.854376518800294" lon="8.80152493970172"><ele>516.0</ele><time>2026-03-29T08:57:40Z</time></trkpt><trkpt lat="45.854254895077325" lon="8.801531217223099"><ele>516.0</ele><time>2026-03-29T08:57:41Z</time></trkpt><trkpt lat="45.85411371185968" lon="8.80157004205641"><ele>516.0</ele><time>2026-03-29T08:57:42Z</time></trkpt><trkpt lat="45.85396269977016" lon="8.80164490236562"><ele>516.0</ele><time>2026-03-29T08:57:43Z</time></trkpt><trkpt lat="45.85380481079634" lon="8.801710070594265"><ele>516.0</ele><time>2026-03-29T08:57:44Z</time></trkpt><trkpt lat="45.85364737814978" lon="8.801771343135995"><ele>516.0</ele><time>2026-03-29T08:57:45Z</time></trkpt><trkpt lat="45.85348167603044" lon="8.801840096254411"><ele>516.0</ele><time>2026-03-29T08:57:46Z</time></trkpt><trkpt lat="45.85332051374415" lon="8.801897251593495"><ele>512.0</ele><time>2026-03-29T08:57:47Z</time></trkpt><trkpt lat="45.85317534568571" lon="8.801964015712358"><ele>508.0</ele><time>2026-03-29T08:57:48Z</time></trkpt><trkpt lat="45.853032477117765" lon="8.802025502264286"><ele>504.0</ele><time>2026-03-29T08:57:49Z</time></trkpt><trkpt lat="45.852890245535576" lon="8.802071685596243"><ele>500.0</ele><time>2026-03-29T08:57:50Z</time></trkpt><trkpt lat="45.8527212739793" lon="8.802086291238046"><ele>497.66666666666663</ele><time>2026-03-29T08:57:51Z</time></trkpt><trkpt lat="45.85253709431142" lon="8.802080060115513"><ele>495.33333333333337</ele><time>2026-03-29T08:57:52Z</time></trkpt><trkpt lat="45.852349045382795" lon="8.802032584197155"><ele>493.0</ele><time>2026-03-29T08:57:53Z</time></trkpt><trkpt lat="45.85214228425308" lon="8.802005195739273"><ele>493.0</ele><time>2026-03-29T08:57:54Z</time></trkpt><trkpt lat="45.85201511524332" lon="8.80198835039045"><ele>493.0</ele><time>2026-03-29T08:57:55Z</time></trkpt><trkpt lat="45.8518448573977" lon="8.801985121535685"><ele>493.0</ele><time>2026-03-29T08:57:56Z</time></trkpt><trkpt lat="45.8516895891479" lon="8.801958132962973"><ele>491.6666666666667</ele><time>2026-03-29T08:57:57Z</time></trkpt><trkpt lat="45.8515327971446" lon="8.801952548915818"><ele>490.33333333333337</ele><time>2026-03-29T08:57:58Z</time></trkpt><trkpt lat="45.851369680656205" lon="8.801985562626472"><ele>489.0</ele><time>2026-03-29T08:57:59Z</time></trkpt><trkpt lat="45.851205606346134" lon="8.80205742144208"><ele>489.0</ele><time>2026-03-29T08:58:00Z</time></trkpt><trkpt lat="45.85105348292255" lon="8.802146656969219"><ele>489.0</ele><time>2026-03-29T08:58:01Z</time></trkpt><trkpt lat="45.850910565289055" lon="8.802223962084604"><ele>489.0</ele><time>2026-03-29T08:58:02Z</time></trkpt><trkpt lat="45.85075172214222" lon="8.80226708772205"><ele>490.33333333333337</ele><time>2026-03-29T08:58:03Z</time></trkpt><trkpt lat="45.85057487311833" lon="8.802275420247822"><ele>491.6666666666667</ele><time>2026-03-29T08:58:04Z</time></trkpt><trkpt lat="45.850389108699446" lon="8.802297128956097"><ele>493.0</ele><time>2026-03-29T08:58:05Z</time></trkpt><trkpt lat="45.850207595162445" lon="8.802343802004815"><ele>494.0</ele><time>2026-03-29T08:58:06Z</time></trkpt><trkpt lat="45.85004563424192" lon="8.802402100024823"><ele>495.0</ele><time>2026-03-29T08:58:07Z</time></trkpt><trkpt lat="45.84988651854394" lon="8.802451456489774"><ele>496.0</ele><time>2026-03-29T08:58:08Z</time></trkpt><trkpt lat="45.849725477030326" lon="8.802461711415472"><ele>496.0</ele><time>2026-03-29T08:58:09Z</time></trkpt><trkpt lat="45.84957299825549" lon="8.802470385916854"><ele>496.0</ele><time>2026-03-29T08:58:10Z</time></trkpt><trkpt lat="45.849420791615515" lon="8.802527104667192"><ele>496.0</ele><time>2026-03-29T08:58:11Z</time></trkpt><trkpt lat="45.849262342641126" lon="8.80262395164598"><ele>492.6666666666667</ele><time>2026-03-29T08:58:12Z</time></trkpt><trkpt lat="45.84910739241742" lon="8.802735113405543"><ele>489.33333333333337</ele><time>2026-03-29T08:58:13Z</time></trkpt><trkpt lat="45.8489488219414" lon="8.802864451861838"><ele>486.0</ele><time>2026-03-29T08:58:14Z</time></trkpt><trkpt lat="45.84879162994139" lon="8.802995564069459"><ele>486.0</ele><time>2026-03-29T08:58:14.999Z</time></trkpt><trkpt lat="45.848619619622376" lon="8.803109087918758"><ele>486.0</ele><time>2026-03-29T08:58:15.999Z</time></trkpt><trkpt lat="45.84846565852201" lon="8.803230597890174"><ele>486.0</ele><time>2026-03-29T08:58:16.999Z</time></trkpt><trkpt lat="45.84832195405159" lon="8.803344013010362"><ele>489.0</ele><time>2026-03-29T08:58:17.999Z</time></trkpt><trkpt lat="45.84818796133415" lon="8.803471441291043"><ele>492.0</ele><time>2026-03-29T08:58:18.999Z</time></trkpt><trkpt lat="45.84805351082643" lon="8.803570417959738"><ele>495.0</ele><time>2026-03-29T08:58:19.999Z</time></trkpt><trkpt lat="45.84792844282522" lon="8.803670793807965"><ele>495.0</ele><time>2026-03-29T08:58:20.999Z</time></trkpt><trkpt lat="45.84781515575743" lon="8.803734194807257"><ele>495.0</ele><time>2026-03-29T08:58:21.999Z</time></trkpt><trkpt lat="45.84769798756782" lon="8.803811131576506"><ele>495.0</ele><time>2026-03-29T08:58:22.999Z</time></trkpt><trkpt lat="45.847581296703716" lon="8.803876085016565"><ele>495.0</ele><time>2026-03-29T08:58:23.999Z</time></trkpt><trkpt lat="45.84750039331871" lon="8.803901211146407"><ele>496.5</ele><time>2026-03-29T08:58:24.999Z</time></trkpt><trkpt lat="45.84740935690487" lon="8.803924523986813"><ele>498.0</ele><time>2026-03-29T08:58:27.001Z</time></trkpt><trkpt lat="45.847332929806605" lon="8.803913797404315"><ele>499.5</ele><time>2026-03-29T08:59:20Z</time></trkpt><trkpt lat="45.84724244767159" lon="8.803887397547406"><ele>501.0</ele><time>2026-03-29T08:59:22Z</time></trkpt><trkpt lat="45.847177840335284" lon="8.803860440796532"><ele>502.5</ele><time>2026-03-29T08:59:23Z</time></trkpt><trkpt lat="45.847107712238" lon="8.803829675445552"><ele>504.0</ele><time>2026-03-29T08:59:24Z</time></trkpt><trkpt lat="45.847038604864224" lon="8.803805172260457"><ele>504.0</ele><time>2026-03-29T08:59:25Z</time></trkpt><trkpt lat="45.84692700521131" lon="8.803744417085285"><ele>504.0</ele><time>2026-03-29T08:59:27Z</time></trkpt><trkpt lat="45.84685010758017" lon="8.803633556808492"><ele>504.0</ele><time>2026-03-29T08:59:29Z</time></trkpt><trkpt lat="45.846824716851366" lon="8.803545300815554"><ele>504.0</ele><time>2026-03-29T08:59:30Z</time></trkpt><trkpt lat="45.846799231346886" lon="8.80343347643834"><ele>504.0</ele><time>2026-03-29T08:59:31Z</time></trkpt><trkpt lat="45.84675215043862" lon="8.803314926398086"><ele>502.0</ele><time>2026-03-29T08:59:32Z</time></trkpt><trkpt lat="45.84667773845062" lon="8.803205591608602"><ele>500.0</ele><time>2026-03-29T08:59:33Z</time></trkpt><trkpt lat="45.84660458928801" lon="8.803105057321192"><ele>498.0</ele><time>2026-03-29T08:59:34Z</time></trkpt><trkpt lat="45.846529331427774" lon="8.803016479149527"><ele>496.0</ele><time>2026-03-29T08:59:35Z</time></trkpt><trkpt lat="45.84645207590542" lon="8.802921163306248"><ele>494.0</ele><time>2026-03-29T08:59:36Z</time></trkpt><trkpt lat="45.84637779704794" lon="8.802828081935257"><ele>494.0</ele><time>2026-03-29T08:59:37Z</time></trkpt><trkpt lat="45.84630347241712" lon="8.802746372676399"><ele>494.0</ele><time>2026-03-29T08:59:38Z</time></trkpt><trkpt lat="45.846223459397194" lon="8.802667882623316"><ele>494.0</ele><time>2026-03-29T08:59:39Z</time></trkpt><trkpt lat="45.846126409840075" lon="8.802602046790232"><ele>494.0</ele><time>2026-03-29T08:59:40Z</time></trkpt><trkpt lat="45.846032021552276" lon="8.80254321918373"><ele>494.0</ele><time>2026-03-29T08:59:41Z</time></trkpt><trkpt lat="45.845924281029966" lon="8.80253677276007"><ele>494.0</ele><time>2026-03-29T08:59:42Z</time></trkpt><trkpt lat="45.84581652580511" lon="8.802537534689336"><ele>494.0</ele><time>2026-03-29T08:59:43Z</time></trkpt><trkpt lat="45.84570606111943" lon="8.802577794581342"><ele>494.0</ele><time>2026-03-29T08:59:44Z</time></trkpt><trkpt lat="45.84559097172813" lon="8.802627976394634"><ele>494.0</ele><time>2026-03-29T08:59:45Z</time></trkpt><trkpt lat="45.84547521596" lon="8.802704523034546"><ele>493.25</ele><time>2026-03-29T08:59:46Z</time></trkpt><trkpt lat="45.84535675348382" lon="8.802786105401593"><ele>492.5</ele><time>2026-03-29T08:59:47Z</time></trkpt><trkpt lat="45.845239755980586" lon="8.802886064124827"><ele>491.75</ele><time>2026-03-29T08:59:48Z</time></trkpt><trkpt lat="45.845120802132804" lon="8.802990376888559"><ele>491.0</ele><time>2026-03-29T08:59:49Z</time></trkpt><trkpt lat="45.84501683708838" lon="8.803123013707856"><ele>489.25</ele><time>2026-03-29T08:59:50Z</time></trkpt><trkpt lat="45.84492948832018" lon="8.803255497349378"><ele>487.5</ele><time>2026-03-29T08:59:51Z</time></trkpt><trkpt lat="45.8448516821433" lon="8.803422549308062"><ele>485.75</ele><time>2026-03-29T08:59:52Z</time></trkpt><trkpt lat="45.84478855983209" lon="8.803566154600228"><ele>484.0</ele><time>2026-03-29T08:59:53Z</time></trkpt><trkpt lat="45.8447259727718" lon="8.803736616408038"><ele>484.0</ele><time>2026-03-29T08:59:54Z</time></trkpt><trkpt lat="45.84466249076419" lon="8.803875537829674"><ele>484.0</ele><time>2026-03-29T08:59:55Z</time></trkpt><trkpt lat="45.84459964284546" lon="8.804000706913113"><ele>484.0</ele><time>2026-03-29T08:59:56Z</time></trkpt><trkpt lat="45.844541892241445" lon="8.80413638616703"><ele>484.0</ele><time>2026-03-29T08:59:57Z</time></trkpt><trkpt lat="45.844516091340054" lon="8.804276583859245"><ele>484.0</ele><time>2026-03-29T08:59:58Z</time></trkpt><trkpt lat="45.84449914342579" lon="8.804411035176523"><ele>482.75</ele><time>2026-03-29T08:59:59Z</time></trkpt><trkpt lat="45.844501219413736" lon="8.804572630905417"><ele>481.5</ele><time>2026-03-29T09:00:00Z</time></trkpt><trkpt lat="45.844502851647455" lon="8.804747729205326"><ele>480.25</ele><time>2026-03-29T09:00:01Z</time></trkpt><trkpt lat="45.844520292143294" lon="8.804917309078704"><ele>479.0</ele><time>2026-03-29T09:00:02Z</time></trkpt><trkpt lat="45.844517048116316" lon="8.805072051602387"><ele>478.25</ele><time>2026-03-29T09:00:03Z</time></trkpt><trkpt lat="45.84449358674255" lon="8.805209415709466"><ele>477.5</ele><time>2026-03-29T09:00:04Z</time></trkpt><trkpt lat="45.84444291739463" lon="8.805368988915086"><ele>476.75</ele><time>2026-03-29T09:00:05Z</time></trkpt><trkpt lat="45.844347077390644" lon="8.805465995689858"><ele>476.0</ele><time>2026-03-29T09:00:06Z</time></trkpt><trkpt lat="45.8442608327984" lon="8.805578293497943"><ele>476.0</ele><time>2026-03-29T09:00:07Z</time></trkpt><trkpt lat="45.844189034745824" lon="8.805685974664643"><ele>476.0</ele><time>2026-03-29T09:00:08Z</time></trkpt><trkpt lat="45.84413004225124" lon="8.805825621889502"><ele>476.0</ele><time>2026-03-29T09:00:09Z</time></trkpt><trkpt lat="45.84407961357927" lon="8.80599170031798"><ele>476.0</ele><time>2026-03-29T09:00:10Z</time></trkpt><trkpt lat="45.84403113876106" lon="8.806142731051775"><ele>476.0</ele><time>2026-03-29T09:00:11Z</time></trkpt><trkpt lat="45.8439858765446" lon="8.806299871189049"><ele>476.0</ele><time>2026-03-29T09:00:12Z</time></trkpt><trkpt lat="45.843935951163544" lon="8.806451437394951"><ele>476.0</ele><time>2026-03-29T09:00:13Z</time></trkpt><trkpt lat="45.84387895912978" lon="8.80658750957128"><ele>476.0</ele><time>2026-03-29T09:00:13.999Z</time></trkpt><trkpt lat="45.8438135407829" lon="8.80673358215759"><ele>476.8</ele><time>2026-03-29T09:00:14.999Z</time></trkpt><trkpt lat="45.84372646893171" lon="8.806853685033067"><ele>477.6</ele><time>2026-03-29T09:00:15.999Z</time></trkpt><trkpt lat="45.843655197139626" lon="8.806974847526655"><ele>478.4</ele><time>2026-03-29T09:00:16.999Z</time></trkpt><trkpt lat="45.8435707912411" lon="8.80706554007789"><ele>479.2</ele><time>2026-03-29T09:00:17.999Z</time></trkpt><trkpt lat="45.84347308339355" lon="8.807128921197204"><ele>480.0</ele><time>2026-03-29T09:00:18.999Z</time></trkpt><trkpt lat="45.84337703245709" lon="8.80721233917698"><ele>478.4</ele><time>2026-03-29T09:00:19.999Z</time></trkpt><trkpt lat="45.84327637244415" lon="8.807304733824527"><ele>476.8</ele><time>2026-03-29T09:00:20.999Z</time></trkpt><trkpt lat="45.843191589163624" lon="8.807405238611576"><ele>475.20000000000005</ele><time>2026-03-29T09:00:21.999Z</time></trkpt><trkpt lat="45.84309828371058" lon="8.807480741140056"><ele>473.6</ele><time>2026-03-29T09:00:22.999Z</time></trkpt><trkpt lat="45.84301447652022" lon="8.807554392436511"><ele>472.0</ele><time>2026-03-29T09:00:23.999Z</time></trkpt><trkpt lat="45.8429420008036" lon="8.807626278935107"><ele>472.00000000000006</ele><time>2026-03-29T09:00:24.999Z</time></trkpt><trkpt lat="45.842871004586954" lon="8.807663103145424"><ele>472.0</ele><time>2026-03-29T09:00:25.999Z</time></trkpt><trkpt lat="45.842809313901824" lon="8.807722874192278"><ele>472.0</ele><time>2026-03-29T09:00:28.999Z</time></trkpt><trkpt lat="45.84273402430438" lon="8.807777433059153"><ele>472.0</ele><time>2026-03-29T09:00:31.999Z</time></trkpt><trkpt lat="45.84264109224703" lon="8.80787170656535"><ele>472.00000000000006</ele><time>2026-03-29T09:00:34.001Z</time></trkpt><trkpt lat="45.84258411604463" lon="8.807942451374835"><ele>472.0</ele><time>2026-03-29T09:00:35.001Z</time></trkpt><trkpt lat="45.84250850915887" lon="8.808021489299849"><ele>471.20000000000005</ele><time>2026-03-29T09:00:36.001Z</time></trkpt><trkpt lat="45.84242379357247" lon="8.80810662720562"><ele>470.40000000000003</ele><time>2026-03-29T09:00:37.001Z</time></trkpt><trkpt lat="45.84231951743736" lon="8.808177706252078"><ele>469.59999999999997</ele><time>2026-03-29T09:00:38.001Z</time></trkpt><trkpt lat="45.84222432984095" lon="8.80826515392416"><ele>468.79999999999995</ele><time>2026-03-29T09:00:39.001Z</time></trkpt><trkpt lat="45.84217149662192" lon="8.808319401220722"><ele>468.0</ele><time>2026-03-29T09:00:40.001Z</time></trkpt><trkpt lat="45.84210113171612" lon="8.808387631387466"><ele>468.0</ele><time>2026-03-29T09:00:41.001Z</time></trkpt><trkpt lat="45.842035927166435" lon="8.808451671694252"><ele>468.0</ele><time>2026-03-29T09:00:42.001Z</time></trkpt><trkpt lat="45.841967453515444" lon="8.808507663621011"><ele>468.0</ele><time>2026-03-29T09:00:43.001Z</time></trkpt><trkpt lat="45.84190354490108" lon="8.808567753186828"><ele>468.0</ele><time>2026-03-29T09:00:44.001Z</time></trkpt><trkpt lat="45.84183966020558" lon="8.808621446035566"><ele>468.0</ele><time>2026-03-29T09:00:45.001Z</time></trkpt><trkpt lat="45.84177948562149" lon="8.808668855863422"><ele>468.0</ele><time>2026-03-29T09:00:46.001Z</time></trkpt><trkpt lat="45.84171992926492" lon="8.808730093367865"><ele>467.59999999999997</ele><time>2026-03-29T09:00:47.001Z</time></trkpt><trkpt lat="45.84167085014869" lon="8.80885642158869"><ele>467.19999999999993</ele><time>2026-03-29T09:00:49.001Z</time></trkpt><trkpt lat="45.84163775694499" lon="8.808994054791425"><ele>466.8</ele><time>2026-03-29T09:00:50.001Z</time></trkpt><trkpt lat="45.84162285354724" lon="8.809119865794974"><ele>466.4</ele><time>2026-03-29T09:00:51.001Z</time></trkpt><trkpt lat="45.841622951388985" lon="8.809256735668429"><ele>466.0</ele><time>2026-03-29T09:00:52Z</time></trkpt><trkpt lat="45.841608452104026" lon="8.80940156500463"><ele>465.6</ele><time>2026-03-29T09:00:53Z</time></trkpt><trkpt lat="45.84155149060758" lon="8.809529777645455"><ele>465.20000000000005</ele><time>2026-03-29T09:00:54Z</time></trkpt><trkpt lat="45.84149082608507" lon="8.80963540903866"><ele>464.79999999999995</ele><time>2026-03-29T09:00:55Z</time></trkpt><trkpt lat="45.84142192982153" lon="8.809758813798302"><ele>464.4</ele><time>2026-03-29T09:00:56Z</time></trkpt><trkpt lat="45.8413548676027" lon="8.809874054101526"><ele>464.0</ele><time>2026-03-29T09:00:57Z</time></trkpt><trkpt lat="45.84128708949175" lon="8.80999052462744"><ele>464.0</ele><time>2026-03-29T09:00:58Z</time></trkpt><trkpt lat="45.841216369470246" lon="8.810112050546262"><ele>464.0</ele><time>2026-03-29T09:00:59Z</time></trkpt><trkpt lat="45.841149886049216" lon="8.810236101088464"><ele>464.0</ele><time>2026-03-29T09:01:00Z</time></trkpt><trkpt lat="45.841088086715075" lon="8.810361551647297"><ele>464.0</ele><time>2026-03-29T09:01:01Z</time></trkpt><trkpt lat="45.84101688130984" lon="8.81048373521195"><ele>464.0</ele><time>2026-03-29T09:01:02Z</time></trkpt><trkpt lat="45.84094948772724" lon="8.810584078019298"><ele>463.6</ele><time>2026-03-29T09:01:03Z</time></trkpt><trkpt lat="45.84089524867396" lon="8.810678765548943"><ele>463.2</ele><time>2026-03-29T09:01:04Z</time></trkpt><trkpt lat="45.84080965245347" lon="8.8107494265131"><ele>462.80000000000007</ele><time>2026-03-29T09:01:05Z</time></trkpt><trkpt lat="45.840701981462765" lon="8.81078356898342"><ele>462.40000000000003</ele><time>2026-03-29T09:01:06Z</time></trkpt><trkpt lat="45.840595920724255" lon="8.810780095410257"><ele>462.0</ele><time>2026-03-29T09:01:07Z</time></trkpt><trkpt lat="45.84048868464413" lon="8.810774620278126"><ele>462.0</ele><time>2026-03-29T09:01:08Z</time></trkpt><trkpt lat="45.840373171859376" lon="8.810764791503589"><ele>462.00000000000006</ele><time>2026-03-29T09:01:09Z</time></trkpt><trkpt lat="45.84027490650597" lon="8.81079923194491"><ele>462.00000000000006</ele><time>2026-03-29T09:01:10Z</time></trkpt><trkpt lat="45.84017884576556" lon="8.810809238869446"><ele>462.0</ele><time>2026-03-29T09:01:11Z</time></trkpt><trkpt lat="45.84010126435539" lon="8.81082567323816"><ele>462.0</ele><time>2026-03-29T09:01:12Z</time></trkpt><trkpt lat="45.84003945993626" lon="8.810843514124615"><ele>461.3333333333333</ele><time>2026-03-29T09:01:13Z</time></trkpt><trkpt lat="45.8399409926368" lon="8.810840586214528"><ele>460.66666666666663</ele><time>2026-03-29T09:01:15Z</time></trkpt><trkpt lat="45.8398499107404" lon="8.810856769699786"><ele>460.0</ele><time>2026-03-29T09:01:19Z</time></trkpt><trkpt lat="45.839755480282015" lon="8.810838575789456"><ele>459.3333333333333</ele><time>2026-03-29T09:01:20Z</time></trkpt><trkpt lat="45.83968566534951" lon="8.810825167624891"><ele>458.66666666666663</ele><time>2026-03-29T09:01:21Z</time></trkpt><trkpt lat="45.83961533044201" lon="8.810855414516446"><ele>458.0</ele><time>2026-03-29T09:01:22Z</time></trkpt><trkpt lat="45.83953630710362" lon="8.81085722506116"><ele>458.0</ele><time>2026-03-29T09:01:23Z</time></trkpt><trkpt lat="45.83944405460974" lon="8.810876530632024"><ele>457.99999999999994</ele><time>2026-03-29T09:01:24Z</time></trkpt><trkpt lat="45.839357668410244" lon="8.810897959734021"><ele>457.99999999999994</ele><time>2026-03-29T09:01:25Z</time></trkpt><trkpt lat="45.839275372464336" lon="8.810913994611434"><ele>458.0</ele><time>2026-03-29T09:01:26Z</time></trkpt><trkpt lat="45.839199995960136" lon="8.810903454203677"><ele>458.0</ele><time>2026-03-29T09:01:27Z</time></trkpt><trkpt lat="45.83910841002382" lon="8.810771031505675"><ele>458.59999999999997</ele><time>2026-03-29T09:01:29Z</time></trkpt><trkpt lat="45.839093814478275" lon="8.810655672935802"><ele>459.19999999999993</ele><time>2026-03-29T09:01:30Z</time></trkpt><trkpt lat="45.83911464046427" lon="8.810514337635006"><ele>459.8</ele><time>2026-03-29T09:01:31Z</time></trkpt><trkpt lat="45.83919949356899" lon="8.81040753921351"><ele>460.4</ele><time>2026-03-29T09:01:32Z</time></trkpt><trkpt lat="45.83926506732394" lon="8.81027105454985"><ele>461.0</ele><time>2026-03-29T09:01:33Z</time></trkpt><trkpt lat="45.839325284610325" lon="8.810133097344048"><ele>460.99999999999994</ele><time>2026-03-29T09:01:34Z</time></trkpt><trkpt lat="45.83937635587762" lon="8.810027814510184"><ele>461.0</ele><time>2026-03-29T09:01:35Z</time></trkpt><trkpt lat="45.839422242324325" lon="8.809923492071409"><ele>461.0</ele><time>2026-03-29T09:01:36Z</time></trkpt><trkpt lat="45.83947044520841" lon="8.809824763688978"><ele>461.0</ele><time>2026-03-29T09:01:37Z</time></trkpt><trkpt lat="45.83950557566542" lon="8.809735445046545"><ele>460.99999999999994</ele><time>2026-03-29T09:01:38Z</time></trkpt><trkpt lat="45.83951355045605" lon="8.809644757750728"><ele>461.0</ele><time>2026-03-29T09:01:39Z</time></trkpt><trkpt lat="45.83950069400096" lon="8.809549379490752"><ele>460.99999999999994</ele><time>2026-03-29T09:01:40Z</time></trkpt><trkpt lat="45.83947123950816" lon="8.809452738023294"><ele>461.0</ele><time>2026-03-29T09:01:41Z</time></trkpt><trkpt lat="45.839453716585105" lon="8.809354455683389"><ele>461.0</ele><time>2026-03-29T09:01:42Z</time></trkpt><trkpt lat="45.83945403248043" lon="8.809257127876764"><ele>461.0</ele><time>2026-03-29T09:01:43Z</time></trkpt><trkpt lat="45.839436458959554" lon="8.8091034981771"><ele>460.99999999999994</ele><time>2026-03-29T09:01:45Z</time></trkpt><trkpt lat="45.8393381267687" lon="8.809099711507518"><ele>461.0</ele><time>2026-03-29T09:01:46Z</time></trkpt><trkpt lat="45.83926306500405" lon="8.80914104455389"><ele>458.0</ele><time>2026-03-29T09:01:47Z</time></trkpt><trkpt lat="45.83920179290144" lon="8.80921892061437"><ele>455.0</ele><time>2026-03-29T09:01:48Z</time></trkpt><trkpt lat="45.83916676829949" lon="8.8093516278104"><ele>452.0</ele><time>2026-03-29T09:01:49Z</time></trkpt><trkpt lat="45.83914669468616" lon="8.809488735286688"><ele>449.0</ele><time>2026-03-29T09:01:50Z</time></trkpt><trkpt lat="45.83914519790633" lon="8.809653040492632"><ele>446.0</ele><time>2026-03-29T09:01:51Z</time></trkpt><trkpt lat="45.839078344632895" lon="8.809816962660916"><ele>445.75</ele><time>2026-03-29T09:01:52Z</time></trkpt><trkpt lat="45.839034418672135" lon="8.809987193123098"><ele>445.5</ele><time>2026-03-29T09:01:53Z</time></trkpt><trkpt lat="45.838984585610916" lon="8.810155529379166"><ele>445.25</ele><time>2026-03-29T09:01:54Z</time></trkpt><trkpt lat="45.838933632158515" lon="8.810319662112633"><ele>445.0</ele><time>2026-03-29T09:01:55Z</time></trkpt><trkpt lat="45.838886850932916" lon="8.810483488642241"><ele>445.75</ele><time>2026-03-29T09:01:56Z</time></trkpt><trkpt lat="45.83884594111133" lon="8.810641690954714"><ele>446.5</ele><time>2026-03-29T09:01:57Z</time></trkpt><trkpt lat="45.83882841830063" lon="8.810818301862495"><ele>447.25</ele><time>2026-03-29T09:01:58Z</time></trkpt><trkpt lat="45.8388070277179" lon="8.811009562242086"><ele>448.0</ele><time>2026-03-29T09:01:59Z</time></trkpt><trkpt lat="45.838815505862485" lon="8.81120861054021"><ele>448.75</ele><time>2026-03-29T09:02:00Z</time></trkpt><trkpt lat="45.83879654717067" lon="8.811402388620088"><ele>449.5</ele><time>2026-03-29T09:02:00.999Z</time></trkpt><trkpt lat="45.83877270024992" lon="8.81158953197459"><ele>450.25</ele><time>2026-03-29T09:02:01.999Z</time></trkpt><trkpt lat="45.83875934201333" lon="8.811762540684613"><ele>451.0</ele><time>2026-03-29T09:02:02.999Z</time></trkpt><trkpt lat="45.83877016701388" lon="8.811980596128928"><ele>451.25</ele><time>2026-03-29T09:02:03.999Z</time></trkpt><trkpt lat="45.838763678942215" lon="8.812164987998395"><ele>451.5</ele><time>2026-03-29T09:02:04.999Z</time></trkpt><trkpt lat="45.83875717771969" lon="8.81234039912436"><ele>451.75</ele><time>2026-03-29T09:02:05.999Z</time></trkpt><trkpt lat="45.83874671278399" lon="8.812515768429009"><ele>452.0</ele><time>2026-03-29T09:02:06.999Z</time></trkpt><trkpt lat="45.838750052854294" lon="8.812686801040488"><ele>452.25</ele><time>2026-03-29T09:02:07.999Z</time></trkpt><trkpt lat="45.83873822647761" lon="8.812858344688038"><ele>452.5</ele><time>2026-03-29T09:02:08.999Z</time></trkpt><trkpt lat="45.83873121756585" lon="8.81304115620979"><ele>452.75</ele><time>2026-03-29T09:02:09.999Z</time></trkpt><trkpt lat="45.83872982687823" lon="8.813225626196552"><ele>453.0</ele><time>2026-03-29T09:02:10.999Z</time></trkpt><trkpt lat="45.83872405570174" lon="8.81341567393914"><ele>451.25</ele><time>2026-03-29T09:02:11.999Z</time></trkpt><trkpt lat="45.83871705379105" lon="8.813609821892292"><ele>449.5</ele><time>2026-03-29T09:02:12.999Z</time></trkpt><trkpt lat="45.838707711857964" lon="8.81379813318144"><ele>447.75</ele><time>2026-03-29T09:02:13.999Z</time></trkpt><trkpt lat="45.83870686993896" lon="8.813979826605555"><ele>446.0</ele><time>2026-03-29T09:02:14.999Z</time></trkpt><trkpt lat="45.838691776930425" lon="8.81414620450302"><ele>446.0</ele><time>2026-03-29T09:02:15.999Z</time></trkpt><trkpt lat="45.838674999911746" lon="8.81431417958788"><ele>446.0</ele><time>2026-03-29T09:02:16.999Z</time></trkpt><trkpt lat="45.83862204348689" lon="8.814458868359067"><ele>446.0</ele><time>2026-03-29T09:02:17.999Z</time></trkpt><trkpt lat="45.83856848143773" lon="8.814602191431776"><ele>446.0</ele><time>2026-03-29T09:02:18.999Z</time></trkpt><trkpt lat="45.83849044872312" lon="8.814726951196747"><ele>442.16666666666663</ele><time>2026-03-29T09:02:19.999Z</time></trkpt><trkpt lat="45.83841649325613" lon="8.814830852772024"><ele>438.3333333333333</ele><time>2026-03-29T09:02:20.999Z</time></trkpt><trkpt lat="45.83834966599469" lon="8.814907090707361"><ele>434.5</ele><time>2026-03-29T09:02:21.999Z</time></trkpt><trkpt lat="45.83829297157409" lon="8.814964926585608"><ele>430.66666666666663</ele><time>2026-03-29T09:02:22.999Z</time></trkpt><trkpt lat="45.838248615961184" lon="8.81502957437218"><ele>426.8333333333333</ele><time>2026-03-29T09:02:23.999Z</time></trkpt><trkpt lat="45.83815192440205" lon="8.815143201943023"><ele>423.0</ele><time>2026-03-29T09:02:25.999Z</time></trkpt><trkpt lat="45.83808833616162" lon="8.815224525506391"><ele>423.0</ele><time>2026-03-29T09:02:26.999Z</time></trkpt><trkpt lat="45.83802025099623" lon="8.815308684896221"><ele>423.0</ele><time>2026-03-29T09:02:27.999Z</time></trkpt><trkpt lat="45.83795069648662" lon="8.815390155208194"><ele>423.0</ele><time>2026-03-29T09:02:28.999Z</time></trkpt><trkpt lat="45.837895541852085" lon="8.815450393405847"><ele>423.0</ele><time>2026-03-29T09:02:29.999Z</time></trkpt><trkpt lat="45.83783580930746" lon="8.815508722548932"><ele>423.0</ele><time>2026-03-29T09:02:30.999Z</time></trkpt><trkpt lat="45.83778209277929" lon="8.815582484347908"><ele>423.0</ele><time>2026-03-29T09:02:31.999Z</time></trkpt><trkpt lat="45.83772361719439" lon="8.815645689182967"><ele>423.0</ele><time>2026-03-29T09:02:32.999Z</time></trkpt><trkpt lat="45.837664888851705" lon="8.81571954204296"><ele>423.0</ele><time>2026-03-29T09:02:33.999Z</time></trkpt><trkpt lat="45.837600780069984" lon="8.815796391005962"><ele>423.0</ele><time>2026-03-29T09:02:34.999Z</time></trkpt><trkpt lat="45.837543763795125" lon="8.815876936730891"><ele>423.0</ele><time>2026-03-29T09:02:35.999Z</time></trkpt><trkpt lat="45.83748383570175" lon="8.815939970870344"><ele>423.0</ele><time>2026-03-29T09:02:36.999Z</time></trkpt><trkpt lat="45.83742149523305" lon="8.816011296311368"><ele>423.0</ele><time>2026-03-29T09:02:37.999Z</time></trkpt><trkpt lat="45.83733025678544" lon="8.816112457515567"><ele>422.6666666666667</ele><time>2026-03-29T09:02:40.001Z</time></trkpt><trkpt lat="45.83725383261379" lon="8.816144079222235"><ele>422.33333333333337</ele><time>2026-03-29T09:02:43Z</time></trkpt><trkpt lat="45.83717940385686" lon="8.816091784644971"><ele>422.0</ele><time>2026-03-29T09:02:45Z</time></trkpt><trkpt lat="45.83709912074682" lon="8.81610148739159"><ele>421.6666666666667</ele><time>2026-03-29T09:02:47Z</time></trkpt><trkpt lat="45.837062303842536" lon="8.816199443161299"><ele>421.33333333333337</ele><time>2026-03-29T09:02:49Z</time></trkpt><trkpt lat="45.83705999025166" lon="8.816300478147902"><ele>421.0</ele><time>2026-03-29T09:02:51Z</time></trkpt><trkpt lat="45.83698776829651" lon="8.816425784996627"><ele>421.0</ele><time>2026-03-29T09:02:53Z</time></trkpt><trkpt lat="45.8369276264215" lon="8.816512366408976"><ele>421.0</ele><time>2026-03-29T09:02:54Z</time></trkpt><trkpt lat="45.836852973211094" lon="8.816598014456334"><ele>421.0</ele><time>2026-03-29T09:02:55Z</time></trkpt><trkpt lat="45.83678333562506" lon="8.816685369905304"><ele>421.0</ele><time>2026-03-29T09:02:56Z</time></trkpt><trkpt lat="45.83671497293589" lon="8.816752493850016"><ele>421.0</ele><time>2026-03-29T09:02:57Z</time></trkpt><trkpt lat="45.83664292376406" lon="8.816847158327024"><ele>421.0</ele><time>2026-03-29T09:02:58Z</time></trkpt><trkpt lat="45.836557092879204" lon="8.816954760678371"><ele>421.0</ele><time>2026-03-29T09:02:59Z</time></trkpt><trkpt lat="45.83647332247966" lon="8.817063258216338"><ele>421.0</ele><time>2026-03-29T09:03:00Z</time></trkpt><trkpt lat="45.83641048812425" lon="8.817163062048575"><ele>421.0</ele><time>2026-03-29T09:03:01Z</time></trkpt><trkpt lat="45.83634734511667" lon="8.81724601403549"><ele>421.0</ele><time>2026-03-29T09:03:02Z</time></trkpt><trkpt lat="45.836280730404816" lon="8.817304877641782"><ele>421.0</ele><time>2026-03-29T09:03:03Z</time></trkpt><trkpt lat="45.8361982199082" lon="8.817395548954863"><ele>421.0</ele><time>2026-03-29T09:03:04Z</time></trkpt><trkpt lat="45.83610069932757" lon="8.817495622709"><ele>421.0</ele><time>2026-03-29T09:03:05Z</time></trkpt><trkpt lat="45.83602344767151" lon="8.817603901225867"><ele>421.0</ele><time>2026-03-29T09:03:06Z</time></trkpt><trkpt lat="45.835944362552695" lon="8.817689808357693"><ele>421.0</ele><time>2026-03-29T09:03:07Z</time></trkpt><trkpt lat="45.8358639477191" lon="8.817780025774749"><ele>421.0</ele><time>2026-03-29T09:03:08Z</time></trkpt><trkpt lat="45.83578792577557" lon="8.817868648530101"><ele>421.0</ele><time>2026-03-29T09:03:09Z</time></trkpt><trkpt lat="45.835707517881154" lon="8.817963949419811"><ele>421.0</ele><time>2026-03-29T09:03:10Z</time></trkpt><trkpt lat="45.83562687490299" lon="8.818051204110342"><ele>421.0</ele><time>2026-03-29T09:03:11Z</time></trkpt><trkpt lat="45.835558165853556" lon="8.818134081126459"><ele>421.0</ele><time>2026-03-29T09:03:12Z</time></trkpt><trkpt lat="45.83549440207134" lon="8.818197669506421"><ele>421.0</ele><time>2026-03-29T09:03:13Z</time></trkpt><trkpt lat="45.83544064761848" lon="8.818258003656181"><ele>421.0</ele><time>2026-03-29T09:03:14Z</time></trkpt><trkpt lat="45.83536527068036" lon="8.81836649495036"><ele>421.0</ele><time>2026-03-29T09:03:16Z</time></trkpt><trkpt lat="45.8352811606981" lon="8.818472016481397"><ele>421.0</ele><time>2026-03-29T09:03:27Z</time></trkpt><trkpt lat="45.83521247219791" lon="8.818557699485865"><ele>421.0</ele><time>2026-03-29T09:03:28Z</time></trkpt><trkpt lat="45.835134450449324" lon="8.818668091483406"><ele>420.5</ele><time>2026-03-29T09:03:29Z</time></trkpt><trkpt lat="45.83503521450809" lon="8.81879585045221"><ele>420.0</ele><time>2026-03-29T09:03:30Z</time></trkpt><trkpt lat="45.83492578906371" lon="8.818924966988133"><ele>419.5</ele><time>2026-03-29T09:03:31Z</time></trkpt><trkpt lat="45.83482032231815" lon="8.819050069372112"><ele>419.0</ele><time>2026-03-29T09:03:32Z</time></trkpt><trkpt lat="45.83471081351558" lon="8.819184424766794"><ele>418.0</ele><time>2026-03-29T09:03:33Z</time></trkpt><trkpt lat="45.834595098260046" lon="8.819323370789757"><ele>417.0</ele><time>2026-03-29T09:03:34Z</time></trkpt><trkpt lat="45.83447681256177" lon="8.819463336028571"><ele>416.0</ele><time>2026-03-29T09:03:35Z</time></trkpt><trkpt lat="45.834366118260924" lon="8.819599739219932"><ele>416.0</ele><time>2026-03-29T09:03:36Z</time></trkpt><trkpt lat="45.83425411734916" lon="8.819731633110942"><ele>416.0</ele><time>2026-03-29T09:03:37Z</time></trkpt><trkpt lat="45.83414554439442" lon="8.81985508602474"><ele>416.0</ele><time>2026-03-29T09:03:38Z</time></trkpt><trkpt lat="45.83404039326774" lon="8.819978393988002"><ele>416.0</ele><time>2026-03-29T09:03:39Z</time></trkpt><trkpt lat="45.83394331169986" lon="8.820092898149575"><ele>415.20000000000005</ele><time>2026-03-29T09:03:40Z</time></trkpt><trkpt lat="45.83384826970861" lon="8.82020398332838"><ele>414.40000000000003</ele><time>2026-03-29T09:03:41Z</time></trkpt><trkpt lat="45.83376232637648" lon="8.82030264699158"><ele>413.6</ele><time>2026-03-29T09:03:42Z</time></trkpt><trkpt lat="45.833696069661926" lon="8.820386674105052"><ele>412.8</ele><time>2026-03-29T09:03:43Z</time></trkpt><trkpt lat="45.833650933729345" lon="8.820453605239981"><ele>412.0</ele><time>2026-03-29T09:03:44Z</time></trkpt><trkpt lat="45.83357237570323" lon="8.820533416704011"><ele>412.00000000000006</ele><time>2026-03-29T09:03:45Z</time></trkpt><trkpt lat="45.833514712937614" lon="8.8206069155231"><ele>412.0</ele><time>2026-03-29T09:03:46Z</time></trkpt><trkpt lat="45.833443784106095" lon="8.82065958971393"><ele>412.0</ele><time>2026-03-29T09:03:47Z</time></trkpt><trkpt lat="45.83338846738316" lon="8.820723164085491"><ele>412.0</ele><time>2026-03-29T09:03:47.999Z</time></trkpt><trkpt lat="45.833337276307766" lon="8.820792794922722"><ele>412.00000000000006</ele><time>2026-03-29T09:03:48.999Z</time></trkpt><trkpt lat="45.83329401674266" lon="8.820858643466046"><ele>412.0</ele><time>2026-03-29T09:03:49.999Z</time></trkpt><trkpt lat="45.833186486962795" lon="8.820951805587457"><ele>412.1428571428571</ele><time>2026-03-29T09:03:51.999Z</time></trkpt><trkpt lat="45.83311587354564" lon="8.821015105712338"><ele>412.2857142857143</ele><time>2026-03-29T09:03:52.999Z</time></trkpt><trkpt lat="45.83306253762223" lon="8.82106586042718"><ele>412.42857142857144</ele><time>2026-03-29T09:03:53.999Z</time></trkpt><trkpt lat="45.83300339042308" lon="8.821118708437291"><ele>412.57142857142856</ele><time>2026-03-29T09:03:54.999Z</time></trkpt><trkpt lat="45.832958933013344" lon="8.821191240631673"><ele>412.7142857142857</ele><time>2026-03-29T09:03:55.999Z</time></trkpt><trkpt lat="45.83290898235892" lon="8.821256571717804"><ele>412.85714285714283</ele><time>2026-03-29T09:03:56.999Z</time></trkpt><trkpt lat="45.83285553651667" lon="8.821325623683379"><ele>413.0</ele><time>2026-03-29T09:03:57.999Z</time></trkpt><trkpt lat="45.8327963209358" lon="8.821401310054128"><ele>412.99999999999994</ele><time>2026-03-29T09:03:58.999Z</time></trkpt><trkpt lat="45.832737317637445" lon="8.821483170376135"><ele>413.0</ele><time>2026-03-29T09:03:59.999Z</time></trkpt><trkpt lat="45.83267897890599" lon="8.821559676417207"><ele>413.0</ele><time>2026-03-29T09:04:00.999Z</time></trkpt><trkpt lat="45.83263084684774" lon="8.821622208238896"><ele>413.0</ele><time>2026-03-29T09:04:01.999Z</time></trkpt><trkpt lat="45.83257912923356" lon="8.821674201317867"><ele>412.99999999999994</ele><time>2026-03-29T09:04:02.999Z</time></trkpt><trkpt lat="45.83253579803727" lon="8.821754218183518"><ele>413.0</ele><time>2026-03-29T09:04:03.999Z</time></trkpt><trkpt lat="45.83242733344821" lon="8.821863503918388"><ele>412.79999999999995</ele><time>2026-03-29T09:04:05.999Z</time></trkpt><trkpt lat="45.832364487315395" lon="8.821943022036617"><ele>412.6</ele><time>2026-03-29T09:04:06.999Z</time></trkpt><trkpt lat="45.832299111452194" lon="8.822024610801977"><ele>412.4</ele><time>2026-03-29T09:04:07.999Z</time></trkpt><trkpt lat="45.83222737058509" lon="8.822104726214175"><ele>412.20000000000005</ele><time>2026-03-29T09:04:08.999Z</time></trkpt><trkpt lat="45.83215161342057" lon="8.822185943732276"><ele>412.0</ele><time>2026-03-29T09:04:09.999Z</time></trkpt><trkpt lat="45.8320762638503" lon="8.822268028133513"><ele>412.0</ele><time>2026-03-29T09:04:10.999Z</time></trkpt><trkpt lat="45.83200456310447" lon="8.822357951240956"><ele>412.0</ele><time>2026-03-29T09:04:11.999Z</time></trkpt><trkpt lat="45.831924722074845" lon="8.822451941204026"><ele>412.0</ele><time>2026-03-29T09:04:12.999Z</time></trkpt><trkpt lat="45.831843983069504" lon="8.822544013134685"><ele>412.0</ele><time>2026-03-29T09:04:13.999Z</time></trkpt><trkpt lat="45.831760458616166" lon="8.822647638978372"><ele>412.0</ele><time>2026-03-29T09:04:14.999Z</time></trkpt><trkpt lat="45.83167769111199" lon="8.822749061653402"><ele>412.20000000000005</ele><time>2026-03-29T09:04:15.999Z</time></trkpt><trkpt lat="45.831614406106716" lon="8.822805322641852"><ele>412.4</ele><time>2026-03-29T09:04:16.999Z</time></trkpt><trkpt lat="45.83152787177067" lon="8.822909858782863"><ele>412.6</ele><time>2026-03-29T09:04:17.999Z</time></trkpt><trkpt lat="45.83144239006615" lon="8.822987546784416"><ele>412.79999999999995</ele><time>2026-03-29T09:04:18.999Z</time></trkpt><trkpt lat="45.83134596556341" lon="8.823056856441147"><ele>413.0</ele><time>2026-03-29T09:04:19.999Z</time></trkpt><trkpt lat="45.831238562877594" lon="8.823104120205455"><ele>413.0</ele><time>2026-03-29T09:04:20.999Z</time></trkpt><trkpt lat="45.83112594313168" lon="8.823152872077289"><ele>413.0</ele><time>2026-03-29T09:04:21.999Z</time></trkpt><trkpt lat="45.83101981591758" lon="8.823180051355777"><ele>413.0</ele><time>2026-03-29T09:04:22.999Z</time></trkpt><trkpt lat="45.830912256839774" lon="8.8232171182746"><ele>413.0</ele><time>2026-03-29T09:04:23.999Z</time></trkpt><trkpt lat="45.83079922965332" lon="8.823232309169084"><ele>412.75</ele><time>2026-03-29T09:04:24.999Z</time></trkpt><trkpt lat="45.8306682090413" lon="8.8232743073954"><ele>412.5</ele><time>2026-03-29T09:04:25.999Z</time></trkpt><trkpt lat="45.83054634560062" lon="8.823304220152302"><ele>412.25</ele><time>2026-03-29T09:04:26.999Z</time></trkpt><trkpt lat="45.83043147387001" lon="8.823339108669746"><ele>412.0</ele><time>2026-03-29T09:04:27.999Z</time></trkpt><trkpt lat="45.83031250160803" lon="8.823373167626897"><ele>412.0</ele><time>2026-03-29T09:04:28.999Z</time></trkpt><trkpt lat="45.83020421455438" lon="8.823399995424188"><ele>412.0</ele><time>2026-03-29T09:04:29.999Z</time></trkpt><trkpt lat="45.83009978902577" lon="8.823426671171468"><ele>412.0</ele><time>2026-03-29T09:04:30.999Z</time></trkpt><trkpt lat="45.83000079315423" lon="8.823452586968868"><ele>412.0</ele><time>2026-03-29T09:04:31.999Z</time></trkpt><trkpt lat="45.829910702683264" lon="8.823478170579884"><ele>412.0</ele><time>2026-03-29T09:04:32.999Z</time></trkpt><trkpt lat="45.82982619899279" lon="8.823496772195648"><ele>411.1666666666667</ele><time>2026-03-29T09:04:33.999Z</time></trkpt><trkpt lat="45.829754715092086" lon="8.823515626245294"><ele>410.33333333333337</ele><time>2026-03-29T09:04:34.999Z</time></trkpt><trkpt lat="45.82965968896182" lon="8.82354232479495"><ele>409.5</ele><time>2026-03-29T09:04:36.999Z</time></trkpt><trkpt lat="45.8295638041154" lon="8.823573346479462"><ele>408.66666666666663</ele><time>2026-03-29T09:04:57Z</time></trkpt><trkpt lat="45.82949807151579" lon="8.823592323292555"><ele>407.8333333333333</ele><time>2026-03-29T09:04:58Z</time></trkpt><trkpt lat="45.82942750527472" lon="8.823605905034151"><ele>407.0</ele><time>2026-03-29T09:04:59Z</time></trkpt><trkpt lat="45.829363424983526" lon="8.823593573192179"><ele>407.0</ele><time>2026-03-29T09:05:00Z</time></trkpt><trkpt lat="45.829296554963044" lon="8.82360389272222"><ele>407.0</ele><time>2026-03-29T09:05:02Z</time></trkpt><trkpt lat="45.829353626078124" lon="8.823878340775783"><ele>407.0</ele><time>2026-03-29T09:05:04Z</time></trkpt><trkpt lat="45.8294149625641" lon="8.82397582586075"><ele>407.0</ele><time>2026-03-29T09:05:05Z</time></trkpt><trkpt lat="45.82948654841144" lon="8.824048628792154"><ele>407.0</ele><time>2026-03-29T09:05:06Z</time></trkpt><trkpt lat="45.82954986617932" lon="8.824137061589521"><ele>407.0</ele><time>2026-03-29T09:05:07Z</time></trkpt><trkpt lat="45.829614682174025" lon="8.82423880820234"><ele>407.0</ele><time>2026-03-29T09:05:08Z</time></trkpt><trkpt lat="45.829680550395665" lon="8.824343691271332"><ele>407.0</ele><time>2026-03-29T09:05:09Z</time></trkpt><trkpt lat="45.829756995175686" lon="8.82445191649669"><ele>407.0</ele><time>2026-03-29T09:05:10Z</time></trkpt><trkpt lat="45.82982852409663" lon="8.824561318192147"><ele>407.0</ele><time>2026-03-29T09:05:11Z</time></trkpt><trkpt lat="45.8299018674126" lon="8.824676776255508"><ele>407.0</ele><time>2026-03-29T09:05:12Z</time></trkpt><trkpt lat="45.82996022945186" lon="8.824792421454019"><ele>407.0</ele><time>2026-03-29T09:05:13Z</time></trkpt><trkpt lat="45.83003477995297" lon="8.824895081966277"><ele>407.0</ele><time>2026-03-29T09:05:14Z</time></trkpt><trkpt lat="45.83010141612515" lon="8.824998804515838"><ele>407.0</ele><time>2026-03-29T09:05:15Z</time></trkpt><trkpt lat="45.83015480921988" lon="8.825099241974263"><ele>407.0</ele><time>2026-03-29T09:05:16Z</time></trkpt><trkpt lat="45.83022355188261" lon="8.825188341209422"><ele>405.75</ele><time>2026-03-29T09:05:17Z</time></trkpt><trkpt lat="45.83023975891614" lon="8.825336578781977"><ele>404.5</ele><time>2026-03-29T09:05:18Z</time></trkpt><trkpt lat="45.83024857406379" lon="8.825503195172622"><ele>403.25</ele><time>2026-03-29T09:05:19Z</time></trkpt><trkpt lat="45.83026535108656" lon="8.825679189297416"><ele>402.0</ele><time>2026-03-29T09:05:20Z</time></trkpt><trkpt lat="45.830271349795424" lon="8.825852915297963"><ele>402.25</ele><time>2026-03-29T09:05:21Z</time></trkpt><trkpt lat="45.830273309288906" lon="8.826021217549826"><ele>402.5</ele><time>2026-03-29T09:05:22Z</time></trkpt><trkpt lat="45.83028210061979" lon="8.8261782962376"><ele>402.75</ele><time>2026-03-29T09:05:23Z</time></trkpt><trkpt lat="45.83028337825836" lon="8.826348722203667"><ele>403.0</ele><time>2026-03-29T09:05:24Z</time></trkpt><trkpt lat="45.830287206613754" lon="8.826528765382555"><ele>403.0</ele><time>2026-03-29T09:05:25Z</time></trkpt><trkpt lat="45.830296940213216" lon="8.82671604810962"><ele>403.0</ele><time>2026-03-29T09:05:26Z</time></trkpt><trkpt lat="45.83031170361112" lon="8.826926052765746"><ele>403.0</ele><time>2026-03-29T09:05:27Z</time></trkpt><trkpt lat="45.83031201173171" lon="8.827176854387778"><ele>402.33333333333337</ele><time>2026-03-29T09:05:28Z</time></trkpt><trkpt lat="45.830323380584744" lon="8.827454229237858"><ele>401.66666666666663</ele><time>2026-03-29T09:05:29Z</time></trkpt><trkpt lat="45.83034527803939" lon="8.827730630782378"><ele>401.0</ele><time>2026-03-29T09:05:30Z</time></trkpt><trkpt lat="45.83035180053454" lon="8.828009370781402"><ele>401.0</ele><time>2026-03-29T09:05:31Z</time></trkpt><trkpt lat="45.83035745346203" lon="8.828262469525608"><ele>401.0</ele><time>2026-03-29T09:05:32Z</time></trkpt><trkpt lat="45.83036685534652" lon="8.828514347220478"><ele>401.0</ele><time>2026-03-29T09:05:33Z</time></trkpt><trkpt lat="45.830380056614565" lon="8.828742301010148"><ele>400.0</ele><time>2026-03-29T09:05:34Z</time></trkpt><trkpt lat="45.83038952747576" lon="8.82897060042845"><ele>399.0</ele><time>2026-03-29T09:05:35Z</time></trkpt><trkpt lat="45.830396325819436" lon="8.829193151253747"><ele>398.0</ele><time>2026-03-29T09:05:36Z</time></trkpt><trkpt lat="45.830405108876946" lon="8.829419177405407"><ele>397.66666666666663</ele><time>2026-03-29T09:05:37Z</time></trkpt><trkpt lat="45.83041557081713" lon="8.829659732007114"><ele>397.33333333333337</ele><time>2026-03-29T09:05:38Z</time></trkpt><trkpt lat="45.83042575024693" lon="8.829875904403208"><ele>397.0</ele><time>2026-03-29T09:05:39Z</time></trkpt><trkpt lat="45.83043447999901" lon="8.830078100282064"><ele>396.5</ele><time>2026-03-29T09:05:40Z</time></trkpt><trkpt lat="45.8304416317156" lon="8.830276784348804"><ele>396.0</ele><time>2026-03-29T09:05:40.999Z</time></trkpt><trkpt lat="45.830446650063976" lon="8.83048032520692"><ele>395.5</ele><time>2026-03-29T09:05:41.999Z</time></trkpt><trkpt lat="45.83045551964529" lon="8.83068170687873"><ele>395.0</ele><time>2026-03-29T09:05:42.999Z</time></trkpt><trkpt lat="45.83046496028184" lon="8.830882308835557"><ele>394.5</ele><time>2026-03-29T09:05:43.999Z</time></trkpt><trkpt lat="45.83047517970286" lon="8.831082604413307"><ele>394.0</ele><time>2026-03-29T09:05:44.999Z</time></trkpt><trkpt lat="45.83048444511134" lon="8.831282158826504"><ele>393.5</ele><time>2026-03-29T09:05:45.999Z</time></trkpt><trkpt lat="45.83049277140705" lon="8.831492445294385"><ele>393.0</ele><time>2026-03-29T09:05:46.999Z</time></trkpt><trkpt lat="45.830500945459306" lon="8.831701047482806"><ele>392.75</ele><time>2026-03-29T09:05:47.999Z</time></trkpt><trkpt lat="45.830507131976546" lon="8.83188586194126"><ele>392.5</ele><time>2026-03-29T09:05:48.999Z</time></trkpt><trkpt lat="45.83050836085274" lon="8.832076832045125"><ele>392.25</ele><time>2026-03-29T09:05:49.999Z</time></trkpt><trkpt lat="45.83051564317043" lon="8.8322597551544"><ele>392.0</ele><time>2026-03-29T09:05:50.999Z</time></trkpt><trkpt lat="45.83052246860773" lon="8.832431076784909"><ele>392.0</ele><time>2026-03-29T09:05:51.999Z</time></trkpt><trkpt lat="45.83053356036837" lon="8.83260025220247"><ele>392.0</ele><time>2026-03-29T09:05:52.999Z</time></trkpt><trkpt lat="45.830539805642154" lon="8.832763897886677"><ele>392.0</ele><time>2026-03-29T09:05:53.999Z</time></trkpt><trkpt lat="45.83054434965674" lon="8.832925357319061"><ele>392.0</ele><time>2026-03-29T09:05:54.999Z</time></trkpt><trkpt lat="45.83054685649112" lon="8.83307822096794"><ele>391.8333333333333</ele><time>2026-03-29T09:05:55.999Z</time></trkpt><trkpt lat="45.8305547477734" lon="8.833231721890874"><ele>391.66666666666663</ele><time>2026-03-29T09:05:56.999Z</time></trkpt><trkpt lat="45.830552519109936" lon="8.833380952636976"><ele>391.5</ele><time>2026-03-29T09:05:57.999Z</time></trkpt><trkpt lat="45.83055661399415" lon="8.833483023967737"><ele>391.33333333333337</ele><time>2026-03-29T09:05:58.999Z</time></trkpt><trkpt lat="45.83056052258103" lon="8.83358045158246"><ele>391.1666666666667</ele><time>2026-03-29T09:05:59.999Z</time></trkpt><trkpt lat="45.830564770355046" lon="8.83368633396508"><ele>391.0</ele><time>2026-03-29T09:06:00.999Z</time></trkpt><trkpt lat="45.83056987482591" lon="8.83380105773541"><ele>390.83333333333337</ele><time>2026-03-29T09:06:01.999Z</time></trkpt><trkpt lat="45.83057553321002" lon="8.833927906617939"><ele>390.6666666666667</ele><time>2026-03-29T09:06:02.999Z</time></trkpt><trkpt lat="45.830582061786494" lon="8.834074263319893"><ele>390.5</ele><time>2026-03-29T09:06:03.999Z</time></trkpt><trkpt lat="45.83058723688535" lon="8.834190277909915"><ele>390.33333333333337</ele><time>2026-03-29T09:06:04.999Z</time></trkpt><trkpt lat="45.830591295673194" lon="8.834281267254271"><ele>390.1666666666667</ele><time>2026-03-29T09:06:05.999Z</time></trkpt><trkpt lat="45.83061339274214" lon="8.834408303645223"><ele>390.0</ele><time>2026-03-29T09:06:08.999Z</time></trkpt><trkpt lat="45.83059423676047" lon="8.83455032602401"><ele>390.0</ele><time>2026-03-29T09:06:10.999Z</time></trkpt><trkpt lat="45.830553183257486" lon="8.834686876889808"><ele>390.0</ele><time>2026-03-29T09:06:12.999Z</time></trkpt><trkpt lat="45.83059436238805" lon="8.834811599322073"><ele>390.0</ele><time>2026-03-29T09:06:14.999Z</time></trkpt><trkpt lat="45.83066168214097" lon="8.834837769179735"><ele>390.0</ele><time>2026-03-29T09:06:15.999Z</time></trkpt><trkpt lat="45.83072332183665" lon="8.834808974235624"><ele>390.0</ele><time>2026-03-29T09:06:16.999Z</time></trkpt><trkpt lat="45.830816581728044" lon="8.834761536896147"><ele>390.0</ele><time>2026-03-29T09:06:17.999Z</time></trkpt><trkpt lat="45.830921628404525" lon="8.834751850459938"><ele>390.2</ele><time>2026-03-29T09:06:18.999Z</time></trkpt><trkpt lat="45.831028104564965" lon="8.83473823549202"><ele>390.4</ele><time>2026-03-29T09:06:19.999Z</time></trkpt><trkpt lat="45.831137927922924" lon="8.834724232718912"><ele>390.6</ele><time>2026-03-29T09:06:20.999Z</time></trkpt><trkpt lat="45.831250975079264" lon="8.834712692825143"><ele>390.8</ele><time>2026-03-29T09:06:21.999Z</time></trkpt><trkpt lat="45.831349727087314" lon="8.834702070695228"><ele>391.0</ele><time>2026-03-29T09:06:22.999Z</time></trkpt><trkpt lat="45.83144739825128" lon="8.834691492404492"><ele>391.0</ele><time>2026-03-29T09:06:23.999Z</time></trkpt><trkpt lat="45.831549918104685" lon="8.834680388979736"><ele>391.0</ele><time>2026-03-29T09:06:24.999Z</time></trkpt><trkpt lat="45.83165231894846" lon="8.834669298442021"><ele>391.0</ele><time>2026-03-29T09:06:25.999Z</time></trkpt><trkpt lat="45.831749762621676" lon="8.834657515511296"><ele>391.0</ele><time>2026-03-29T09:06:26.999Z</time></trkpt><trkpt lat="45.8318455577601" lon="8.834646464113984"><ele>391.0</ele><time>2026-03-29T09:06:27.999Z</time></trkpt><trkpt lat="45.83193681010532" lon="8.83463595460323"><ele>391.1666666666667</ele><time>2026-03-29T09:06:28.999Z</time></trkpt><trkpt lat="45.83202183800682" lon="8.834626161947455"><ele>391.33333333333337</ele><time>2026-03-29T09:06:29.999Z</time></trkpt><trkpt lat="45.832102635626555" lon="8.834616265047625"><ele>391.5</ele><time>2026-03-29T09:06:30.999Z</time></trkpt><trkpt lat="45.83218054295913" lon="8.834606898533732"><ele>391.66666666666663</ele><time>2026-03-29T09:06:31.999Z</time></trkpt><trkpt lat="45.83226073579987" lon="8.834597359032749"><ele>391.8333333333333</ele><time>2026-03-29T09:06:32.999Z</time></trkpt><trkpt lat="45.832346565646716" lon="8.834587178800378"><ele>392.0</ele><time>2026-03-29T09:06:33.999Z</time></trkpt><trkpt lat="45.832431570579935" lon="8.834576024804617"><ele>391.99999999999994</ele><time>2026-03-29T09:06:34.999Z</time></trkpt><trkpt lat="45.83251411790455" lon="8.834565217436321"><ele>392.0</ele><time>2026-03-29T09:06:35.999Z</time></trkpt><trkpt lat="45.832604285621926" lon="8.834553412363338"><ele>392.0</ele><time>2026-03-29T09:06:36.999Z</time></trkpt><trkpt lat="45.832695845072486" lon="8.834541778067175"><ele>392.0</ele><time>2026-03-29T09:06:37.999Z</time></trkpt><trkpt lat="45.83278344779961" lon="8.83453122966468"><ele>391.99999999999994</ele><time>2026-03-29T09:06:38.999Z</time></trkpt><trkpt lat="45.832868673852495" lon="8.834520967421145"><ele>392.0</ele><time>2026-03-29T09:06:39.999Z</time></trkpt><trkpt lat="45.8329547261863" lon="8.834512654370576"><ele>392.20000000000005</ele><time>2026-03-29T09:06:40.999Z</time></trkpt><trkpt lat="45.83304403177819" lon="8.834503670094973"><ele>392.4</ele><time>2026-03-29T09:06:41.999Z</time></trkpt><trkpt lat="45.83313181727658" lon="8.834496638857294"><ele>392.6</ele><time>2026-03-29T09:06:42.999Z</time></trkpt><trkpt lat="45.83322575323093" lon="8.834489114987818"><ele>392.79999999999995</ele><time>2026-03-29T09:06:43.999Z</time></trkpt><trkpt lat="45.83331993731874" lon="8.834480669408327"><ele>393.0</ele><time>2026-03-29T09:06:44.999Z</time></trkpt><trkpt lat="45.833433809203335" lon="8.834470113185382"><ele>393.25</ele><time>2026-03-29T09:06:45.999Z</time></trkpt><trkpt lat="45.83355131790156" lon="8.834458753308454"><ele>393.5</ele><time>2026-03-29T09:06:46.999Z</time></trkpt><trkpt lat="45.833671131046394" lon="8.834446097933881"><ele>393.75</ele><time>2026-03-29T09:06:47.999Z</time></trkpt><trkpt lat="45.83382121921496" lon="8.834429506457083"><ele>394.0</ele><time>2026-03-29T09:06:48.999Z</time></trkpt><trkpt lat="45.83397682329873" lon="8.834411706867682"><ele>394.0</ele><time>2026-03-29T09:06:49.999Z</time></trkpt><trkpt lat="45.83411944988521" lon="8.834395272526534"><ele>394.0</ele><time>2026-03-29T09:06:51Z</time></trkpt><trkpt lat="45.83422541656078" lon="8.834388536449236"><ele>394.0</ele><time>2026-03-29T09:06:52Z</time></trkpt><trkpt lat="45.83432604779484" lon="8.834381804958461"><ele>394.0</ele><time>2026-03-29T09:06:53Z</time></trkpt><trkpt lat="45.83440642202006" lon="8.834371589375504"><ele>394.0</ele><time>2026-03-29T09:06:54Z</time></trkpt><trkpt lat="45.8345057034798" lon="8.834348609220354"><ele>391.0</ele><time>2026-03-29T09:06:55Z</time></trkpt><trkpt lat="45.83461036123714" lon="8.834302404509117"><ele>388.0</ele><time>2026-03-29T09:06:56Z</time></trkpt><trkpt lat="45.83471251517479" lon="8.83422028650348"><ele>385.0</ele><time>2026-03-29T09:06:57Z</time></trkpt><trkpt lat="45.834797119164314" lon="8.834103898620937"><ele>382.0</ele><time>2026-03-29T09:06:58Z</time></trkpt><trkpt lat="45.834863656815514" lon="8.833956933613793"><ele>382.0</ele><time>2026-03-29T09:06:59Z</time></trkpt><trkpt lat="45.83491754185698" lon="8.833787040394956"><ele>382.0</ele><time>2026-03-29T09:07:00Z</time></trkpt><trkpt lat="45.834968080225394" lon="8.83362981990388"><ele>382.0</ele><time>2026-03-29T09:07:01Z</time></trkpt><trkpt lat="45.83502053533637" lon="8.833470033577646"><ele>382.0</ele><time>2026-03-29T09:07:02Z</time></trkpt><trkpt lat="45.8350691288706" lon="8.833322010194786"><ele>382.40000000000003</ele><time>2026-03-29T09:07:03Z</time></trkpt><trkpt lat="45.835103877271656" lon="8.83316453531158"><ele>382.8</ele><time>2026-03-29T09:07:04Z</time></trkpt><trkpt lat="45.83515965561467" lon="8.833019052551858"><ele>383.2</ele><time>2026-03-29T09:07:05Z</time></trkpt><trkpt lat="45.83520961659416" lon="8.832886871263778"><ele>383.6</ele><time>2026-03-29T09:07:06Z</time></trkpt><trkpt lat="45.83528788572597" lon="8.832775525236553"><ele>384.0</ele><time>2026-03-29T09:07:07Z</time></trkpt><trkpt lat="45.83534550336315" lon="8.832639442622341"><ele>382.0</ele><time>2026-03-29T09:07:08Z</time></trkpt><trkpt lat="45.835418861211785" lon="8.832522452102696"><ele>380.0</ele><time>2026-03-29T09:07:09Z</time></trkpt><trkpt lat="45.83548810262887" lon="8.832401248708067"><ele>378.0</ele><time>2026-03-29T09:07:10Z</time></trkpt><trkpt lat="45.83555957003228" lon="8.832272642524499"><ele>376.0</ele><time>2026-03-29T09:07:11Z</time></trkpt><trkpt lat="45.83563221603805" lon="8.83214318437906"><ele>374.0</ele><time>2026-03-29T09:07:12Z</time></trkpt><trkpt lat="45.83570251642567" lon="8.832011815109276"><ele>374.0</ele><time>2026-03-29T09:07:13Z</time></trkpt><trkpt lat="45.83578695491286" lon="8.831883052117167"><ele>374.0</ele><time>2026-03-29T09:07:14Z</time></trkpt><trkpt lat="45.83586521072863" lon="8.831741963157866"><ele>374.0</ele><time>2026-03-29T09:07:15Z</time></trkpt><trkpt lat="45.835940783497094" lon="8.83160663133149"><ele>374.0</ele><time>2026-03-29T09:07:16Z</time></trkpt><trkpt lat="45.83601503620363" lon="8.83147396065152"><ele>372.5</ele><time>2026-03-29T09:07:17Z</time></trkpt><trkpt lat="45.836080988701156" lon="8.831334567548973"><ele>371.0</ele><time>2026-03-29T09:07:18Z</time></trkpt><trkpt lat="45.83616915970417" lon="8.831216380272497"><ele>369.5</ele><time>2026-03-29T09:07:19Z</time></trkpt><trkpt lat="45.83627217573313" lon="8.831099379762694"><ele>368.0</ele><time>2026-03-29T09:07:20Z</time></trkpt><trkpt lat="45.83639986168061" lon="8.830996903677233"><ele>366.75</ele><time>2026-03-29T09:07:21Z</time></trkpt><trkpt lat="45.83651832682887" lon="8.830878382009795"><ele>365.5</ele><time>2026-03-29T09:07:22Z</time></trkpt><trkpt lat="45.83662706666033" lon="8.830732051279035"><ele>364.25</ele><time>2026-03-29T09:07:23Z</time></trkpt><trkpt lat="45.83674454621542" lon="8.83059686354645"><ele>363.0</ele><time>2026-03-29T09:07:24Z</time></trkpt><trkpt lat="45.836845229791976" lon="8.83044297696732"><ele>363.0</ele><time>2026-03-29T09:07:25Z</time></trkpt><trkpt lat="45.836947510995245" lon="8.830271593648453"><ele>363.0</ele><time>2026-03-29T09:07:26Z</time></trkpt><trkpt lat="45.83704521188805" lon="8.83009057909717"><ele>363.0</ele><time>2026-03-29T09:07:27Z</time></trkpt><trkpt lat="45.83715260698084" lon="8.829905957641753"><ele>365.6666666666667</ele><time>2026-03-29T09:07:28Z</time></trkpt><trkpt lat="45.83726176622401" lon="8.829718396228822"><ele>368.33333333333337</ele><time>2026-03-29T09:07:29Z</time></trkpt><trkpt lat="45.837369620640786" lon="8.829526479955106"><ele>371.0</ele><time>2026-03-29T09:07:30Z</time></trkpt><trkpt lat="45.83749065046822" lon="8.82935128880445"><ele>367.6666666666667</ele><time>2026-03-29T09:07:31Z</time></trkpt><trkpt lat="45.83758182115509" lon="8.829156269310918"><ele>364.3333333333333</ele><time>2026-03-29T09:07:32Z</time></trkpt><trkpt lat="45.83769108927105" lon="8.828980283749633"><ele>361.0</ele><time>2026-03-29T09:07:33Z</time></trkpt><trkpt lat="45.837795724746435" lon="8.828816552575677"><ele>361.0</ele><time>2026-03-29T09:07:34Z</time></trkpt><trkpt lat="45.83790108275385" lon="8.828648511549817"><ele>361.0</ele><time>2026-03-29T09:07:35Z</time></trkpt><trkpt lat="45.83800251531951" lon="8.828495295721009"><ele>361.0</ele><time>2026-03-29T09:07:36Z</time></trkpt><trkpt lat="45.83809230346765" lon="8.828345133163568"><ele>361.0</ele><time>2026-03-29T09:07:37Z</time></trkpt><trkpt lat="45.83817749239024" lon="8.828209294770348"><ele>361.4</ele><time>2026-03-29T09:07:38Z</time></trkpt><trkpt lat="45.83825937880469" lon="8.828073655629943"><ele>361.8</ele><time>2026-03-29T09:07:39Z</time></trkpt><trkpt lat="45.838339691923935" lon="8.827967438309845"><ele>362.2</ele><time>2026-03-29T09:07:39.999Z</time></trkpt><trkpt lat="45.838398212166766" lon="8.827884108416452"><ele>362.59999999999997</ele><time>2026-03-29T09:07:40.999Z</time></trkpt><trkpt lat="45.83843944201009" lon="8.82780565085394"><ele>363.0</ele><time>2026-03-29T09:07:41.999Z</time></trkpt><trkpt lat="45.83848618829874" lon="8.827732840732372"><ele>363.0</ele><time>2026-03-29T09:07:42.999Z</time></trkpt><trkpt lat="45.83857346153268" lon="8.827640009454973"><ele>363.0</ele><time>2026-03-29T09:07:44.999Z</time></trkpt><trkpt lat="45.838680487438516" lon="8.82760651698985"><ele>363.0</ele><time>2026-03-29T09:07:46.999Z</time></trkpt><trkpt lat="45.83879950514272" lon="8.827694407572148"><ele>363.0</ele><time>2026-03-29T09:07:48.999Z</time></trkpt><trkpt lat="45.83886221722835" lon="8.827722648489408"><ele>363.0</ele><time>2026-03-29T09:07:49.999Z</time></trkpt><trkpt lat="45.838934027296666" lon="8.827693080610429"><ele>363.5</ele><time>2026-03-29T09:07:50.999Z</time></trkpt><trkpt lat="45.83898597404075" lon="8.827605883921326"><ele>364.0</ele><time>2026-03-29T09:07:51.999Z</time></trkpt><trkpt lat="45.83900630641077" lon="8.827484010363673"><ele>364.5</ele><time>2026-03-29T09:07:52.999Z</time></trkpt><trkpt lat="45.83899055896771" lon="8.827348910312441"><ele>365.0</ele><time>2026-03-29T09:07:53.999Z</time></trkpt><trkpt lat="45.838944947426604" lon="8.827232775265545"><ele>365.5</ele><time>2026-03-29T09:07:54.999Z</time></trkpt><trkpt lat="45.83894064853086" lon="8.827131852574473"><ele>366.0</ele><time>2026-03-29T09:07:55.999Z</time></trkpt><trkpt lat="45.83898010176133" lon="8.82701101268877"><ele>366.0</ele><time>2026-03-29T09:07:56.999Z</time></trkpt><trkpt lat="45.83904614606623" lon="8.826903034077484"><ele>366.0</ele><time>2026-03-29T09:07:57.999Z</time></trkpt><trkpt lat="45.83911670891571" lon="8.826812601022635"><ele>366.0</ele><time>2026-03-29T09:07:58.999Z</time></trkpt><trkpt lat="45.83920929226422" lon="8.826711298902365"><ele>366.0</ele><time>2026-03-29T09:07:59.999Z</time></trkpt><trkpt lat="45.83928535621241" lon="8.826610910743112"><ele>366.0</ele><time>2026-03-29T09:08:00.999Z</time></trkpt><trkpt lat="45.839350336140605" lon="8.826514953069768"><ele>366.20000000000005</ele><time>2026-03-29T09:08:01.999Z</time></trkpt><trkpt lat="45.83941329749233" lon="8.826425737192077"><ele>366.40000000000003</ele><time>2026-03-29T09:08:02.999Z</time></trkpt><trkpt lat="45.83947468270399" lon="8.826337790184166"><ele>366.6</ele><time>2026-03-29T09:08:03.999Z</time></trkpt><trkpt lat="45.83954968540702" lon="8.826247813227045"><ele>366.8</ele><time>2026-03-29T09:08:04.999Z</time></trkpt><trkpt lat="45.83962676913541" lon="8.82615924103042"><ele>367.0</ele><time>2026-03-29T09:08:05.999Z</time></trkpt><trkpt lat="45.83970912435931" lon="8.826069971669684"><ele>367.0</ele><time>2026-03-29T09:08:06.999Z</time></trkpt><trkpt lat="45.839795869066954" lon="8.825988068475317"><ele>367.0</ele><time>2026-03-29T09:08:07.999Z</time></trkpt><trkpt lat="45.83990339932453" lon="8.82589029595104"><ele>367.0</ele><time>2026-03-29T09:08:08.999Z</time></trkpt><trkpt lat="45.839990700520744" lon="8.82581704457363"><ele>367.0</ele><time>2026-03-29T09:08:09.999Z</time></trkpt><trkpt lat="45.84009225378661" lon="8.825733339016264"><ele>367.0</ele><time>2026-03-29T09:08:10.999Z</time></trkpt><trkpt lat="45.84019872854649" lon="8.8256465369239"><ele>368.0</ele><time>2026-03-29T09:08:11.999Z</time></trkpt><trkpt lat="45.840311741918065" lon="8.825549147600977"><ele>369.0</ele><time>2026-03-29T09:08:12.999Z</time></trkpt><trkpt lat="45.840429773471634" lon="8.825445804915876"><ele>370.0</ele><time>2026-03-29T09:08:13.999Z</time></trkpt><trkpt lat="45.840552779485215" lon="8.825334892283571"><ele>371.0</ele><time>2026-03-29T09:08:14.999Z</time></trkpt><trkpt lat="45.840685778882204" lon="8.825216558521007"><ele>372.33333333333337</ele><time>2026-03-29T09:08:15.999Z</time></trkpt><trkpt lat="45.84081470488531" lon="8.82510623234938"><ele>373.6666666666667</ele><time>2026-03-29T09:08:16.999Z</time></trkpt><trkpt lat="45.84094870693963" lon="8.824990747430418"><ele>375.0</ele><time>2026-03-29T09:08:17.999Z</time></trkpt><trkpt lat="45.841078482024066" lon="8.824878242769037"><ele>377.0</ele><time>2026-03-29T09:08:18.999Z</time></trkpt><trkpt lat="45.841207464540965" lon="8.824768580090373"><ele>379.0</ele><time>2026-03-29T09:08:19.999Z</time></trkpt><trkpt lat="45.84133648168591" lon="8.824662280050411"><ele>381.0</ele><time>2026-03-29T09:08:20.999Z</time></trkpt><trkpt lat="45.84146819603558" lon="8.824549868689132"><ele>381.0</ele><time>2026-03-29T09:08:21.999Z</time></trkpt><trkpt lat="45.841597890979145" lon="8.824452537172899"><ele>381.0</ele><time>2026-03-29T09:08:22.999Z</time></trkpt><trkpt lat="45.84171974680592" lon="8.824358960278833"><ele>381.0</ele><time>2026-03-29T09:08:23.999Z</time></trkpt><trkpt lat="45.84184075805626" lon="8.824294991851602"><ele>381.0</ele><time>2026-03-29T09:08:24.999Z</time></trkpt><trkpt lat="45.841962837117755" lon="8.824265749116721"><ele>381.75</ele><time>2026-03-29T09:08:25.999Z</time></trkpt><trkpt lat="45.84208142656121" lon="8.824280853064568"><ele>382.5</ele><time>2026-03-29T09:08:26.999Z</time></trkpt><trkpt lat="45.84218880851961" lon="8.824370075285502"><ele>383.25</ele><time>2026-03-29T09:08:27.999Z</time></trkpt><trkpt lat="45.842298544374295" lon="8.824507115041339"><ele>384.0</ele><time>2026-03-29T09:08:28.999Z</time></trkpt><trkpt lat="45.842410595812325" lon="8.824675338638468"><ele>384.0</ele><time>2026-03-29T09:08:29.999Z</time></trkpt><trkpt lat="45.84251822420284" lon="8.82485817079968"><ele>384.0</ele><time>2026-03-29T09:08:30.999Z</time></trkpt><trkpt lat="45.84261551900293" lon="8.825052764359228"><ele>384.0</ele><time>2026-03-29T09:08:31.999Z</time></trkpt><trkpt lat="45.84271034729708" lon="8.825262755335672"><ele>382.0</ele><time>2026-03-29T09:08:32.999Z</time></trkpt><trkpt lat="45.842799636833945" lon="8.825487766499146"><ele>380.0</ele><time>2026-03-29T09:08:33.999Z</time></trkpt><trkpt lat="45.842872091950895" lon="8.82571382444743"><ele>378.0</ele><time>2026-03-29T09:08:34.999Z</time></trkpt><trkpt lat="45.84294287572182" lon="8.825944118915785"><ele>381.66666666666663</ele><time>2026-03-29T09:08:35.999Z</time></trkpt><trkpt lat="45.84302041173958" lon="8.82616546449278"><ele>385.3333333333333</ele><time>2026-03-29T09:08:36.999Z</time></trkpt><trkpt lat="45.843096040655674" lon="8.826388684926279"><ele>389.0</ele><time>2026-03-29T09:08:37.999Z</time></trkpt><trkpt lat="45.84320154260794" lon="8.826579754702427"><ele>389.0</ele><time>2026-03-29T09:08:38.999Z</time></trkpt><trkpt lat="45.84333915387506" lon="8.826755695247362"><ele>389.0</ele><time>2026-03-29T09:08:39.999Z</time></trkpt><trkpt lat="45.84348583197018" lon="8.826912149858812"><ele>389.0</ele><time>2026-03-29T09:08:40.999Z</time></trkpt><trkpt lat="45.843643614410176" lon="8.827063489773929"><ele>388.3333333333333</ele><time>2026-03-29T09:08:41.999Z</time></trkpt><trkpt lat="45.843791325604904" lon="8.827235455110571"><ele>387.66666666666663</ele><time>2026-03-29T09:08:42.999Z</time></trkpt><trkpt lat="45.84393965401022" lon="8.827393078781224"><ele>387.0</ele><time>2026-03-29T09:08:43.999Z</time></trkpt><trkpt lat="45.84407706185554" lon="8.827539097590265"><ele>390.0</ele><time>2026-03-29T09:08:44.999Z</time></trkpt><trkpt lat="45.844202221988276" lon="8.827668927306968"><ele>393.0</ele><time>2026-03-29T09:08:45.999Z</time></trkpt><trkpt lat="45.8443328044446" lon="8.827790491639776"><ele>396.0</ele><time>2026-03-29T09:08:46.999Z</time></trkpt><trkpt lat="45.844465563192706" lon="8.827879857442088"><ele>396.20000000000005</ele><time>2026-03-29T09:08:47.999Z</time></trkpt><trkpt lat="45.84458904995958" lon="8.827945348714934"><ele>396.40000000000003</ele><time>2026-03-29T09:08:48.999Z</time></trkpt><trkpt lat="45.84469663972127" lon="8.82797720509412"><ele>396.6</ele><time>2026-03-29T09:08:49.999Z</time></trkpt><trkpt lat="45.84478290685919" lon="8.828017207129399"><ele>396.8</ele><time>2026-03-29T09:08:50.999Z</time></trkpt><trkpt lat="45.84485067939998" lon="8.828054776525832"><ele>397.0</ele><time>2026-03-29T09:08:51.999Z</time></trkpt><trkpt lat="45.844913545664845" lon="8.828088989878138"><ele>397.0</ele><time>2026-03-29T09:08:52.999Z</time></trkpt><trkpt lat="45.84502226560979" lon="8.828148901951081"><ele>397.0</ele><time>2026-03-29T09:08:54.999Z</time></trkpt><trkpt lat="45.84511069775861" lon="8.828274683087047"><ele>397.0</ele><time>2026-03-29T09:08:57Z</time></trkpt><trkpt lat="45.84514810395209" lon="8.828367502254087"><ele>397.0</ele><time>2026-03-29T09:08:58Z</time></trkpt><trkpt lat="45.845179863778704" lon="8.828472564275652"><ele>397.0</ele><time>2026-03-29T09:08:59Z</time></trkpt><trkpt lat="45.84518786590552" lon="8.828573701109967"><ele>397.33333333333337</ele><time>2026-03-29T09:09:00Z</time></trkpt><trkpt lat="45.84519660022821" lon="8.828669482803525"><ele>397.6666666666667</ele><time>2026-03-29T09:09:01Z</time></trkpt><trkpt lat="45.84521898977485" lon="8.828842255492082"><ele>398.0</ele><time>2026-03-29T09:09:03Z</time></trkpt><trkpt lat="45.84523827072805" lon="8.82895355397005"><ele>398.33333333333337</ele><time>2026-03-29T09:09:04Z</time></trkpt><trkpt lat="45.84526516310969" lon="8.82905115022983"><ele>398.6666666666667</ele><time>2026-03-29T09:09:05Z</time></trkpt><trkpt lat="45.845300616906236" lon="8.829130013856211"><ele>399.0</ele><time>2026-03-29T09:09:06Z</time></trkpt><trkpt lat="45.845400470582184" lon="8.829270421666951"><ele>399.79999999999995</ele><time>2026-03-29T09:09:08Z</time></trkpt><trkpt lat="45.84546766799692" lon="8.829320764198304"><ele>400.59999999999997</ele><time>2026-03-29T09:09:09Z</time></trkpt><trkpt lat="45.845561837854056" lon="8.829345511396422"><ele>401.4</ele><time>2026-03-29T09:09:10Z</time></trkpt><trkpt lat="45.845663836125716" lon="8.829383114113414"><ele>402.2</ele><time>2026-03-29T09:09:11Z</time></trkpt><trkpt lat="45.84577295772565" lon="8.82943276892375"><ele>403.0</ele><time>2026-03-29T09:09:12Z</time></trkpt><trkpt lat="45.84589836160777" lon="8.829479026983346"><ele>404.0</ele><time>2026-03-29T09:09:13Z</time></trkpt><trkpt lat="45.84601493368746" lon="8.829535524856482"><ele>405.0</ele><time>2026-03-29T09:09:14Z</time></trkpt><trkpt lat="45.84614317289841" lon="8.829589580741322"><ele>406.0</ele><time>2026-03-29T09:09:15Z</time></trkpt><trkpt lat="45.846267626729784" lon="8.829649717456096"><ele>407.0</ele><time>2026-03-29T09:09:16Z</time></trkpt><trkpt lat="45.84638165948569" lon="8.829722837203587"><ele>407.0</ele><time>2026-03-29T09:09:17Z</time></trkpt><trkpt lat="45.84648994270694" lon="8.829818389316266"><ele>407.0</ele><time>2026-03-29T09:09:18Z</time></trkpt><trkpt lat="45.846581916390114" lon="8.829943972847278"><ele>407.0</ele><time>2026-03-29T09:09:19Z</time></trkpt><trkpt lat="45.84668467161465" lon="8.83003980304914"><ele>407.0</ele><time>2026-03-29T09:09:20Z</time></trkpt><trkpt lat="45.84677403559295" lon="8.830157292852887"><ele>410.0</ele><time>2026-03-29T09:09:21Z</time></trkpt><trkpt lat="45.846853262002185" lon="8.830292605822398"><ele>413.0</ele><time>2026-03-29T09:09:22Z</time></trkpt><trkpt lat="45.84689455920636" lon="8.830492957913862"><ele>416.0</ele><time>2026-03-29T09:09:23Z</time></trkpt><trkpt lat="45.84696638079294" lon="8.830695698053633"><ele>419.0</ele><time>2026-03-29T09:09:24Z</time></trkpt><trkpt lat="45.84704291356173" lon="8.830919730656277"><ele>417.66666666666663</ele><time>2026-03-29T09:09:25Z</time></trkpt><trkpt lat="45.84712182223649" lon="8.831151549781266"><ele>416.33333333333337</ele><time>2026-03-29T09:09:26Z</time></trkpt><trkpt lat="45.847201099031835" lon="8.8313746936807"><ele>415.0</ele><time>2026-03-29T09:09:27Z</time></trkpt><trkpt lat="45.84729162700533" lon="8.8315905374877"><ele>415.0</ele><time>2026-03-29T09:09:28Z</time></trkpt><trkpt lat="45.84740650187979" lon="8.831778976781042"><ele>415.0</ele><time>2026-03-29T09:09:29Z</time></trkpt><trkpt lat="45.8475002246433" lon="8.832004782450737"><ele>415.0</ele><time>2026-03-29T09:09:30Z</time></trkpt><trkpt lat="45.847601005609036" lon="8.832211952246865"><ele>415.0</ele><time>2026-03-29T09:09:31Z</time></trkpt><trkpt lat="45.84770284182863" lon="8.832404409915389"><ele>415.0</ele><time>2026-03-29T09:09:32Z</time></trkpt><trkpt lat="45.84782769030157" lon="8.832585637736582"><ele>415.0</ele><time>2026-03-29T09:09:33Z</time></trkpt><trkpt lat="45.847966155610386" lon="8.832733059505912"><ele>413.5</ele><time>2026-03-29T09:09:34Z</time></trkpt><trkpt lat="45.848081658540735" lon="8.832916037419778"><ele>412.0</ele><time>2026-03-29T09:09:35Z</time></trkpt><trkpt lat="45.84816375243342" lon="8.833069883134964"><ele>410.5</ele><time>2026-03-29T09:09:36Z</time></trkpt><trkpt lat="45.84824652019294" lon="8.833235771366274"><ele>409.0</ele><time>2026-03-29T09:09:37Z</time></trkpt><trkpt lat="45.84832663126488" lon="8.833402536512788"><ele>409.0</ele><time>2026-03-29T09:09:38Z</time></trkpt><trkpt lat="45.84840103082845" lon="8.833551981114454"><ele>409.0</ele><time>2026-03-29T09:09:39Z</time></trkpt><trkpt lat="45.84847405139382" lon="8.833698654967732"><ele>409.0</ele><time>2026-03-29T09:09:40Z</time></trkpt><trkpt lat="45.848545210857175" lon="8.83385701665871"><ele>409.0</ele><time>2026-03-29T09:09:41Z</time></trkpt><trkpt lat="45.84861976951278" lon="8.834022956115682"><ele>410.5</ele><time>2026-03-29T09:09:42Z</time></trkpt><trkpt lat="45.84869257740673" lon="8.834196753349225"><ele>412.0</ele><time>2026-03-29T09:09:43Z</time></trkpt><trkpt lat="45.84875852970813" lon="8.834382307251108"><ele>413.5</ele><time>2026-03-29T09:09:44Z</time></trkpt><trkpt lat="45.84882113720179" lon="8.834565175853479"><ele>415.0</ele><time>2026-03-29T09:09:45Z</time></trkpt><trkpt lat="45.848888825591544" lon="8.834761389271874"><ele>415.0</ele><time>2026-03-29T09:09:46Z</time></trkpt><trkpt lat="45.84895604275795" lon="8.834944437223685"><ele>415.0</ele><time>2026-03-29T09:09:47Z</time></trkpt><trkpt lat="45.84902413313685" lon="8.8351092842929"><ele>415.0</ele><time>2026-03-29T09:09:48Z</time></trkpt><trkpt lat="45.84908677466598" lon="8.835306591796554"><ele>415.0</ele><time>2026-03-29T09:09:49Z</time></trkpt><trkpt lat="45.84914799904881" lon="8.835485837592449"><ele>414.0</ele><time>2026-03-29T09:09:49.999Z</time></trkpt><trkpt lat="45.84921515623886" lon="8.835658435541704"><ele>413.0</ele><time>2026-03-29T09:09:50.999Z</time></trkpt><trkpt lat="45.849289829936914" lon="8.835869796071092"><ele>412.0</ele><time>2026-03-29T09:09:51.999Z</time></trkpt><trkpt lat="45.84936669006366" lon="8.836079438228014"><ele>415.0</ele><time>2026-03-29T09:09:52.999Z</time></trkpt><trkpt lat="45.84944506945245" lon="8.83627656043411"><ele>418.0</ele><time>2026-03-29T09:09:53.999Z</time></trkpt><trkpt lat="45.84950361896705" lon="8.836485091467807"><ele>421.0</ele><time>2026-03-29T09:09:54.999Z</time></trkpt><trkpt lat="45.84958085156873" lon="8.836680053331067"><ele>417.33333333333337</ele><time>2026-03-29T09:09:55.999Z</time></trkpt><trkpt lat="45.849668000179406" lon="8.836880160547896"><ele>413.66666666666663</ele><time>2026-03-29T09:09:56.999Z</time></trkpt><trkpt lat="45.849781547958436" lon="8.837052154502844"><ele>410.0</ele><time>2026-03-29T09:09:57.999Z</time></trkpt><trkpt lat="45.849877935456796" lon="8.837212556578686"><ele>410.0</ele><time>2026-03-29T09:09:58.999Z</time></trkpt><trkpt lat="45.84996079024003" lon="8.837362140636714"><ele>410.0</ele><time>2026-03-29T09:09:59.999Z</time></trkpt><trkpt lat="45.85002773914897" lon="8.837497862110828"><ele>410.0</ele><time>2026-03-29T09:10:00.999Z</time></trkpt><trkpt lat="45.850111306358954" lon="8.837622663037239"><ele>410.0</ele><time>2026-03-29T09:10:01.999Z</time></trkpt><trkpt lat="45.85019434619547" lon="8.837738967671497"><ele>408.25</ele><time>2026-03-29T09:10:02.999Z</time></trkpt><trkpt lat="45.8502724333156" lon="8.83787097661328"><ele>406.5</ele><time>2026-03-29T09:10:03.999Z</time></trkpt><trkpt lat="45.85034866214426" lon="8.838019345069654"><ele>404.75</ele><time>2026-03-29T09:10:04.999Z</time></trkpt><trkpt lat="45.850430384509316" lon="8.838157559527286"><ele>403.0</ele><time>2026-03-29T09:10:05.999Z</time></trkpt><trkpt lat="45.85050536973181" lon="8.83829039664798"><ele>403.0</ele><time>2026-03-29T09:10:06.999Z</time></trkpt><trkpt lat="45.85058052473844" lon="8.838381243817407"><ele>403.0</ele><time>2026-03-29T09:10:07.999Z</time></trkpt><trkpt lat="45.85061116084294" lon="8.838464390486466"><ele>403.0</ele><time>2026-03-29T09:10:08.999Z</time></trkpt><trkpt lat="45.85066923170582" lon="8.83855374744085"><ele>403.0</ele><time>2026-03-29T09:10:11.999Z</time></trkpt><trkpt lat="45.850734481154234" lon="8.838641902820845"><ele>403.0</ele><time>2026-03-29T09:10:13.999Z</time></trkpt><trkpt lat="45.85089037644842" lon="8.838639928239177"><ele>403.1666666666667</ele><time>2026-03-29T09:10:15.999Z</time></trkpt><trkpt lat="45.85096257361649" lon="8.83865162132068"><ele>403.33333333333337</ele><time>2026-03-29T09:10:16.999Z</time></trkpt><trkpt lat="45.851026343409806" lon="8.83867708043258"><ele>403.5</ele><time>2026-03-29T09:10:17.999Z</time></trkpt><trkpt lat="45.851115350407824" lon="8.83872853730538"><ele>403.66666666666663</ele><time>2026-03-29T09:10:18.999Z</time></trkpt><trkpt lat="45.851199425075876" lon="8.838780717405971"><ele>403.8333333333333</ele><time>2026-03-29T09:10:19.999Z</time></trkpt><trkpt lat="45.851283066747555" lon="8.838823442406706"><ele>404.0</ele><time>2026-03-29T09:10:20.999Z</time></trkpt><trkpt lat="45.85136766557543" lon="8.838881267104677"><ele>403.99999999999994</ele><time>2026-03-29T09:10:21.999Z</time></trkpt><trkpt lat="45.851447813173294" lon="8.838942433670828"><ele>404.0</ele><time>2026-03-29T09:10:22.999Z</time></trkpt><trkpt lat="45.85151734579262" lon="8.838993891244666"><ele>404.0</ele><time>2026-03-29T09:10:23.999Z</time></trkpt><trkpt lat="45.85158972981137" lon="8.839034037414596"><ele>404.0</ele><time>2026-03-29T09:10:24.999Z</time></trkpt><trkpt lat="45.85166301496985" lon="8.839106156439177"><ele>403.99999999999994</ele><time>2026-03-29T09:10:25.999Z</time></trkpt><trkpt lat="45.85173076775126" lon="8.839130177358332"><ele>404.0</ele><time>2026-03-29T09:10:26.999Z</time></trkpt><trkpt lat="45.851806879543126" lon="8.839189257724845"><ele>403.8333333333333</ele><time>2026-03-29T09:10:27.999Z</time></trkpt><trkpt lat="45.85186521889027" lon="8.839236929258522"><ele>403.66666666666663</ele><time>2026-03-29T09:10:28.999Z</time></trkpt><trkpt lat="45.85195462057997" lon="8.839302012565156"><ele>403.5</ele><time>2026-03-29T09:10:29.999Z</time></trkpt><trkpt lat="45.852020684306936" lon="8.839356528854527"><ele>403.33333333333337</ele><time>2026-03-29T09:10:30.999Z</time></trkpt><trkpt lat="45.85208976250905" lon="8.83938898059385"><ele>403.1666666666667</ele><time>2026-03-29T09:10:31.999Z</time></trkpt><trkpt lat="45.85215424047497" lon="8.839419626878698"><ele>403.0</ele><time>2026-03-29T09:10:32.999Z</time></trkpt><trkpt lat="45.85223933868341" lon="8.839476288478474"><ele>403.33333333333337</ele><time>2026-03-29T09:10:34.999Z</time></trkpt><trkpt lat="45.85233076483932" lon="8.83952551591269"><ele>403.6666666666667</ele><time>2026-03-29T09:10:36.999Z</time></trkpt><trkpt lat="45.8524416619816" lon="8.839585227321493"><ele>404.0</ele><time>2026-03-29T09:10:38.999Z</time></trkpt><trkpt lat="45.852526095713884" lon="8.83960735923701"><ele>404.33333333333337</ele><time>2026-03-29T09:10:39.999Z</time></trkpt><trkpt lat="45.85258741170131" lon="8.839665461693096"><ele>404.6666666666667</ele><time>2026-03-29T09:10:40.999Z</time></trkpt><trkpt lat="45.85265218809313" lon="8.83970234095595"><ele>405.0</ele><time>2026-03-29T09:10:41.999Z</time></trkpt><trkpt lat="45.85272709645805" lon="8.839754217808077"><ele>405.2</ele><time>2026-03-29T09:10:42.999Z</time></trkpt><trkpt lat="45.8528095737271" lon="8.83981978525366"><ele>405.4</ele><time>2026-03-29T09:10:43.999Z</time></trkpt><trkpt lat="45.852872900600026" lon="8.839907890658212"><ele>405.6</ele><time>2026-03-29T09:10:44.999Z</time></trkpt><trkpt lat="45.85294125431355" lon="8.840002672171192"><ele>405.8</ele><time>2026-03-29T09:10:45.999Z</time></trkpt><trkpt lat="45.85301234029035" lon="8.840121677065882"><ele>406.0</ele><time>2026-03-29T09:10:46.999Z</time></trkpt><trkpt lat="45.853083523085644" lon="8.84025075521502"><ele>405.6</ele><time>2026-03-29T09:10:47.999Z</time></trkpt><trkpt lat="45.8531487663143" lon="8.840372616596417"><ele>405.20000000000005</ele><time>2026-03-29T09:10:48.999Z</time></trkpt><trkpt lat="45.8532085549832" lon="8.840479381472383"><ele>404.79999999999995</ele><time>2026-03-29T09:10:49.999Z</time></trkpt><trkpt lat="45.85327563471655" lon="8.840617528853056"><ele>404.4</ele><time>2026-03-29T09:10:50.999Z</time></trkpt><trkpt lat="45.853334218986014" lon="8.840775971823723"><ele>404.0</ele><time>2026-03-29T09:10:51.999Z</time></trkpt><trkpt lat="45.853353123373644" lon="8.84089920838337"><ele>404.0</ele><time>2026-03-29T09:10:52.999Z</time></trkpt><trkpt lat="45.85339123906537" lon="8.841073594564493"><ele>404.0</ele><time>2026-03-29T09:10:53.999Z</time></trkpt><trkpt lat="45.85344289176645" lon="8.841249305727636"><ele>404.0</ele><time>2026-03-29T09:10:54.999Z</time></trkpt><trkpt lat="45.85350272193863" lon="8.84143698548702"><ele>404.0</ele><time>2026-03-29T09:10:55.999Z</time></trkpt><trkpt lat="45.85356614840297" lon="8.841635435314748"><ele>406.3333333333333</ele><time>2026-03-29T09:10:56.999Z</time></trkpt><trkpt lat="45.853604919287285" lon="8.841857697116177"><ele>408.66666666666663</ele><time>2026-03-29T09:10:57.999Z</time></trkpt><trkpt lat="45.853670781702114" lon="8.842070022554687"><ele>411.0</ele><time>2026-03-29T09:10:58.999Z</time></trkpt><trkpt lat="45.85370521425991" lon="8.842283793421435"><ele>411.0</ele><time>2026-03-29T09:10:59.999Z</time></trkpt><trkpt lat="45.85375206770007" lon="8.842483276486963"><ele>411.0</ele><time>2026-03-29T09:11:00.999Z</time></trkpt><trkpt lat="45.85380801036887" lon="8.842661911829985"><ele>411.0</ele><time>2026-03-29T09:11:01.999Z</time></trkpt><trkpt lat="45.853864943189855" lon="8.842880504593046"><ele>411.0</ele><time>2026-03-29T09:11:03Z</time></trkpt><trkpt lat="45.85389868283676" lon="8.843042695812649"><ele>410.0</ele><time>2026-03-29T09:11:04Z</time></trkpt><trkpt lat="45.85394308450387" lon="8.843219320257969"><ele>409.0</ele><time>2026-03-29T09:11:05Z</time></trkpt><trkpt lat="45.85399232112945" lon="8.843397269832565"><ele>408.0</ele><time>2026-03-29T09:11:06Z</time></trkpt><trkpt lat="45.85403843130227" lon="8.843576169621816"><ele>407.0</ele><time>2026-03-29T09:11:07Z</time></trkpt><trkpt lat="45.85408481916302" lon="8.843757645392692"><ele>406.0</ele><time>2026-03-29T09:11:08Z</time></trkpt><trkpt lat="45.854132512753274" lon="8.843938228244829"><ele>405.0</ele><time>2026-03-29T09:11:09Z</time></trkpt><trkpt lat="45.854183185113335" lon="8.844123187311645"><ele>404.0</ele><time>2026-03-29T09:11:10Z</time></trkpt><trkpt lat="45.85423892946272" lon="8.84430594139271"><ele>403.0</ele><time>2026-03-29T09:11:11Z</time></trkpt><trkpt lat="45.85430844542877" lon="8.844493779506418"><ele>404.0</ele><time>2026-03-29T09:11:12Z</time></trkpt><trkpt lat="45.85438601004848" lon="8.84466798956469"><ele>405.0</ele><time>2026-03-29T09:11:13Z</time></trkpt><trkpt lat="45.85444201501248" lon="8.844854281666354"><ele>406.0</ele><time>2026-03-29T09:11:14Z</time></trkpt><trkpt lat="45.854519152862764" lon="8.845010460309167"><ele>407.0</ele><time>2026-03-29T09:11:15Z</time></trkpt><trkpt lat="45.854584890591475" lon="8.845177368133008"><ele>407.0</ele><time>2026-03-29T09:11:16Z</time></trkpt><trkpt lat="45.854649138243" lon="8.845334763782663"><ele>407.0</ele><time>2026-03-29T09:11:17Z</time></trkpt><trkpt lat="45.85470784480732" lon="8.84547999054425"><ele>407.0</ele><time>2026-03-29T09:11:18Z</time></trkpt><trkpt lat="45.85476230458162" lon="8.845615408035659"><ele>407.0</ele><time>2026-03-29T09:11:19Z</time></trkpt><trkpt lat="45.85481614161107" lon="8.845746166571555"><ele>407.0</ele><time>2026-03-29T09:11:20Z</time></trkpt><trkpt lat="45.85485873424218" lon="8.845901528773046"><ele>407.0</ele><time>2026-03-29T09:11:21Z</time></trkpt><trkpt lat="45.85491409030524" lon="8.84603842564555"><ele>407.0</ele><time>2026-03-29T09:11:22Z</time></trkpt><trkpt lat="45.854973909792626" lon="8.846186610535863"><ele>407.0</ele><time>2026-03-29T09:11:23Z</time></trkpt><trkpt lat="45.85503963305753" lon="8.84635086860203"><ele>406.66666666666663</ele><time>2026-03-29T09:11:24Z</time></trkpt><trkpt lat="45.855114159450146" lon="8.84653712780466"><ele>406.33333333333337</ele><time>2026-03-29T09:11:25Z</time></trkpt><trkpt lat="45.855190268706885" lon="8.846727342889572"><ele>406.0</ele><time>2026-03-29T09:11:26Z</time></trkpt><trkpt lat="45.85526873778923" lon="8.84692197189279"><ele>406.5</ele><time>2026-03-29T09:11:27Z</time></trkpt><trkpt lat="45.855334120873145" lon="8.847111123828638"><ele>407.0</ele><time>2026-03-29T09:11:28Z</time></trkpt><trkpt lat="45.855390004252705" lon="8.847255320332913"><ele>407.5</ele><time>2026-03-29T09:11:29Z</time></trkpt><trkpt lat="45.85544095021762" lon="8.847367371860223"><ele>408.0</ele><time>2026-03-29T09:11:30Z</time></trkpt><trkpt lat="45.85550413800922" lon="8.847489026129113"><ele>408.0</ele><time>2026-03-29T09:11:31Z</time></trkpt><trkpt lat="45.85555619538345" lon="8.847624976271888"><ele>408.0</ele><time>2026-03-29T09:11:32Z</time></trkpt><trkpt lat="45.85558310026936" lon="8.847707343495456"><ele>408.0</ele><time>2026-03-29T09:11:33Z</time></trkpt><trkpt lat="45.855635971310456" lon="8.847827663463159"><ele>408.0</ele><time>2026-03-29T09:11:36Z</time></trkpt><trkpt lat="45.855686164515056" lon="8.847960500264621"><ele>408.0</ele><time>2026-03-29T09:11:37Z</time></trkpt><trkpt lat="45.855748223905195" lon="8.848103632838374"><ele>407.75</ele><time>2026-03-29T09:11:38Z</time></trkpt><trkpt lat="45.85581864993584" lon="8.848267260873293"><ele>407.5</ele><time>2026-03-29T09:11:39Z</time></trkpt><trkpt lat="45.85589629524216" lon="8.848445309808582"><ele>407.25</ele><time>2026-03-29T09:11:40Z</time></trkpt><trkpt lat="45.85595445349364" lon="8.848633292287301"><ele>407.0</ele><time>2026-03-29T09:11:41Z</time></trkpt><trkpt lat="45.85603159682361" lon="8.848825778328651"><ele>407.0</ele><time>2026-03-29T09:11:42Z</time></trkpt><trkpt lat="45.856112477913975" lon="8.849027590634508"><ele>407.0</ele><time>2026-03-29T09:11:43Z</time></trkpt><trkpt lat="45.8561965748425" lon="8.84923742454467"><ele>407.0</ele><time>2026-03-29T09:11:44Z</time></trkpt><trkpt lat="45.85629083441293" lon="8.849433827060345"><ele>405.3333333333333</ele><time>2026-03-29T09:11:45Z</time></trkpt><trkpt lat="45.856369597415316" lon="8.849631888334558"><ele>403.66666666666663</ele><time>2026-03-29T09:11:46Z</time></trkpt><trkpt lat="45.85644749514685" lon="8.849830644045046"><ele>402.0</ele><time>2026-03-29T09:11:47Z</time></trkpt><trkpt lat="45.85652224194622" lon="8.850015378833099"><ele>400.33333333333337</ele><time>2026-03-29T09:11:48Z</time></trkpt><trkpt lat="45.85659746204169" lon="8.850202007366063"><ele>398.6666666666667</ele><time>2026-03-29T09:11:49Z</time></trkpt><trkpt lat="45.85667203607339" lon="8.850389712052023"><ele>397.0</ele><time>2026-03-29T09:11:50Z</time></trkpt><trkpt lat="45.85674760880436" lon="8.850576975405096"><ele>396.5</ele><time>2026-03-29T09:11:50.999Z</time></trkpt><trkpt lat="45.85682022496051" lon="8.850747988126317"><ele>396.0</ele><time>2026-03-29T09:11:51.999Z</time></trkpt><trkpt lat="45.856882467979354" lon="8.850904416864305"><ele>395.5</ele><time>2026-03-29T09:11:52.999Z</time></trkpt><trkpt lat="45.85693937871031" lon="8.851048456338246"><ele>395.0</ele><time>2026-03-29T09:11:53.999Z</time></trkpt><trkpt lat="45.85699621396071" lon="8.851185120463743"><ele>395.0</ele><time>2026-03-29T09:11:54.999Z</time></trkpt><trkpt lat="45.857041715614656" lon="8.851305880847457"><ele>395.0</ele><time>2026-03-29T09:11:55.999Z</time></trkpt><trkpt lat="45.85706867105874" lon="8.851428988164956"><ele>395.0</ele><time>2026-03-29T09:11:56.999Z</time></trkpt><trkpt lat="45.85705924917503" lon="8.851552482794633"><ele>395.0</ele><time>2026-03-29T09:11:57.999Z</time></trkpt><trkpt lat="45.85703625940336" lon="8.851677245404854"><ele>395.0</ele><time>2026-03-29T09:11:58.999Z</time></trkpt><trkpt lat="45.85699298876909" lon="8.851792633105388"><ele>394.3333333333333</ele><time>2026-03-29T09:11:59.999Z</time></trkpt><trkpt lat="45.85697117950028" lon="8.851898313894392"><ele>393.66666666666663</ele><time>2026-03-29T09:12:00.999Z</time></trkpt><trkpt lat="45.85698577403037" lon="8.851995072294779"><ele>393.0</ele><time>2026-03-29T09:12:01.999Z</time></trkpt><trkpt lat="45.85703478519627" lon="8.85206732943627"><ele>392.33333333333337</ele><time>2026-03-29T09:12:02.999Z</time></trkpt><trkpt lat="45.85708058009679" lon="8.852146072464107"><ele>391.6666666666667</ele><time>2026-03-29T09:12:03.999Z</time></trkpt><trkpt lat="45.85718148372155" lon="8.852177464164022"><ele>391.0</ele><time>2026-03-29T09:12:04.999Z</time></trkpt><trkpt lat="45.85729744487925" lon="8.852199693808984"><ele>391.0</ele><time>2026-03-29T09:12:05.999Z</time></trkpt><trkpt lat="45.85740149629881" lon="8.852287945151206"><ele>391.0</ele><time>2026-03-29T09:12:06.999Z</time></trkpt><trkpt lat="45.857489712077154" lon="8.852426610439737"><ele>391.0</ele><time>2026-03-29T09:12:07.999Z</time></trkpt><trkpt lat="45.85755983831001" lon="8.85259385418102"><ele>391.0</ele><time>2026-03-29T09:12:08.999Z</time></trkpt><trkpt lat="45.857631499127464" lon="8.85278010832531"><ele>391.5</ele><time>2026-03-29T09:12:09.999Z</time></trkpt><trkpt lat="45.85770803459522" lon="8.852973169235819"><ele>392.0</ele><time>2026-03-29T09:12:10.999Z</time></trkpt><trkpt lat="45.857760053573344" lon="8.853150433679621"><ele>392.5</ele><time>2026-03-29T09:12:11.999Z</time></trkpt><trkpt lat="45.85782794192517" lon="8.853319823110969"><ele>393.0</ele><time>2026-03-29T09:12:12.999Z</time></trkpt><trkpt lat="45.85789569777724" lon="8.85348628209558"><ele>392.0</ele><time>2026-03-29T09:12:13.999Z</time></trkpt><trkpt lat="45.857958765740946" lon="8.853648450820403"><ele>391.0</ele><time>2026-03-29T09:12:14.999Z</time></trkpt><trkpt lat="45.85802713353277" lon="8.85381747560664"><ele>390.0</ele><time>2026-03-29T09:12:15.999Z</time></trkpt><trkpt lat="45.85809379602119" lon="8.85398142811419"><ele>389.0</ele><time>2026-03-29T09:12:16.999Z</time></trkpt><trkpt lat="45.8581696899981" lon="8.854122972725502"><ele>389.0</ele><time>2026-03-29T09:12:17.999Z</time></trkpt><trkpt lat="45.858228152697755" lon="8.854287093951424"><ele>389.0</ele><time>2026-03-29T09:12:18.999Z</time></trkpt><trkpt lat="45.858287569354225" lon="8.85443963635854"><ele>389.0</ele><time>2026-03-29T09:12:19.999Z</time></trkpt><trkpt lat="45.85834806934044" lon="8.854592138289107"><ele>389.0</ele><time>2026-03-29T09:12:20.999Z</time></trkpt><trkpt lat="45.85840834785333" lon="8.854741408289843"><ele>389.25</ele><time>2026-03-29T09:12:21.999Z</time></trkpt><trkpt lat="45.85846748513645" lon="8.854891679080199"><ele>389.5</ele><time>2026-03-29T09:12:22.999Z</time></trkpt><trkpt lat="45.85852730374523" lon="8.855044151834601"><ele>389.75</ele><time>2026-03-29T09:12:23.999Z</time></trkpt><trkpt lat="45.85858789152714" lon="8.855193486970949"><ele>390.0</ele><time>2026-03-29T09:12:24.999Z</time></trkpt><trkpt lat="45.85864807473698" lon="8.855342559333067"><ele>390.0</ele><time>2026-03-29T09:12:25.999Z</time></trkpt><trkpt lat="45.85869575519416" lon="8.855468429908933"><ele>390.0</ele><time>2026-03-29T09:12:26.999Z</time></trkpt><trkpt lat="45.85874195668405" lon="8.855590372549088"><ele>390.0</ele><time>2026-03-29T09:12:27.999Z</time></trkpt><trkpt lat="45.858788469908816" lon="8.855707823703096"><ele>390.0</ele><time>2026-03-29T09:12:28.999Z</time></trkpt><trkpt lat="45.858838770935996" lon="8.855821377426887"><ele>390.0</ele><time>2026-03-29T09:12:29.999Z</time></trkpt><trkpt lat="45.85888349251787" lon="8.855940397806418"><ele>389.25</ele><time>2026-03-29T09:12:30.999Z</time></trkpt><trkpt lat="45.858937108996344" lon="8.85606798988538"><ele>388.5</ele><time>2026-03-29T09:12:31.999Z</time></trkpt><trkpt lat="45.85900052257524" lon="8.856215677327794"><ele>387.75</ele><time>2026-03-29T09:12:32.999Z</time></trkpt><trkpt lat="45.85906029831163" lon="8.856367947249732"><ele>387.0</ele><time>2026-03-29T09:12:33.999Z</time></trkpt><trkpt lat="45.85912734809518" lon="8.856526920289639"><ele>387.0</ele><time>2026-03-29T09:12:34.999Z</time></trkpt><trkpt lat="45.85918649278049" lon="8.856672018831116"><ele>387.0</ele><time>2026-03-29T09:12:35.999Z</time></trkpt><trkpt lat="45.8592411641605" lon="8.856813655650804"><ele>387.0</ele><time>2026-03-29T09:12:36.999Z</time></trkpt><trkpt lat="45.85929944114107" lon="8.856954916862055"><ele>387.0</ele><time>2026-03-29T09:12:37.999Z</time></trkpt><trkpt lat="45.859353393180946" lon="8.857094220652941"><ele>387.20000000000005</ele><time>2026-03-29T09:12:38.999Z</time></trkpt><trkpt lat="45.85940755033317" lon="8.857234635916509"><ele>387.4</ele><time>2026-03-29T09:12:39.999Z</time></trkpt><trkpt lat="45.85946258015354" lon="8.857371493488953"><ele>387.6</ele><time>2026-03-29T09:12:40.999Z</time></trkpt><trkpt lat="45.859513214014264" lon="8.857505439451693"><ele>387.79999999999995</ele><time>2026-03-29T09:12:41.999Z</time></trkpt><trkpt lat="45.85956454233024" lon="8.857632420106238"><ele>388.0</ele><time>2026-03-29T09:12:42.999Z</time></trkpt><trkpt lat="45.859614115491034" lon="8.857766817769082"><ele>388.0</ele><time>2026-03-29T09:12:43.999Z</time></trkpt><trkpt lat="45.85966721262837" lon="8.857890960722338"><ele>388.0</ele><time>2026-03-29T09:12:44.999Z</time></trkpt><trkpt lat="45.85970765407507" lon="8.858027518574437"><ele>388.0</ele><time>2026-03-29T09:12:45.999Z</time></trkpt><trkpt lat="45.85977710766349" lon="8.858124123130397"><ele>388.0</ele><time>2026-03-29T09:12:46.999Z</time></trkpt><trkpt lat="45.85982330560717" lon="8.858227092606416"><ele>388.0</ele><time>2026-03-29T09:12:47.999Z</time></trkpt><trkpt lat="45.859865109204925" lon="8.85832331982537"><ele>388.1666666666667</ele><time>2026-03-29T09:12:48.999Z</time></trkpt><trkpt lat="45.8599297313084" lon="8.85848312491448"><ele>388.33333333333337</ele><time>2026-03-29T09:12:50.999Z</time></trkpt><trkpt lat="45.859962957243916" lon="8.858567868803958"><ele>388.5</ele><time>2026-03-29T09:12:51.999Z</time></trkpt><trkpt lat="45.85996696079059" lon="8.858682627734694"><ele>388.66666666666663</ele><time>2026-03-29T09:12:52.999Z</time></trkpt><trkpt lat="45.86000203932731" lon="8.858770796009152"><ele>388.8333333333333</ele><time>2026-03-29T09:12:53.999Z</time></trkpt><trkpt lat="45.86004125748381" lon="8.858869019734529"><ele>389.0</ele><time>2026-03-29T09:12:54.999Z</time></trkpt><trkpt lat="45.86007547082822" lon="8.858954794485616"><ele>389.0</ele><time>2026-03-29T09:12:55.999Z</time></trkpt><trkpt lat="45.860107884595536" lon="8.85903605723576"><ele>389.0</ele><time>2026-03-29T09:12:56.999Z</time></trkpt><trkpt lat="45.860162485088935" lon="8.859172943605806"><ele>389.0</ele><time>2026-03-29T09:12:58.999Z</time></trkpt><trkpt lat="45.86020030619606" lon="8.85926776287427"><ele>389.0</ele><time>2026-03-29T09:13:00.999Z</time></trkpt><trkpt lat="45.86023781487488" lon="8.859361798808338"><ele>389.0</ele><time>2026-03-29T09:13:04.999Z</time></trkpt><trkpt lat="45.860307673353645" lon="8.859536940874797"><ele>388.99999999999994</ele><time>2026-03-29T09:13:11Z</time></trkpt><trkpt lat="45.86034440689565" lon="8.859614847814141"><ele>389.0</ele><time>2026-03-29T09:13:12Z</time></trkpt><trkpt lat="45.860393802853665" lon="8.859683935177546"><ele>389.0</ele><time>2026-03-29T09:13:13Z</time></trkpt><trkpt lat="45.86043672687691" lon="8.85980495998612"><ele>389.0</ele><time>2026-03-29T09:13:15Z</time></trkpt><trkpt lat="45.86034341619774" lon="8.859879934329806"><ele>388.99999999999994</ele><time>2026-03-29T09:13:17Z</time></trkpt><trkpt lat="45.860272105596785" lon="8.859955306865649"><ele>389.0</ele><time>2026-03-29T09:13:18Z</time></trkpt><trkpt lat="45.86019682832392" lon="8.860036844523362"><ele>388.6</ele><time>2026-03-29T09:13:19Z</time></trkpt><trkpt lat="45.86012850330865" lon="8.860129863688131"><ele>388.2</ele><time>2026-03-29T09:13:20Z</time></trkpt><trkpt lat="45.860073765838074" lon="8.86023379066428"><ele>387.8</ele><time>2026-03-29T09:13:21Z</time></trkpt><trkpt lat="45.8599939359803" lon="8.860341355091858"><ele>387.40000000000003</ele><time>2026-03-29T09:13:22Z</time></trkpt><trkpt lat="45.859925695891654" lon="8.86044926137496"><ele>387.0</ele><time>2026-03-29T09:13:23Z</time></trkpt><trkpt lat="45.85985343215112" lon="8.860566100045546"><ele>386.25</ele><time>2026-03-29T09:13:24Z</time></trkpt><trkpt lat="45.8597753542432" lon="8.860691468257592"><ele>385.5</ele><time>2026-03-29T09:13:25Z</time></trkpt><trkpt lat="45.85969914862383" lon="8.860813437317919"><ele>384.75</ele><time>2026-03-29T09:13:26Z</time></trkpt><trkpt lat="45.85962075576998" lon="8.860938906969979"><ele>384.0</ele><time>2026-03-29T09:13:27Z</time></trkpt><trkpt lat="45.85955075983012" lon="8.861083720383128"><ele>383.75</ele><time>2026-03-29T09:13:28Z</time></trkpt><trkpt lat="45.85946981793243" lon="8.861210931249005"><ele>383.5</ele><time>2026-03-29T09:13:29Z</time></trkpt><trkpt lat="45.859387957430776" lon="8.861340221915992"><ele>383.25</ele><time>2026-03-29T09:13:30Z</time></trkpt><trkpt lat="45.85929340881807" lon="8.861464034374027"><ele>383.0</ele><time>2026-03-29T09:13:31Z</time></trkpt><trkpt lat="45.859223086917275" lon="8.861610105924512"><ele>383.0</ele><time>2026-03-29T09:13:32Z</time></trkpt><trkpt lat="45.85913264114129" lon="8.86172080547778"><ele>383.0</ele><time>2026-03-29T09:13:33Z</time></trkpt><trkpt lat="45.85905273530087" lon="8.861848958605265"><ele>383.0</ele><time>2026-03-29T09:13:34Z</time></trkpt><trkpt lat="45.858981012273155" lon="8.861982229943461"><ele>383.0</ele><time>2026-03-29T09:13:35Z</time></trkpt><trkpt lat="45.85890946188743" lon="8.862092280054693"><ele>383.0</ele><time>2026-03-29T09:13:36Z</time></trkpt><trkpt lat="45.85884363594069" lon="8.86221636408775"><ele>383.0</ele><time>2026-03-29T09:13:37Z</time></trkpt><trkpt lat="45.858852598210696" lon="8.862678881817816"><ele>383.0</ele><time>2026-03-29T09:13:40Z</time></trkpt><trkpt lat="45.85890883270725" lon="8.86282006815653"><ele>382.75</ele><time>2026-03-29T09:13:41Z</time></trkpt><trkpt lat="45.85897877413215" lon="8.862951336111893"><ele>382.5</ele><time>2026-03-29T09:13:42Z</time></trkpt><trkpt lat="45.85905726370279" lon="8.863088538700962"><ele>382.25</ele><time>2026-03-29T09:13:43Z</time></trkpt><trkpt lat="45.85912020748849" lon="8.863252332916431"><ele>382.0</ele><time>2026-03-29T09:13:44Z</time></trkpt><trkpt lat="45.85919963464257" lon="8.86341457083867"><ele>382.0</ele><time>2026-03-29T09:13:45Z</time></trkpt><trkpt lat="45.859281324048894" lon="8.863581533810788"><ele>382.0</ele><time>2026-03-29T09:13:46Z</time></trkpt><trkpt lat="45.859356853989524" lon="8.863729386279475"><ele>382.0</ele><time>2026-03-29T09:13:47Z</time></trkpt><trkpt lat="45.85942089366704" lon="8.863839501213944"><ele>382.0</ele><time>2026-03-29T09:13:48Z</time></trkpt><trkpt lat="45.859483926973" lon="8.863958519372176"><ele>381.8</ele><time>2026-03-29T09:13:49Z</time></trkpt><trkpt lat="45.859537901589995" lon="8.864077822319484"><ele>381.6</ele><time>2026-03-29T09:13:50Z</time></trkpt><trkpt lat="45.859596593788055" lon="8.864194334862356"><ele>381.40000000000003</ele><time>2026-03-29T09:13:51Z</time></trkpt><trkpt lat="45.85963950656299" lon="8.864282433128357"><ele>381.20000000000005</ele><time>2026-03-29T09:13:52Z</time></trkpt><trkpt lat="45.85969476904457" lon="8.864400025643727"><ele>381.0</ele><time>2026-03-29T09:13:54Z</time></trkpt><trkpt lat="45.859714498266605" lon="8.864506439567018"><ele>381.6</ele><time>2026-03-29T09:13:56Z</time></trkpt><trkpt lat="45.85976524848235" lon="8.864566767134509"><ele>382.20000000000005</ele><time>2026-03-29T09:13:57Z</time></trkpt><trkpt lat="45.85982464477238" lon="8.864636598096013"><ele>382.79999999999995</ele><time>2026-03-29T09:13:58Z</time></trkpt><trkpt lat="45.85987401743512" lon="8.864764817290002"><ele>383.4</ele><time>2026-03-29T09:13:59Z</time></trkpt><trkpt lat="45.85993430784662" lon="8.864888771872646"><ele>384.0</ele><time>2026-03-29T09:14:00Z</time></trkpt><trkpt lat="45.86001132003655" lon="8.865018837732185"><ele>383.5</ele><time>2026-03-29T09:14:01Z</time></trkpt><trkpt lat="45.86008085269089" lon="8.86516391434236"><ele>383.0</ele><time>2026-03-29T09:14:01.999Z</time></trkpt><trkpt lat="45.86012292019177" lon="8.865349192182672"><ele>382.5</ele><time>2026-03-29T09:14:02.999Z</time></trkpt><trkpt lat="45.86018039867714" lon="8.865552946275242"><ele>382.0</ele><time>2026-03-29T09:14:03.999Z</time></trkpt><trkpt lat="45.86023510266108" lon="8.8657564071486"><ele>383.0</ele><time>2026-03-29T09:14:04.999Z</time></trkpt><trkpt lat="45.860278968714944" lon="8.865968883059805"><ele>384.0</ele><time>2026-03-29T09:14:05.999Z</time></trkpt><trkpt lat="45.86031587376451" lon="8.866174681792572"><ele>385.0</ele><time>2026-03-29T09:14:06.999Z</time></trkpt><trkpt lat="45.86035088977899" lon="8.866392724327238"><ele>385.0</ele><time>2026-03-29T09:14:07.999Z</time></trkpt><trkpt lat="45.860375876398834" lon="8.866584684256885"><ele>385.0</ele><time>2026-03-29T09:14:08.999Z</time></trkpt><trkpt lat="45.860385698943546" lon="8.86678377175659"><ele>385.0</ele><time>2026-03-29T09:14:09.999Z</time></trkpt><trkpt lat="45.860377654863186" lon="8.86699881769163"><ele>385.0</ele><time>2026-03-29T09:14:10.999Z</time></trkpt><trkpt lat="45.86037044722942" lon="8.867208583641736"><ele>386.0</ele><time>2026-03-29T09:14:11.999Z</time></trkpt><trkpt lat="45.86036247721931" lon="8.867440537181771"><ele>387.0</ele><time>2026-03-29T09:14:12.999Z</time></trkpt><trkpt lat="45.86036807729674" lon="8.867659001482279"><ele>388.0</ele><time>2026-03-29T09:14:13.999Z</time></trkpt><trkpt lat="45.86036607939973" lon="8.867855177280017"><ele>388.0</ele><time>2026-03-29T09:14:14.999Z</time></trkpt><trkpt lat="45.86037664581567" lon="8.868050827658257"><ele>388.0</ele><time>2026-03-29T09:14:15.999Z</time></trkpt><trkpt lat="45.8604022662052" lon="8.86825662502292"><ele>388.0</ele><time>2026-03-29T09:14:16.999Z</time></trkpt><trkpt lat="45.86044333281374" lon="8.868474061266271"><ele>388.0</ele><time>2026-03-29T09:14:17.999Z</time></trkpt><trkpt lat="45.86048880141504" lon="8.868689416096377"><ele>387.75</ele><time>2026-03-29T09:14:18.999Z</time></trkpt><trkpt lat="45.860539780732836" lon="8.86890560777026"><ele>387.5</ele><time>2026-03-29T09:14:19.999Z</time></trkpt><trkpt lat="45.860590656386975" lon="8.869110023215741"><ele>387.25</ele><time>2026-03-29T09:14:20.999Z</time></trkpt><trkpt lat="45.86063119927679" lon="8.869298771041377"><ele>387.0</ele><time>2026-03-29T09:14:21.999Z</time></trkpt><trkpt lat="45.86068079000639" lon="8.86948042447421"><ele>387.0</ele><time>2026-03-29T09:14:22.999Z</time></trkpt><trkpt lat="45.86072260856738" lon="8.869631227990642"><ele>387.0</ele><time>2026-03-29T09:14:23.999Z</time></trkpt><trkpt lat="45.86078009851057" lon="8.869782352198305"><ele>387.0</ele><time>2026-03-29T09:14:24.999Z</time></trkpt><trkpt lat="45.860820296472106" lon="8.869939406129973"><ele>387.0</ele><time>2026-03-29T09:14:25.999Z</time></trkpt><trkpt lat="45.8608664737445" lon="8.870108854456742"><ele>386.75</ele><time>2026-03-29T09:14:26.999Z</time></trkpt><trkpt lat="45.8609275093941" lon="8.870289313839047"><ele>386.5</ele><time>2026-03-29T09:14:27.999Z</time></trkpt><trkpt lat="45.860991825987504" lon="8.87045842061374"><ele>386.25</ele><time>2026-03-29T09:14:28.999Z</time></trkpt><trkpt lat="45.8610536285239" lon="8.87063168503173"><ele>386.0</ele><time>2026-03-29T09:14:29.999Z</time></trkpt><trkpt lat="45.86111200550915" lon="8.870814705238262"><ele>387.75</ele><time>2026-03-29T09:14:30.999Z</time></trkpt><trkpt lat="45.861180835558656" lon="8.87099177318602"><ele>389.5</ele><time>2026-03-29T09:14:31.999Z</time></trkpt><trkpt lat="45.86124774970423" lon="8.871169484774589"><ele>391.25</ele><time>2026-03-29T09:14:32.999Z</time></trkpt><trkpt lat="45.86132469263266" lon="8.87132862305927"><ele>393.0</ele><time>2026-03-29T09:14:33.999Z</time></trkpt><trkpt lat="45.8613836117594" lon="8.871483641844051"><ele>393.0</ele><time>2026-03-29T09:14:34.999Z</time></trkpt><trkpt lat="45.86143020388612" lon="8.871636626291568"><ele>393.0</ele><time>2026-03-29T09:14:35.999Z</time></trkpt><trkpt lat="45.86147916866481" lon="8.871765348534467"><ele>393.0</ele><time>2026-03-29T09:14:36.999Z</time></trkpt><trkpt lat="45.861514614244385" lon="8.871887163768893"><ele>393.0</ele><time>2026-03-29T09:14:37.999Z</time></trkpt><trkpt lat="45.86153040013553" lon="8.872016417700221"><ele>393.0</ele><time>2026-03-29T09:14:38.999Z</time></trkpt><trkpt lat="45.8615152664017" lon="8.872151107249314"><ele>391.5</ele><time>2026-03-29T09:14:39.999Z</time></trkpt><trkpt lat="45.86146687836859" lon="8.872292210880502"><ele>390.0</ele><time>2026-03-29T09:14:40.999Z</time></trkpt><trkpt lat="45.8613956236627" lon="8.872444465838385"><ele>388.5</ele><time>2026-03-29T09:14:41.999Z</time></trkpt><trkpt lat="45.86131316897115" lon="8.872618247679807"><ele>387.0</ele><time>2026-03-29T09:14:42.999Z</time></trkpt><trkpt lat="45.861231386040686" lon="8.87279499096342"><ele>384.6666666666667</ele><time>2026-03-29T09:14:43.999Z</time></trkpt><trkpt lat="45.86117083477281" lon="8.872979887411686"><ele>382.33333333333337</ele><time>2026-03-29T09:14:44.999Z</time></trkpt><trkpt lat="45.86109944722374" lon="8.873175834517253"><ele>380.0</ele><time>2026-03-29T09:14:45.999Z</time></trkpt><trkpt lat="45.86105076998328" lon="8.87339410085727"><ele>379.6666666666667</ele><time>2026-03-29T09:14:46.999Z</time></trkpt><trkpt lat="45.86102597725462" lon="8.873618162516005"><ele>379.3333333333333</ele><time>2026-03-29T09:14:47.999Z</time></trkpt><trkpt lat="45.861007835388776" lon="8.87384200801885"><ele>379.0</ele><time>2026-03-29T09:14:48.999Z</time></trkpt><trkpt lat="45.86098610441824" lon="8.874064268411358"><ele>379.0</ele><time>2026-03-29T09:14:49.999Z</time></trkpt><trkpt lat="45.86096549719848" lon="8.874250646086798"><ele>379.0</ele><time>2026-03-29T09:14:50.999Z</time></trkpt><trkpt lat="45.860946189191544" lon="8.874456980804702"><ele>379.0</ele><time>2026-03-29T09:14:51.999Z</time></trkpt><trkpt lat="45.86089566740263" lon="8.874672737342141"><ele>379.0</ele><time>2026-03-29T09:14:52.999Z</time></trkpt><trkpt lat="45.860870301787706" lon="8.874867509261119"><ele>379.0</ele><time>2026-03-29T09:14:53.999Z</time></trkpt><trkpt lat="45.86084353182604" lon="8.875073064234897"><ele>379.0</ele><time>2026-03-29T09:14:54.999Z</time></trkpt><trkpt lat="45.86081717216275" lon="8.875273761522886"><ele>379.0</ele><time>2026-03-29T09:14:55.999Z</time></trkpt><trkpt lat="45.86079066881811" lon="8.875472989368127"><ele>379.0</ele><time>2026-03-29T09:14:56.999Z</time></trkpt><trkpt lat="45.86076485353026" lon="8.87566704508304"><ele>377.5</ele><time>2026-03-29T09:14:57.999Z</time></trkpt><trkpt lat="45.86075482755352" lon="8.875856380573376"><ele>376.0</ele><time>2026-03-29T09:14:58.999Z</time></trkpt><trkpt lat="45.860714328289426" lon="8.876046130742775"><ele>374.5</ele><time>2026-03-29T09:14:59.999Z</time></trkpt><trkpt lat="45.86068971343644" lon="8.876230474034903"><ele>373.0</ele><time>2026-03-29T09:15:00.999Z</time></trkpt><trkpt lat="45.86068070052107" lon="8.876426896767134"><ele>371.75</ele><time>2026-03-29T09:15:01.999Z</time></trkpt><trkpt lat="45.860655425996754" lon="8.876624077543001"><ele>370.5</ele><time>2026-03-29T09:15:02.999Z</time></trkpt><trkpt lat="45.86062861490319" lon="8.87681167753507"><ele>369.25</ele><time>2026-03-29T09:15:03.999Z</time></trkpt><trkpt lat="45.86060674358394" lon="8.877010055962163"><ele>368.0</ele><time>2026-03-29T09:15:04.999Z</time></trkpt><trkpt lat="45.860568947157226" lon="8.87719124008271"><ele>367.75</ele><time>2026-03-29T09:15:05.999Z</time></trkpt><trkpt lat="45.86054405724195" lon="8.877393639670789"><ele>367.5</ele><time>2026-03-29T09:15:06.999Z</time></trkpt><trkpt lat="45.860530299299306" lon="8.87758840813955"><ele>367.25</ele><time>2026-03-29T09:15:07.999Z</time></trkpt><trkpt lat="45.86051122645134" lon="8.877769748718311"><ele>367.0</ele><time>2026-03-29T09:15:08.999Z</time></trkpt><trkpt lat="45.860479469138184" lon="8.877938280016256"><ele>368.75</ele><time>2026-03-29T09:15:09.999Z</time></trkpt><trkpt lat="45.86046049232778" lon="8.878093872372517"><ele>370.5</ele><time>2026-03-29T09:15:10.999Z</time></trkpt><trkpt lat="45.86042142958869" lon="8.878271316809576"><ele>372.25</ele><time>2026-03-29T09:15:12.999Z</time></trkpt><trkpt lat="45.86028949994989" lon="8.878311986861403"><ele>374.0</ele><time>2026-03-29T09:15:15Z</time></trkpt><trkpt lat="45.86019128151878" lon="8.87834976881775"><ele>374.0</ele><time>2026-03-29T09:15:16Z</time></trkpt><trkpt lat="45.860072189764544" lon="8.878409678002175"><ele>374.0</ele><time>2026-03-29T09:15:17Z</time></trkpt><trkpt lat="45.85996110664072" lon="8.878446001419288"><ele>374.0</ele><time>2026-03-29T09:15:18Z</time></trkpt><trkpt lat="45.85987192505332" lon="8.878495793192993"><ele>374.0</ele><time>2026-03-29T09:15:19Z</time></trkpt><trkpt lat="45.85975886441914" lon="8.878551520087958"><ele>375.25</ele><time>2026-03-29T09:15:20Z</time></trkpt><trkpt lat="45.85962428478056" lon="8.878577597901883"><ele>376.5</ele><time>2026-03-29T09:15:21Z</time></trkpt><trkpt lat="45.85948023628506" lon="8.878629956984934"><ele>377.75</ele><time>2026-03-29T09:15:22Z</time></trkpt><trkpt lat="45.859353790025956" lon="8.878694374454884"><ele>379.0</ele><time>2026-03-29T09:15:23Z</time></trkpt><trkpt lat="45.859225683447896" lon="8.878724713826259"><ele>379.0</ele><time>2026-03-29T09:15:24Z</time></trkpt><trkpt lat="45.85912157073428" lon="8.878755443183518"><ele>379.0</ele><time>2026-03-29T09:15:25Z</time></trkpt><trkpt lat="45.85903526306444" lon="8.878798438400027"><ele>379.0</ele><time>2026-03-29T09:15:26Z</time></trkpt><trkpt lat="45.85897209357135" lon="8.8788471904916"><ele>379.0</ele><time>2026-03-29T09:15:27Z</time></trkpt><trkpt lat="45.858978595786546" lon="8.87901717023139"><ele>379.0</ele><time>2026-03-29T09:15:29Z</time></trkpt><trkpt lat="45.859009695321745" lon="8.879142169324536"><ele>379.0</ele><time>2026-03-29T09:15:30Z</time></trkpt><trkpt lat="45.85904108147263" lon="8.879304927294493"><ele>379.0</ele><time>2026-03-29T09:15:31Z</time></trkpt><trkpt lat="45.85906474633645" lon="8.87950434457952"><ele>379.0</ele><time>2026-03-29T09:15:32Z</time></trkpt><trkpt lat="45.859084103575206" lon="8.87970112286869"><ele>379.0</ele><time>2026-03-29T09:15:33Z</time></trkpt><trkpt lat="45.85910665226355" lon="8.879883574821676"><ele>379.0</ele><time>2026-03-29T09:15:34Z</time></trkpt><trkpt lat="45.85913115229913" lon="8.880055075282746"><ele>379.0</ele><time>2026-03-29T09:15:35Z</time></trkpt><trkpt lat="45.85914991070873" lon="8.8802223643541"><ele>379.0</ele><time>2026-03-29T09:15:36Z</time></trkpt><trkpt lat="45.85917168918761" lon="8.880376075870162"><ele>379.0</ele><time>2026-03-29T09:15:37Z</time></trkpt><trkpt lat="45.85918503941321" lon="8.880526411618282"><ele>379.2</ele><time>2026-03-29T09:15:38Z</time></trkpt><trkpt lat="45.859206325104594" lon="8.880676137849209"><ele>379.4</ele><time>2026-03-29T09:15:39Z</time></trkpt><trkpt lat="45.85922587128443" lon="8.880820565386971"><ele>379.6</ele><time>2026-03-29T09:15:40Z</time></trkpt><trkpt lat="45.85924412777765" lon="8.880979189978094"><ele>379.8</ele><time>2026-03-29T09:15:41Z</time></trkpt><trkpt lat="45.85926622772816" lon="8.881136517813328"><ele>380.0</ele><time>2026-03-29T09:15:42Z</time></trkpt><trkpt lat="45.859288979719175" lon="8.8812968743182"><ele>380.2</ele><time>2026-03-29T09:15:43Z</time></trkpt><trkpt lat="45.85930960463941" lon="8.881427854355845"><ele>380.4</ele><time>2026-03-29T09:15:44Z</time></trkpt><trkpt lat="45.85929954044392" lon="8.881538555992824"><ele>380.6</ele><time>2026-03-29T09:15:45Z</time></trkpt><trkpt lat="45.859297195753385" lon="8.881691870990501"><ele>380.8</ele><time>2026-03-29T09:15:47Z</time></trkpt><trkpt lat="45.85929140407648" lon="8.881782649152843"><ele>381.0</ele><time>2026-03-29T09:15:48Z</time></trkpt><trkpt lat="45.859097908856775" lon="8.881831112004203"><ele>381.0</ele><time>2026-03-29T09:15:49Z</time></trkpt><trkpt lat="45.858970826672106" lon="8.88195528877725"><ele>381.0</ele><time>2026-03-29T09:15:50Z</time></trkpt><trkpt lat="45.85883395412405" lon="8.882062132477982"><ele>381.0</ele><time>2026-03-29T09:15:51Z</time></trkpt><trkpt lat="45.85868363011019" lon="8.882187420473652"><ele>381.0</ele><time>2026-03-29T09:15:52Z</time></trkpt><trkpt lat="45.85854134097703" lon="8.882320436901066"><ele>381.0</ele><time>2026-03-29T09:15:53Z</time></trkpt><trkpt lat="45.85841595172291" lon="8.882429782437596"><ele>381.0</ele><time>2026-03-29T09:15:54Z</time></trkpt><trkpt lat="45.858295556230985" lon="8.882528180587114"><ele>380.5</ele><time>2026-03-29T09:15:55Z</time></trkpt><trkpt lat="45.85818969433125" lon="8.88261419511561"><ele>380.0</ele><time>2026-03-29T09:15:56Z</time></trkpt><trkpt lat="45.85809366640068" lon="8.88268478463746"><ele>379.5</ele><time>2026-03-29T09:15:57Z</time></trkpt><trkpt lat="45.85798740523881" lon="8.8827149867641"><ele>379.0</ele><time>2026-03-29T09:15:58Z</time></trkpt><trkpt lat="45.85786785971817" lon="8.882757839322025"><ele>379.0</ele><time>2026-03-29T09:15:59Z</time></trkpt><trkpt lat="45.85772475159152" lon="8.882773806693944"><ele>379.0</ele><time>2026-03-29T09:16:00Z</time></trkpt><trkpt lat="45.85757886531224" lon="8.882820993940548"><ele>379.0</ele><time>2026-03-29T09:16:01Z</time></trkpt><trkpt lat="45.85741431214672" lon="8.882824010642295"><ele>376.3333333333333</ele><time>2026-03-29T09:16:02Z</time></trkpt><trkpt lat="45.8572568427412" lon="8.882854059506197"><ele>373.6666666666667</ele><time>2026-03-29T09:16:03Z</time></trkpt><trkpt lat="45.857088008859066" lon="8.882910886614509"><ele>371.0</ele><time>2026-03-29T09:16:04Z</time></trkpt><trkpt lat="45.8569227269153" lon="8.88294511711606"><ele>367.6666666666667</ele><time>2026-03-29T09:16:05Z</time></trkpt><trkpt lat="45.85676124510074" lon="8.88298886755903"><ele>364.3333333333333</ele><time>2026-03-29T09:16:06Z</time></trkpt><trkpt lat="45.85662097637303" lon="8.883051833351868"><ele>361.0</ele><time>2026-03-29T09:16:06.999Z</time></trkpt><trkpt lat="45.856480306805835" lon="8.883107710754965"><ele>361.0</ele><time>2026-03-29T09:16:07.999Z</time></trkpt><trkpt lat="45.85638790998063" lon="8.883199343210396"><ele>361.0</ele><time>2026-03-29T09:16:08.999Z</time></trkpt><trkpt lat="45.856310059045995" lon="8.883299049933568"><ele>361.0</ele><time>2026-03-29T09:16:09.999Z</time></trkpt><trkpt lat="45.856268556645894" lon="8.883435495674773"><ele>361.0</ele><time>2026-03-29T09:16:10.999Z</time></trkpt><trkpt lat="45.856243830315584" lon="8.883610268229832"><ele>361.0</ele><time>2026-03-29T09:16:11.999Z</time></trkpt><trkpt lat="45.85624122975702" lon="8.883796976070995"><ele>360.0</ele><time>2026-03-29T09:16:12.999Z</time></trkpt><trkpt lat="45.85623147912479" lon="8.884003913930625"><ele>359.0</ele><time>2026-03-29T09:16:13.999Z</time></trkpt><trkpt lat="45.856230028278326" lon="8.884200500764742"><ele>358.0</ele><time>2026-03-29T09:16:14.999Z</time></trkpt><trkpt lat="45.85622077843321" lon="8.88436600111534"><ele>357.0</ele><time>2026-03-29T09:16:15.999Z</time></trkpt><trkpt lat="45.85618621248166" lon="8.884499209634377"><ele>357.0</ele><time>2026-03-29T09:16:16.999Z</time></trkpt><trkpt lat="45.856165591197346" lon="8.88465502520433"><ele>357.0</ele><time>2026-03-29T09:16:17.999Z</time></trkpt><trkpt lat="45.85609737907676" lon="8.884787229664788"><ele>357.0</ele><time>2026-03-29T09:16:18.999Z</time></trkpt><trkpt lat="45.85609821738105" lon="8.884955257401526"><ele>357.0</ele><time>2026-03-29T09:16:19.999Z</time></trkpt><trkpt lat="45.856156832620535" lon="8.885115013823407"><ele>358.0</ele><time>2026-03-29T09:16:20.999Z</time></trkpt><trkpt lat="45.85620372980536" lon="8.885337701561879"><ele>359.0</ele><time>2026-03-29T09:16:21.999Z</time></trkpt><trkpt lat="45.856182999977655" lon="8.885559712172688"><ele>360.0</ele><time>2026-03-29T09:16:22.999Z</time></trkpt><trkpt lat="45.85617103398774" lon="8.885779879404769"><ele>359.2</ele><time>2026-03-29T09:16:23.999Z</time></trkpt><trkpt lat="45.85617103650962" lon="8.885977967198686"><ele>358.4</ele><time>2026-03-29T09:16:24.999Z</time></trkpt><trkpt lat="45.85615658331244" lon="8.886120330961717"><ele>357.6</ele><time>2026-03-29T09:16:25.999Z</time></trkpt><trkpt lat="45.856143264970804" lon="8.886224465216506"><ele>356.8</ele><time>2026-03-29T09:16:26.999Z</time></trkpt><trkpt lat="45.856088981953064" lon="8.886301898395017"><ele>356.0</ele><time>2026-03-29T09:16:27.999Z</time></trkpt><trkpt lat="45.85601988560647" lon="8.886373702211433"><ele>356.0</ele><time>2026-03-29T09:16:28.999Z</time></trkpt><trkpt lat="45.85596663046559" lon="8.886469950620628"><ele>356.0</ele><time>2026-03-29T09:16:29.999Z</time></trkpt><trkpt lat="45.85596396268801" lon="8.886590274596278"><ele>356.0</ele><time>2026-03-29T09:16:30.999Z</time></trkpt><trkpt lat="45.85597056543495" lon="8.8867159625052"><ele>356.0</ele><time>2026-03-29T09:16:31.999Z</time></trkpt><trkpt lat="45.855942805734294" lon="8.886823536543307"><ele>356.0</ele><time>2026-03-29T09:16:32.999Z</time></trkpt><trkpt lat="45.8558472238531" lon="8.88685833676925"><ele>356.0</ele><time>2026-03-29T09:16:33.999Z</time></trkpt><trkpt lat="45.8557562655707" lon="8.88694021343581"><ele>353.0</ele><time>2026-03-29T09:16:34.999Z</time></trkpt><trkpt lat="45.855654022270464" lon="8.887057684501004"><ele>350.0</ele><time>2026-03-29T09:16:35.999Z</time></trkpt><trkpt lat="45.855544602212866" lon="8.887152719676253"><ele>347.0</ele><time>2026-03-29T09:16:36.999Z</time></trkpt><trkpt lat="45.85544729339707" lon="8.88722801345747"><ele>344.0</ele><time>2026-03-29T09:16:37.999Z</time></trkpt><trkpt lat="45.85536092972155" lon="8.887270695567945"><ele>344.0</ele><time>2026-03-29T09:16:38.999Z</time></trkpt><trkpt lat="45.855267283192845" lon="8.887257731555037"><ele>344.0</ele><time>2026-03-29T09:16:39.999Z</time></trkpt><trkpt lat="45.855147035571036" lon="8.887265822190642"><ele>344.0</ele><time>2026-03-29T09:16:40.999Z</time></trkpt><trkpt lat="45.85502641729182" lon="8.8872766564051"><ele>344.0</ele><time>2026-03-29T09:16:41.999Z</time></trkpt><trkpt lat="45.85489814656802" lon="8.887288177947356"><ele>344.33333333333337</ele><time>2026-03-29T09:16:42.999Z</time></trkpt><trkpt lat="45.854782020537705" lon="8.887300937958123"><ele>344.6666666666667</ele><time>2026-03-29T09:16:43.999Z</time></trkpt><trkpt lat="45.854683263492504" lon="8.8873082338326"><ele>345.0</ele><time>2026-03-29T09:16:44.999Z</time></trkpt><trkpt lat="45.854615354880806" lon="8.887327603730418"><ele>345.3333333333333</ele><time>2026-03-29T09:16:45.999Z</time></trkpt><trkpt lat="45.85455007638951" lon="8.887334560347465"><ele>345.66666666666663</ele><time>2026-03-29T09:16:49.999Z</time></trkpt><trkpt lat="45.85452432946475" lon="8.887213389463385"><ele>346.0</ele><time>2026-03-29T09:16:51.999Z</time></trkpt><trkpt lat="45.854541810447984" lon="8.887111377499451"><ele>346.0</ele><time>2026-03-29T09:16:52.999Z</time></trkpt><trkpt lat="45.85462252213404" lon="8.886994651580395"><ele>346.0</ele><time>2026-03-29T09:16:54.999Z</time></trkpt><trkpt lat="45.854748389975136" lon="8.886985027864508"><ele>346.0</ele><time>2026-03-29T09:16:56.999Z</time></trkpt><trkpt lat="45.854818296295285" lon="8.88693197495483"><ele>346.0</ele><time>2026-03-29T09:16:58.999Z</time></trkpt><trkpt lat="45.85479157477583" lon="8.886814088371755"><ele>346.0</ele><time>2026-03-29T09:17:02.999Z</time></trkpt><trkpt lat="45.85470068863477" lon="8.886758228459815"><ele>347.8333333333333</ele><time>2026-03-29T09:17:04.999Z</time></trkpt><trkpt lat="45.85462382313516" lon="8.88670812220393"><ele>349.66666666666663</ele><time>2026-03-29T09:17:06.999Z</time></trkpt><trkpt lat="45.854592936273356" lon="8.886580892470912"><ele>351.5</ele><time>2026-03-29T09:17:08.999Z</time></trkpt><trkpt lat="45.854576028088424" lon="8.886465061822953"><ele>353.3333333333333</ele><time>2026-03-29T09:17:10.999Z</time></trkpt><trkpt lat="45.85453783266498" lon="8.886361206082682"><ele>355.1666666666667</ele><time>2026-03-29T09:17:12.999Z</time></trkpt><trkpt lat="45.85449371743595" lon="8.886280576030332"><ele>357.0</ele><time>2026-03-29T09:17:14.999Z</time></trkpt><trkpt lat="45.85442106714706" lon="8.886268607244327"><ele>357.0</ele><time>2026-03-29T09:17:19.999Z</time></trkpt><trkpt lat="45.85452882883721" lon="8.886371540274357"><ele>357.0</ele><time>2026-03-29T09:17:42Z</time></trkpt><trkpt lat="45.85455813557044" lon="8.886455174768935"><ele>357.0</ele><time>2026-03-29T09:17:44Z</time></trkpt><trkpt lat="45.854580168881284" lon="8.886554690668818"><ele>357.0</ele><time>2026-03-29T09:17:46Z</time></trkpt><trkpt lat="45.85460409491764" lon="8.886660903378003"><ele>357.0</ele><time>2026-03-29T09:17:48Z</time></trkpt><trkpt lat="45.854664419010255" lon="8.886739784181307"><ele>357.0</ele><time>2026-03-29T09:17:50Z</time></trkpt><trkpt lat="45.85475643464911" lon="8.886801194919416"><ele>355.1666666666667</ele><time>2026-03-29T09:17:53Z</time></trkpt><trkpt lat="45.854799987632916" lon="8.886892921650741"><ele>353.3333333333333</ele><time>2026-03-29T09:17:56Z</time></trkpt><trkpt lat="45.85475022836227" lon="8.887021511604978"><ele>351.5</ele><time>2026-03-29T09:17:59Z</time></trkpt><trkpt lat="45.85465955523191" lon="8.88703220557352"><ele>349.66666666666663</ele><time>2026-03-29T09:18:01Z</time></trkpt><trkpt lat="45.854567590684674" lon="8.887057082586628"><ele>347.8333333333333</ele><time>2026-03-29T09:18:03Z</time></trkpt><trkpt lat="45.85451982210701" lon="8.887153084283534"><ele>346.0</ele><time>2026-03-29T09:18:05Z</time></trkpt><trkpt lat="45.85452486461892" lon="8.887283371947564"><ele>346.0</ele><time>2026-03-29T09:18:07Z</time></trkpt><trkpt lat="45.85454718742625" lon="8.887368973390691"><ele>346.0</ele><time>2026-03-29T09:18:09Z</time></trkpt><trkpt lat="45.85465345872789" lon="8.887377715717264"><ele>346.0</ele><time>2026-03-29T09:18:12Z</time></trkpt><trkpt lat="45.85477188834746" lon="8.88735535130745"><ele>346.0</ele><time>2026-03-29T09:18:13Z</time></trkpt><trkpt lat="45.85488959698017" lon="8.887324951507077"><ele>346.0</ele><time>2026-03-29T09:18:14Z</time></trkpt><trkpt lat="45.855021273865084" lon="8.887320646237137"><ele>345.5</ele><time>2026-03-29T09:18:15Z</time></trkpt><trkpt lat="45.855149709344275" lon="8.887319298369166"><ele>345.0</ele><time>2026-03-29T09:18:16Z</time></trkpt><trkpt lat="45.855255325038335" lon="8.887305803697274"><ele>344.5</ele><time>2026-03-29T09:18:16.999Z</time></trkpt><trkpt lat="45.85536196104044" lon="8.887279263820107"><ele>344.0</ele><time>2026-03-29T09:18:17.999Z</time></trkpt><trkpt lat="45.85547334222695" lon="8.887215752009515"><ele>344.0</ele><time>2026-03-29T09:18:18.999Z</time></trkpt><trkpt lat="45.85559775842488" lon="8.88713620636351"><ele>344.0</ele><time>2026-03-29T09:18:19.999Z</time></trkpt><trkpt lat="45.85569539294714" lon="8.887028514065921"><ele>344.0</ele><time>2026-03-29T09:18:20.999Z</time></trkpt><trkpt lat="45.85578837207114" lon="8.886960209969425"><ele>344.0</ele><time>2026-03-29T09:18:21.999Z</time></trkpt><trkpt lat="45.8558619558593" lon="8.886898865131343"><ele>344.0</ele><time>2026-03-29T09:18:22.999Z</time></trkpt><trkpt lat="45.855920670172374" lon="8.886851343768305"><ele>344.79999999999995</ele><time>2026-03-29T09:18:23.999Z</time></trkpt><trkpt lat="45.85600827269756" lon="8.886764380696857"><ele>345.59999999999997</ele><time>2026-03-29T09:18:25.999Z</time></trkpt><trkpt lat="45.85608646382211" lon="8.886759160495576"><ele>346.4</ele><time>2026-03-29T09:18:27.999Z</time></trkpt><trkpt lat="45.856133861867384" lon="8.886935161911092"><ele>347.2</ele><time>2026-03-29T09:18:29.999Z</time></trkpt><trkpt lat="45.8561089219414" lon="8.887084009791188"><ele>348.0</ele><time>2026-03-29T09:18:30.999Z</time></trkpt><trkpt lat="45.85606138080624" lon="8.887278270364119"><ele>348.0</ele><time>2026-03-29T09:18:31.999Z</time></trkpt><trkpt lat="45.85604268717848" lon="8.887512022768414"><ele>348.0</ele><time>2026-03-29T09:18:32.999Z</time></trkpt><trkpt lat="45.85600745340741" lon="8.887772490071622"><ele>348.0</ele><time>2026-03-29T09:18:33.999Z</time></trkpt><trkpt lat="45.855960720706136" lon="8.888076103412343"><ele>344.0</ele><time>2026-03-29T09:18:34.999Z</time></trkpt><trkpt lat="45.85592428157997" lon="8.888403755292215"><ele>340.0</ele><time>2026-03-29T09:18:35.999Z</time></trkpt><trkpt lat="45.85589042473232" lon="8.88869902610591"><ele>336.0</ele><time>2026-03-29T09:18:36.999Z</time></trkpt><trkpt lat="45.8558364174037" lon="8.88901907198629"><ele>333.6666666666667</ele><time>2026-03-29T09:18:37.999Z</time></trkpt><trkpt lat="45.855783633967334" lon="8.889324874980648"><ele>331.33333333333337</ele><time>2026-03-29T09:18:38.999Z</time></trkpt><trkpt lat="45.85572626127211" lon="8.889614258998224"><ele>329.0</ele><time>2026-03-29T09:18:39.999Z</time></trkpt><trkpt lat="45.855678928248864" lon="8.88989627162285"><ele>328.33333333333337</ele><time>2026-03-29T09:18:40.999Z</time></trkpt><trkpt lat="45.85563178587383" lon="8.89017714824722"><ele>327.6666666666667</ele><time>2026-03-29T09:18:41.999Z</time></trkpt><trkpt lat="45.85558432413795" lon="8.890449150604061"><ele>327.0</ele><time>2026-03-29T09:18:42.999Z</time></trkpt><trkpt lat="45.855535091888314" lon="8.890709957918336"><ele>329.0</ele><time>2026-03-29T09:18:43.999Z</time></trkpt><trkpt lat="45.855481139247104" lon="8.89097110980489"><ele>331.0</ele><time>2026-03-29T09:18:44.999Z</time></trkpt><trkpt lat="45.85542368276326" lon="8.891200612547408"><ele>333.0</ele><time>2026-03-29T09:18:45.999Z</time></trkpt><trkpt lat="45.85536536427725" lon="8.891404366802501"><ele>333.0</ele><time>2026-03-29T09:18:46.999Z</time></trkpt><trkpt lat="45.85529895123042" lon="8.89158192425758"><ele>333.0</ele><time>2026-03-29T09:18:47.999Z</time></trkpt><trkpt lat="45.8552255520988" lon="8.891773356203965"><ele>333.0</ele><time>2026-03-29T09:18:48.999Z</time></trkpt><trkpt lat="45.85512376290408" lon="8.891938396819231"><ele>333.0</ele><time>2026-03-29T09:18:49.999Z</time></trkpt><trkpt lat="45.855023626702746" lon="8.892105886504735"><ele>334.0</ele><time>2026-03-29T09:18:50.999Z</time></trkpt><trkpt lat="45.854928175036925" lon="8.892267823241308"><ele>335.0</ele><time>2026-03-29T09:18:51.999Z</time></trkpt><trkpt lat="45.85485343290535" lon="8.892424391204601"><ele>336.0</ele><time>2026-03-29T09:18:52.999Z</time></trkpt><trkpt lat="45.854762728209366" lon="8.892572521891008"><ele>337.0</ele><time>2026-03-29T09:18:53.999Z</time></trkpt><trkpt lat="45.854656950026246" lon="8.892708693061143"><ele>341.0</ele><time>2026-03-29T09:18:54.999Z</time></trkpt><trkpt lat="45.85453861308416" lon="8.892833257820868"><ele>345.0</ele><time>2026-03-29T09:18:55.999Z</time></trkpt><trkpt lat="45.854415247177286" lon="8.892958531286128"><ele>349.0</ele><time>2026-03-29T09:18:56.999Z</time></trkpt><trkpt lat="45.8542896159675" lon="8.893085792307346"><ele>348.25</ele><time>2026-03-29T09:18:57.999Z</time></trkpt><trkpt lat="45.854170446645554" lon="8.893217483388943"><ele>347.5</ele><time>2026-03-29T09:18:58.999Z</time></trkpt><trkpt lat="45.85405465989606" lon="8.893344653223103"><ele>346.75</ele><time>2026-03-29T09:18:59.999Z</time></trkpt><trkpt lat="45.853938725876354" lon="8.893479827138897"><ele>346.0</ele><time>2026-03-29T09:19:00.999Z</time></trkpt><trkpt lat="45.853824320157564" lon="8.893617032751008"><ele>346.0</ele><time>2026-03-29T09:19:01.999Z</time></trkpt><trkpt lat="45.85371506291113" lon="8.89377145432906"><ele>346.0</ele><time>2026-03-29T09:19:02.999Z</time></trkpt><trkpt lat="45.853609065188834" lon="8.893921465820648"><ele>346.0</ele><time>2026-03-29T09:19:03.999Z</time></trkpt><trkpt lat="45.85351051420249" lon="8.894056400640077"><ele>346.0</ele><time>2026-03-29T09:19:04.999Z</time></trkpt><trkpt lat="45.85341445774015" lon="8.894187561982433"><ele>344.75</ele><time>2026-03-29T09:19:05.999Z</time></trkpt><trkpt lat="45.85332180811384" lon="8.894323857738048"><ele>343.5</ele><time>2026-03-29T09:19:06.999Z</time></trkpt><trkpt lat="45.85323478168244" lon="8.894453916492026"><ele>342.25</ele><time>2026-03-29T09:19:07.999Z</time></trkpt><trkpt lat="45.85315139033856" lon="8.894577976897299"><ele>341.0</ele><time>2026-03-29T09:19:08.999Z</time></trkpt><trkpt lat="45.853068130001105" lon="8.894702799454711"><ele>341.0</ele><time>2026-03-29T09:19:09.999Z</time></trkpt><trkpt lat="45.85296485922165" lon="8.894813685572071"><ele>341.0</ele><time>2026-03-29T09:19:10.999Z</time></trkpt><trkpt lat="45.85288014781107" lon="8.894961233115282"><ele>341.0</ele><time>2026-03-29T09:19:11.999Z</time></trkpt><trkpt lat="45.852770572200534" lon="8.895083474899128"><ele>341.0</ele><time>2026-03-29T09:19:12.999Z</time></trkpt><trkpt lat="45.852671934201695" lon="8.895220444943309"><ele>339.25</ele><time>2026-03-29T09:19:13.999Z</time></trkpt><trkpt lat="45.852573441775604" lon="8.895358204731254"><ele>337.5</ele><time>2026-03-29T09:19:14.999Z</time></trkpt><trkpt lat="45.85247504793993" lon="8.895497561219274"><ele>335.75</ele><time>2026-03-29T09:19:15.999Z</time></trkpt><trkpt lat="45.85237892471828" lon="8.895632278378871"><ele>334.0</ele><time>2026-03-29T09:19:16.999Z</time></trkpt><trkpt lat="45.8522825921313" lon="8.89576123634925"><ele>334.0</ele><time>2026-03-29T09:19:17.999Z</time></trkpt><trkpt lat="45.85218944729148" lon="8.895878018563728"><ele>334.0</ele><time>2026-03-29T09:19:18.999Z</time></trkpt><trkpt lat="45.85207375068132" lon="8.896017358477348"><ele>334.0</ele><time>2026-03-29T09:19:19.999Z</time></trkpt><trkpt lat="45.85194676424032" lon="8.896124172701315"><ele>334.0</ele><time>2026-03-29T09:19:20.999Z</time></trkpt><trkpt lat="45.85182727691371" lon="8.896226873370214"><ele>333.25</ele><time>2026-03-29T09:19:21.999Z</time></trkpt><trkpt lat="45.85171087806751" lon="8.896330705408202"><ele>332.5</ele><time>2026-03-29T09:19:22.999Z</time></trkpt><trkpt lat="45.85160212238326" lon="8.896425745101713"><ele>331.75</ele><time>2026-03-29T09:19:23.999Z</time></trkpt><trkpt lat="45.8514942223957" lon="8.89652364041674"><ele>331.0</ele><time>2026-03-29T09:19:24.999Z</time></trkpt><trkpt lat="45.85138509453353" lon="8.896614842828695"><ele>331.0</ele><time>2026-03-29T09:19:25.999Z</time></trkpt><trkpt lat="45.85127613229768" lon="8.896714455032674"><ele>331.0</ele><time>2026-03-29T09:19:27Z</time></trkpt><trkpt lat="45.85115637342169" lon="8.896816373304887"><ele>331.0</ele><time>2026-03-29T09:19:28Z</time></trkpt><trkpt lat="45.85105814130439" lon="8.896911813419333"><ele>331.0</ele><time>2026-03-29T09:19:29Z</time></trkpt><trkpt lat="45.85097109402132" lon="8.896998636452622"><ele>331.0</ele><time>2026-03-29T09:19:30Z</time></trkpt><trkpt lat="45.85092116599733" lon="8.89709495445915"><ele>331.0</ele><time>2026-03-29T09:19:31Z</time></trkpt><trkpt lat="45.85088148017938" lon="8.89721607995995"><ele>331.0</ele><time>2026-03-29T09:19:32Z</time></trkpt><trkpt lat="45.850868433152094" lon="8.897357906499233"><ele>331.0</ele><time>2026-03-29T09:19:33Z</time></trkpt><trkpt lat="45.85090002944623" lon="8.897512058622791"><ele>331.0</ele><time>2026-03-29T09:19:34Z</time></trkpt><trkpt lat="45.85093051636357" lon="8.897670237989258"><ele>333.20000000000005</ele><time>2026-03-29T09:19:35Z</time></trkpt><trkpt lat="45.85097100961631" lon="8.897805067378856"><ele>335.40000000000003</ele><time>2026-03-29T09:19:36Z</time></trkpt><trkpt lat="45.851012823098195" lon="8.897937609926391"><ele>337.6</ele><time>2026-03-29T09:19:37Z</time></trkpt><trkpt lat="45.85103216914167" lon="8.89807687399296"><ele>339.8</ele><time>2026-03-29T09:19:38Z</time></trkpt><trkpt lat="45.85104780692666" lon="8.898207393565487"><ele>342.0</ele><time>2026-03-29T09:19:39Z</time></trkpt><trkpt lat="45.85105751361534" lon="8.898337379671878"><ele>341.0</ele><time>2026-03-29T09:19:40Z</time></trkpt><trkpt lat="45.851061936750284" lon="8.898480050005073"><ele>340.0</ele><time>2026-03-29T09:19:41Z</time></trkpt><trkpt lat="45.85107384795366" lon="8.898623942737474"><ele>339.0</ele><time>2026-03-29T09:19:42Z</time></trkpt><trkpt lat="45.85108017741205" lon="8.89878040170275"><ele>338.0</ele><time>2026-03-29T09:19:43Z</time></trkpt><trkpt lat="45.851064640559265" lon="8.898959201232046"><ele>337.0</ele><time>2026-03-29T09:19:44Z</time></trkpt><trkpt lat="45.851037465299214" lon="8.89915463389315"><ele>339.66666666666663</ele><time>2026-03-29T09:19:45Z</time></trkpt><trkpt lat="45.851007028079756" lon="8.89938856608881"><ele>342.3333333333333</ele><time>2026-03-29T09:19:46Z</time></trkpt><trkpt lat="45.850985026090015" lon="8.899629732055066"><ele>345.0</ele><time>2026-03-29T09:19:47Z</time></trkpt><trkpt lat="45.85096303191054" lon="8.899842770349272"><ele>344.4</ele><time>2026-03-29T09:19:48Z</time></trkpt><trkpt lat="45.850943329813866" lon="8.899991050636169"><ele>343.8</ele><time>2026-03-29T09:19:49Z</time></trkpt><trkpt lat="45.85094310667519" lon="8.9001042191861"><ele>343.20000000000005</ele><time>2026-03-29T09:19:50Z</time></trkpt><trkpt lat="45.85102102479958" lon="8.900218920114021"><ele>342.6</ele><time>2026-03-29T09:19:52Z</time></trkpt><trkpt lat="45.851099782463365" lon="8.900252264050465"><ele>342.0</ele><time>2026-03-29T09:19:53Z</time></trkpt><trkpt lat="45.85123388757296" lon="8.900204057222057"><ele>348.6666666666667</ele><time>2026-03-29T09:19:54Z</time></trkpt><trkpt lat="45.851376013758866" lon="8.900198909637426"><ele>355.33333333333337</ele><time>2026-03-29T09:19:55Z</time></trkpt><trkpt lat="45.85153806294555" lon="8.900205755252786"><ele>362.0</ele><time>2026-03-29T09:19:56Z</time></trkpt><trkpt lat="45.851689241649765" lon="8.90020274839277"><ele>361.6</ele><time>2026-03-29T09:19:57Z</time></trkpt><trkpt lat="45.85180818044365" lon="8.900193085829528"><ele>361.20000000000005</ele><time>2026-03-29T09:19:58Z</time></trkpt><trkpt lat="45.851912084762084" lon="8.900184457574644"><ele>360.8</ele><time>2026-03-29T09:19:59Z</time></trkpt><trkpt lat="45.852011752558816" lon="8.900243983860141"><ele>360.4</ele><time>2026-03-29T09:20:00Z</time></trkpt><trkpt lat="45.852105633577644" lon="8.90030828328037"><ele>360.0</ele><time>2026-03-29T09:20:01Z</time></trkpt><trkpt lat="45.85216562441913" lon="8.900425871545648"><ele>360.0</ele><time>2026-03-29T09:20:02Z</time></trkpt><trkpt lat="45.85219557099085" lon="8.90055857179093"><ele>360.0</ele><time>2026-03-29T09:20:03Z</time></trkpt><trkpt lat="45.8522389902632" lon="8.900656092241805"><ele>360.0</ele><time>2026-03-29T09:20:04Z</time></trkpt><trkpt lat="45.852159076878344" lon="8.90077836913605"><ele>360.0</ele><time>2026-03-29T09:20:05Z</time></trkpt><trkpt lat="45.852086913567426" lon="8.900879501433117"><ele>360.0</ele><time>2026-03-29T09:20:06Z</time></trkpt><trkpt lat="45.852021915058565" lon="8.900996028246375"><ele>361.8</ele><time>2026-03-29T09:20:07Z</time></trkpt><trkpt lat="45.85195775978033" lon="8.901143398025333"><ele>363.6</ele><time>2026-03-29T09:20:08Z</time></trkpt><trkpt lat="45.85192822104134" lon="8.901300918461255"><ele>365.4</ele><time>2026-03-29T09:20:09Z</time></trkpt><trkpt lat="45.85193250221405" lon="8.901442933990491"><ele>367.2</ele><time>2026-03-29T09:20:10Z</time></trkpt><trkpt lat="45.851981326202065" lon="8.901591150633065"><ele>369.0</ele><time>2026-03-29T09:20:11Z</time></trkpt><trkpt lat="45.8520598440599" lon="8.901736936189465"><ele>373.0</ele><time>2026-03-29T09:20:12Z</time></trkpt><trkpt lat="45.852142365557114" lon="8.901914514719962"><ele>377.0</ele><time>2026-03-29T09:20:13Z</time></trkpt><trkpt lat="45.85226060158224" lon="8.902058709035153"><ele>381.0</ele><time>2026-03-29T09:20:14Z</time></trkpt><trkpt lat="45.8523686175244" lon="8.902233534800034"><ele>381.0</ele><time>2026-03-29T09:20:15Z</time></trkpt><trkpt lat="45.852475469033635" lon="8.902406064549123"><ele>381.0</ele><time>2026-03-29T09:20:16Z</time></trkpt><trkpt lat="45.85257548138739" lon="8.902634275169042"><ele>381.0</ele><time>2026-03-29T09:20:17Z</time></trkpt><trkpt lat="45.852677092527735" lon="8.902889923347738"><ele>381.5</ele><time>2026-03-29T09:20:18Z</time></trkpt><trkpt lat="45.85275496547063" lon="8.903087469422635"><ele>382.0</ele><time>2026-03-29T09:20:19Z</time></trkpt><trkpt lat="45.85280716518462" lon="8.90325680134773"><ele>382.5</ele><time>2026-03-29T09:20:20Z</time></trkpt><trkpt lat="45.85283730198108" lon="8.903434566493234"><ele>383.0</ele><time>2026-03-29T09:20:20.999Z</time></trkpt><trkpt lat="45.85283204064246" lon="8.903638645249876"><ele>384.6666666666667</ele><time>2026-03-29T09:20:21.999Z</time></trkpt><trkpt lat="45.85281229901923" lon="8.903884199797588"><ele>386.33333333333337</ele><time>2026-03-29T09:20:22.999Z</time></trkpt><trkpt lat="45.85279136881504" lon="8.904134340461988"><ele>388.0</ele><time>2026-03-29T09:20:23.999Z</time></trkpt><trkpt lat="45.85277238676062" lon="8.904364040874205"><ele>389.33333333333337</ele><time>2026-03-29T09:20:24.999Z</time></trkpt><trkpt lat="45.85275699603083" lon="8.904573569142856"><ele>390.66666666666663</ele><time>2026-03-29T09:20:25.999Z</time></trkpt><trkpt lat="45.852744570024356" lon="8.90480339289786"><ele>392.0</ele><time>2026-03-29T09:20:26.999Z</time></trkpt><trkpt lat="45.852746389644714" lon="8.90505605063719"><ele>393.75</ele><time>2026-03-29T09:20:27.999Z</time></trkpt><trkpt lat="45.852771826620184" lon="8.90528299793886"><ele>395.5</ele><time>2026-03-29T09:20:28.999Z</time></trkpt><trkpt lat="45.85280385373663" lon="8.905479956567989"><ele>397.25</ele><time>2026-03-29T09:20:29.999Z</time></trkpt><trkpt lat="45.85282558722662" lon="8.905657104357285"><ele>399.0</ele><time>2026-03-29T09:20:30.999Z</time></trkpt><trkpt lat="45.852834737437504" lon="8.905822883705586"><ele>398.75</ele><time>2026-03-29T09:20:31.999Z</time></trkpt><trkpt lat="45.85282481360791" lon="8.905992219485697"><ele>398.5</ele><time>2026-03-29T09:20:32.999Z</time></trkpt><trkpt lat="45.852812270971434" lon="8.906184518306475"><ele>398.25</ele><time>2026-03-29T09:20:33.999Z</time></trkpt><trkpt lat="45.85277844339007" lon="8.906402758418944"><ele>398.0</ele><time>2026-03-29T09:20:34.999Z</time></trkpt><trkpt lat="45.85274992857893" lon="8.906621020957957"><ele>398.5</ele><time>2026-03-29T09:20:35.999Z</time></trkpt><trkpt lat="45.85272046311067" lon="8.906824939204578"><ele>399.0</ele><time>2026-03-29T09:20:36.999Z</time></trkpt><trkpt lat="45.85266263007655" lon="8.90700657501926"><ele>399.5</ele><time>2026-03-29T09:20:37.999Z</time></trkpt><trkpt lat="45.852620994732334" lon="8.907187404080757"><ele>400.0</ele><time>2026-03-29T09:20:38.999Z</time></trkpt><trkpt lat="45.852543082877546" lon="8.907323210750432"><ele>400.0</ele><time>2026-03-29T09:20:39.999Z</time></trkpt><trkpt lat="45.85245491124404" lon="8.907459909861696"><ele>400.0</ele><time>2026-03-29T09:20:40.999Z</time></trkpt><trkpt lat="45.85235423320673" lon="8.90758215395964"><ele>400.0</ele><time>2026-03-29T09:20:41.999Z</time></trkpt><trkpt lat="45.85224723286658" lon="8.907699101383264"><ele>400.0</ele><time>2026-03-29T09:20:42.999Z</time></trkpt><trkpt lat="45.85213636675796" lon="8.907823228927814"><ele>401.0</ele><time>2026-03-29T09:20:43.999Z</time></trkpt><trkpt lat="45.85202480298558" lon="8.90795104356579"><ele>402.0</ele><time>2026-03-29T09:20:44.999Z</time></trkpt><trkpt lat="45.85191164002102" lon="8.908074546493351"><ele>403.0</ele><time>2026-03-29T09:20:45.999Z</time></trkpt><trkpt lat="45.85180905521377" lon="8.908180439921614"><ele>404.0</ele><time>2026-03-29T09:20:46.999Z</time></trkpt><trkpt lat="45.851722489767326" lon="8.908275249654626"><ele>404.2</ele><time>2026-03-29T09:20:47.999Z</time></trkpt><trkpt lat="45.85165850440324" lon="8.908365306784985"><ele>404.4</ele><time>2026-03-29T09:20:48.999Z</time></trkpt><trkpt lat="45.85161793474188" lon="8.90843809368047"><ele>404.6</ele><time>2026-03-29T09:20:49.999Z</time></trkpt><trkpt lat="45.851507602697" lon="8.908537294788012"><ele>404.8</ele><time>2026-03-29T09:20:51.999Z</time></trkpt><trkpt lat="45.85143239493455" lon="8.908619849614466"><ele>405.0</ele><time>2026-03-29T09:20:52.999Z</time></trkpt><trkpt lat="45.851365532887435" lon="8.90872768408273"><ele>406.0</ele><time>2026-03-29T09:20:53.999Z</time></trkpt><trkpt lat="45.85128948298725" lon="8.908813872585728"><ele>407.0</ele><time>2026-03-29T09:20:54.999Z</time></trkpt><trkpt lat="45.85119604078666" lon="8.908858344425868"><ele>408.0</ele><time>2026-03-29T09:20:55.999Z</time></trkpt><trkpt lat="45.851074834815364" lon="8.908859961362413"><ele>409.0</ele><time>2026-03-29T09:20:56.999Z</time></trkpt><trkpt lat="45.850954240643915" lon="8.908863144636243"><ele>410.0</ele><time>2026-03-29T09:20:57.999Z</time></trkpt><trkpt lat="45.85082702137898" lon="8.908870554359824"><ele>411.5</ele><time>2026-03-29T09:20:58.999Z</time></trkpt><trkpt lat="45.85070611069063" lon="8.908894656530785"><ele>413.0</ele><time>2026-03-29T09:20:59.999Z</time></trkpt><trkpt lat="45.85059236599552" lon="8.908909919554752"><ele>414.5</ele><time>2026-03-29T09:21:00.999Z</time></trkpt><trkpt lat="45.85047766833738" lon="8.908923577718976"><ele>416.0</ele><time>2026-03-29T09:21:01.999Z</time></trkpt><trkpt lat="45.85036681745963" lon="8.908910815909982"><ele>416.0</ele><time>2026-03-29T09:21:02.999Z</time></trkpt><trkpt lat="45.850131197454566" lon="8.908922773808909"><ele>416.0</ele><time>2026-03-29T09:21:04.999Z</time></trkpt><trkpt lat="45.850018822273256" lon="8.908926559262374"><ele>416.0</ele><time>2026-03-29T09:21:05.999Z</time></trkpt><trkpt lat="45.84990658998627" lon="8.908932600421767"><ele>415.16666666666663</ele><time>2026-03-29T09:21:06.999Z</time></trkpt><trkpt lat="45.84980052501006" lon="8.908937351746921"><ele>414.3333333333333</ele><time>2026-03-29T09:21:07.999Z</time></trkpt><trkpt lat="45.849705756843456" lon="8.90893880104373"><ele>413.5</ele><time>2026-03-29T09:21:08.999Z</time></trkpt><trkpt lat="45.849626579797764" lon="8.908937663151246"><ele>412.66666666666663</ele><time>2026-03-29T09:21:09.999Z</time></trkpt><trkpt lat="45.84955802446545" lon="8.90892631656248"><ele>411.8333333333333</ele><time>2026-03-29T09:21:10.999Z</time></trkpt><trkpt lat="45.84949033541409" lon="8.908905611778332"><ele>411.0</ele><time>2026-03-29T09:21:11.999Z</time></trkpt><trkpt lat="45.8494205016333" lon="8.908850481690195"><ele>411.0</ele><time>2026-03-29T09:21:12.999Z</time></trkpt><trkpt lat="45.84934562804876" lon="8.90881229018531"><ele>411.0</ele><time>2026-03-29T09:21:13.999Z</time></trkpt><trkpt lat="45.84926650708069" lon="8.908828890784376"><ele>411.0</ele><time>2026-03-29T09:21:14.999Z</time></trkpt><trkpt lat="45.84918508542572" lon="8.908851152656771"><ele>411.0</ele><time>2026-03-29T09:21:15.999Z</time></trkpt><trkpt lat="45.8491030144168" lon="8.908841223501796"><ele>411.0</ele><time>2026-03-29T09:21:16.999Z</time></trkpt><trkpt lat="45.84902894370505" lon="8.908787797546449"><ele>411.0</ele><time>2026-03-29T09:21:17.999Z</time></trkpt><trkpt lat="45.84895576691809" lon="8.908724152536053"><ele>411.3333333333333</ele><time>2026-03-29T09:21:18.999Z</time></trkpt><trkpt lat="45.84888629062534" lon="8.908674838622218"><ele>411.66666666666663</ele><time>2026-03-29T09:21:19.999Z</time></trkpt><trkpt lat="45.84882312632904" lon="8.908651036005944"><ele>412.0</ele><time>2026-03-29T09:21:20.999Z</time></trkpt><trkpt lat="45.84876222884072" lon="8.90872955731669"><ele>412.3333333333333</ele><time>2026-03-29T09:21:21.999Z</time></trkpt><trkpt lat="45.848732857022945" lon="8.908824037735682"><ele>412.66666666666663</ele><time>2026-03-29T09:21:22.999Z</time></trkpt><trkpt lat="45.848790440971875" lon="8.908983996032156"><ele>413.0</ele><time>2026-03-29T09:21:24.999Z</time></trkpt><trkpt lat="45.84886889687695" lon="8.909028274469149"><ele>413.0</ele><time>2026-03-29T09:21:25.999Z</time></trkpt><trkpt lat="45.8489576898927" lon="8.909008137747623"><ele>413.0</ele><time>2026-03-29T09:21:26.999Z</time></trkpt><trkpt lat="45.8490480225479" lon="8.908979831958584"><ele>413.0</ele><time>2026-03-29T09:21:27.999Z</time></trkpt><trkpt lat="45.84913500648878" lon="8.909001672468987"><ele>413.0</ele><time>2026-03-29T09:21:28.999Z</time></trkpt><trkpt lat="45.849214751634776" lon="8.909067441039108"><ele>413.0</ele><time>2026-03-29T09:21:29.999Z</time></trkpt><trkpt lat="45.84928077735825" lon="8.90916069651366"><ele>413.5</ele><time>2026-03-29T09:21:30.999Z</time></trkpt><trkpt lat="45.849353769922416" lon="8.90929888929035"><ele>414.0</ele><time>2026-03-29T09:21:31.999Z</time></trkpt><trkpt lat="45.84942755633804" lon="8.909453611490397"><ele>414.5</ele><time>2026-03-29T09:21:33Z</time></trkpt><trkpt lat="45.84950500622879" lon="8.909603950000452"><ele>415.0</ele><time>2026-03-29T09:21:34Z</time></trkpt><trkpt lat="45.849578903815214" lon="8.909706541964846"><ele>415.0</ele><time>2026-03-29T09:21:35Z</time></trkpt><trkpt lat="45.84964163381258" lon="8.909861031511575"><ele>415.0</ele><time>2026-03-29T09:21:36Z</time></trkpt><trkpt lat="45.849763759445224" lon="8.910003352326735"><ele>415.0</ele><time>2026-03-29T09:21:37Z</time></trkpt><trkpt lat="45.84985646269258" lon="8.910168099996387"><ele>415.0</ele><time>2026-03-29T09:21:38Z</time></trkpt><trkpt lat="45.85006902800679" lon="8.910426375738366"><ele>414.6666666666667</ele><time>2026-03-29T09:21:40Z</time></trkpt><trkpt lat="45.850183348193816" lon="8.910547702855231"><ele>414.33333333333337</ele><time>2026-03-29T09:21:41Z</time></trkpt><trkpt lat="45.85030258387484" lon="8.910689343768743"><ele>414.0</ele><time>2026-03-29T09:21:42Z</time></trkpt><trkpt lat="45.850429429406475" lon="8.910826400999879"><ele>415.33333333333337</ele><time>2026-03-29T09:21:43Z</time></trkpt><trkpt lat="45.850552705665365" lon="8.910957662345057"><ele>416.6666666666667</ele><time>2026-03-29T09:21:44Z</time></trkpt><trkpt lat="45.850676314410656" lon="8.911085756602535"><ele>418.0</ele><time>2026-03-29T09:21:45Z</time></trkpt><trkpt lat="45.85080010115206" lon="8.9112119274342"><ele>418.0</ele><time>2026-03-29T09:21:46Z</time></trkpt><trkpt lat="45.85092068664474" lon="8.911334731525304"><ele>418.0</ele><time>2026-03-29T09:21:47Z</time></trkpt><trkpt lat="45.851038246151816" lon="8.91145445395428"><ele>418.0</ele><time>2026-03-29T09:21:48Z</time></trkpt><trkpt lat="45.85115055880679" lon="8.911575646613384"><ele>418.0</ele><time>2026-03-29T09:21:49Z</time></trkpt><trkpt lat="45.85123587634462" lon="8.911699950088545"><ele>418.25</ele><time>2026-03-29T09:21:50Z</time></trkpt><trkpt lat="45.85131805387123" lon="8.911810048586377"><ele>418.5</ele><time>2026-03-29T09:21:51Z</time></trkpt><trkpt lat="45.851390845304174" lon="8.91194123365128"><ele>418.75</ele><time>2026-03-29T09:21:52Z</time></trkpt><trkpt lat="45.85145289575573" lon="8.912066641902847"><ele>419.0</ele><time>2026-03-29T09:21:53Z</time></trkpt><trkpt lat="45.85156894750908" lon="8.91217878326729"><ele>419.0</ele><time>2026-03-29T09:21:54Z</time></trkpt><trkpt lat="45.85167703086199" lon="8.912272786336162"><ele>419.0</ele><time>2026-03-29T09:21:55Z</time></trkpt><trkpt lat="45.851799070057744" lon="8.912361699965944"><ele>419.0</ele><time>2026-03-29T09:21:56Z</time></trkpt><trkpt lat="45.85192474241649" lon="8.912431579639712"><ele>419.0</ele><time>2026-03-29T09:21:57Z</time></trkpt><trkpt lat="45.85204673759674" lon="8.912513625205987"><ele>418.79999999999995</ele><time>2026-03-29T09:21:58Z</time></trkpt><trkpt lat="45.85215243849091" lon="8.912588340624604"><ele>418.59999999999997</ele><time>2026-03-29T09:21:59Z</time></trkpt><trkpt lat="45.85224709154464" lon="8.912668214092681"><ele>418.4</ele><time>2026-03-29T09:22:00Z</time></trkpt><trkpt lat="45.852315993853004" lon="8.912759941074702"><ele>418.2</ele><time>2026-03-29T09:22:01Z</time></trkpt><trkpt lat="45.8523604418669" lon="8.912840453541744"><ele>418.0</ele><time>2026-03-29T09:22:02Z</time></trkpt><trkpt lat="45.852387716789025" lon="8.912945687191845"><ele>418.0</ele><time>2026-03-29T09:22:03Z</time></trkpt><trkpt lat="45.85239667746446" lon="8.91306878851253"><ele>418.0</ele><time>2026-03-29T09:22:04Z</time></trkpt><trkpt lat="45.85236867606087" lon="8.91322855648215"><ele>418.0</ele><time>2026-03-29T09:22:05Z</time></trkpt><trkpt lat="45.852320568686764" lon="8.913385716057093"><ele>418.0</ele><time>2026-03-29T09:22:06Z</time></trkpt><trkpt lat="45.85232282838467" lon="8.91352378327926"><ele>418.0</ele><time>2026-03-29T09:22:07Z</time></trkpt><trkpt lat="45.85244575331901" lon="8.913679379710434"><ele>418.75</ele><time>2026-03-29T09:22:08Z</time></trkpt><trkpt lat="45.85252515114125" lon="8.9138178454304"><ele>419.5</ele><time>2026-03-29T09:22:09Z</time></trkpt><trkpt lat="45.852621106447025" lon="8.91394629162599"><ele>420.25</ele><time>2026-03-29T09:22:10Z</time></trkpt><trkpt lat="45.8527008401447" lon="8.914061244496676"><ele>421.0</ele><time>2026-03-29T09:22:11Z</time></trkpt><trkpt lat="45.85276047131555" lon="8.914186393989171"><ele>417.5</ele><time>2026-03-29T09:22:12Z</time></trkpt><trkpt lat="45.85280127441785" lon="8.914332101030286"><ele>414.0</ele><time>2026-03-29T09:22:13Z</time></trkpt><trkpt lat="45.852774807540825" lon="8.914493428765534"><ele>410.5</ele><time>2026-03-29T09:22:14Z</time></trkpt><trkpt lat="45.85275994721703" lon="8.914658787853668"><ele>407.0</ele><time>2026-03-29T09:22:15Z</time></trkpt><trkpt lat="45.85273707522282" lon="8.914846602775828"><ele>407.0</ele><time>2026-03-29T09:22:16Z</time></trkpt><trkpt lat="45.852717785333105" lon="8.915042029045964"><ele>407.0</ele><time>2026-03-29T09:22:17Z</time></trkpt><trkpt lat="45.852699637163454" lon="8.91523037001683"><ele>407.0</ele><time>2026-03-29T09:22:18Z</time></trkpt><trkpt lat="45.85267932277079" lon="8.915428426620023"><ele>407.0</ele><time>2026-03-29T09:22:19Z</time></trkpt><trkpt lat="45.85267159098169" lon="8.915630277139128"><ele>407.75</ele><time>2026-03-29T09:22:19.999Z</time></trkpt><trkpt lat="45.852667957183606" lon="8.915829506113766"><ele>408.5</ele><time>2026-03-29T09:22:20.999Z</time></trkpt><trkpt lat="45.852669643900455" lon="8.916009377250303"><ele>409.25</ele><time>2026-03-29T09:22:21.999Z</time></trkpt><trkpt lat="45.852679558626185" lon="8.916172127310954"><ele>410.0</ele><time>2026-03-29T09:22:22.999Z</time></trkpt><trkpt lat="45.8526843919293" lon="8.916333518815936"><ele>410.5</ele><time>2026-03-29T09:22:23.999Z</time></trkpt><trkpt lat="45.85273466245094" lon="8.9164973625127"><ele>411.0</ele><time>2026-03-29T09:22:24.999Z</time></trkpt><trkpt lat="45.85277624531677" lon="8.916659434098559"><ele>411.5</ele><time>2026-03-29T09:22:25.999Z</time></trkpt><trkpt lat="45.85282268764926" lon="8.916825225613945"><ele>412.0</ele><time>2026-03-29T09:22:26.999Z</time></trkpt><trkpt lat="45.85286694787639" lon="8.91698509042126"><ele>412.6</ele><time>2026-03-29T09:22:27.999Z</time></trkpt><trkpt lat="45.85290351571376" lon="8.917132671958136"><ele>413.20000000000005</ele><time>2026-03-29T09:22:28.999Z</time></trkpt><trkpt lat="45.85293072053095" lon="8.917259440453702"><ele>413.8</ele><time>2026-03-29T09:22:29.999Z</time></trkpt><trkpt lat="45.85296384762937" lon="8.917354378818189"><ele>414.4</ele><time>2026-03-29T09:22:30.999Z</time></trkpt><trkpt lat="45.85303701595246" lon="8.917402983759244"><ele>415.0</ele><time>2026-03-29T09:22:31.999Z</time></trkpt><trkpt lat="45.85313202851902" lon="8.91745200189203"><ele>415.0</ele><time>2026-03-29T09:22:32.999Z</time></trkpt><trkpt lat="45.853238421071566" lon="8.91749842633928"><ele>415.0</ele><time>2026-03-29T09:22:33.999Z</time></trkpt><trkpt lat="45.85335335271339" lon="8.91754098181669"><ele>415.0</ele><time>2026-03-29T09:22:34.999Z</time></trkpt><trkpt lat="45.85347481365619" lon="8.917595926409538"><ele>415.0</ele><time>2026-03-29T09:22:35.999Z</time></trkpt><trkpt lat="45.8535916560872" lon="8.91767425396105"><ele>415.0</ele><time>2026-03-29T09:22:36.999Z</time></trkpt><trkpt lat="45.853716328918665" lon="8.917785318275108"><ele>415.0</ele><time>2026-03-29T09:22:37.999Z</time></trkpt><trkpt lat="45.8538324761268" lon="8.91789957565501"><ele>415.0</ele><time>2026-03-29T09:22:38.999Z</time></trkpt><trkpt lat="45.85393816673988" lon="8.91800815878008"><ele>415.0</ele><time>2026-03-29T09:22:39.999Z</time></trkpt><trkpt lat="45.85402480956" lon="8.918113104421026"><ele>415.0</ele><time>2026-03-29T09:22:40.999Z</time></trkpt><trkpt lat="45.85406428546937" lon="8.91824273965124"><ele>415.0</ele><time>2026-03-29T09:22:41.999Z</time></trkpt><trkpt lat="45.854097621547645" lon="8.918347812571701"><ele>415.0</ele><time>2026-03-29T09:22:42.999Z</time></trkpt><trkpt lat="45.85408292766878" lon="8.918464716815318"><ele>415.0</ele><time>2026-03-29T09:22:43.999Z</time></trkpt><trkpt lat="45.85404841049859" lon="8.918601927011078"><ele>415.0</ele><time>2026-03-29T09:22:44.999Z</time></trkpt><trkpt lat="45.85400451043064" lon="8.918759024553744"><ele>415.50000000000006</ele><time>2026-03-29T09:22:45.999Z</time></trkpt><trkpt lat="45.853963816255245" lon="8.918911000034813"><ele>416.0</ele><time>2026-03-29T09:22:46.999Z</time></trkpt><trkpt lat="45.85395579699363" lon="8.919041824764712"><ele>416.5</ele><time>2026-03-29T09:22:47.999Z</time></trkpt><trkpt lat="45.85398143485695" lon="8.919162852349553"><ele>417.0</ele><time>2026-03-29T09:22:48.999Z</time></trkpt><trkpt lat="45.85400847661755" lon="8.91926787439574"><ele>417.50000000000006</ele><time>2026-03-29T09:22:49.999Z</time></trkpt><trkpt lat="45.8540299304219" lon="8.91936753422691"><ele>418.0</ele><time>2026-03-29T09:22:51.999Z</time></trkpt><trkpt lat="45.853887085471456" lon="8.919367667061023"><ele>420.50000000000006</ele><time>2026-03-29T09:22:56.999Z</time></trkpt><trkpt lat="45.85381132913093" lon="8.919291445156219"><ele>423.0</ele><time>2026-03-29T09:22:58.999Z</time></trkpt><trkpt lat="45.853739102146555" lon="8.919273891569924"><ele>425.5</ele><time>2026-03-29T09:23:00.999Z</time></trkpt><trkpt lat="45.853855810598766" lon="8.91931436987892"><ele>428.0</ele><time>2026-03-29T09:23:17.999Z</time></trkpt><trkpt lat="45.853925979041534" lon="8.919364170072512"><ele>430.50000000000006</ele><time>2026-03-29T09:23:18.999Z</time></trkpt><trkpt lat="45.85399520367206" lon="8.919379043854544"><ele>433.0</ele><time>2026-03-29T09:23:20.999Z</time></trkpt><trkpt lat="45.854090912557105" lon="8.919435230986414"><ele>433.0</ele><time>2026-03-29T09:23:24.999Z</time></trkpt><trkpt lat="45.85413659821543" lon="8.919539773881873"><ele>432.99999999999994</ele><time>2026-03-29T09:23:25.999Z</time></trkpt><trkpt lat="45.85421919521936" lon="8.91960343262748"><ele>432.99999999999994</ele><time>2026-03-29T09:23:26.999Z</time></trkpt><trkpt lat="45.85432491140292" lon="8.919678906709782"><ele>433.0</ele><time>2026-03-29T09:23:27.999Z</time></trkpt><trkpt lat="45.854439616159006" lon="8.919760825414485"><ele>433.0</ele><time>2026-03-29T09:23:28.999Z</time></trkpt><trkpt lat="45.85455797657843" lon="8.919816946915883"><ele>434.25</ele><time>2026-03-29T09:23:29.999Z</time></trkpt><trkpt lat="45.854664361418905" lon="8.91989703353857"><ele>435.5</ele><time>2026-03-29T09:23:30.999Z</time></trkpt><trkpt lat="45.854749722028096" lon="8.920002385250838"><ele>436.75</ele><time>2026-03-29T09:23:31.999Z</time></trkpt><trkpt lat="45.854851080634646" lon="8.92010745822051"><ele>438.0</ele><time>2026-03-29T09:23:32.999Z</time></trkpt><trkpt lat="45.85492508239355" lon="8.920268331110146"><ele>438.0</ele><time>2026-03-29T09:23:33.999Z</time></trkpt><trkpt lat="45.85499737736698" lon="8.920434066678343"><ele>438.0</ele><time>2026-03-29T09:23:34.999Z</time></trkpt><trkpt lat="45.85508059126298" lon="8.920598318268564"><ele>438.0</ele><time>2026-03-29T09:23:35.999Z</time></trkpt><trkpt lat="45.85515369245706" lon="8.920767329810527"><ele>438.0</ele><time>2026-03-29T09:23:36.999Z</time></trkpt><trkpt lat="45.85523599101784" lon="8.920902286514313"><ele>439.75</ele><time>2026-03-29T09:23:37.999Z</time></trkpt><trkpt lat="45.85534614727243" lon="8.921009108207128"><ele>441.5</ele><time>2026-03-29T09:23:39Z</time></trkpt><trkpt lat="45.85547010506675" lon="8.921078823739819"><ele>443.25</ele><time>2026-03-29T09:23:40Z</time></trkpt><trkpt lat="45.85561415772296" lon="8.921123589734385"><ele>445.0</ele><time>2026-03-29T09:23:41Z</time></trkpt><trkpt lat="45.85576318903723" lon="8.921159477085714"><ele>445.0</ele><time>2026-03-29T09:23:42Z</time></trkpt><trkpt lat="45.85590477432645" lon="8.92119885786718"><ele>445.0</ele><time>2026-03-29T09:23:43Z</time></trkpt><trkpt lat="45.85601458403508" lon="8.9212622965539"><ele>445.0</ele><time>2026-03-29T09:23:44Z</time></trkpt><trkpt lat="45.85608841374691" lon="8.921320226538278"><ele>445.0</ele><time>2026-03-29T09:23:45Z</time></trkpt><trkpt lat="45.8561455642724" lon="8.921395142444508"><ele>445.0</ele><time>2026-03-29T09:23:46Z</time></trkpt><trkpt lat="45.85617098655718" lon="8.921541531507684"><ele>444.5</ele><time>2026-03-29T09:23:47Z</time></trkpt><trkpt lat="45.85620107904889" lon="8.92172031227335"><ele>444.0</ele><time>2026-03-29T09:23:48Z</time></trkpt><trkpt lat="45.85621574542794" lon="8.921912658230394"><ele>443.5</ele><time>2026-03-29T09:23:49Z</time></trkpt><trkpt lat="45.856239376220444" lon="8.922074309587963"><ele>443.0</ele><time>2026-03-29T09:23:50Z</time></trkpt><trkpt lat="45.85630047152588" lon="8.922198677250046"><ele>443.0</ele><time>2026-03-29T09:23:51Z</time></trkpt><trkpt lat="45.856397851823836" lon="8.922276658005087"><ele>443.0</ele><time>2026-03-29T09:23:52Z</time></trkpt><trkpt lat="45.856512563748446" lon="8.922341686189867"><ele>443.0</ele><time>2026-03-29T09:23:53Z</time></trkpt><trkpt lat="45.85662323976814" lon="8.922431071895499"><ele>443.0</ele><time>2026-03-29T09:23:54Z</time></trkpt><trkpt lat="45.85675163508025" lon="8.922524340961045"><ele>443.0</ele><time>2026-03-29T09:23:55Z</time></trkpt><trkpt lat="45.85688726033105" lon="8.922621611334586"><ele>443.0</ele><time>2026-03-29T09:23:56Z</time></trkpt><trkpt lat="45.857000469395615" lon="8.922784242603713"><ele>443.0</ele><time>2026-03-29T09:23:57Z</time></trkpt><trkpt lat="45.857124653735035" lon="8.92292886372348"><ele>443.0</ele><time>2026-03-29T09:23:58Z</time></trkpt><trkpt lat="45.85725770649627" lon="8.923048971719501"><ele>443.0</ele><time>2026-03-29T09:23:59Z</time></trkpt><trkpt lat="45.857365417301146" lon="8.923180170365255"><ele>443.0</ele><time>2026-03-29T09:24:00Z</time></trkpt><trkpt lat="45.85748826553762" lon="8.923280455117368"><ele>443.0</ele><time>2026-03-29T09:24:01Z</time></trkpt><trkpt lat="45.857597663681" lon="8.923391016472202"><ele>443.25</ele><time>2026-03-29T09:24:02Z</time></trkpt><trkpt lat="45.85772166940695" lon="8.923485341607698"><ele>443.5</ele><time>2026-03-29T09:24:03Z</time></trkpt><trkpt lat="45.857835573901795" lon="8.923567689013234"><ele>443.75</ele><time>2026-03-29T09:24:04Z</time></trkpt><trkpt lat="45.857951230593386" lon="8.923635686811817"><ele>444.0</ele><time>2026-03-29T09:24:05Z</time></trkpt><trkpt lat="45.85805952235577" lon="8.92369515407035"><ele>444.0</ele><time>2026-03-29T09:24:06Z</time></trkpt><trkpt lat="45.85815837143448" lon="8.923759041430307"><ele>444.0</ele><time>2026-03-29T09:24:07Z</time></trkpt><trkpt lat="45.858257448982044" lon="8.923825899472522"><ele>444.0</ele><time>2026-03-29T09:24:08Z</time></trkpt><trkpt lat="45.85834341641632" lon="8.923902683608503"><ele>444.0</ele><time>2026-03-29T09:24:09Z</time></trkpt><trkpt lat="45.85842299149911" lon="8.92398977711347"><ele>444.0</ele><time>2026-03-29T09:24:10Z</time></trkpt><trkpt lat="45.85849795247476" lon="8.924081797026586"><ele>443.75</ele><time>2026-03-29T09:24:11Z</time></trkpt><trkpt lat="45.85857061832034" lon="8.924189641588107"><ele>443.5</ele><time>2026-03-29T09:24:12Z</time></trkpt><trkpt lat="45.85865178923202" lon="8.924305823870222"><ele>443.25</ele><time>2026-03-29T09:24:13Z</time></trkpt><trkpt lat="45.858739817461526" lon="8.924428829631571"><ele>443.0</ele><time>2026-03-29T09:24:14Z</time></trkpt><trkpt lat="45.85883024782741" lon="8.924553735004258"><ele>443.0</ele><time>2026-03-29T09:24:15Z</time></trkpt><trkpt lat="45.858922840412454" lon="8.924679002803492"><ele>443.0</ele><time>2026-03-29T09:24:16Z</time></trkpt><trkpt lat="45.85902093281764" lon="8.924809499818489"><ele>443.0</ele><time>2026-03-29T09:24:17Z</time></trkpt><trkpt lat="45.8591207596997" lon="8.924945669953603"><ele>443.0</ele><time>2026-03-29T09:24:18Z</time></trkpt><trkpt lat="45.859223697270174" lon="8.92508348395076"><ele>443.5</ele><time>2026-03-29T09:24:19Z</time></trkpt><trkpt lat="45.85931988595033" lon="8.925225716552575"><ele>444.0</ele><time>2026-03-29T09:24:20Z</time></trkpt><trkpt lat="45.85941540799524" lon="8.92536071008395"><ele>444.5</ele><time>2026-03-29T09:24:21Z</time></trkpt><trkpt lat="45.85950526436191" lon="8.925493088455232"><ele>445.0</ele><time>2026-03-29T09:24:22Z</time></trkpt><trkpt lat="45.85959827728706" lon="8.925629328225936"><ele>445.0</ele><time>2026-03-29T09:24:23Z</time></trkpt><trkpt lat="45.85969545720477" lon="8.925752946924275"><ele>445.0</ele><time>2026-03-29T09:24:24Z</time></trkpt><trkpt lat="45.85979457794018" lon="8.925873476316427"><ele>445.0</ele><time>2026-03-29T09:24:25Z</time></trkpt><trkpt lat="45.85989367468465" lon="8.925982951099847"><ele>445.0</ele><time>2026-03-29T09:24:26Z</time></trkpt><trkpt lat="45.860005216400005" lon="8.92608910046515"><ele>444.0</ele><time>2026-03-29T09:24:27Z</time></trkpt><trkpt lat="45.86009723357743" lon="8.926197057532997"><ele>443.0</ele><time>2026-03-29T09:24:28Z</time></trkpt><trkpt lat="45.860163297415966" lon="8.926340184130483"><ele>442.0</ele><time>2026-03-29T09:24:29Z</time></trkpt><trkpt lat="45.86021662527016" lon="8.926486128849003"><ele>441.0</ele><time>2026-03-29T09:24:30Z</time></trkpt><trkpt lat="45.860279196402935" lon="8.92664702389289"><ele>443.0</ele><time>2026-03-29T09:24:31Z</time></trkpt><trkpt lat="45.860318632399164" lon="8.926838365263444"><ele>445.0</ele><time>2026-03-29T09:24:32Z</time></trkpt><trkpt lat="45.860363010103704" lon="8.927033093263148"><ele>447.0</ele><time>2026-03-29T09:24:33Z</time></trkpt><trkpt lat="45.86040426154716" lon="8.927234690341182"><ele>449.0</ele><time>2026-03-29T09:24:34Z</time></trkpt><trkpt lat="45.86045485273826" lon="8.927434143494665"><ele>448.0</ele><time>2026-03-29T09:24:35Z</time></trkpt><trkpt lat="45.86050495593261" lon="8.927626240132994"><ele>447.0</ele><time>2026-03-29T09:24:36Z</time></trkpt><trkpt lat="45.860553147225495" lon="8.92779583466026"><ele>446.0</ele><time>2026-03-29T09:24:36.999Z</time></trkpt><trkpt lat="45.86061366229662" lon="8.927952023868542"><ele>445.0</ele><time>2026-03-29T09:24:37.999Z</time></trkpt><trkpt lat="45.860672596669595" lon="8.928088419227128"><ele>445.0</ele><time>2026-03-29T09:24:38.999Z</time></trkpt><trkpt lat="45.860741642659235" lon="8.928194991536012"><ele>445.0</ele><time>2026-03-29T09:24:39.999Z</time></trkpt><trkpt lat="45.860801959524835" lon="8.928293105035829"><ele>445.0</ele><time>2026-03-29T09:24:40.999Z</time></trkpt><trkpt lat="45.860863853215115" lon="8.928396144035624"><ele>445.0</ele><time>2026-03-29T09:24:41.999Z</time></trkpt><trkpt lat="45.86093185692421" lon="8.928522009514372"><ele>445.0</ele><time>2026-03-29T09:24:42.999Z</time></trkpt><trkpt lat="45.8610028670723" lon="8.928650312118398"><ele>446.0</ele><time>2026-03-29T09:24:43.999Z</time></trkpt><trkpt lat="45.861082465142694" lon="8.928783002774871"><ele>447.0</ele><time>2026-03-29T09:24:44.999Z</time></trkpt><trkpt lat="45.86115490842437" lon="8.928897613271898"><ele>448.0</ele><time>2026-03-29T09:24:45.999Z</time></trkpt><trkpt lat="45.861237787524736" lon="8.92898522449915"><ele>449.0</ele><time>2026-03-29T09:24:46.999Z</time></trkpt><trkpt lat="45.861329475154285" lon="8.929055630312172"><ele>450.0</ele><time>2026-03-29T09:24:47.999Z</time></trkpt><trkpt lat="45.861452851857194" lon="8.929110661816496"><ele>450.0</ele><time>2026-03-29T09:24:48.999Z</time></trkpt><trkpt lat="45.86159595395955" lon="8.92913081641566"><ele>450.0</ele><time>2026-03-29T09:24:49.999Z</time></trkpt><trkpt lat="45.861728482405525" lon="8.929167427241422"><ele>450.0</ele><time>2026-03-29T09:24:50.999Z</time></trkpt><trkpt lat="45.861839342086405" lon="8.929202834110914"><ele>450.0</ele><time>2026-03-29T09:24:51.999Z</time></trkpt><trkpt lat="45.86192767160723" lon="8.929250588959635"><ele>451.0</ele><time>2026-03-29T09:24:52.999Z</time></trkpt><trkpt lat="45.862000019690726" lon="8.92934385354624"><ele>452.0</ele><time>2026-03-29T09:24:53.999Z</time></trkpt><trkpt lat="45.86206513570047" lon="8.929458357998351"><ele>453.0</ele><time>2026-03-29T09:24:54.999Z</time></trkpt><trkpt lat="45.862138608176444" lon="8.929584877075383"><ele>454.0</ele><time>2026-03-29T09:24:55.999Z</time></trkpt><trkpt lat="45.862223408869774" lon="8.929725242665913"><ele>455.0</ele><time>2026-03-29T09:24:56.999Z</time></trkpt><trkpt lat="45.86231973873391" lon="8.929850958591102"><ele>455.0</ele><time>2026-03-29T09:24:57.999Z</time></trkpt><trkpt lat="45.862414526020565" lon="8.929989966320488"><ele>455.0</ele><time>2026-03-29T09:24:58.999Z</time></trkpt><trkpt lat="45.86250488855943" lon="8.930070314397383"><ele>455.0</ele><time>2026-03-29T09:24:59.999Z</time></trkpt><trkpt lat="45.86260539503131" lon="8.930150138454458"><ele>455.0</ele><time>2026-03-29T09:25:00.999Z</time></trkpt><trkpt lat="45.86268226569241" lon="8.93020009645054"><ele>455.0</ele><time>2026-03-29T09:25:01.999Z</time></trkpt><trkpt lat="45.86275211969384" lon="8.930248137562428"><ele>455.16666666666663</ele><time>2026-03-29T09:25:02.999Z</time></trkpt><trkpt lat="45.8628506540519" lon="8.93031885040228"><ele>455.3333333333333</ele><time>2026-03-29T09:25:04.999Z</time></trkpt><trkpt lat="45.86291882263131" lon="8.930362967801715"><ele>455.5</ele><time>2026-03-29T09:25:07.999Z</time></trkpt><trkpt lat="45.86298967809364" lon="8.930411364678273"><ele>455.66666666666663</ele><time>2026-03-29T09:26:02Z</time></trkpt><trkpt lat="45.86305475315181" lon="8.930457180309283"><ele>455.8333333333333</ele><time>2026-03-29T09:26:03Z</time></trkpt><trkpt lat="45.86311698365593" lon="8.930497881409453"><ele>456.0</ele><time>2026-03-29T09:26:04Z</time></trkpt><trkpt lat="45.86318340154827" lon="8.930557318383258"><ele>456.0</ele><time>2026-03-29T09:26:05Z</time></trkpt><trkpt lat="45.86324950618078" lon="8.930624627703715"><ele>456.0</ele><time>2026-03-29T09:26:06Z</time></trkpt><trkpt lat="45.86332141562553" lon="8.93069827347609"><ele>456.0</ele><time>2026-03-29T09:26:07Z</time></trkpt><trkpt lat="45.86339849558895" lon="8.930770845608423"><ele>456.0</ele><time>2026-03-29T09:26:08Z</time></trkpt><trkpt lat="45.86346283520226" lon="8.930834242526739"><ele>456.0</ele><time>2026-03-29T09:26:09Z</time></trkpt><trkpt lat="45.86356686224451" lon="8.930872116025139"><ele>456.0</ele><time>2026-03-29T09:26:11Z</time></trkpt><trkpt lat="45.863679256154306" lon="8.930765425441693"><ele>456.6666666666667</ele><time>2026-03-29T09:26:13Z</time></trkpt><trkpt lat="45.8637184177948" lon="8.930668850898948"><ele>457.33333333333337</ele><time>2026-03-29T09:26:14Z</time></trkpt><trkpt lat="45.863749675285156" lon="8.9305780935369"><ele>458.0</ele><time>2026-03-29T09:26:15Z</time></trkpt><trkpt lat="45.86382699967991" lon="8.930477432668953"><ele>458.6666666666667</ele><time>2026-03-29T09:26:17Z</time></trkpt><trkpt lat="45.86391151291106" lon="8.930452685915228"><ele>459.33333333333337</ele><time>2026-03-29T09:26:19Z</time></trkpt><trkpt lat="45.86396255288928" lon="8.930565837006213"><ele>460.0</ele><time>2026-03-29T09:26:20Z</time></trkpt><trkpt lat="45.86404836485557" lon="8.930642399948908"><ele>460.00000000000006</ele><time>2026-03-29T09:26:22Z</time></trkpt><trkpt lat="45.8640979684309" lon="8.930705681155223"><ele>460.0</ele><time>2026-03-29T09:26:24Z</time></trkpt><trkpt lat="45.86416158902706" lon="8.930780053713827"><ele>460.0</ele><time>2026-03-29T09:26:28Z</time></trkpt><trkpt lat="45.86423771444052" lon="8.930876962024971"><ele>460.0</ele><time>2026-03-29T09:26:31Z</time></trkpt><trkpt lat="45.864292780430425" lon="8.930960072552637"><ele>460.00000000000006</ele><time>2026-03-29T09:26:34Z</time></trkpt><trkpt lat="45.864331534268246" lon="8.931033167845316"><ele>460.0</ele><time>2026-03-29T09:26:37Z</time></trkpt><trkpt lat="45.86446041170813" lon="8.931021347501554"><ele>460.50000000000006</ele><time>2026-03-29T09:26:41Z</time></trkpt><trkpt lat="45.86453774732512" lon="8.93095539724564"><ele>461.0</ele><time>2026-03-29T09:26:42Z</time></trkpt><trkpt lat="45.86464216957354" lon="8.930872570565377"><ele>461.5</ele><time>2026-03-29T09:26:44Z</time></trkpt><trkpt lat="45.86470156855358" lon="8.930821816063752"><ele>462.0</ele><time>2026-03-29T09:26:45Z</time></trkpt><trkpt lat="45.86476578303657" lon="8.93075930296622"><ele>462.50000000000006</ele><time>2026-03-29T09:26:46Z</time></trkpt><trkpt lat="45.86484444591219" lon="8.930696727087508"><ele>463.0</ele><time>2026-03-29T09:26:47Z</time></trkpt><trkpt lat="45.86492420736428" lon="8.930633742986672"><ele>463.2</ele><time>2026-03-29T09:26:48Z</time></trkpt><trkpt lat="45.8650057286283" lon="8.930568519496074"><ele>463.4</ele><time>2026-03-29T09:26:48.999Z</time></trkpt><trkpt lat="45.86508698399736" lon="8.930497545068823"><ele>463.59999999999997</ele><time>2026-03-29T09:26:49.999Z</time></trkpt><trkpt lat="45.86517251778979" lon="8.930422658910555"><ele>463.79999999999995</ele><time>2026-03-29T09:26:50.999Z</time></trkpt><trkpt lat="45.86525760383248" lon="8.930343527952004"><ele>464.0</ele><time>2026-03-29T09:26:51.999Z</time></trkpt><trkpt lat="45.865361983663625" lon="8.930265869983202"><ele>463.5</ele><time>2026-03-29T09:26:52.999Z</time></trkpt><trkpt lat="45.865463479142335" lon="8.930183799283213"><ele>463.0</ele><time>2026-03-29T09:26:53.999Z</time></trkpt><trkpt lat="45.865560833276824" lon="8.9300821640493"><ele>462.5</ele><time>2026-03-29T09:26:54.999Z</time></trkpt><trkpt lat="45.86566564383455" lon="8.929975696169256"><ele>462.0</ele><time>2026-03-29T09:26:55.999Z</time></trkpt><trkpt lat="45.8657704726087" lon="8.929848696103953"><ele>462.0</ele><time>2026-03-29T09:26:56.999Z</time></trkpt><trkpt lat="45.865863243572974" lon="8.929684498265468"><ele>462.0</ele><time>2026-03-29T09:26:57.999Z</time></trkpt><trkpt lat="45.86593652947343" lon="8.929485670710525"><ele>462.0</ele><time>2026-03-29T09:26:58.999Z</time></trkpt><trkpt lat="45.86599628791683" lon="8.929287794987538"><ele>463.5</ele><time>2026-03-29T09:26:59.999Z</time></trkpt><trkpt lat="45.866046947449966" lon="8.929103697613124"><ele>465.0</ele><time>2026-03-29T09:27:00.999Z</time></trkpt><trkpt lat="45.86610140105086" lon="8.928940416586801"><ele>466.5</ele><time>2026-03-29T09:27:01.999Z</time></trkpt><trkpt lat="45.866162950345526" lon="8.928781556774691"><ele>468.0</ele><time>2026-03-29T09:27:02.999Z</time></trkpt><trkpt lat="45.86621613971966" lon="8.928627266085503"><ele>468.0</ele><time>2026-03-29T09:27:03.999Z</time></trkpt><trkpt lat="45.86625018603834" lon="8.92845640170868"><ele>468.0</ele><time>2026-03-29T09:27:04.999Z</time></trkpt><trkpt lat="45.86625730133932" lon="8.928291502275089"><ele>468.0</ele><time>2026-03-29T09:27:05.999Z</time></trkpt><trkpt lat="45.866241127434584" lon="8.928116010569134"><ele>468.0</ele><time>2026-03-29T09:27:06.999Z</time></trkpt><trkpt lat="45.86622993900779" lon="8.92795847375547"><ele>468.0</ele><time>2026-03-29T09:27:07.999Z</time></trkpt><trkpt lat="45.86622613324052" lon="8.927813493608532"><ele>467.99999999999994</ele><time>2026-03-29T09:27:08.999Z</time></trkpt><trkpt lat="45.86621917019402" lon="8.927674155318872"><ele>467.99999999999994</ele><time>2026-03-29T09:27:09.999Z</time></trkpt><trkpt lat="45.86621606492834" lon="8.927530467427442"><ele>468.0</ele><time>2026-03-29T09:27:10.999Z</time></trkpt><trkpt lat="45.86621771984035" lon="8.927389519468742"><ele>468.0</ele><time>2026-03-29T09:27:11.999Z</time></trkpt><trkpt lat="45.86622917831495" lon="8.927246217559878"><ele>468.2</ele><time>2026-03-29T09:27:12.999Z</time></trkpt><trkpt lat="45.866262258203676" lon="8.92710480001853"><ele>468.4</ele><time>2026-03-29T09:27:13.999Z</time></trkpt><trkpt lat="45.866277234393756" lon="8.92696810338016"><ele>468.59999999999997</ele><time>2026-03-29T09:27:14.999Z</time></trkpt><trkpt lat="45.86632960558924" lon="8.926867942488578"><ele>468.79999999999995</ele><time>2026-03-29T09:27:15.999Z</time></trkpt><trkpt lat="45.86635957858161" lon="8.92675065735602"><ele>469.0</ele><time>2026-03-29T09:27:16.999Z</time></trkpt><trkpt lat="45.86640601417117" lon="8.926648768612472"><ele>468.7142857142857</ele><time>2026-03-29T09:27:17.999Z</time></trkpt><trkpt lat="45.86645307341386" lon="8.926540111961556"><ele>468.42857142857144</ele><time>2026-03-29T09:27:18.999Z</time></trkpt><trkpt lat="45.866497305923716" lon="8.92644712150986"><ele>468.1428571428571</ele><time>2026-03-29T09:27:19.999Z</time></trkpt><trkpt lat="45.86653277902388" lon="8.926359132355236"><ele>467.85714285714283</ele><time>2026-03-29T09:27:20.999Z</time></trkpt><trkpt lat="45.86656750264183" lon="8.926283672682862"><ele>467.57142857142856</ele><time>2026-03-29T09:27:21.999Z</time></trkpt><trkpt lat="45.86660717807573" lon="8.92621222997733"><ele>467.2857142857142</ele><time>2026-03-29T09:27:22.999Z</time></trkpt><trkpt lat="45.86666013454567" lon="8.926156206372443"><ele>466.99999999999994</ele><time>2026-03-29T09:27:23.999Z</time></trkpt><trkpt lat="45.86673309974626" lon="8.92611689680373"><ele>466.8571428571428</ele><time>2026-03-29T09:27:24.999Z</time></trkpt><trkpt lat="45.86680232870961" lon="8.926066474390083"><ele>466.71428571428567</ele><time>2026-03-29T09:27:25.999Z</time></trkpt><trkpt lat="45.86684218361998" lon="8.92598783546112"><ele>466.57142857142856</ele><time>2026-03-29T09:27:26.999Z</time></trkpt><trkpt lat="45.86683745871138" lon="8.925894175832298"><ele>466.4285714285714</ele><time>2026-03-29T09:27:27.999Z</time></trkpt><trkpt lat="45.86680401496606" lon="8.92581006348816"><ele>466.2857142857142</ele><time>2026-03-29T09:27:28.999Z</time></trkpt><trkpt lat="45.86674643039398" lon="8.925749402952682"><ele>466.14285714285717</ele><time>2026-03-29T09:27:29.999Z</time></trkpt><trkpt lat="45.86668615155149" lon="8.925704384045753"><ele>466.0</ele><time>2026-03-29T09:27:30.999Z</time></trkpt><trkpt lat="45.86660441831287" lon="8.925767127807545"><ele>466.0</ele><time>2026-03-29T09:27:31.999Z</time></trkpt><trkpt lat="45.86655443827144" lon="8.925853758810375"><ele>466.0</ele><time>2026-03-29T09:27:32.999Z</time></trkpt><trkpt lat="45.86654516089401" lon="8.92598444997778"><ele>466.0</ele><time>2026-03-29T09:27:33.999Z</time></trkpt><trkpt lat="45.86655479938736" lon="8.926115146117446"><ele>466.0</ele><time>2026-03-29T09:27:34.999Z</time></trkpt><trkpt lat="45.86653811107715" lon="8.926264691136929"><ele>466.0</ele><time>2026-03-29T09:27:35.999Z</time></trkpt><trkpt lat="45.86647254994308" lon="8.926419443222041"><ele>466.25</ele><time>2026-03-29T09:27:36.999Z</time></trkpt><trkpt lat="45.866427002388605" lon="8.926577234236465"><ele>466.5</ele><time>2026-03-29T09:27:37.999Z</time></trkpt><trkpt lat="45.866360901382414" lon="8.926734845478688"><ele>466.75</ele><time>2026-03-29T09:27:38.999Z</time></trkpt><trkpt lat="45.86630401346994" lon="8.926887061389065"><ele>467.0</ele><time>2026-03-29T09:27:39.999Z</time></trkpt><trkpt lat="45.866236540296576" lon="8.927064677275695"><ele>467.3333333333333</ele><time>2026-03-29T09:27:40.999Z</time></trkpt><trkpt lat="45.866204165211954" lon="8.927256773240837"><ele>467.66666666666663</ele><time>2026-03-29T09:27:41.999Z</time></trkpt><trkpt lat="45.866196594428224" lon="8.927483105884434"><ele>468.0</ele><time>2026-03-29T09:27:42.999Z</time></trkpt><trkpt lat="45.86618590217822" lon="8.927759218858768"><ele>468.0</ele><time>2026-03-29T09:27:43.999Z</time></trkpt><trkpt lat="45.86620293153744" lon="8.92801875300201"><ele>468.0</ele><time>2026-03-29T09:27:44.999Z</time></trkpt><trkpt lat="45.866217596083224" lon="8.928252974472215"><ele>468.0</ele><time>2026-03-29T09:27:45.999Z</time></trkpt><trkpt lat="45.866214604139245" lon="8.928426340825414"><ele>468.0</ele><time>2026-03-29T09:27:46.999Z</time></trkpt><trkpt lat="45.86618810599176" lon="8.928629213025332"><ele>468.0</ele><time>2026-03-29T09:27:47.999Z</time></trkpt><trkpt lat="45.866123914394976" lon="8.928836619502759"><ele>468.0</ele><time>2026-03-29T09:27:48.999Z</time></trkpt><trkpt lat="45.866011261682345" lon="8.929092645402203"><ele>466.0</ele><time>2026-03-29T09:27:49.999Z</time></trkpt><trkpt lat="45.86592305194998" lon="8.929411522083814"><ele>464.0</ele><time>2026-03-29T09:27:51Z</time></trkpt><trkpt lat="45.86584252039778" lon="8.9296393013826"><ele>462.0</ele><time>2026-03-29T09:27:52Z</time></trkpt><trkpt lat="45.86574698701136" lon="8.929794960293961"><ele>462.0</ele><time>2026-03-29T09:27:53Z</time></trkpt><trkpt lat="45.86565674171242" lon="8.929925676755923"><ele>462.0</ele><time>2026-03-29T09:27:54Z</time></trkpt><trkpt lat="45.865547560639484" lon="8.930065405425779"><ele>462.0</ele><time>2026-03-29T09:27:55Z</time></trkpt><trkpt lat="45.86541703831515" lon="8.930162199776452"><ele>462.0</ele><time>2026-03-29T09:27:56Z</time></trkpt><trkpt lat="45.86529976957193" lon="8.93025762318416"><ele>462.5</ele><time>2026-03-29T09:27:57Z</time></trkpt><trkpt lat="45.86519879841609" lon="8.930354781603699"><ele>463.0</ele><time>2026-03-29T09:27:58Z</time></trkpt><trkpt lat="45.865100975064365" lon="8.930448988335357"><ele>463.5</ele><time>2026-03-29T09:27:59Z</time></trkpt><trkpt lat="45.86500655963421" lon="8.930543233343238"><ele>464.0</ele><time>2026-03-29T09:28:00Z</time></trkpt><trkpt lat="45.86491166363518" lon="8.930615117329069"><ele>464.0</ele><time>2026-03-29T09:28:01Z</time></trkpt><trkpt lat="45.86480945713446" lon="8.93070144062147"><ele>464.0</ele><time>2026-03-29T09:28:02Z</time></trkpt><trkpt lat="45.86471329544475" lon="8.930774945051308"><ele>464.0</ele><time>2026-03-29T09:28:03Z</time></trkpt><trkpt lat="45.8646170542373" lon="8.930854460717859"><ele>464.0</ele><time>2026-03-29T09:28:04Z</time></trkpt><trkpt lat="45.864536845989974" lon="8.930918260532232"><ele>464.0</ele><time>2026-03-29T09:28:05Z</time></trkpt><trkpt lat="45.86446792268207" lon="8.930970427890411"><ele>463.79999999999995</ele><time>2026-03-29T09:28:06Z</time></trkpt><trkpt lat="45.86436341553773" lon="8.931031780618913"><ele>463.59999999999997</ele><time>2026-03-29T09:28:08Z</time></trkpt><trkpt lat="45.86437697438967" lon="8.931258486111663"><ele>463.4</ele><time>2026-03-29T09:28:11Z</time></trkpt><trkpt lat="45.864386214841936" lon="8.93136461671072"><ele>463.2</ele><time>2026-03-29T09:28:12Z</time></trkpt><trkpt lat="45.86441117276392" lon="8.931480749092508"><ele>463.0</ele><time>2026-03-29T09:28:13Z</time></trkpt><trkpt lat="45.864437220008014" lon="8.931599715120242"><ele>463.00000000000006</ele><time>2026-03-29T09:28:14Z</time></trkpt><trkpt lat="45.864458873094584" lon="8.931707285441252"><ele>463.0</ele><time>2026-03-29T09:28:15Z</time></trkpt><trkpt lat="45.86447025360617" lon="8.931820361021968"><ele>463.0</ele><time>2026-03-29T09:28:16Z</time></trkpt><trkpt lat="45.86447838972033" lon="8.931932978228401"><ele>463.0</ele><time>2026-03-29T09:28:17Z</time></trkpt><trkpt lat="45.86448752676017" lon="8.932051620780083"><ele>463.00000000000006</ele><time>2026-03-29T09:28:18Z</time></trkpt><trkpt lat="45.86449710079775" lon="8.932167996440109"><ele>463.0</ele><time>2026-03-29T09:28:19Z</time></trkpt><trkpt lat="45.864506180114034" lon="8.932278358664643"><ele>463.1666666666667</ele><time>2026-03-29T09:28:20Z</time></trkpt><trkpt lat="45.864515838274386" lon="8.932395756744498"><ele>463.33333333333337</ele><time>2026-03-29T09:28:21Z</time></trkpt><trkpt lat="45.86452509532221" lon="8.932505469755709"><ele>463.5</ele><time>2026-03-29T09:28:22Z</time></trkpt><trkpt lat="45.86453513304291" lon="8.932624355585473"><ele>463.66666666666663</ele><time>2026-03-29T09:28:23Z</time></trkpt><trkpt lat="45.864544608711654" lon="8.932736581219356"><ele>463.8333333333333</ele><time>2026-03-29T09:28:24Z</time></trkpt><trkpt lat="45.86455491160514" lon="8.932856399327564"><ele>464.0</ele><time>2026-03-29T09:28:25Z</time></trkpt><trkpt lat="45.86456415245803" lon="8.932964732238945"><ele>463.99999999999994</ele><time>2026-03-29T09:28:26Z</time></trkpt><trkpt lat="45.864596148082555" lon="8.933098328484032"><ele>464.0</ele><time>2026-03-29T09:28:28Z</time></trkpt><trkpt lat="45.86458354010568" lon="8.933192012830782"><ele>464.0</ele><time>2026-03-29T09:28:32Z</time></trkpt><trkpt lat="45.864652775770026" lon="8.93318555072838"><ele>464.0</ele><time>2026-03-29T09:28:33Z</time></trkpt><trkpt lat="45.86465760508879" lon="8.933092636340595"><ele>463.99999999999994</ele><time>2026-03-29T09:28:37Z</time></trkpt><trkpt lat="45.86457423014337" lon="8.933084085051377"><ele>464.0</ele><time>2026-03-29T09:31:54.999Z</time></trkpt><trkpt lat="45.8645800374457" lon="8.932956662572268"><ele>464.0</ele><time>2026-03-29T09:32:02.998Z</time></trkpt><trkpt lat="45.86448569613465" lon="8.932873543218241"><ele>464.0</ele><time>2026-03-29T09:32:04.998Z</time></trkpt><trkpt lat="45.86453730499969" lon="8.932542473001428"><ele>464.0</ele><time>2026-03-29T09:32:06.998Z</time></trkpt><trkpt lat="45.86452757428322" lon="8.932433539487173"><ele>464.0</ele><time>2026-03-29T09:32:07.998Z</time></trkpt><trkpt lat="45.86452136074057" lon="8.932317858602083"><ele>463.8333333333333</ele><time>2026-03-29T09:32:08.998Z</time></trkpt><trkpt lat="45.8645056900864" lon="8.932191379479523"><ele>463.66666666666663</ele><time>2026-03-29T09:32:09.998Z</time></trkpt><trkpt lat="45.86449438467516" lon="8.932070779493554"><ele>463.5</ele><time>2026-03-29T09:32:10.998Z</time></trkpt><trkpt lat="45.86448483499613" lon="8.931950450882237"><ele>463.33333333333337</ele><time>2026-03-29T09:32:11.998Z</time></trkpt><trkpt lat="45.864473988087795" lon="8.931820496777982"><ele>463.1666666666667</ele><time>2026-03-29T09:32:12.998Z</time></trkpt><trkpt lat="45.86445692517081" lon="8.931691173956523"><ele>463.0</ele><time>2026-03-29T09:32:13.998Z</time></trkpt><trkpt lat="45.86443347670908" lon="8.931580241882079"><ele>463.0</ele><time>2026-03-29T09:32:14.998Z</time></trkpt><trkpt lat="45.86441199965212" lon="8.93146430905681"><ele>462.99999999999994</ele><time>2026-03-29T09:32:15.998Z</time></trkpt><trkpt lat="45.86438980943605" lon="8.931354587366549"><ele>462.99999999999994</ele><time>2026-03-29T09:32:16.998Z</time></trkpt><trkpt lat="45.86437791538654" lon="8.931256355966955"><ele>463.0</ele><time>2026-03-29T09:32:17.998Z</time></trkpt><trkpt lat="45.86436341560296" lon="8.93110254953381"><ele>463.0</ele><time>2026-03-29T09:32:19.998Z</time></trkpt><trkpt lat="45.86447228184424" lon="8.930977462959433"><ele>463.0</ele><time>2026-03-29T09:32:21.998Z</time></trkpt><trkpt lat="45.864559615725824" lon="8.93091329798972"><ele>462.99999999999994</ele><time>2026-03-29T09:32:22.999Z</time></trkpt><trkpt lat="45.86464404257893" lon="8.930842632655192"><ele>462.99999999999994</ele><time>2026-03-29T09:32:23.999Z</time></trkpt><trkpt lat="45.86473827436913" lon="8.93079999087958"><ele>463.0</ele><time>2026-03-29T09:32:24.999Z</time></trkpt><trkpt lat="45.8648250059315" lon="8.930728228156921"><ele>463.0</ele><time>2026-03-29T09:32:25.999Z</time></trkpt><trkpt lat="45.864917559622384" lon="8.930650626824239"><ele>463.2</ele><time>2026-03-29T09:32:26.999Z</time></trkpt><trkpt lat="45.865009253153175" lon="8.930573748655963"><ele>463.4</ele><time>2026-03-29T09:32:27.999Z</time></trkpt><trkpt lat="45.865095886762525" lon="8.930471950480765"><ele>463.59999999999997</ele><time>2026-03-29T09:32:28.999Z</time></trkpt><trkpt lat="45.86517965022149" lon="8.93042414841755"><ele>463.79999999999995</ele><time>2026-03-29T09:32:29.999Z</time></trkpt><trkpt lat="45.86527594213304" lon="8.930340260128748"><ele>464.0</ele><time>2026-03-29T09:32:30.999Z</time></trkpt><trkpt lat="45.86537430345175" lon="8.930242923602895"><ele>463.5</ele><time>2026-03-29T09:32:31.999Z</time></trkpt><trkpt lat="45.86547776061301" lon="8.930148342683927"><ele>463.0</ele><time>2026-03-29T09:32:32.999Z</time></trkpt><trkpt lat="45.865592049175405" lon="8.930050706530816"><ele>462.5</ele><time>2026-03-29T09:32:33.999Z</time></trkpt><trkpt lat="45.86569622615902" lon="8.929953073852474"><ele>462.0</ele><time>2026-03-29T09:32:34.999Z</time></trkpt><trkpt lat="45.8658042156348" lon="8.929820642701241"><ele>462.0</ele><time>2026-03-29T09:32:35.999Z</time></trkpt><trkpt lat="45.865890475811746" lon="8.929665497906901"><ele>462.0</ele><time>2026-03-29T09:32:36.999Z</time></trkpt><trkpt lat="45.865961446933156" lon="8.929479555150644"><ele>462.0</ele><time>2026-03-29T09:32:37.999Z</time></trkpt><trkpt lat="45.86602664092708" lon="8.929286173065812"><ele>462.0</ele><time>2026-03-29T09:32:38.999Z</time></trkpt><trkpt lat="45.86608383637762" lon="8.929083372085964"><ele>463.5</ele><time>2026-03-29T09:32:39.999Z</time></trkpt><trkpt lat="45.86613893117164" lon="8.928899390787683"><ele>465.0</ele><time>2026-03-29T09:32:40.999Z</time></trkpt><trkpt lat="45.86620127729145" lon="8.928718660733697"><ele>466.5</ele><time>2026-03-29T09:32:41.999Z</time></trkpt><trkpt lat="45.866255336447274" lon="8.928537779575215"><ele>468.0</ele><time>2026-03-29T09:32:42.999Z</time></trkpt><trkpt lat="45.866281223950814" lon="8.928337809979977"><ele>468.0</ele><time>2026-03-29T09:32:43.999Z</time></trkpt><trkpt lat="45.86627209910716" lon="8.928117050989089"><ele>468.0</ele><time>2026-03-29T09:32:44.999Z</time></trkpt><trkpt lat="45.86625268418001" lon="8.927890752981513"><ele>468.0</ele><time>2026-03-29T09:32:45.999Z</time></trkpt><trkpt lat="45.8662422955379" lon="8.927669459195283"><ele>468.25</ele><time>2026-03-29T09:32:46.999Z</time></trkpt><trkpt lat="45.86623582581188" lon="8.92746472976661"><ele>468.5</ele><time>2026-03-29T09:32:47.999Z</time></trkpt><trkpt lat="45.866241192341235" lon="8.927268740160226"><ele>468.75</ele><time>2026-03-29T09:32:48.999Z</time></trkpt><trkpt lat="45.86625089881784" lon="8.92710895803278"><ele>469.0</ele><time>2026-03-29T09:32:49.999Z</time></trkpt><trkpt lat="45.86628211476434" lon="8.926959927087486"><ele>469.0</ele><time>2026-03-29T09:32:50.999Z</time></trkpt><trkpt lat="45.86632145100095" lon="8.926849893583869"><ele>469.0</ele><time>2026-03-29T09:32:51.999Z</time></trkpt><trkpt lat="45.86637267439638" lon="8.92671961285863"><ele>469.0</ele><time>2026-03-29T09:32:52.999Z</time></trkpt><trkpt lat="45.866437004381474" lon="8.926567375452759"><ele>469.0</ele><time>2026-03-29T09:32:53.999Z</time></trkpt><trkpt lat="45.86649691994266" lon="8.9264254110126"><ele>469.0</ele><time>2026-03-29T09:32:54.999Z</time></trkpt><trkpt lat="45.866545841973625" lon="8.926311043264548"><ele>468.6666666666667</ele><time>2026-03-29T09:32:55.999Z</time></trkpt><trkpt lat="45.866600637380216" lon="8.926221594036194"><ele>468.33333333333337</ele><time>2026-03-29T09:32:56.999Z</time></trkpt><trkpt lat="45.86667138638042" lon="8.926150994831199"><ele>468.0</ele><time>2026-03-29T09:32:57.999Z</time></trkpt><trkpt lat="45.8667431287557" lon="8.92610088059196"><ele>467.66666666666663</ele><time>2026-03-29T09:32:58.999Z</time></trkpt><trkpt lat="45.866807158477904" lon="8.926035076602584"><ele>467.3333333333333</ele><time>2026-03-29T09:32:59.999Z</time></trkpt><trkpt lat="45.866839850468324" lon="8.92593333378724"><ele>467.0</ele><time>2026-03-29T09:33:00.999Z</time></trkpt><trkpt lat="45.86683979076818" lon="8.925799479107498"><ele>470.0</ele><time>2026-03-29T09:33:01.999Z</time></trkpt><trkpt lat="45.86682344448035" lon="8.925660762224895"><ele>473.0</ele><time>2026-03-29T09:33:02.999Z</time></trkpt><trkpt lat="45.866888419733776" lon="8.925523340486873"><ele>476.0</ele><time>2026-03-29T09:33:03.999Z</time></trkpt><trkpt lat="45.866947063764684" lon="8.925354348726014"><ele>479.0</ele><time>2026-03-29T09:33:04.999Z</time></trkpt><trkpt lat="45.86702646439507" lon="8.92519806833019"><ele>478.0</ele><time>2026-03-29T09:33:05.999Z</time></trkpt><trkpt lat="45.86709382631781" lon="8.925039681354031"><ele>477.0</ele><time>2026-03-29T09:33:06.999Z</time></trkpt><trkpt lat="45.867160880854655" lon="8.924873664754092"><ele>476.0</ele><time>2026-03-29T09:33:07.999Z</time></trkpt><trkpt lat="45.86722963130244" lon="8.924690285412753"><ele>475.0</ele><time>2026-03-29T09:33:08.999Z</time></trkpt><trkpt lat="45.8673003505172" lon="8.924518215614812"><ele>475.0</ele><time>2026-03-29T09:33:09.999Z</time></trkpt><trkpt lat="45.8673681036435" lon="8.9243555493853"><ele>475.0</ele><time>2026-03-29T09:33:10.999Z</time></trkpt><trkpt lat="45.8674332521608" lon="8.924205356050164"><ele>475.0</ele><time>2026-03-29T09:33:11.999Z</time></trkpt><trkpt lat="45.86749201456612" lon="8.924066320009846"><ele>475.0</ele><time>2026-03-29T09:33:12.999Z</time></trkpt><trkpt lat="45.86755272378951" lon="8.923925976633587"><ele>476.0</ele><time>2026-03-29T09:33:13.999Z</time></trkpt><trkpt lat="45.86761949455925" lon="8.92377735677309"><ele>477.0</ele><time>2026-03-29T09:33:14.999Z</time></trkpt><trkpt lat="45.867683486789254" lon="8.923619102604516"><ele>478.0</ele><time>2026-03-29T09:33:15.999Z</time></trkpt><trkpt lat="45.8677451255535" lon="8.923453956772791"><ele>479.0</ele><time>2026-03-29T09:33:16.999Z</time></trkpt><trkpt lat="45.8678111298809" lon="8.923295914779015"><ele>479.0</ele><time>2026-03-29T09:33:17.999Z</time></trkpt><trkpt lat="45.867874688391595" lon="8.923149702226237"><ele>479.0</ele><time>2026-03-29T09:33:18.999Z</time></trkpt><trkpt lat="45.86793412119105" lon="8.923001194136852"><ele>479.0</ele><time>2026-03-29T09:33:19.999Z</time></trkpt><trkpt lat="45.86798820213271" lon="8.922867068677464"><ele>479.0</ele><time>2026-03-29T09:33:20.999Z</time></trkpt><trkpt lat="45.86803936830525" lon="8.92273982864008"><ele>479.0</ele><time>2026-03-29T09:33:21.999Z</time></trkpt><trkpt lat="45.868089240673754" lon="8.922614682233467"><ele>479.0</ele><time>2026-03-29T09:33:22.999Z</time></trkpt><trkpt lat="45.868134376220034" lon="8.922476162110657"><ele>479.0</ele><time>2026-03-29T09:33:23.999Z</time></trkpt><trkpt lat="45.868174870975" lon="8.92232018606702"><ele>479.0</ele><time>2026-03-29T09:33:24.999Z</time></trkpt><trkpt lat="45.86821901004065" lon="8.922149839003358"><ele>479.0</ele><time>2026-03-29T09:33:25.999Z</time></trkpt><trkpt lat="45.8682533008945" lon="8.921959980895814"><ele>479.25</ele><time>2026-03-29T09:33:26.999Z</time></trkpt><trkpt lat="45.86826769902675" lon="8.921758617435565"><ele>479.5</ele><time>2026-03-29T09:33:27.999Z</time></trkpt><trkpt lat="45.868256802819324" lon="8.92154565766454"><ele>479.75</ele><time>2026-03-29T09:33:28.999Z</time></trkpt><trkpt lat="45.86824321569432" lon="8.9213413305545"><ele>480.0</ele><time>2026-03-29T09:33:29.999Z</time></trkpt><trkpt lat="45.8682391874641" lon="8.921133399836455"><ele>480.0</ele><time>2026-03-29T09:33:30.999Z</time></trkpt><trkpt lat="45.86823075626465" lon="8.92093391606871"><ele>480.0</ele><time>2026-03-29T09:33:31.999Z</time></trkpt><trkpt lat="45.86823212435378" lon="8.920742391169322"><ele>480.0</ele><time>2026-03-29T09:33:32.999Z</time></trkpt><trkpt lat="45.86821596973047" lon="8.920558856037962"><ele>480.0</ele><time>2026-03-29T09:33:33.999Z</time></trkpt><trkpt lat="45.86821149434275" lon="8.920378446155171"><ele>480.0</ele><time>2026-03-29T09:33:34.999Z</time></trkpt><trkpt lat="45.868206956255015" lon="8.920201298494845"><ele>480.0</ele><time>2026-03-29T09:33:35.999Z</time></trkpt><trkpt lat="45.86821060197903" lon="8.920003151141575"><ele>480.0</ele><time>2026-03-29T09:33:36.999Z</time></trkpt><trkpt lat="45.86819079661203" lon="8.919839579242065"><ele>480.0</ele><time>2026-03-29T09:33:37.999Z</time></trkpt><trkpt lat="45.86818680045983" lon="8.919648531417627"><ele>480.0</ele><time>2026-03-29T09:33:38.999Z</time></trkpt><trkpt lat="45.868184566687944" lon="8.919453843440516"><ele>480.0</ele><time>2026-03-29T09:33:39.999Z</time></trkpt><trkpt lat="45.86817920233303" lon="8.919264556332124"><ele>480.0</ele><time>2026-03-29T09:33:40.999Z</time></trkpt><trkpt lat="45.86818502501622" lon="8.919079303306168"><ele>480.0</ele><time>2026-03-29T09:33:41.999Z</time></trkpt><trkpt lat="45.86817999122142" lon="8.918904968314727"><ele>480.0</ele><time>2026-03-29T09:33:42.999Z</time></trkpt><trkpt lat="45.86817552846007" lon="8.91875040935864"><ele>480.0</ele><time>2026-03-29T09:33:43.999Z</time></trkpt><trkpt lat="45.86817038114669" lon="8.918593661162134"><ele>480.0</ele><time>2026-03-29T09:33:44.999Z</time></trkpt><trkpt lat="45.86816597787468" lon="8.918437401585779"><ele>480.0</ele><time>2026-03-29T09:33:45.999Z</time></trkpt><trkpt lat="45.86816144416567" lon="8.918268786238032"><ele>480.0</ele><time>2026-03-29T09:33:46.999Z</time></trkpt><trkpt lat="45.86815688759672" lon="8.918099320377374"><ele>479.6</ele><time>2026-03-29T09:33:47.999Z</time></trkpt><trkpt lat="45.86815233090031" lon="8.917929849653618"><ele>479.2</ele><time>2026-03-29T09:33:48.999Z</time></trkpt><trkpt lat="45.868138415733334" lon="8.917774511387279"><ele>478.79999999999995</ele><time>2026-03-29T09:33:49.999Z</time></trkpt><trkpt lat="45.8681396984865" lon="8.91766265644375"><ele>478.4</ele><time>2026-03-29T09:33:50.999Z</time></trkpt><trkpt lat="45.86813596992483" lon="8.917554268311989"><ele>478.0</ele><time>2026-03-29T09:33:52.999Z</time></trkpt><trkpt lat="45.868132547306814" lon="8.917412962862828"><ele>477.59999999999997</ele><time>2026-03-29T09:33:55.999Z</time></trkpt><trkpt lat="45.86814918294908" lon="8.917264941915754"><ele>477.19999999999993</ele><time>2026-03-29T09:33:56.999Z</time></trkpt><trkpt lat="45.86817447382794" lon="8.917124644895276"><ele>476.8</ele><time>2026-03-29T09:33:57.999Z</time></trkpt><trkpt lat="45.86813511957351" lon="8.917009878746205"><ele>476.4</ele><time>2026-03-29T09:33:58.999Z</time></trkpt><trkpt lat="45.86811524341305" lon="8.916831964643249"><ele>476.0</ele><time>2026-03-29T09:33:59.999Z</time></trkpt><trkpt lat="45.86813638981149" lon="8.916662561370178"><ele>475.5</ele><time>2026-03-29T09:34:00.999Z</time></trkpt><trkpt lat="45.86816455817131" lon="8.916489514463073"><ele>475.0</ele><time>2026-03-29T09:34:01.999Z</time></trkpt><trkpt lat="45.868201060528385" lon="8.916314009567643"><ele>474.5</ele><time>2026-03-29T09:34:02.999Z</time></trkpt><trkpt lat="45.868239965073435" lon="8.916159660684622"><ele>474.0</ele><time>2026-03-29T09:34:03.999Z</time></trkpt><trkpt lat="45.868288217244974" lon="8.916038516364734"><ele>473.25</ele><time>2026-03-29T09:34:04.999Z</time></trkpt><trkpt lat="45.86834405010317" lon="8.915868390591642"><ele>472.5</ele><time>2026-03-29T09:34:05.999Z</time></trkpt><trkpt lat="45.8684159913112" lon="8.915733422959237"><ele>471.75</ele><time>2026-03-29T09:34:06.999Z</time></trkpt><trkpt lat="45.86850026668416" lon="8.915609660658594"><ele>471.0</ele><time>2026-03-29T09:34:07.999Z</time></trkpt><trkpt lat="45.868592396892026" lon="8.915508053309587"><ele>474.0</ele><time>2026-03-29T09:34:08.999Z</time></trkpt><trkpt lat="45.8686923618531" lon="8.915399211241944"><ele>477.0</ele><time>2026-03-29T09:34:09.999Z</time></trkpt><trkpt lat="45.868824120712745" lon="8.915328164026626"><ele>480.0</ele><time>2026-03-29T09:34:10.999Z</time></trkpt><trkpt lat="45.868943232414665" lon="8.915251737773291"><ele>483.0</ele><time>2026-03-29T09:34:11.999Z</time></trkpt><trkpt lat="45.869062616640925" lon="8.915177622749505"><ele>483.0</ele><time>2026-03-29T09:34:12.999Z</time></trkpt><trkpt lat="45.86918911151775" lon="8.915098150503548"><ele>483.0</ele><time>2026-03-29T09:34:13.999Z</time></trkpt><trkpt lat="45.86931438507913" lon="8.915025179814693"><ele>483.0</ele><time>2026-03-29T09:34:14.999Z</time></trkpt><trkpt lat="45.86944220753201" lon="8.914949736151788"><ele>483.0</ele><time>2026-03-29T09:34:15.999Z</time></trkpt><trkpt lat="45.869564255273815" lon="8.914870830092289"><ele>480.0</ele><time>2026-03-29T09:34:16.999Z</time></trkpt><trkpt lat="45.8696862044768" lon="8.914799909052407"><ele>477.0</ele><time>2026-03-29T09:34:17.999Z</time></trkpt><trkpt lat="45.86981261012239" lon="8.914727583540646"><ele>474.0</ele><time>2026-03-29T09:34:18.999Z</time></trkpt><trkpt lat="45.86993599846913" lon="8.914654265735356"><ele>471.0</ele><time>2026-03-29T09:34:19.999Z</time></trkpt><trkpt lat="45.87006532609259" lon="8.914554933695092"><ele>473.25</ele><time>2026-03-29T09:34:20.999Z</time></trkpt><trkpt lat="45.8701750899363" lon="8.914464651077463"><ele>475.5</ele><time>2026-03-29T09:34:21.999Z</time></trkpt><trkpt lat="45.870270202829126" lon="8.914336549285037"><ele>477.75</ele><time>2026-03-29T09:34:22.999Z</time></trkpt><trkpt lat="45.87034841698678" lon="8.914175243213856"><ele>480.0</ele><time>2026-03-29T09:34:23.999Z</time></trkpt><trkpt lat="45.87041289998286" lon="8.91399613485639"><ele>480.0</ele><time>2026-03-29T09:34:24.999Z</time></trkpt><trkpt lat="45.870483947447" lon="8.913827647518291"><ele>480.0</ele><time>2026-03-29T09:34:26Z</time></trkpt><trkpt lat="45.87056905304842" lon="8.91367094217375"><ele>480.0</ele><time>2026-03-29T09:34:27Z</time></trkpt><trkpt lat="45.8706418818375" lon="8.913508578650662"><ele>480.0</ele><time>2026-03-29T09:34:28Z</time></trkpt><trkpt lat="45.8707082624838" lon="8.913337293183718"><ele>479.0</ele><time>2026-03-29T09:34:29Z</time></trkpt><trkpt lat="45.87077992493487" lon="8.913172315522464"><ele>478.0</ele><time>2026-03-29T09:34:30Z</time></trkpt><trkpt lat="45.87086715229501" lon="8.913017986537676"><ele>477.0</ele><time>2026-03-29T09:34:31Z</time></trkpt><trkpt lat="45.870944715017366" lon="8.912852014635135"><ele>476.0</ele><time>2026-03-29T09:34:32Z</time></trkpt><trkpt lat="45.87102077396756" lon="8.912689179787023"><ele>479.0</ele><time>2026-03-29T09:34:33Z</time></trkpt><trkpt lat="45.87108415235507" lon="8.912522501581059"><ele>482.0</ele><time>2026-03-29T09:34:34Z</time></trkpt><trkpt lat="45.871162866090906" lon="8.91237196904773"><ele>485.0</ele><time>2026-03-29T09:34:35Z</time></trkpt><trkpt lat="45.87123409617635" lon="8.91221801618059"><ele>488.0</ele><time>2026-03-29T09:34:36Z</time></trkpt><trkpt lat="45.87130528591484" lon="8.912067177407787"><ele>488.0</ele><time>2026-03-29T09:34:37Z</time></trkpt><trkpt lat="45.8713737150947" lon="8.91191148887225"><ele>487.99999999999994</ele><time>2026-03-29T09:34:38Z</time></trkpt><trkpt lat="45.8714204837216" lon="8.91178360487151"><ele>487.99999999999994</ele><time>2026-03-29T09:34:39Z</time></trkpt><trkpt lat="45.8714815333287" lon="8.911657536210415"><ele>488.0</ele><time>2026-03-29T09:34:40Z</time></trkpt><trkpt lat="45.871537243946186" lon="8.911547064817636"><ele>488.0</ele><time>2026-03-29T09:34:41Z</time></trkpt><trkpt lat="45.87158307418426" lon="8.9114493622334"><ele>488.0</ele><time>2026-03-29T09:34:42Z</time></trkpt><trkpt lat="45.87163275270008" lon="8.911334281603233"><ele>487.99999999999994</ele><time>2026-03-29T09:34:43Z</time></trkpt><trkpt lat="45.87168641055329" lon="8.911214864336262"><ele>487.99999999999994</ele><time>2026-03-29T09:34:44Z</time></trkpt><trkpt lat="45.871738366825156" lon="8.911095379093158"><ele>488.0</ele><time>2026-03-29T09:34:45Z</time></trkpt><trkpt lat="45.87179466378368" lon="8.91095549002352"><ele>488.0</ele><time>2026-03-29T09:34:46Z</time></trkpt><trkpt lat="45.871860209747055" lon="8.910813234931073"><ele>487.99999999999994</ele><time>2026-03-29T09:34:47Z</time></trkpt><trkpt lat="45.87193210987262" lon="8.910679956421435"><ele>488.0</ele><time>2026-03-29T09:34:48Z</time></trkpt><trkpt lat="45.87199111965001" lon="8.910555973957633"><ele>488.0</ele><time>2026-03-29T09:34:49Z</time></trkpt><trkpt lat="45.872031904235314" lon="8.910457162331483"><ele>488.0</ele><time>2026-03-29T09:34:50Z</time></trkpt><trkpt lat="45.87207700456731" lon="8.910374848482478"><ele>487.99999999999994</ele><time>2026-03-29T09:34:51Z</time></trkpt><trkpt lat="45.87210608031572" lon="8.910286269529175"><ele>488.0</ele><time>2026-03-29T09:34:52Z</time></trkpt><trkpt lat="45.872186176046526" lon="8.91017262768782"><ele>487.2</ele><time>2026-03-29T09:34:54Z</time></trkpt><trkpt lat="45.87216746135438" lon="8.910024521735538"><ele>486.4</ele><time>2026-03-29T09:34:56Z</time></trkpt><trkpt lat="45.87212150991715" lon="8.909938151557073"><ele>485.59999999999997</ele><time>2026-03-29T09:34:57Z</time></trkpt><trkpt lat="45.87208504001251" lon="8.909816710606123"><ele>484.79999999999995</ele><time>2026-03-29T09:34:58Z</time></trkpt><trkpt lat="45.872055074127125" lon="8.909686147130788"><ele>484.0</ele><time>2026-03-29T09:34:59Z</time></trkpt><trkpt lat="45.87203047406689" lon="8.909540702993164"><ele>484.00000000000006</ele><time>2026-03-29T09:35:00Z</time></trkpt><trkpt lat="45.87201633370125" lon="8.909411168645061"><ele>484.0</ele><time>2026-03-29T09:35:01Z</time></trkpt><trkpt lat="45.872014005340695" lon="8.909295406276582"><ele>484.0</ele><time>2026-03-29T09:35:02Z</time></trkpt><trkpt lat="45.87199986125173" lon="8.909202602168923"><ele>484.0</ele><time>2026-03-29T09:35:03Z</time></trkpt><trkpt lat="45.871986215119776" lon="8.909100518445623"><ele>484.00000000000006</ele><time>2026-03-29T09:35:04Z</time></trkpt><trkpt lat="45.871907575150594" lon="8.90895665995028"><ele>484.0</ele><time>2026-03-29T09:35:06Z</time></trkpt><trkpt lat="45.87177658208508" lon="8.908918007640317"><ele>484.1666666666667</ele><time>2026-03-29T09:35:08Z</time></trkpt><trkpt lat="45.87169872215609" lon="8.908886646683355"><ele>484.33333333333337</ele><time>2026-03-29T09:35:09Z</time></trkpt><trkpt lat="45.87162823618066" lon="8.90885227257034"><ele>484.5</ele><time>2026-03-29T09:35:10Z</time></trkpt><trkpt lat="45.87154158628049" lon="8.908816164785073"><ele>484.66666666666663</ele><time>2026-03-29T09:35:11Z</time></trkpt><trkpt lat="45.87144665171521" lon="8.90877417137085"><ele>484.8333333333333</ele><time>2026-03-29T09:35:12Z</time></trkpt><trkpt lat="45.87135839780795" lon="8.908723533911816"><ele>485.0</ele><time>2026-03-29T09:35:13Z</time></trkpt><trkpt lat="45.871266373427915" lon="8.908678692221795"><ele>485.0</ele><time>2026-03-29T09:35:14Z</time></trkpt><trkpt lat="45.871159410691234" lon="8.908617104229162"><ele>485.0</ele><time>2026-03-29T09:35:15Z</time></trkpt><trkpt lat="45.87106384177016" lon="8.908579467775008"><ele>485.0</ele><time>2026-03-29T09:35:16Z</time></trkpt><trkpt lat="45.870965153825196" lon="8.908539071370441"><ele>485.0</ele><time>2026-03-29T09:35:17Z</time></trkpt><trkpt lat="45.870864104922056" lon="8.908499306283408"><ele>485.0</ele><time>2026-03-29T09:35:18Z</time></trkpt><trkpt lat="45.87076175349442" lon="8.908459653812875"><ele>485.8</ele><time>2026-03-29T09:35:19Z</time></trkpt><trkpt lat="45.87066369365594" lon="8.908401941088476"><ele>486.6</ele><time>2026-03-29T09:35:20Z</time></trkpt><trkpt lat="45.870560496734214" lon="8.908338394305478"><ele>487.4</ele><time>2026-03-29T09:35:21Z</time></trkpt><trkpt lat="45.87046057742812" lon="8.908293551462076"><ele>488.2</ele><time>2026-03-29T09:35:22Z</time></trkpt><trkpt lat="45.87036426876066" lon="8.908251032820997"><ele>489.0</ele><time>2026-03-29T09:35:23Z</time></trkpt><trkpt lat="45.87028335283101" lon="8.908243875890637"><ele>489.0</ele><time>2026-03-29T09:35:24Z</time></trkpt><trkpt lat="45.87016444042568" lon="8.908244657046804"><ele>489.0</ele><time>2026-03-29T09:35:26Z</time></trkpt><trkpt lat="45.870109092853795" lon="8.90816120166778"><ele>489.0</ele><time>2026-03-29T09:35:27Z</time></trkpt><trkpt lat="45.870058786631276" lon="8.90807697753956"><ele>489.0</ele><time>2026-03-29T09:35:28Z</time></trkpt><trkpt lat="45.87012898606369" lon="8.907907268624124"><ele>489.0</ele><time>2026-03-29T09:35:29Z</time></trkpt><trkpt lat="45.87016368786369" lon="8.907744520583854"><ele>489.0</ele><time>2026-03-29T09:35:30Z</time></trkpt><trkpt lat="45.87020808504767" lon="8.907586216284022"><ele>489.0</ele><time>2026-03-29T09:35:31Z</time></trkpt><trkpt lat="45.870238264403255" lon="8.907473381005797"><ele>489.0</ele><time>2026-03-29T09:35:32Z</time></trkpt><trkpt lat="45.870269660683036" lon="8.907309922472477"><ele>489.0</ele><time>2026-03-29T09:35:33Z</time></trkpt><trkpt lat="45.87030860703727" lon="8.907162915636645"><ele>489.0</ele><time>2026-03-29T09:35:34Z</time></trkpt><trkpt lat="45.870349516429236" lon="8.907032471793782"><ele>488.5</ele><time>2026-03-29T09:35:35Z</time></trkpt><trkpt lat="45.870376536009985" lon="8.906904713681374"><ele>488.0</ele><time>2026-03-29T09:35:36Z</time></trkpt><trkpt lat="45.870397617222686" lon="8.906767658162002"><ele>487.5</ele><time>2026-03-29T09:35:37Z</time></trkpt><trkpt lat="45.87041375522487" lon="8.906658174826408"><ele>487.0</ele><time>2026-03-29T09:35:38Z</time></trkpt><trkpt lat="45.870423152274185" lon="8.906547096876466"><ele>486.5</ele><time>2026-03-29T09:35:39Z</time></trkpt><trkpt lat="45.87043300950748" lon="8.906418029704778"><ele>486.0</ele><time>2026-03-29T09:35:40Z</time></trkpt><trkpt lat="45.87044468728906" lon="8.906285163356973"><ele>486.0</ele><time>2026-03-29T09:35:41Z</time></trkpt><trkpt lat="45.87044115380754" lon="8.906147859642806"><ele>486.0</ele><time>2026-03-29T09:35:42Z</time></trkpt><trkpt lat="45.870438937886355" lon="8.906038026143845"><ele>486.0</ele><time>2026-03-29T09:35:43Z</time></trkpt><trkpt lat="45.870427957878036" lon="8.905931578287053"><ele>486.0</ele><time>2026-03-29T09:35:44Z</time></trkpt><trkpt lat="45.87038579712535" lon="8.905756765577866"><ele>486.0</ele><time>2026-03-29T09:35:46Z</time></trkpt><trkpt lat="45.87034674054582" lon="8.905650909450102"><ele>486.5</ele><time>2026-03-29T09:35:47Z</time></trkpt><trkpt lat="45.87033108933773" lon="8.90553063794904"><ele>487.0</ele><time>2026-03-29T09:35:48Z</time></trkpt><trkpt lat="45.8702937278789" lon="8.905421025686557"><ele>487.5</ele><time>2026-03-29T09:35:49Z</time></trkpt><trkpt lat="45.87028686624287" lon="8.905305614461456"><ele>488.0</ele><time>2026-03-29T09:35:50Z</time></trkpt><trkpt lat="45.87030622673629" lon="8.905216221878181"><ele>488.5</ele><time>2026-03-29T09:35:51Z</time></trkpt><trkpt lat="45.87033765254482" lon="8.905107258090966"><ele>489.0</ele><time>2026-03-29T09:35:53Z</time></trkpt><trkpt lat="45.8704359882766" lon="8.905061402512052"><ele>489.0</ele><time>2026-03-29T09:35:55Z</time></trkpt><trkpt lat="45.870500129122824" lon="8.905004732736803"><ele>489.0</ele><time>2026-03-29T09:35:56Z</time></trkpt><trkpt lat="45.87058672530542" lon="8.90493422010166"><ele>489.0</ele><time>2026-03-29T09:35:57Z</time></trkpt><trkpt lat="45.870652989868866" lon="8.904872465591804"><ele>489.0</ele><time>2026-03-29T09:35:58Z</time></trkpt><trkpt lat="45.8707020886364" lon="8.904790525834585"><ele>489.0</ele><time>2026-03-29T09:36:00Z</time></trkpt><trkpt lat="45.87071274276434" lon="8.9045838885175"><ele>489.0</ele><time>2026-03-29T09:36:02Z</time></trkpt><trkpt lat="45.87069453556943" lon="8.904436277565614"><ele>489.0</ele><time>2026-03-29T09:36:03Z</time></trkpt><trkpt lat="45.87063735563594" lon="8.904260841087025"><ele>489.0</ele><time>2026-03-29T09:36:04Z</time></trkpt><trkpt lat="45.87060370092104" lon="8.904091589177929"><ele>489.0</ele><time>2026-03-29T09:36:05Z</time></trkpt><trkpt lat="45.87057793522362" lon="8.903915032708111"><ele>486.5</ele><time>2026-03-29T09:36:06Z</time></trkpt><trkpt lat="45.87053007392044" lon="8.903733796965554"><ele>484.0</ele><time>2026-03-29T09:36:06.999Z</time></trkpt><trkpt lat="45.8704608302155" lon="8.90355733008107"><ele>481.5</ele><time>2026-03-29T09:36:08Z</time></trkpt><trkpt lat="45.87038257569915" lon="8.903388684098962"><ele>479.0</ele><time>2026-03-29T09:36:08.999Z</time></trkpt><trkpt lat="45.870312478610025" lon="8.903224497676565"><ele>478.25</ele><time>2026-03-29T09:36:09.999Z</time></trkpt><trkpt lat="45.87024101766079" lon="8.903046882159838"><ele>477.5</ele><time>2026-03-29T09:36:10.999Z</time></trkpt><trkpt lat="45.870178091062016" lon="8.902877783801333"><ele>476.75</ele><time>2026-03-29T09:36:11.999Z</time></trkpt><trkpt lat="45.87012021448507" lon="8.90271241067489"><ele>476.0</ele><time>2026-03-29T09:36:12.999Z</time></trkpt><trkpt lat="45.870054614723905" lon="8.90252042168468"><ele>476.0</ele><time>2026-03-29T09:36:13.999Z</time></trkpt><trkpt lat="45.869993453326764" lon="8.902332776664698"><ele>476.0</ele><time>2026-03-29T09:36:15Z</time></trkpt><trkpt lat="45.86993023765128" lon="8.902158104865416"><ele>476.0</ele><time>2026-03-29T09:36:16Z</time></trkpt><trkpt lat="45.869865542331766" lon="8.901974995882705"><ele>476.0</ele><time>2026-03-29T09:36:17Z</time></trkpt><trkpt lat="45.86979766396329" lon="8.901793620558392"><ele>471.75</ele><time>2026-03-29T09:36:18Z</time></trkpt><trkpt lat="45.86972787243733" lon="8.901610398144177"><ele>467.5</ele><time>2026-03-29T09:36:19Z</time></trkpt><trkpt lat="45.869655678030696" lon="8.901425366079097"><ele>463.25</ele><time>2026-03-29T09:36:20Z</time></trkpt><trkpt lat="45.86960105237649" lon="8.901241900817071"><ele>459.0</ele><time>2026-03-29T09:36:21Z</time></trkpt><trkpt lat="45.86952409052338" lon="8.901071432647116"><ele>459.0</ele><time>2026-03-29T09:36:22Z</time></trkpt><trkpt lat="45.86946133820332" lon="8.900920223970955"><ele>459.0</ele><time>2026-03-29T09:36:23Z</time></trkpt><trkpt lat="45.86940392624018" lon="8.900790118059945"><ele>459.0</ele><time>2026-03-29T09:36:24Z</time></trkpt><trkpt lat="45.86937461254476" lon="8.900659412669974"><ele>459.0</ele><time>2026-03-29T09:36:25Z</time></trkpt><trkpt lat="45.86934222039096" lon="8.900437938543483"><ele>455.33333333333337</ele><time>2026-03-29T09:36:27Z</time></trkpt><trkpt lat="45.869345050454726" lon="8.900173395630317"><ele>451.6666666666667</ele><time>2026-03-29T09:36:28Z</time></trkpt><trkpt lat="45.86934490632792" lon="8.899914011313284"><ele>448.0</ele><time>2026-03-29T09:36:29Z</time></trkpt><trkpt lat="45.86937865424938" lon="8.899606780138102"><ele>447.0</ele><time>2026-03-29T09:36:30Z</time></trkpt><trkpt lat="45.869388410368344" lon="8.899316612738133"><ele>446.0</ele><time>2026-03-29T09:36:31Z</time></trkpt><trkpt lat="45.86938755191448" lon="8.899131215632032"><ele>445.0</ele><time>2026-03-29T09:36:32Z</time></trkpt><trkpt lat="45.869363796136675" lon="8.898879517869702"><ele>443.0</ele><time>2026-03-29T09:36:34Z</time></trkpt><trkpt lat="45.86933561576815" lon="8.898659782930473"><ele>441.0</ele><time>2026-03-29T09:36:35Z</time></trkpt><trkpt lat="45.86929866110671" lon="8.898380570115163"><ele>439.0</ele><time>2026-03-29T09:36:36Z</time></trkpt><trkpt lat="45.86926742032508" lon="8.898146729333654"><ele>440.79999999999995</ele><time>2026-03-29T09:36:37Z</time></trkpt><trkpt lat="45.86923796456142" lon="8.8979466372273"><ele>442.59999999999997</ele><time>2026-03-29T09:36:38Z</time></trkpt><trkpt lat="45.86919207020481" lon="8.897777563248738"><ele>444.4</ele><time>2026-03-29T09:36:39Z</time></trkpt><trkpt lat="45.86918109015107" lon="8.897665834059945"><ele>446.2</ele><time>2026-03-29T09:36:40Z</time></trkpt><trkpt lat="45.86911762426581" lon="8.89755912298388"><ele>448.0</ele><time>2026-03-29T09:36:41Z</time></trkpt><trkpt lat="45.869011734670174" lon="8.897355896865957"><ele>448.0</ele><time>2026-03-29T09:36:42Z</time></trkpt><trkpt lat="45.86879182839557" lon="8.897028442015861"><ele>448.0</ele><time>2026-03-29T09:36:43Z</time></trkpt><trkpt lat="45.86862980886949" lon="8.896807424406031"><ele>450.5</ele><time>2026-03-29T09:36:44Z</time></trkpt><trkpt lat="45.868524334775294" lon="8.896622822758564"><ele>453.0</ele><time>2026-03-29T09:36:45Z</time></trkpt><trkpt lat="45.86847401371204" lon="8.896493126130126"><ele>455.5</ele><time>2026-03-29T09:36:46Z</time></trkpt><trkpt lat="45.868439105108" lon="8.896383378132098"><ele>458.0</ele><time>2026-03-29T09:36:47Z</time></trkpt><trkpt lat="45.86837780151033" lon="8.896192275638018"><ele>458.0</ele><time>2026-03-29T09:36:48Z</time></trkpt><trkpt lat="45.868315839256624" lon="8.896008774417968"><ele>458.0</ele><time>2026-03-29T09:36:49Z</time></trkpt><trkpt lat="45.86827890168052" lon="8.895837665277684"><ele>458.0</ele><time>2026-03-29T09:36:50Z</time></trkpt><trkpt lat="45.868212915543694" lon="8.895723492484036"><ele>458.0</ele><time>2026-03-29T09:36:51Z</time></trkpt><trkpt lat="45.8681549682159" lon="8.895609352574835"><ele>451.3333333333333</ele><time>2026-03-29T09:36:52Z</time></trkpt><trkpt lat="45.86791543566024" lon="8.895432956504898"><ele>444.66666666666663</ele><time>2026-03-29T09:36:53Z</time></trkpt><trkpt lat="45.86781603421805" lon="8.895304229399773"><ele>438.0</ele><time>2026-03-29T09:36:54Z</time></trkpt><trkpt lat="45.86772164083627" lon="8.89522603362942"><ele>438.0</ele><time>2026-03-29T09:36:55Z</time></trkpt><trkpt lat="45.86762499925267" lon="8.895151879599561"><ele>438.0</ele><time>2026-03-29T09:36:56Z</time></trkpt><trkpt lat="45.86750977237087" lon="8.89511823273179"><ele>438.0</ele><time>2026-03-29T09:36:57Z</time></trkpt><trkpt lat="45.86737127418167" lon="8.895117200200346"><ele>438.0</ele><time>2026-03-29T09:36:58Z</time></trkpt><trkpt lat="45.867228041779725" lon="8.895119448877715"><ele>436.5</ele><time>2026-03-29T09:36:59Z</time></trkpt><trkpt lat="45.8670996214081" lon="8.895104534990569"><ele>435.0</ele><time>2026-03-29T09:37:00Z</time></trkpt><trkpt lat="45.86697202418364" lon="8.89510074543657"><ele>433.5</ele><time>2026-03-29T09:37:01Z</time></trkpt><trkpt lat="45.86683863437057" lon="8.89509553912925"><ele>432.0</ele><time>2026-03-29T09:37:02Z</time></trkpt><trkpt lat="45.86671016521148" lon="8.895087834828043"><ele>429.5</ele><time>2026-03-29T09:37:03Z</time></trkpt><trkpt lat="45.86658435332034" lon="8.8950752649767"><ele>427.0</ele><time>2026-03-29T09:37:04Z</time></trkpt><trkpt lat="45.866457791331854" lon="8.895072675631429"><ele>424.5</ele><time>2026-03-29T09:37:05Z</time></trkpt><trkpt lat="45.8663302815658" lon="8.895043989600046"><ele>422.0</ele><time>2026-03-29T09:37:06Z</time></trkpt><trkpt lat="45.86620534578295" lon="8.895028779786768"><ele>422.0</ele><time>2026-03-29T09:37:07Z</time></trkpt><trkpt lat="45.86606976238575" lon="8.895010070982186"><ele>422.0</ele><time>2026-03-29T09:37:08Z</time></trkpt><trkpt lat="45.865945300425" lon="8.894994613016376"><ele>422.0</ele><time>2026-03-29T09:37:09Z</time></trkpt><trkpt lat="45.86581074743051" lon="8.894973545453004"><ele>422.0</ele><time>2026-03-29T09:37:10Z</time></trkpt><trkpt lat="45.865688098000305" lon="8.894947767631301"><ele>419.6</ele><time>2026-03-29T09:37:11Z</time></trkpt><trkpt lat="45.865582214820904" lon="8.894865634740864"><ele>417.20000000000005</ele><time>2026-03-29T09:37:12Z</time></trkpt><trkpt lat="45.86549326130124" lon="8.894781200565484"><ele>414.8</ele><time>2026-03-29T09:37:13Z</time></trkpt><trkpt lat="45.8654322587419" lon="8.894686076780166"><ele>412.4</ele><time>2026-03-29T09:37:14Z</time></trkpt><trkpt lat="45.86541170678045" lon="8.894584549708977"><ele>410.0</ele><time>2026-03-29T09:37:15Z</time></trkpt><trkpt lat="45.86539762661428" lon="8.89448440637357"><ele>410.0</ele><time>2026-03-29T09:37:16Z</time></trkpt><trkpt lat="45.86541745484096" lon="8.894355595202688"><ele>410.0</ele><time>2026-03-29T09:37:17Z</time></trkpt><trkpt lat="45.86547467607382" lon="8.894186213636182"><ele>410.0</ele><time>2026-03-29T09:37:18Z</time></trkpt><trkpt lat="45.865497444655304" lon="8.894004496972522"><ele>410.0</ele><time>2026-03-29T09:37:19Z</time></trkpt><trkpt lat="45.86552913086834" lon="8.893812913676042"><ele>408.25</ele><time>2026-03-29T09:37:20Z</time></trkpt><trkpt lat="45.86554221227964" lon="8.893597531963962"><ele>406.5</ele><time>2026-03-29T09:37:21Z</time></trkpt><trkpt lat="45.86554545047496" lon="8.893389981822263"><ele>404.75</ele><time>2026-03-29T09:37:22Z</time></trkpt><trkpt lat="45.86554697687265" lon="8.893202607032414"><ele>403.0</ele><time>2026-03-29T09:37:23Z</time></trkpt><trkpt lat="45.86554251229862" lon="8.893041924899663"><ele>401.0</ele><time>2026-03-29T09:37:24Z</time></trkpt><trkpt lat="45.86551510058321" lon="8.892901912423241"><ele>399.0</ele><time>2026-03-29T09:37:25Z</time></trkpt><trkpt lat="45.86545479174329" lon="8.892769231064888"><ele>397.0</ele><time>2026-03-29T09:37:26Z</time></trkpt><trkpt lat="45.865367143689284" lon="8.892658257072268"><ele>395.0</ele><time>2026-03-29T09:37:27Z</time></trkpt><trkpt lat="45.86526434259523" lon="8.892567537243897"><ele>393.0</ele><time>2026-03-29T09:37:28Z</time></trkpt><trkpt lat="45.865168727574705" lon="8.892483060897984"><ele>392.1666666666667</ele><time>2026-03-29T09:37:29Z</time></trkpt><trkpt lat="45.86508026284386" lon="8.892407283190867"><ele>391.33333333333337</ele><time>2026-03-29T09:37:30Z</time></trkpt><trkpt lat="45.86501803814329" lon="8.892333879888016"><ele>390.5</ele><time>2026-03-29T09:37:31Z</time></trkpt><trkpt lat="45.864939547795935" lon="8.89227405414346"><ele>389.6666666666667</ele><time>2026-03-29T09:37:33Z</time></trkpt><trkpt lat="45.864970348424926" lon="8.892174079032861"><ele>388.83333333333337</ele><time>2026-03-29T09:37:34Z</time></trkpt><trkpt lat="45.86503650152679" lon="8.892093949637296"><ele>388.0</ele><time>2026-03-29T09:37:35Z</time></trkpt><trkpt lat="45.86513033385433" lon="8.892061038063645"><ele>386.75</ele><time>2026-03-29T09:37:36Z</time></trkpt><trkpt lat="45.865255408827565" lon="8.892128196097014"><ele>385.5</ele><time>2026-03-29T09:37:37Z</time></trkpt><trkpt lat="45.86538889470249" lon="8.89215703282342"><ele>384.25</ele><time>2026-03-29T09:37:38Z</time></trkpt><trkpt lat="45.86553316993444" lon="8.892191298042635"><ele>383.0</ele><time>2026-03-29T09:37:39Z</time></trkpt><trkpt lat="45.86567716562591" lon="8.892219373769276"><ele>383.0</ele><time>2026-03-29T09:37:40Z</time></trkpt><trkpt lat="45.86577895246915" lon="8.892261634228054"><ele>383.0</ele><time>2026-03-29T09:37:41Z</time></trkpt><trkpt lat="45.865922920402" lon="8.89231311673577"><ele>383.0</ele><time>2026-03-29T09:37:42Z</time></trkpt><trkpt lat="45.866049379594145" lon="8.892335783100343"><ele>383.0</ele><time>2026-03-29T09:37:43Z</time></trkpt><trkpt lat="45.86616597963897" lon="8.892383032779067"><ele>380.5</ele><time>2026-03-29T09:37:44Z</time></trkpt><trkpt lat="45.866279606272315" lon="8.892425192883785"><ele>378.0</ele><time>2026-03-29T09:37:45Z</time></trkpt><trkpt lat="45.86638702014253" lon="8.892460848249966"><ele>375.5</ele><time>2026-03-29T09:37:46Z</time></trkpt><trkpt lat="45.86649815428145" lon="8.892499622922212"><ele>373.0</ele><time>2026-03-29T09:37:47Z</time></trkpt><trkpt lat="45.866614341094596" lon="8.892537241626513"><ele>375.5</ele><time>2026-03-29T09:37:48Z</time></trkpt><trkpt lat="45.86672987958623" lon="8.892589762135636"><ele>378.0</ele><time>2026-03-29T09:37:49Z</time></trkpt><trkpt lat="45.86684581996509" lon="8.89262399458198"><ele>380.5</ele><time>2026-03-29T09:37:50Z</time></trkpt><trkpt lat="45.866947557397076" lon="8.892671281861947"><ele>383.0</ele><time>2026-03-29T09:37:51Z</time></trkpt><trkpt lat="45.86705924847098" lon="8.892697897873418"><ele>383.0</ele><time>2026-03-29T09:37:52Z</time></trkpt><trkpt lat="45.8671606583913" lon="8.892723545805534"><ele>383.0</ele><time>2026-03-29T09:37:53Z</time></trkpt><trkpt lat="45.86725378561587" lon="8.892742317881067"><ele>383.0</ele><time>2026-03-29T09:37:54Z</time></trkpt><trkpt lat="45.86734437400955" lon="8.892770006028693"><ele>383.0</ele><time>2026-03-29T09:37:55Z</time></trkpt><trkpt lat="45.86743019203275" lon="8.892811886379961"><ele>383.0</ele><time>2026-03-29T09:37:56Z</time></trkpt><trkpt lat="45.86750380495452" lon="8.892872755841802"><ele>383.0</ele><time>2026-03-29T09:37:57Z</time></trkpt><trkpt lat="45.86757287232858" lon="8.892896594374246"><ele>383.0</ele><time>2026-03-29T09:37:58Z</time></trkpt><trkpt lat="45.86766187928325" lon="8.89281812394293"><ele>383.0</ele><time>2026-03-29T09:38:00Z</time></trkpt><trkpt lat="45.8676716270329" lon="8.892698896003889"><ele>383.0</ele><time>2026-03-29T09:38:01Z</time></trkpt><trkpt lat="45.8676184767084" lon="8.89260079667333"><ele>383.0</ele><time>2026-03-29T09:38:02Z</time></trkpt><trkpt lat="45.86751350005355" lon="8.892578870244957"><ele>378.83333333333337</ele><time>2026-03-29T09:38:03Z</time></trkpt><trkpt lat="45.86742283344528" lon="8.89256039642425"><ele>374.6666666666667</ele><time>2026-03-29T09:38:04Z</time></trkpt><trkpt lat="45.867323421550644" lon="8.892536777162025"><ele>370.5</ele><time>2026-03-29T09:38:05Z</time></trkpt><trkpt lat="45.867228919048124" lon="8.892503433385638"><ele>366.3333333333333</ele><time>2026-03-29T09:38:06Z</time></trkpt><trkpt lat="45.86715175785458" lon="8.892480155042387"><ele>362.16666666666663</ele><time>2026-03-29T09:38:07Z</time></trkpt><trkpt lat="45.86709164452702" lon="8.892435617764825"><ele>358.0</ele><time>2026-03-29T09:38:08Z</time></trkpt><trkpt lat="45.86700499400466" lon="8.89237747769606"><ele>358.0</ele><time>2026-03-29T09:38:10Z</time></trkpt><trkpt lat="45.86701654444962" lon="8.892286607663587"><ele>358.0</ele><time>2026-03-29T09:38:11Z</time></trkpt><trkpt lat="45.86706088537381" lon="8.89221459930054"><ele>358.0</ele><time>2026-03-29T09:38:12Z</time></trkpt><trkpt lat="45.867134663592424" lon="8.892181838077645"><ele>358.0</ele><time>2026-03-29T09:38:13Z</time></trkpt><trkpt lat="45.867222940625275" lon="8.89225513758029"><ele>358.0</ele><time>2026-03-29T09:38:14Z</time></trkpt><trkpt lat="45.867334740875165" lon="8.892295631601511"><ele>358.0</ele><time>2026-03-29T09:38:15Z</time></trkpt><trkpt lat="45.86743616080825" lon="8.89233139313577"><ele>358.0</ele><time>2026-03-29T09:38:16Z</time></trkpt><trkpt lat="45.86751868346974" lon="8.892350423347454"><ele>358.0</ele><time>2026-03-29T09:38:17Z</time></trkpt><trkpt lat="45.86759831243843" lon="8.89236571703007"><ele>358.0</ele><time>2026-03-29T09:38:18Z</time></trkpt><trkpt lat="45.86767290238992" lon="8.892405593792343"><ele>358.0</ele><time>2026-03-29T09:38:19Z</time></trkpt><trkpt lat="45.86774048168944" lon="8.892447798654782"><ele>358.0</ele><time>2026-03-29T09:38:20Z</time></trkpt><trkpt lat="45.86781260578947" lon="8.892462119330428"><ele>358.0</ele><time>2026-03-29T09:38:21.001Z</time></trkpt><trkpt lat="45.867881626629874" lon="8.89243696736454"><ele>355.79999999999995</ele><time>2026-03-29T09:38:22.001Z</time></trkpt><trkpt lat="45.867951568802624" lon="8.892396602221138"><ele>353.6</ele><time>2026-03-29T09:38:23.001Z</time></trkpt><trkpt lat="45.868007868765645" lon="8.892288425741304"><ele>351.4</ele><time>2026-03-29T09:38:24.001Z</time></trkpt><trkpt lat="45.86802853071329" lon="8.892129471447294"><ele>349.20000000000005</ele><time>2026-03-29T09:38:25.001Z</time></trkpt><trkpt lat="45.868044518726634" lon="8.891976468522502"><ele>347.0</ele><time>2026-03-29T09:38:26.001Z</time></trkpt><trkpt lat="45.86805245793449" lon="8.89181813458745"><ele>345.5</ele><time>2026-03-29T09:38:27.001Z</time></trkpt><trkpt lat="45.86807322711537" lon="8.89165752499979"><ele>344.0</ele><time>2026-03-29T09:38:28.001Z</time></trkpt><trkpt lat="45.86809308199532" lon="8.891490512538427"><ele>342.5</ele><time>2026-03-29T09:38:29.001Z</time></trkpt><trkpt lat="45.868113610140206" lon="8.891326340994253"><ele>341.0</ele><time>2026-03-29T09:38:30.001Z</time></trkpt><trkpt lat="45.8681319907859" lon="8.891159099090748"><ele>341.0</ele><time>2026-03-29T09:38:31.001Z</time></trkpt><trkpt lat="45.86815753161017" lon="8.890997110286945"><ele>341.0</ele><time>2026-03-29T09:38:32.001Z</time></trkpt><trkpt lat="45.86817700709338" lon="8.890837933507363"><ele>341.0</ele><time>2026-03-29T09:38:33.001Z</time></trkpt><trkpt lat="45.86820064244956" lon="8.890686028851153"><ele>341.0</ele><time>2026-03-29T09:38:34.001Z</time></trkpt><trkpt lat="45.86821961358832" lon="8.890531380608095"><ele>341.0</ele><time>2026-03-29T09:38:35.001Z</time></trkpt><trkpt lat="45.86823350710828" lon="8.890375246665402"><ele>340.4</ele><time>2026-03-29T09:38:36.001Z</time></trkpt><trkpt lat="45.868229001130054" lon="8.890224064233502"><ele>339.8</ele><time>2026-03-29T09:38:37.001Z</time></trkpt><trkpt lat="45.868228844048126" lon="8.890083792017515"><ele>339.2</ele><time>2026-03-29T09:38:38.001Z</time></trkpt><trkpt lat="45.86821201678031" lon="8.889935648926851"><ele>338.59999999999997</ele><time>2026-03-29T09:38:39.001Z</time></trkpt><trkpt lat="45.86819845742561" lon="8.889782343564999"><ele>338.0</ele><time>2026-03-29T09:38:40.001Z</time></trkpt><trkpt lat="45.86818328598456" lon="8.889635169432255"><ele>337.79999999999995</ele><time>2026-03-29T09:38:41.001Z</time></trkpt><trkpt lat="45.86819454348142" lon="8.889483768270285"><ele>337.6</ele><time>2026-03-29T09:38:42.001Z</time></trkpt><trkpt lat="45.86819790764581" lon="8.889339965386153"><ele>337.4</ele><time>2026-03-29T09:38:43.001Z</time></trkpt><trkpt lat="45.86824217067294" lon="8.8892211512884"><ele>337.20000000000005</ele><time>2026-03-29T09:38:44.001Z</time></trkpt><trkpt lat="45.86828896678308" lon="8.889090099970549"><ele>337.0</ele><time>2026-03-29T09:38:45.001Z</time></trkpt><trkpt lat="45.86835393094906" lon="8.888994122142007"><ele>337.3333333333333</ele><time>2026-03-29T09:38:46.001Z</time></trkpt><trkpt lat="45.86842717537613" lon="8.888905688877523"><ele>337.66666666666663</ele><time>2026-03-29T09:38:47.001Z</time></trkpt><trkpt lat="45.86850892434595" lon="8.888822992275918"><ele>338.0</ele><time>2026-03-29T09:38:48.001Z</time></trkpt><trkpt lat="45.868580210850496" lon="8.888768070486162"><ele>338.3333333333333</ele><time>2026-03-29T09:38:49.001Z</time></trkpt><trkpt lat="45.86865086921055" lon="8.88870751248165"><ele>338.6666666666667</ele><time>2026-03-29T09:38:50Z</time></trkpt><trkpt lat="45.868705218956" lon="8.888659313697818"><ele>339.0</ele><time>2026-03-29T09:38:51Z</time></trkpt><trkpt lat="45.868771503911546" lon="8.888631109113337"><ele>339.0</ele><time>2026-03-29T09:38:52Z</time></trkpt><trkpt lat="45.86879327596916" lon="8.88849194293171"><ele>339.0</ele><time>2026-03-29T09:38:53Z</time></trkpt><trkpt lat="45.86885407892929" lon="8.888414874112359"><ele>339.0</ele><time>2026-03-29T09:38:54Z</time></trkpt><trkpt lat="45.86891042054042" lon="8.88831651785574"><ele>339.0</ele><time>2026-03-29T09:38:55Z</time></trkpt><trkpt lat="45.869022759589825" lon="8.888257060858795"><ele>339.0</ele><time>2026-03-29T09:38:56Z</time></trkpt><trkpt lat="45.869091069308304" lon="8.888218083568262"><ele>339.5</ele><time>2026-03-29T09:38:57Z</time></trkpt><trkpt lat="45.869157895151005" lon="8.888133095115819"><ele>340.0</ele><time>2026-03-29T09:38:58Z</time></trkpt><trkpt lat="45.869161845781115" lon="8.888041348749656"><ele>340.5</ele><time>2026-03-29T09:38:59Z</time></trkpt><trkpt lat="45.86921618727761" lon="8.888090816446658"><ele>341.0</ele><time>2026-03-29T09:39:00Z</time></trkpt><trkpt lat="45.86916258514796" lon="8.887969809610864"><ele>341.5</ele><time>2026-03-29T09:39:01Z</time></trkpt><trkpt lat="45.8691547201293" lon="8.887816771587111"><ele>342.0</ele><time>2026-03-29T09:39:03Z</time></trkpt><trkpt lat="45.869050033882296" lon="8.88770022854462"><ele>342.0</ele><time>2026-03-29T09:39:05Z</time></trkpt><trkpt lat="45.86898402999823" lon="8.887691710759775"><ele>342.0</ele><time>2026-03-29T09:39:06Z</time></trkpt><trkpt lat="45.868804614822615" lon="8.887772625542361"><ele>342.0</ele><time>2026-03-29T09:39:08Z</time></trkpt><trkpt lat="45.86869436258958" lon="8.887833236839333"><ele>342.0</ele><time>2026-03-29T09:39:09Z</time></trkpt><trkpt lat="45.86857411087327" lon="8.887870715649107"><ele>342.0</ele><time>2026-03-29T09:39:10Z</time></trkpt><trkpt lat="45.86846739356868" lon="8.887895214923523"><ele>342.0</ele><time>2026-03-29T09:39:11Z</time></trkpt><trkpt lat="45.86839619481219" lon="8.88790715266535"><ele>342.0</ele><time>2026-03-29T09:39:12Z</time></trkpt><trkpt lat="45.8682710189665" lon="8.887937107869206"><ele>342.0</ele><time>2026-03-29T09:39:13Z</time></trkpt><trkpt lat="45.868182784960666" lon="8.88794962516968"><ele>342.0</ele><time>2026-03-29T09:39:14Z</time></trkpt><trkpt lat="45.868097861682614" lon="8.887967797399307"><ele>342.40000000000003</ele><time>2026-03-29T09:39:15Z</time></trkpt><trkpt lat="45.8680039325395" lon="8.887981687660137"><ele>342.8</ele><time>2026-03-29T09:39:16Z</time></trkpt><trkpt lat="45.867892752871434" lon="8.887979484934387"><ele>343.2</ele><time>2026-03-29T09:39:17Z</time></trkpt><trkpt lat="45.8677895023004" lon="8.88799367884042"><ele>343.6</ele><time>2026-03-29T09:39:18Z</time></trkpt><trkpt lat="45.867677928498274" lon="8.887989335737997"><ele>344.0</ele><time>2026-03-29T09:39:19Z</time></trkpt><trkpt lat="45.86756813167138" lon="8.887983583422924"><ele>345.5</ele><time>2026-03-29T09:39:20Z</time></trkpt><trkpt lat="45.867463255193684" lon="8.88796170049325"><ele>347.0</ele><time>2026-03-29T09:39:21Z</time></trkpt><trkpt lat="45.867345721928466" lon="8.887949816537104"><ele>348.5</ele><time>2026-03-29T09:39:22Z</time></trkpt><trkpt lat="45.86720870466212" lon="8.887943680207876"><ele>350.0</ele><time>2026-03-29T09:39:23Z</time></trkpt><trkpt lat="45.86709884702771" lon="8.887929165650254"><ele>350.0</ele><time>2026-03-29T09:39:24Z</time></trkpt><trkpt lat="45.86701539049756" lon="8.887914099147382"><ele>350.0</ele><time>2026-03-29T09:39:25Z</time></trkpt><trkpt lat="45.86690852857407" lon="8.887893370623095"><ele>350.0</ele><time>2026-03-29T09:39:27Z</time></trkpt><trkpt lat="45.86704843413552" lon="8.887914865392794"><ele>350.0</ele><time>2026-03-29T09:39:38Z</time></trkpt><trkpt lat="45.86713565388944" lon="8.887957430621821"><ele>350.0</ele><time>2026-03-29T09:39:39Z</time></trkpt><trkpt lat="45.86724195759232" lon="8.887967187208206"><ele>350.0</ele><time>2026-03-29T09:39:40Z</time></trkpt><trkpt lat="45.867377000026956" lon="8.887987712525772"><ele>350.0</ele><time>2026-03-29T09:39:41Z</time></trkpt><trkpt lat="45.86752866954133" lon="8.888005205349888"><ele>350.0</ele><time>2026-03-29T09:39:42Z</time></trkpt><trkpt lat="45.86768537373135" lon="8.888004804643861"><ele>350.0</ele><time>2026-03-29T09:39:43Z</time></trkpt><trkpt lat="45.867832524983996" lon="8.88800778616818"><ele>348.5</ele><time>2026-03-29T09:39:44Z</time></trkpt><trkpt lat="45.86796650221322" lon="8.88801023291544"><ele>347.0</ele><time>2026-03-29T09:39:45Z</time></trkpt><trkpt lat="45.868095156788215" lon="8.888004445300902"><ele>345.5</ele><time>2026-03-29T09:39:46Z</time></trkpt><trkpt lat="45.86821588897201" lon="8.887987448913567"><ele>344.0</ele><time>2026-03-29T09:39:47Z</time></trkpt><trkpt lat="45.86833108463031" lon="8.887964078755783"><ele>343.6</ele><time>2026-03-29T09:39:48Z</time></trkpt><trkpt lat="45.8684547042221" lon="8.887928537931321"><ele>343.2</ele><time>2026-03-29T09:39:49Z</time></trkpt><trkpt lat="45.86855700299636" lon="8.887916932568068"><ele>342.8</ele><time>2026-03-29T09:39:50Z</time></trkpt><trkpt lat="45.868663712537426" lon="8.887897110271721"><ele>342.40000000000003</ele><time>2026-03-29T09:39:51Z</time></trkpt><trkpt lat="45.86875285103839" lon="8.887866441127198"><ele>342.0</ele><time>2026-03-29T09:39:52Z</time></trkpt><trkpt lat="45.868851158589884" lon="8.887808921813557"><ele>342.0</ele><time>2026-03-29T09:39:53Z</time></trkpt><trkpt lat="45.86894148248604" lon="8.887750716496342"><ele>342.0</ele><time>2026-03-29T09:39:54Z</time></trkpt><trkpt lat="45.869028133867914" lon="8.887751110017447"><ele>342.0</ele><time>2026-03-29T09:39:55Z</time></trkpt><trkpt lat="45.869098248705825" lon="8.887775596669787"><ele>342.0</ele><time>2026-03-29T09:39:57Z</time></trkpt><trkpt lat="45.86912077736293" lon="8.887881534698066"><ele>342.0</ele><time>2026-03-29T09:39:59Z</time></trkpt><trkpt lat="45.869123049490746" lon="8.887981510729247"><ele>342.0</ele><time>2026-03-29T09:40:01Z</time></trkpt><trkpt lat="45.86913633681004" lon="8.88811016227521"><ele>342.0</ele><time>2026-03-29T09:40:04Z</time></trkpt><trkpt lat="45.86906213326009" lon="8.888187098228284"><ele>342.0</ele><time>2026-03-29T09:40:06Z</time></trkpt><trkpt lat="45.86898611236026" lon="8.888260453531634"><ele>342.0</ele><time>2026-03-29T09:40:07Z</time></trkpt><trkpt lat="45.86889231025305" lon="8.88834685190901"><ele>342.0</ele><time>2026-03-29T09:40:08Z</time></trkpt><trkpt lat="45.868838247001726" lon="8.888423617011501"><ele>342.0</ele><time>2026-03-29T09:40:09Z</time></trkpt><trkpt lat="45.86879011483133" lon="8.888483002728096"><ele>342.0</ele><time>2026-03-29T09:40:10Z</time></trkpt><trkpt lat="45.86886771140836" lon="8.888537753119035"><ele>342.0</ele><time>2026-03-29T09:40:18Z</time></trkpt><trkpt lat="45.868997665303425" lon="8.888463570913059"><ele>342.0</ele><time>2026-03-29T09:40:19Z</time></trkpt><trkpt lat="45.86909069202523" lon="8.888383279407796"><ele>342.0</ele><time>2026-03-29T09:40:20Z</time></trkpt><trkpt lat="45.86919231762822" lon="8.88831619667308"><ele>342.0</ele><time>2026-03-29T09:40:21Z</time></trkpt><trkpt lat="45.86929138961847" lon="8.888294851356818"><ele>342.75</ele><time>2026-03-29T09:40:22Z</time></trkpt><trkpt lat="45.86939701969541" lon="8.888254358360385"><ele>343.5</ele><time>2026-03-29T09:40:23Z</time></trkpt><trkpt lat="45.86950929832402" lon="8.888208709425724"><ele>344.25</ele><time>2026-03-29T09:40:24Z</time></trkpt><trkpt lat="45.86963254124491" lon="8.888230884431268"><ele>345.0</ele><time>2026-03-29T09:40:25Z</time></trkpt><trkpt lat="45.8697508002388" lon="8.888245040913791"><ele>345.0</ele><time>2026-03-29T09:40:26Z</time></trkpt><trkpt lat="45.869854578265816" lon="8.88824901684416"><ele>345.0</ele><time>2026-03-29T09:40:27.001Z</time></trkpt><trkpt lat="45.86994685796559" lon="8.88828195240979"><ele>345.0</ele><time>2026-03-29T09:40:28.001Z</time></trkpt><trkpt lat="45.87004115176141" lon="8.888262563008984"><ele>345.0</ele><time>2026-03-29T09:40:29.001Z</time></trkpt><trkpt lat="45.87013342063185" lon="8.888218926990918"><ele>345.0</ele><time>2026-03-29T09:40:30.001Z</time></trkpt><trkpt lat="45.87022850424675" lon="8.888256679777744"><ele>344.2</ele><time>2026-03-29T09:40:31.001Z</time></trkpt><trkpt lat="45.87031754756482" lon="8.888302044473841"><ele>343.4</ele><time>2026-03-29T09:40:32.001Z</time></trkpt><trkpt lat="45.87041362875948" lon="8.888303168477243"><ele>342.6</ele><time>2026-03-29T09:40:33.001Z</time></trkpt><trkpt lat="45.87050277846785" lon="8.888290227560418"><ele>341.8</ele><time>2026-03-29T09:40:34.001Z</time></trkpt><trkpt lat="45.8705902271637" lon="8.888276551596805"><ele>341.0</ele><time>2026-03-29T09:40:35.001Z</time></trkpt><trkpt lat="45.87067278064233" lon="8.888292811310206"><ele>341.0</ele><time>2026-03-29T09:40:36.001Z</time></trkpt><trkpt lat="45.87076372602776" lon="8.888353284935922"><ele>341.0</ele><time>2026-03-29T09:40:37.001Z</time></trkpt><trkpt lat="45.87087422157578" lon="8.888374536240772"><ele>341.0</ele><time>2026-03-29T09:40:38.001Z</time></trkpt><trkpt lat="45.87098777183473" lon="8.88842502183594"><ele>341.0</ele><time>2026-03-29T09:40:39.001Z</time></trkpt><trkpt lat="45.87111512183511" lon="8.888455707902455"><ele>339.75</ele><time>2026-03-29T09:40:40.001Z</time></trkpt><trkpt lat="45.87124662173423" lon="8.888501105322852"><ele>338.5</ele><time>2026-03-29T09:40:41.001Z</time></trkpt><trkpt lat="45.87136741820813" lon="8.888541364175813"><ele>337.25</ele><time>2026-03-29T09:40:42.001Z</time></trkpt><trkpt lat="45.871490056605715" lon="8.888582432790438"><ele>336.0</ele><time>2026-03-29T09:40:43.001Z</time></trkpt><trkpt lat="45.87161859507967" lon="8.88862809543233"><ele>336.0</ele><time>2026-03-29T09:40:44.001Z</time></trkpt><trkpt lat="45.87174884099521" lon="8.888681369881224"><ele>336.0</ele><time>2026-03-29T09:40:45.001Z</time></trkpt><trkpt lat="45.87187623337899" lon="8.888735653904492"><ele>336.0</ele><time>2026-03-29T09:40:46.001Z</time></trkpt><trkpt lat="45.87200006944068" lon="8.888793381558225"><ele>336.0</ele><time>2026-03-29T09:40:47Z</time></trkpt><trkpt lat="45.87211996708249" lon="8.888858295581912"><ele>336.20000000000005</ele><time>2026-03-29T09:40:48Z</time></trkpt><trkpt lat="45.872229657722926" lon="8.888912239587539"><ele>336.40000000000003</ele><time>2026-03-29T09:40:49Z</time></trkpt><trkpt lat="45.872326345698546" lon="8.888962833572876"><ele>336.6</ele><time>2026-03-29T09:40:50Z</time></trkpt><trkpt lat="45.872412856776755" lon="8.88900797969033"><ele>336.8</ele><time>2026-03-29T09:40:51Z</time></trkpt><trkpt lat="45.87248223734" lon="8.889075427131187"><ele>337.0</ele><time>2026-03-29T09:40:52Z</time></trkpt><trkpt lat="45.872536768152266" lon="8.889178107675455"><ele>337.0</ele><time>2026-03-29T09:40:53Z</time></trkpt><trkpt lat="45.87254645213359" lon="8.889324306820743"><ele>337.0</ele><time>2026-03-29T09:40:54Z</time></trkpt><trkpt lat="45.87251078312775" lon="8.889469334512778"><ele>337.0</ele><time>2026-03-29T09:40:55Z</time></trkpt><trkpt lat="45.872514883186014" lon="8.889631611707008"><ele>337.0</ele><time>2026-03-29T09:40:56Z</time></trkpt><trkpt lat="45.8725044294231" lon="8.889754574597532"><ele>337.0</ele><time>2026-03-29T09:40:57Z</time></trkpt><trkpt lat="45.87253212987459" lon="8.889852451123462"><ele>336.40000000000003</ele><time>2026-03-29T09:40:58Z</time></trkpt><trkpt lat="45.87262970967385" lon="8.889935774707945"><ele>335.8</ele><time>2026-03-29T09:41:00Z</time></trkpt><trkpt lat="45.8727057831388" lon="8.88992043720346"><ele>335.2</ele><time>2026-03-29T09:41:01Z</time></trkpt><trkpt lat="45.87279788056639" lon="8.889885049987113"><ele>334.6</ele><time>2026-03-29T09:41:02Z</time></trkpt><trkpt lat="45.872908810488255" lon="8.889826065005654"><ele>334.0</ele><time>2026-03-29T09:41:03Z</time></trkpt><trkpt lat="45.873034410596865" lon="8.889786695187613"><ele>334.0</ele><time>2026-03-29T09:41:04Z</time></trkpt><trkpt lat="45.873166254100155" lon="8.889703247025388"><ele>334.0</ele><time>2026-03-29T09:41:05Z</time></trkpt><trkpt lat="45.87330522975368" lon="8.889645091419103"><ele>334.0</ele><time>2026-03-29T09:41:06Z</time></trkpt><trkpt lat="45.873444514983724" lon="8.889582739185528"><ele>334.0</ele><time>2026-03-29T09:41:07Z</time></trkpt><trkpt lat="45.87357009969925" lon="8.889524310986173"><ele>334.75</ele><time>2026-03-29T09:41:08Z</time></trkpt><trkpt lat="45.873702673814186" lon="8.889478903344292"><ele>335.5</ele><time>2026-03-29T09:41:09Z</time></trkpt><trkpt lat="45.873843899345644" lon="8.889442874008664"><ele>336.25</ele><time>2026-03-29T09:41:10Z</time></trkpt><trkpt lat="45.87398825372828" lon="8.889409910264993"><ele>337.0</ele><time>2026-03-29T09:41:11Z</time></trkpt><trkpt lat="45.87413208812332" lon="8.889402630557933"><ele>337.5</ele><time>2026-03-29T09:41:12Z</time></trkpt><trkpt lat="45.874277535068316" lon="8.8893865187396"><ele>338.0</ele><time>2026-03-29T09:41:13Z</time></trkpt><trkpt lat="45.87442681907164" lon="8.88937592185033"><ele>338.5</ele><time>2026-03-29T09:41:14Z</time></trkpt><trkpt lat="45.87456729766492" lon="8.889363451161922"><ele>339.0</ele><time>2026-03-29T09:41:15Z</time></trkpt><trkpt lat="45.87470016852029" lon="8.889404732638198"><ele>339.0</ele><time>2026-03-29T09:41:16Z</time></trkpt><trkpt lat="45.87482544222485" lon="8.889468349868658"><ele>339.0</ele><time>2026-03-29T09:41:17Z</time></trkpt><trkpt lat="45.87493334586863" lon="8.889539459964707"><ele>339.0</ele><time>2026-03-29T09:41:18Z</time></trkpt><trkpt lat="45.875040444145405" lon="8.889611069814887"><ele>339.0</ele><time>2026-03-29T09:41:19Z</time></trkpt><trkpt lat="45.87515410800209" lon="8.889645473298685"><ele>339.25</ele><time>2026-03-29T09:41:20Z</time></trkpt><trkpt lat="45.875283498246084" lon="8.889624902849688"><ele>339.5</ele><time>2026-03-29T09:41:21Z</time></trkpt><trkpt lat="45.875405714175635" lon="8.889561408249124"><ele>339.75</ele><time>2026-03-29T09:41:22Z</time></trkpt><trkpt lat="45.87552725354121" lon="8.889465397527708"><ele>340.0</ele><time>2026-03-29T09:41:23Z</time></trkpt><trkpt lat="45.87563675575237" lon="8.889373209272234"><ele>340.0</ele><time>2026-03-29T09:41:24Z</time></trkpt><trkpt lat="45.87575236695758" lon="8.889315899306098"><ele>340.0</ele><time>2026-03-29T09:41:25Z</time></trkpt><trkpt lat="45.87587379316268" lon="8.88925536978739"><ele>340.0</ele><time>2026-03-29T09:41:26Z</time></trkpt><trkpt lat="45.875990497194934" lon="8.889186783101033"><ele>340.0</ele><time>2026-03-29T09:41:27Z</time></trkpt><trkpt lat="45.87612038857477" lon="8.889144202748271"><ele>339.25</ele><time>2026-03-29T09:41:28Z</time></trkpt><trkpt lat="45.876255751465024" lon="8.88915203661348"><ele>338.5</ele><time>2026-03-29T09:41:29Z</time></trkpt><trkpt lat="45.87638503164512" lon="8.889157439483814"><ele>337.75</ele><time>2026-03-29T09:41:30Z</time></trkpt><trkpt lat="45.87650810177366" lon="8.889147475233946"><ele>337.0</ele><time>2026-03-29T09:41:31Z</time></trkpt><trkpt lat="45.87662916483265" lon="8.889146860477133"><ele>337.0</ele><time>2026-03-29T09:41:32Z</time></trkpt><trkpt lat="45.8767449753398" lon="8.889125174302206"><ele>337.0</ele><time>2026-03-29T09:41:33Z</time></trkpt><trkpt lat="45.87686408822247" lon="8.889092448633063"><ele>337.0</ele><time>2026-03-29T09:41:34Z</time></trkpt><trkpt lat="45.87697856622521" lon="8.88907409571503"><ele>337.0</ele><time>2026-03-29T09:41:35Z</time></trkpt><trkpt lat="45.87709119503913" lon="8.889046108873286"><ele>336.75</ele><time>2026-03-29T09:41:36Z</time></trkpt><trkpt lat="45.87721373884097" lon="8.889020476607293"><ele>336.5</ele><time>2026-03-29T09:41:37Z</time></trkpt><trkpt lat="45.877341070473676" lon="8.888994398739635"><ele>336.25</ele><time>2026-03-29T09:41:38Z</time></trkpt><trkpt lat="45.87747682730335" lon="8.888971827530503"><ele>336.0</ele><time>2026-03-29T09:41:39Z</time></trkpt><trkpt lat="45.877611098971585" lon="8.888953317724372"><ele>337.0</ele><time>2026-03-29T09:41:40Z</time></trkpt><trkpt lat="45.877743748427264" lon="8.888930024312137"><ele>338.0</ele><time>2026-03-29T09:41:41Z</time></trkpt><trkpt lat="45.87788328467741" lon="8.888911351106689"><ele>339.0</ele><time>2026-03-29T09:41:42Z</time></trkpt><trkpt lat="45.87802420948326" lon="8.8889101912539"><ele>340.0</ele><time>2026-03-29T09:41:43Z</time></trkpt><trkpt lat="45.87816768010615" lon="8.888913844064945"><ele>340.0</ele><time>2026-03-29T09:41:44Z</time></trkpt><trkpt lat="45.87831697554506" lon="8.888926417822702"><ele>340.0</ele><time>2026-03-29T09:41:45Z</time></trkpt><trkpt lat="45.87847403581153" lon="8.888931423517057"><ele>340.0</ele><time>2026-03-29T09:41:46Z</time></trkpt><trkpt lat="45.87862726462582" lon="8.88891669212875"><ele>340.5</ele><time>2026-03-29T09:41:47Z</time></trkpt><trkpt lat="45.87877322790359" lon="8.888907951498792"><ele>341.0</ele><time>2026-03-29T09:41:48Z</time></trkpt><trkpt lat="45.87892676724613" lon="8.888821969363491"><ele>341.5</ele><time>2026-03-29T09:41:49Z</time></trkpt><trkpt lat="45.87905181245538" lon="8.888770234861122"><ele>342.0</ele><time>2026-03-29T09:41:50Z</time></trkpt><trkpt lat="45.87916445839207" lon="8.888741699062397"><ele>342.0</ele><time>2026-03-29T09:41:51Z</time></trkpt><trkpt lat="45.87925978638153" lon="8.888701330113676"><ele>342.0</ele><time>2026-03-29T09:41:52Z</time></trkpt><trkpt lat="45.87935886915736" lon="8.888684087863945"><ele>342.0</ele><time>2026-03-29T09:41:53Z</time></trkpt><trkpt lat="45.87943077399978" lon="8.888657266164172"><ele>342.0</ele><time>2026-03-29T09:41:54Z</time></trkpt><trkpt lat="45.87953845864733" lon="8.888671806213294"><ele>342.0</ele><time>2026-03-29T09:41:56Z</time></trkpt><trkpt lat="45.87959954746753" lon="8.888853685723792"><ele>342.6666666666667</ele><time>2026-03-29T09:41:58Z</time></trkpt><trkpt lat="45.87963023755973" lon="8.888965892695477"><ele>343.3333333333333</ele><time>2026-03-29T09:41:59Z</time></trkpt><trkpt lat="45.87966540111101" lon="8.889081491579761"><ele>344.0</ele><time>2026-03-29T09:42:00Z</time></trkpt><trkpt lat="45.879709799340425" lon="8.889169911746231"><ele>344.66666666666663</ele><time>2026-03-29T09:42:01Z</time></trkpt><trkpt lat="45.87976138350787" lon="8.889224840197762"><ele>345.3333333333333</ele><time>2026-03-29T09:42:02Z</time></trkpt><trkpt lat="45.87983366383544" lon="8.88929357915398"><ele>346.0</ele><time>2026-03-29T09:42:03Z</time></trkpt><trkpt lat="45.8799223345925" lon="8.88934357510553"><ele>347.5</ele><time>2026-03-29T09:42:04Z</time></trkpt><trkpt lat="45.88001626826173" lon="8.88940946915887"><ele>349.0</ele><time>2026-03-29T09:42:05Z</time></trkpt><trkpt lat="45.880056637353135" lon="8.889626856170539"><ele>350.5</ele><time>2026-03-29T09:42:06Z</time></trkpt><trkpt lat="45.88020342958371" lon="8.889714189977235"><ele>352.0</ele><time>2026-03-29T09:42:08Z</time></trkpt><trkpt lat="45.88032850472987" lon="8.889641990270427"><ele>353.3333333333333</ele><time>2026-03-29T09:42:09Z</time></trkpt><trkpt lat="45.88044558914688" lon="8.889651140744295"><ele>354.6666666666667</ele><time>2026-03-29T09:42:10Z</time></trkpt><trkpt lat="45.88060038375714" lon="8.889651427729028"><ele>356.0</ele><time>2026-03-29T09:42:11Z</time></trkpt><trkpt lat="45.880360068200204" lon="8.88965648471895"><ele>356.0</ele><time>2026-03-29T09:42:12Z</time></trkpt><trkpt lat="45.880458281337305" lon="8.889644045006388"><ele>356.0</ele><time>2026-03-29T09:42:13Z</time></trkpt><trkpt lat="45.88055604068105" lon="8.889642500011767"><ele>356.0</ele><time>2026-03-29T09:42:14Z</time></trkpt><trkpt lat="45.88065624835893" lon="8.889641022427996"><ele>356.0</ele><time>2026-03-29T09:42:15Z</time></trkpt><trkpt lat="45.8807505253211" lon="8.889627273694577"><ele>356.0</ele><time>2026-03-29T09:42:16Z</time></trkpt><trkpt lat="45.88084416295817" lon="8.889606681570148"><ele>355.8</ele><time>2026-03-29T09:42:16.999Z</time></trkpt><trkpt lat="45.88094873252634" lon="8.889579110135632"><ele>355.6</ele><time>2026-03-29T09:42:17.999Z</time></trkpt><trkpt lat="45.881047060696055" lon="8.889526955550656"><ele>355.4</ele><time>2026-03-29T09:42:18.999Z</time></trkpt><trkpt lat="45.88115238362681" lon="8.889477978782464"><ele>355.2</ele><time>2026-03-29T09:42:19.999Z</time></trkpt><trkpt lat="45.88125978806376" lon="8.889429413809761"><ele>355.0</ele><time>2026-03-29T09:42:20.999Z</time></trkpt><trkpt lat="45.881367989800346" lon="8.889406965579985"><ele>355.0</ele><time>2026-03-29T09:42:21.999Z</time></trkpt><trkpt lat="45.88148625705399" lon="8.88940374548325"><ele>355.0</ele><time>2026-03-29T09:42:22.999Z</time></trkpt><trkpt lat="45.88160614486261" lon="8.88939893214697"><ele>355.0</ele><time>2026-03-29T09:42:23.999Z</time></trkpt><trkpt lat="45.88172189331275" lon="8.889392405492224"><ele>355.0</ele><time>2026-03-29T09:42:24.999Z</time></trkpt><trkpt lat="45.88183498095587" lon="8.88938186420148"><ele>354.3333333333333</ele><time>2026-03-29T09:42:25.999Z</time></trkpt><trkpt lat="45.88193933803247" lon="8.889372136787388"><ele>353.66666666666663</ele><time>2026-03-29T09:42:26.999Z</time></trkpt><trkpt lat="45.88204020992036" lon="8.889367519043468"><ele>353.0</ele><time>2026-03-29T09:42:27.999Z</time></trkpt><trkpt lat="45.88212767293329" lon="8.889350287709057"><ele>352.3333333333333</ele><time>2026-03-29T09:42:28.999Z</time></trkpt><trkpt lat="45.88220238713" lon="8.889378546072424"><ele>351.6666666666667</ele><time>2026-03-29T09:42:29.999Z</time></trkpt><trkpt lat="45.882268313015864" lon="8.889387223704164"><ele>351.0</ele><time>2026-03-29T09:42:30.999Z</time></trkpt><trkpt lat="45.88234545168121" lon="8.88940480663087"><ele>351.0</ele><time>2026-03-29T09:42:31.999Z</time></trkpt><trkpt lat="45.882426056474316" lon="8.889411708368112"><ele>351.0</ele><time>2026-03-29T09:42:33.001Z</time></trkpt><trkpt lat="45.88253772915897" lon="8.889392565000934"><ele>351.0</ele><time>2026-03-29T09:42:35.001Z</time></trkpt><trkpt lat="45.882617525389826" lon="8.889369799028447"><ele>351.0</ele><time>2026-03-29T09:42:37.001Z</time></trkpt><trkpt lat="45.88270644159348" lon="8.889347029970704"><ele>351.0</ele><time>2026-03-29T09:42:41Z</time></trkpt><trkpt lat="45.88283604484716" lon="8.88932564825013"><ele>351.6</ele><time>2026-03-29T09:42:43Z</time></trkpt><trkpt lat="45.882905509161944" lon="8.88931205009413"><ele>352.20000000000005</ele><time>2026-03-29T09:42:44Z</time></trkpt><trkpt lat="45.88298150993545" lon="8.889304964848993"><ele>352.79999999999995</ele><time>2026-03-29T09:42:45Z</time></trkpt><trkpt lat="45.8830553854884" lon="8.889324047519775"><ele>353.4</ele><time>2026-03-29T09:42:46Z</time></trkpt><trkpt lat="45.88318690400688" lon="8.889324303024694"><ele>354.0</ele><time>2026-03-29T09:42:47Z</time></trkpt><trkpt lat="45.883292113614964" lon="8.889334560632015"><ele>354.0</ele><time>2026-03-29T09:42:48Z</time></trkpt><trkpt lat="45.883383198091735" lon="8.889335040208989"><ele>354.0</ele><time>2026-03-29T09:42:49Z</time></trkpt><trkpt lat="45.88347648609009" lon="8.88933107579618"><ele>354.0</ele><time>2026-03-29T09:42:50Z</time></trkpt><trkpt lat="45.88357506962842" lon="8.889324420938435"><ele>354.0</ele><time>2026-03-29T09:42:51Z</time></trkpt><trkpt lat="45.88367619816568" lon="8.889317452309038"><ele>354.0</ele><time>2026-03-29T09:42:52Z</time></trkpt><trkpt lat="45.88378268133141" lon="8.889311113939527"><ele>354.2</ele><time>2026-03-29T09:42:53Z</time></trkpt><trkpt lat="45.88387797302358" lon="8.889314225573724"><ele>354.4</ele><time>2026-03-29T09:42:54Z</time></trkpt><trkpt lat="45.88397368690511" lon="8.88932422452714"><ele>354.6</ele><time>2026-03-29T09:42:55Z</time></trkpt><trkpt lat="45.88405429417725" lon="8.889376996974162"><ele>354.8</ele><time>2026-03-29T09:42:56Z</time></trkpt><trkpt lat="45.884144397448765" lon="8.88939867719478"><ele>355.0</ele><time>2026-03-29T09:42:57Z</time></trkpt><trkpt lat="45.8842296511959" lon="8.889412531097285"><ele>355.0</ele><time>2026-03-29T09:42:58Z</time></trkpt><trkpt lat="45.8843234532587" lon="8.88943048405452"><ele>355.0</ele><time>2026-03-29T09:42:59Z</time></trkpt><trkpt lat="45.88441515211146" lon="8.88945467928387"><ele>355.0</ele><time>2026-03-29T09:43:00Z</time></trkpt><trkpt lat="45.8844947321185" lon="8.889479214476289"><ele>355.0</ele><time>2026-03-29T09:43:01Z</time></trkpt><trkpt lat="45.88457435453198" lon="8.889485611705053"><ele>355.0</ele><time>2026-03-29T09:43:02Z</time></trkpt><trkpt lat="45.884650352270846" lon="8.889538182745186"><ele>355.0</ele><time>2026-03-29T09:43:03Z</time></trkpt><trkpt lat="45.884730068411585" lon="8.889581967931244"><ele>355.0</ele><time>2026-03-29T09:43:04Z</time></trkpt><trkpt lat="45.884825389952354" lon="8.889641509641619"><ele>355.0</ele><time>2026-03-29T09:43:05Z</time></trkpt><trkpt lat="45.88492199898077" lon="8.88970288502916"><ele>355.0</ele><time>2026-03-29T09:43:06Z</time></trkpt><trkpt lat="45.88501903552528" lon="8.889738702309604"><ele>355.0</ele><time>2026-03-29T09:43:07Z</time></trkpt><trkpt lat="45.88510481845182" lon="8.889819029602055"><ele>355.0</ele><time>2026-03-29T09:43:08Z</time></trkpt><trkpt lat="45.885191212582036" lon="8.889873915522523"><ele>354.66666666666663</ele><time>2026-03-29T09:43:09Z</time></trkpt><trkpt lat="45.88527099702242" lon="8.889926127743635"><ele>354.3333333333333</ele><time>2026-03-29T09:43:10Z</time></trkpt><trkpt lat="45.885342535082636" lon="8.889975596936535"><ele>354.0</ele><time>2026-03-29T09:43:11Z</time></trkpt><trkpt lat="45.88540403451152" lon="8.88999804892603"><ele>353.6666666666667</ele><time>2026-03-29T09:43:12Z</time></trkpt><trkpt lat="45.885455752127264" lon="8.890065697402937"><ele>353.33333333333337</ele><time>2026-03-29T09:43:13Z</time></trkpt><trkpt lat="45.88552106626062" lon="8.890127497971283"><ele>353.0</ele><time>2026-03-29T09:43:14Z</time></trkpt><trkpt lat="45.8855658848909" lon="8.890293498112147"><ele>353.0</ele><time>2026-03-29T09:43:15Z</time></trkpt><trkpt lat="45.885641036481374" lon="8.89036691398185"><ele>353.0</ele><time>2026-03-29T09:43:16Z</time></trkpt><trkpt lat="45.88571109761661" lon="8.890441792776477"><ele>353.0</ele><time>2026-03-29T09:43:17Z</time></trkpt><trkpt lat="45.88577800626809" lon="8.890533312018274"><ele>353.0</ele><time>2026-03-29T09:43:18Z</time></trkpt><trkpt lat="45.88587841986588" lon="8.890600960540972"><ele>353.0</ele><time>2026-03-29T09:43:19Z</time></trkpt><trkpt lat="45.88597579003568" lon="8.890656755299393"><ele>352.79999999999995</ele><time>2026-03-29T09:43:20Z</time></trkpt><trkpt lat="45.88606540698175" lon="8.890733105137311"><ele>352.6</ele><time>2026-03-29T09:43:21Z</time></trkpt><trkpt lat="45.886168374541235" lon="8.89079228405658"><ele>352.4</ele><time>2026-03-29T09:43:22Z</time></trkpt><trkpt lat="45.886264248192916" lon="8.890862571545743"><ele>352.20000000000005</ele><time>2026-03-29T09:43:23Z</time></trkpt><trkpt lat="45.8863595193234" lon="8.890924719177553"><ele>352.0</ele><time>2026-03-29T09:43:24Z</time></trkpt><trkpt lat="45.88645006322259" lon="8.890981531192832"><ele>352.0</ele><time>2026-03-29T09:43:25Z</time></trkpt><trkpt lat="45.88653145691387" lon="8.891027388420202"><ele>352.0</ele><time>2026-03-29T09:43:26Z</time></trkpt><trkpt lat="45.88660718369388" lon="8.891069250735734"><ele>352.0</ele><time>2026-03-29T09:43:27Z</time></trkpt><trkpt lat="45.886669623630375" lon="8.891108333945446"><ele>352.0</ele><time>2026-03-29T09:43:28Z</time></trkpt><trkpt lat="45.886789034385984" lon="8.891212637873865"><ele>352.0</ele><time>2026-03-29T09:43:30Z</time></trkpt><trkpt lat="45.886857049770974" lon="8.891315527809763"><ele>351.5</ele><time>2026-03-29T09:43:31Z</time></trkpt><trkpt lat="45.88695713370486" lon="8.89141197376878"><ele>351.0</ele><time>2026-03-29T09:43:32Z</time></trkpt><trkpt lat="45.88704450546374" lon="8.891522328816368"><ele>350.5</ele><time>2026-03-29T09:43:33Z</time></trkpt><trkpt lat="45.887153597994065" lon="8.891621360480379"><ele>350.0</ele><time>2026-03-29T09:43:34Z</time></trkpt><trkpt lat="45.88726539942756" lon="8.891730427046856"><ele>350.2</ele><time>2026-03-29T09:43:35Z</time></trkpt><trkpt lat="45.887365837714675" lon="8.89182728810569"><ele>350.4</ele><time>2026-03-29T09:43:36Z</time></trkpt><trkpt lat="45.88745529098165" lon="8.891910710969396"><ele>350.6</ele><time>2026-03-29T09:43:37Z</time></trkpt><trkpt lat="45.88753454591195" lon="8.891987947967316"><ele>350.8</ele><time>2026-03-29T09:43:38Z</time></trkpt><trkpt lat="45.887606507289966" lon="8.892054202339935"><ele>351.0</ele><time>2026-03-29T09:43:39Z</time></trkpt><trkpt lat="45.88769188942377" lon="8.892122359577634"><ele>350.0</ele><time>2026-03-29T09:43:40Z</time></trkpt><trkpt lat="45.88777369961589" lon="8.892196680487476"><ele>349.0</ele><time>2026-03-29T09:43:41Z</time></trkpt><trkpt lat="45.88785746094273" lon="8.892278893642725"><ele>348.0</ele><time>2026-03-29T09:43:42Z</time></trkpt><trkpt lat="45.88793925570224" lon="8.892352344195919"><ele>347.0</ele><time>2026-03-29T09:43:43Z</time></trkpt><trkpt lat="45.888020060402646" lon="8.892424210350212"><ele>346.0</ele><time>2026-03-29T09:43:44Z</time></trkpt><trkpt lat="45.88810051812544" lon="8.892467066460044"><ele>346.0</ele><time>2026-03-29T09:43:45Z</time></trkpt><trkpt lat="45.88818697749491" lon="8.892465857961641"><ele>346.0</ele><time>2026-03-29T09:43:46Z</time></trkpt><trkpt lat="45.888295039304644" lon="8.892427113846997"><ele>346.0</ele><time>2026-03-29T09:43:47Z</time></trkpt><trkpt lat="45.888394533088096" lon="8.892411068542547"><ele>346.0</ele><time>2026-03-29T09:43:48Z</time></trkpt><trkpt lat="45.88850452649949" lon="8.892456142549088"><ele>346.0</ele><time>2026-03-29T09:43:49Z</time></trkpt><trkpt lat="45.88859843175428" lon="8.892570559127075"><ele>345.5</ele><time>2026-03-29T09:43:50Z</time></trkpt><trkpt lat="45.88871081123375" lon="8.89267061993303"><ele>345.0</ele><time>2026-03-29T09:43:51Z</time></trkpt><trkpt lat="45.88883621554479" lon="8.892774582126455"><ele>344.5</ele><time>2026-03-29T09:43:52Z</time></trkpt><trkpt lat="45.88894609161525" lon="8.892851543903012"><ele>344.0</ele><time>2026-03-29T09:43:53Z</time></trkpt><trkpt lat="45.88904842983937" lon="8.892939901878417"><ele>344.0</ele><time>2026-03-29T09:43:54Z</time></trkpt><trkpt lat="45.88914682272135" lon="8.893022302664397"><ele>344.0</ele><time>2026-03-29T09:43:55Z</time></trkpt><trkpt lat="45.889228287456184" lon="8.89311582850905"><ele>344.0</ele><time>2026-03-29T09:43:56Z</time></trkpt><trkpt lat="45.889316067471306" lon="8.893238508602478"><ele>344.0</ele><time>2026-03-29T09:43:57Z</time></trkpt><trkpt lat="45.88939778285702" lon="8.893373258023766"><ele>344.0</ele><time>2026-03-29T09:43:58Z</time></trkpt><trkpt lat="45.88947355618036" lon="8.893516558280432"><ele>344.0</ele><time>2026-03-29T09:43:59Z</time></trkpt><trkpt lat="45.889559521925314" lon="8.89365120843831"><ele>344.0</ele><time>2026-03-29T09:44:00Z</time></trkpt><trkpt lat="45.88964182688669" lon="8.893778984210192"><ele>344.0</ele><time>2026-03-29T09:44:00.999Z</time></trkpt><trkpt lat="45.88972389537377" lon="8.893892756838744"><ele>344.0</ele><time>2026-03-29T09:44:01.999Z</time></trkpt><trkpt lat="45.88979467108118" lon="8.894007215344411"><ele>344.0</ele><time>2026-03-29T09:44:02.999Z</time></trkpt><trkpt lat="45.88986837457548" lon="8.894125100627585"><ele>344.0</ele><time>2026-03-29T09:44:03.999Z</time></trkpt><trkpt lat="45.88995573640725" lon="8.894226339588606"><ele>344.0</ele><time>2026-03-29T09:44:04.999Z</time></trkpt><trkpt lat="45.89001732262506" lon="8.894325673543085"><ele>344.0</ele><time>2026-03-29T09:44:05.999Z</time></trkpt><trkpt lat="45.89009750131342" lon="8.894391511716014"><ele>343.5</ele><time>2026-03-29T09:44:06.999Z</time></trkpt><trkpt lat="45.89017142513683" lon="8.894462186385883"><ele>343.0</ele><time>2026-03-29T09:44:07.999Z</time></trkpt><trkpt lat="45.89021956285918" lon="8.894543880294025"><ele>342.5</ele><time>2026-03-29T09:44:08.999Z</time></trkpt><trkpt lat="45.890261102299505" lon="8.894617699605472"><ele>342.0</ele><time>2026-03-29T09:44:09.999Z</time></trkpt><trkpt lat="45.89030869300642" lon="8.894711351454136"><ele>341.5</ele><time>2026-03-29T09:44:10.999Z</time></trkpt><trkpt lat="45.89036081336016" lon="8.894803573702658"><ele>341.0</ele><time>2026-03-29T09:44:11.999Z</time></trkpt><trkpt lat="45.89040941961417" lon="8.894905376283235"><ele>341.0</ele><time>2026-03-29T09:44:12.999Z</time></trkpt><trkpt lat="45.890432477172624" lon="8.89499435416926"><ele>341.0</ele><time>2026-03-29T09:44:13.999Z</time></trkpt><trkpt lat="45.89047321171798" lon="8.895155928254345"><ele>341.0</ele><time>2026-03-29T09:44:15.999Z</time></trkpt><trkpt lat="45.89048191895037" lon="8.895271854185285"><ele>341.0</ele><time>2026-03-29T09:44:16.999Z</time></trkpt><trkpt lat="45.890483147688045" lon="8.895389243107818"><ele>341.0</ele><time>2026-03-29T09:44:17.999Z</time></trkpt><trkpt lat="45.89049920928437" lon="8.895516071168341"><ele>341.0</ele><time>2026-03-29T09:44:18.999Z</time></trkpt><trkpt lat="45.890497263199244" lon="8.895651237106039"><ele>340.33333333333337</ele><time>2026-03-29T09:44:19.999Z</time></trkpt><trkpt lat="45.89051007202688" lon="8.895778853621811"><ele>339.6666666666667</ele><time>2026-03-29T09:44:20.999Z</time></trkpt><trkpt lat="45.89054138270485" lon="8.895894603903924"><ele>339.0</ele><time>2026-03-29T09:44:21.999Z</time></trkpt><trkpt lat="45.89056229646432" lon="8.896014028672704"><ele>338.3333333333333</ele><time>2026-03-29T09:44:22.999Z</time></trkpt><trkpt lat="45.89058500228222" lon="8.896148857888145"><ele>337.66666666666663</ele><time>2026-03-29T09:44:23.999Z</time></trkpt><trkpt lat="45.89062071652325" lon="8.896250949273636"><ele>337.0</ele><time>2026-03-29T09:44:24.999Z</time></trkpt><trkpt lat="45.89065202028897" lon="8.896354206055154"><ele>338.6</ele><time>2026-03-29T09:44:25.999Z</time></trkpt><trkpt lat="45.89070067609866" lon="8.896459853041303"><ele>340.20000000000005</ele><time>2026-03-29T09:44:26.999Z</time></trkpt><trkpt lat="45.89076786063263" lon="8.89654631763668"><ele>341.8</ele><time>2026-03-29T09:44:27.999Z</time></trkpt><trkpt lat="45.890852714128535" lon="8.896609473910416"><ele>343.4</ele><time>2026-03-29T09:44:28.999Z</time></trkpt><trkpt lat="45.89092749815567" lon="8.89665469968919"><ele>345.0</ele><time>2026-03-29T09:44:29.999Z</time></trkpt><trkpt lat="45.89107149983572" lon="8.896754029387468"><ele>346.0</ele><time>2026-03-29T09:44:31.999Z</time></trkpt><trkpt lat="45.89113260163465" lon="8.89681300499023"><ele>347.0</ele><time>2026-03-29T09:44:32.999Z</time></trkpt><trkpt lat="45.891181190440065" lon="8.896883999080115"><ele>348.0</ele><time>2026-03-29T09:44:33.999Z</time></trkpt><trkpt lat="45.891220392346646" lon="8.896985147192742"><ele>349.0</ele><time>2026-03-29T09:44:34.999Z</time></trkpt><trkpt lat="45.89126199272207" lon="8.897100930692112"><ele>350.0</ele><time>2026-03-29T09:44:35.999Z</time></trkpt><trkpt lat="45.891305845034545" lon="8.897214382662625"><ele>351.0</ele><time>2026-03-29T09:44:36.999Z</time></trkpt><trkpt lat="45.891354220286985" lon="8.897343043900788"><ele>351.0</ele><time>2026-03-29T09:44:37.999Z</time></trkpt><trkpt lat="45.89141096179758" lon="8.897493353280806"><ele>351.0</ele><time>2026-03-29T09:44:39Z</time></trkpt><trkpt lat="45.89146742041607" lon="8.897639853965215"><ele>351.0</ele><time>2026-03-29T09:44:40Z</time></trkpt><trkpt lat="45.89152876424599" lon="8.897799030966695"><ele>351.0</ele><time>2026-03-29T09:44:41Z</time></trkpt><trkpt lat="45.89159128527437" lon="8.897963283114448"><ele>353.25</ele><time>2026-03-29T09:44:42Z</time></trkpt><trkpt lat="45.89165456777211" lon="8.898131575613169"><ele>355.5</ele><time>2026-03-29T09:44:43Z</time></trkpt><trkpt lat="45.89172734969605" lon="8.898269016580981"><ele>357.75</ele><time>2026-03-29T09:44:44Z</time></trkpt><trkpt lat="45.89177826328156" lon="8.898429829802488"><ele>360.0</ele><time>2026-03-29T09:44:45Z</time></trkpt><trkpt lat="45.89184611632509" lon="8.898575846331706"><ele>360.0</ele><time>2026-03-29T09:44:46Z</time></trkpt><trkpt lat="45.89191456593067" lon="8.898713218499942"><ele>360.0</ele><time>2026-03-29T09:44:47Z</time></trkpt><trkpt lat="45.89198798954823" lon="8.89882064833469"><ele>360.0</ele><time>2026-03-29T09:44:48Z</time></trkpt><trkpt lat="45.89205379464481" lon="8.898926819879184"><ele>360.0</ele><time>2026-03-29T09:44:49Z</time></trkpt><trkpt lat="45.89211578228189" lon="8.899023971719906"><ele>360.0</ele><time>2026-03-29T09:44:50Z</time></trkpt><trkpt lat="45.89217817300674" lon="8.89909746735069"><ele>360.0</ele><time>2026-03-29T09:44:51Z</time></trkpt><trkpt lat="45.89226203620227" lon="8.899173836804794"><ele>360.0</ele><time>2026-03-29T09:44:53Z</time></trkpt><trkpt lat="45.89228534283648" lon="8.899264883343571"><ele>360.0</ele><time>2026-03-29T09:44:56Z</time></trkpt><trkpt lat="45.892191903187395" lon="8.899156231563971"><ele>360.0</ele><time>2026-03-29T09:48:55.999Z</time></trkpt><trkpt lat="45.892137610980335" lon="8.899057499630574"><ele>360.0</ele><time>2026-03-29T09:48:56.999Z</time></trkpt><trkpt lat="45.892097859412836" lon="8.898966906201577"><ele>360.0</ele><time>2026-03-29T09:48:57.999Z</time></trkpt><trkpt lat="45.89204832547189" lon="8.898889540442878"><ele>360.0</ele><time>2026-03-29T09:48:58.999Z</time></trkpt><trkpt lat="45.89199635269147" lon="8.89879859292233"><ele>360.0</ele><time>2026-03-29T09:48:59.999Z</time></trkpt><trkpt lat="45.891942023765715" lon="8.89870005730176"><ele>360.0</ele><time>2026-03-29T09:49:00.999Z</time></trkpt><trkpt lat="45.89188829037056" lon="8.898591111871335"><ele>360.0</ele><time>2026-03-29T09:49:01.999Z</time></trkpt><trkpt lat="45.89182434270267" lon="8.898472608262562"><ele>360.0</ele><time>2026-03-29T09:49:02.999Z</time></trkpt><trkpt lat="45.891759295216005" lon="8.898336773041306"><ele>361.2</ele><time>2026-03-29T09:49:03.999Z</time></trkpt><trkpt lat="45.8917118518856" lon="8.89822461869078"><ele>362.4</ele><time>2026-03-29T09:49:04.999Z</time></trkpt><trkpt lat="45.89165875189522" lon="8.89810384710684"><ele>363.6</ele><time>2026-03-29T09:49:05.999Z</time></trkpt><trkpt lat="45.89161149594645" lon="8.897963100616211"><ele>364.8</ele><time>2026-03-29T09:49:06.999Z</time></trkpt><trkpt lat="45.89156120251958" lon="8.897827754758152"><ele>366.0</ele><time>2026-03-29T09:49:07.999Z</time></trkpt><trkpt lat="45.8915103657052" lon="8.897692399782388"><ele>363.0</ele><time>2026-03-29T09:49:08.999Z</time></trkpt><trkpt lat="45.8914520585469" lon="8.897569133779285"><ele>360.0</ele><time>2026-03-29T09:49:09.999Z</time></trkpt><trkpt lat="45.89140247456747" lon="8.897431958378894"><ele>357.0</ele><time>2026-03-29T09:49:10.999Z</time></trkpt><trkpt lat="45.89134799886254" lon="8.897300894466524"><ele>354.0</ele><time>2026-03-29T09:49:11.999Z</time></trkpt><trkpt lat="45.891292942304865" lon="8.897178451532882"><ele>351.0</ele><time>2026-03-29T09:49:12.999Z</time></trkpt><trkpt lat="45.89125142492713" lon="8.897056008790505"><ele>351.0</ele><time>2026-03-29T09:49:13.999Z</time></trkpt><trkpt lat="45.89121994976948" lon="8.896956649143878"><ele>351.0</ele><time>2026-03-29T09:49:14.999Z</time></trkpt><trkpt lat="45.89111717631555" lon="8.89676066744094"><ele>351.0</ele><time>2026-03-29T09:49:16.999Z</time></trkpt><trkpt lat="45.891039303647744" lon="8.896696528097909"><ele>351.0</ele><time>2026-03-29T09:49:17.999Z</time></trkpt><trkpt lat="45.890950702391024" lon="8.896633875521601"><ele>351.0</ele><time>2026-03-29T09:49:18.999Z</time></trkpt><trkpt lat="45.89086036091709" lon="8.896575723284618"><ele>350.4</ele><time>2026-03-29T09:49:19.999Z</time></trkpt><trkpt lat="45.89077738351326" lon="8.896508142673135"><ele>349.8</ele><time>2026-03-29T09:49:20.999Z</time></trkpt><trkpt lat="45.89072241815649" lon="8.896423475080697"><ele>349.2</ele><time>2026-03-29T09:49:21.999Z</time></trkpt><trkpt lat="45.890684840434616" lon="8.89630607067359"><ele>348.59999999999997</ele><time>2026-03-29T09:49:22.999Z</time></trkpt><trkpt lat="45.89065635391655" lon="8.896172032732972"><ele>348.0</ele><time>2026-03-29T09:49:23.999Z</time></trkpt><trkpt lat="45.89060096620757" lon="8.896016001195393"><ele>345.79999999999995</ele><time>2026-03-29T09:49:24.999Z</time></trkpt><trkpt lat="45.89056968578078" lon="8.895861759099038"><ele>343.6</ele><time>2026-03-29T09:49:25.999Z</time></trkpt><trkpt lat="45.89056867105918" lon="8.895717405960204"><ele>341.4</ele><time>2026-03-29T09:49:26.999Z</time></trkpt><trkpt lat="45.890568623753026" lon="8.895580217283621"><ele>339.20000000000005</ele><time>2026-03-29T09:49:27.999Z</time></trkpt><trkpt lat="45.890526311565814" lon="8.895441065099842"><ele>337.0</ele><time>2026-03-29T09:49:28.999Z</time></trkpt><trkpt lat="45.890524099584205" lon="8.895330284422224"><ele>337.0</ele><time>2026-03-29T09:49:29.999Z</time></trkpt><trkpt lat="45.89050858724007" lon="8.895201593305831"><ele>337.0</ele><time>2026-03-29T09:49:30.999Z</time></trkpt><trkpt lat="45.89049673027278" lon="8.895089442325684"><ele>337.0</ele><time>2026-03-29T09:49:31.999Z</time></trkpt><trkpt lat="45.890464522249395" lon="8.894991783525112"><ele>337.0</ele><time>2026-03-29T09:49:32.999Z</time></trkpt><trkpt lat="45.89042479441998" lon="8.894888269211396"><ele>337.0</ele><time>2026-03-29T09:49:33.999Z</time></trkpt><trkpt lat="45.890375402573824" lon="8.894789139649935"><ele>337.0</ele><time>2026-03-29T09:49:34.999Z</time></trkpt><trkpt lat="45.890330925287984" lon="8.894698986112052"><ele>337.66666666666663</ele><time>2026-03-29T09:49:35.999Z</time></trkpt><trkpt lat="45.89028030898063" lon="8.894607980134468"><ele>338.3333333333333</ele><time>2026-03-29T09:49:36.999Z</time></trkpt><trkpt lat="45.89024315653888" lon="8.894532990601332"><ele>339.0</ele><time>2026-03-29T09:49:37.999Z</time></trkpt><trkpt lat="45.890187091251406" lon="8.894420592275935"><ele>339.6666666666667</ele><time>2026-03-29T09:49:39.999Z</time></trkpt><trkpt lat="45.89010901944696" lon="8.894361395547758"><ele>340.33333333333337</ele><time>2026-03-29T09:49:40.999Z</time></trkpt><trkpt lat="45.89003485707904" lon="8.894301182689354"><ele>341.0</ele><time>2026-03-29T09:49:41.999Z</time></trkpt><trkpt lat="45.889961921151894" lon="8.89421212830115"><ele>341.75</ele><time>2026-03-29T09:49:42.999Z</time></trkpt><trkpt lat="45.889879423034174" lon="8.894100792441638"><ele>342.5</ele><time>2026-03-29T09:49:43.999Z</time></trkpt><trkpt lat="45.88980066808016" lon="8.893961374966729"><ele>343.25</ele><time>2026-03-29T09:49:44.999Z</time></trkpt><trkpt lat="45.88972000003565" lon="8.893814550041373"><ele>344.0</ele><time>2026-03-29T09:49:45.999Z</time></trkpt><trkpt lat="45.8896395108804" lon="8.89367721214261"><ele>344.0</ele><time>2026-03-29T09:49:46.999Z</time></trkpt><trkpt lat="45.88954980866212" lon="8.893544187464034"><ele>344.0</ele><time>2026-03-29T09:49:47.999Z</time></trkpt><trkpt lat="45.889473578046484" lon="8.893428766427578"><ele>344.0</ele><time>2026-03-29T09:49:48.999Z</time></trkpt><trkpt lat="45.88939192259505" lon="8.893304455238004"><ele>344.0</ele><time>2026-03-29T09:49:49.999Z</time></trkpt><trkpt lat="45.88930628141529" lon="8.893178315425903"><ele>344.0</ele><time>2026-03-29T09:49:50.999Z</time></trkpt><trkpt lat="45.88922819727783" lon="8.89306018586133"><ele>344.0</ele><time>2026-03-29T09:49:51.999Z</time></trkpt><trkpt lat="45.88913307549659" lon="8.892948366750097"><ele>344.0</ele><time>2026-03-29T09:49:52.999Z</time></trkpt><trkpt lat="45.88901888361171" lon="8.892879614263721"><ele>344.0</ele><time>2026-03-29T09:49:53.999Z</time></trkpt><trkpt lat="45.88892030002876" lon="8.892792852219218"><ele>344.0</ele><time>2026-03-29T09:49:54.999Z</time></trkpt><trkpt lat="45.88881554389994" lon="8.892700221153836"><ele>344.0</ele><time>2026-03-29T09:49:55.999Z</time></trkpt><trkpt lat="45.88871142864712" lon="8.89262293020859"><ele>344.0</ele><time>2026-03-29T09:49:56.999Z</time></trkpt><trkpt lat="45.888606515056026" lon="8.892533572381959"><ele>344.0</ele><time>2026-03-29T09:49:57.999Z</time></trkpt><trkpt lat="45.888518335557606" lon="8.89246247847669"><ele>344.1666666666667</ele><time>2026-03-29T09:49:58.999Z</time></trkpt><trkpt lat="45.88844440823581" lon="8.8924090185588"><ele>344.33333333333337</ele><time>2026-03-29T09:49:59.999Z</time></trkpt><trkpt lat="45.888367065541225" lon="8.892380797215612"><ele>344.5</ele><time>2026-03-29T09:50:00.999Z</time></trkpt><trkpt lat="45.88828413493588" lon="8.892378689006918"><ele>344.6666666666667</ele><time>2026-03-29T09:50:01.999Z</time></trkpt><trkpt lat="45.888209243759896" lon="8.892410925799226"><ele>344.8333333333333</ele><time>2026-03-29T09:50:02.999Z</time></trkpt><trkpt lat="45.88811640158268" lon="8.892421983172403"><ele>345.0</ele><time>2026-03-29T09:50:03.999Z</time></trkpt><trkpt lat="45.88803247895766" lon="8.892387740125699"><ele>345.2</ele><time>2026-03-29T09:50:04.999Z</time></trkpt><trkpt lat="45.887947621944384" lon="8.892328785667834"><ele>345.4</ele><time>2026-03-29T09:50:05.999Z</time></trkpt><trkpt lat="45.887856364495086" lon="8.89223343392733"><ele>345.6</ele><time>2026-03-29T09:50:06.999Z</time></trkpt><trkpt lat="45.8877676951047" lon="8.892151082055237"><ele>345.8</ele><time>2026-03-29T09:50:07.999Z</time></trkpt><trkpt lat="45.8876576898247" lon="8.892050587786228"><ele>346.0</ele><time>2026-03-29T09:50:08.999Z</time></trkpt><trkpt lat="45.88758841217434" lon="8.892014199196742"><ele>347.0</ele><time>2026-03-29T09:50:09.999Z</time></trkpt><trkpt lat="45.88747777866413" lon="8.891912850818185"><ele>348.0</ele><time>2026-03-29T09:50:10.999Z</time></trkpt><trkpt lat="45.88736072804183" lon="8.891800870035864"><ele>349.0</ele><time>2026-03-29T09:50:11.999Z</time></trkpt><trkpt lat="45.88723789245232" lon="8.891691676239114"><ele>350.0</ele><time>2026-03-29T09:50:12.999Z</time></trkpt><trkpt lat="45.88713155030331" lon="8.89157341381447"><ele>350.0</ele><time>2026-03-29T09:50:13.999Z</time></trkpt><trkpt lat="45.887022069276966" lon="8.89146457306597"><ele>350.0</ele><time>2026-03-29T09:50:14.999Z</time></trkpt><trkpt lat="45.886928116548034" lon="8.891333787600475"><ele>350.0</ele><time>2026-03-29T09:50:15.999Z</time></trkpt><trkpt lat="45.88683332664653" lon="8.891244275557192"><ele>350.0</ele><time>2026-03-29T09:50:16.999Z</time></trkpt><trkpt lat="45.88676764631606" lon="8.891152157928108"><ele>349.8</ele><time>2026-03-29T09:50:18.999Z</time></trkpt><trkpt lat="45.88672073780326" lon="8.891071816016506"><ele>349.6</ele><time>2026-03-29T09:50:21.999Z</time></trkpt><trkpt lat="45.88658398800056" lon="8.8910148212098"><ele>349.4</ele><time>2026-03-29T09:50:23.999Z</time></trkpt><trkpt lat="45.88650093083346" lon="8.89097643454655"><ele>349.2</ele><time>2026-03-29T09:50:24.999Z</time></trkpt><trkpt lat="45.886415066373715" lon="8.890913929198458"><ele>349.0</ele><time>2026-03-29T09:50:25.999Z</time></trkpt><trkpt lat="45.886340685816656" lon="8.890839268267895"><ele>349.0</ele><time>2026-03-29T09:50:26.999Z</time></trkpt><trkpt lat="45.88625614740292" lon="8.890796612825623"><ele>349.0</ele><time>2026-03-29T09:50:27.999Z</time></trkpt><trkpt lat="45.886180485179985" lon="8.890751792974287"><ele>349.0</ele><time>2026-03-29T09:50:28.999Z</time></trkpt><trkpt lat="45.886102515533" lon="8.890706799621965"><ele>349.0</ele><time>2026-03-29T09:50:29.999Z</time></trkpt><trkpt lat="45.8860241101073" lon="8.89065627979368"><ele>349.0</ele><time>2026-03-29T09:50:30.999Z</time></trkpt><trkpt lat="45.88594476458299" lon="8.890599691970834"><ele>349.0</ele><time>2026-03-29T09:50:31.999Z</time></trkpt><trkpt lat="45.885863346443564" lon="8.890540204852876"><ele>349.79999999999995</ele><time>2026-03-29T09:50:32.999Z</time></trkpt><trkpt lat="45.88578120597604" lon="8.890482526976937"><ele>350.59999999999997</ele><time>2026-03-29T09:50:33.999Z</time></trkpt><trkpt lat="45.88569596360825" lon="8.890418235256972"><ele>351.4</ele><time>2026-03-29T09:50:34.999Z</time></trkpt><trkpt lat="45.88561761461991" lon="8.890329151937548"><ele>352.2</ele><time>2026-03-29T09:50:35.999Z</time></trkpt><trkpt lat="45.88555420687352" lon="8.890202382439385"><ele>353.0</ele><time>2026-03-29T09:50:36.999Z</time></trkpt><trkpt lat="45.8854845982276" lon="8.890121052249121"><ele>352.59999999999997</ele><time>2026-03-29T09:50:37.999Z</time></trkpt><trkpt lat="45.88551103308443" lon="8.889990302151025"><ele>352.2</ele><time>2026-03-29T09:50:38.999Z</time></trkpt><trkpt lat="45.885398971874025" lon="8.88994293736818"><ele>351.8</ele><time>2026-03-29T09:50:39.999Z</time></trkpt><trkpt lat="45.88532256713347" lon="8.88988496927441"><ele>351.4</ele><time>2026-03-29T09:50:40.999Z</time></trkpt><trkpt lat="45.88522288073819" lon="8.8898444722674"><ele>351.0</ele><time>2026-03-29T09:50:41.999Z</time></trkpt><trkpt lat="45.88512413501618" lon="8.889776185478375"><ele>351.8</ele><time>2026-03-29T09:50:42.999Z</time></trkpt><trkpt lat="45.885025737224986" lon="8.889699061732859"><ele>352.6</ele><time>2026-03-29T09:50:43.999Z</time></trkpt><trkpt lat="45.884917800125145" lon="8.889639304334963"><ele>353.4</ele><time>2026-03-29T09:50:44.999Z</time></trkpt><trkpt lat="45.88481702260838" lon="8.889585159084952"><ele>354.2</ele><time>2026-03-29T09:50:45.999Z</time></trkpt><trkpt lat="45.8847318046314" lon="8.889527810242887"><ele>355.0</ele><time>2026-03-29T09:50:46.999Z</time></trkpt><trkpt lat="45.88464999570358" lon="8.889486067572522"><ele>355.0</ele><time>2026-03-29T09:50:47.999Z</time></trkpt><trkpt lat="45.8845650337665" lon="8.889453247529618"><ele>355.0</ele><time>2026-03-29T09:50:48.999Z</time></trkpt><trkpt lat="45.88447543371752" lon="8.889434074701414"><ele>355.0</ele><time>2026-03-29T09:50:49.999Z</time></trkpt><trkpt lat="45.88438597785262" lon="8.889406083082422"><ele>355.0</ele><time>2026-03-29T09:50:50.999Z</time></trkpt><trkpt lat="45.8842992543453" lon="8.889379890479555"><ele>355.0</ele><time>2026-03-29T09:50:51.999Z</time></trkpt><trkpt lat="45.884208757528135" lon="8.889363774861419"><ele>355.0</ele><time>2026-03-29T09:50:52.999Z</time></trkpt><trkpt lat="45.88411550242743" lon="8.88934568477344"><ele>355.0</ele><time>2026-03-29T09:50:53.999Z</time></trkpt><trkpt lat="45.8840205949967" lon="8.88932549153369"><ele>355.0</ele><time>2026-03-29T09:50:54.999Z</time></trkpt><trkpt lat="45.88392273467214" lon="8.889291249649869"><ele>355.0</ele><time>2026-03-29T09:50:55.999Z</time></trkpt><trkpt lat="45.8838223465425" lon="8.889275570628309"><ele>355.0</ele><time>2026-03-29T09:50:57Z</time></trkpt><trkpt lat="45.883722579510106" lon="8.889288790920613"><ele>355.0</ele><time>2026-03-29T09:50:58Z</time></trkpt><trkpt lat="45.88362030032078" lon="8.889315962081612"><ele>355.0</ele><time>2026-03-29T09:50:59Z</time></trkpt><trkpt lat="45.8835211812007" lon="8.889321775333283"><ele>355.0</ele><time>2026-03-29T09:51:00Z</time></trkpt><trkpt lat="45.88341074780828" lon="8.889317482965524"><ele>355.0</ele><time>2026-03-29T09:51:01Z</time></trkpt><trkpt lat="45.88330099059024" lon="8.889303324635977"><ele>355.0</ele><time>2026-03-29T09:51:02Z</time></trkpt><trkpt lat="45.88318892634259" lon="8.88929015092319"><ele>354.75</ele><time>2026-03-29T09:51:03Z</time></trkpt><trkpt lat="45.883071560388295" lon="8.889277802003281"><ele>354.5</ele><time>2026-03-29T09:51:04Z</time></trkpt><trkpt lat="45.88294761858071" lon="8.889284057460413"><ele>354.25</ele><time>2026-03-29T09:51:05Z</time></trkpt><trkpt lat="45.882824075594506" lon="8.889287482540844"><ele>354.0</ele><time>2026-03-29T09:51:06Z</time></trkpt><trkpt lat="45.882705530810014" lon="8.889297098964951"><ele>354.0</ele><time>2026-03-29T09:51:07Z</time></trkpt><trkpt lat="45.88260071100541" lon="8.889322142760626"><ele>354.0</ele><time>2026-03-29T09:51:08Z</time></trkpt><trkpt lat="45.88250571871521" lon="8.889353464605897"><ele>354.0</ele><time>2026-03-29T09:51:09Z</time></trkpt><trkpt lat="45.88241822178603" lon="8.889368965232027"><ele>354.0</ele><time>2026-03-29T09:51:10Z</time></trkpt><trkpt lat="45.88233413044757" lon="8.88937531552382"><ele>354.0</ele><time>2026-03-29T09:51:11Z</time></trkpt><trkpt lat="45.88226967700451" lon="8.889339077229836"><ele>354.0</ele><time>2026-03-29T09:51:12Z</time></trkpt><trkpt lat="45.88215239323589" lon="8.889338701826603"><ele>354.25</ele><time>2026-03-29T09:51:13Z</time></trkpt><trkpt lat="45.88204030654621" lon="8.889335299750574"><ele>354.5</ele><time>2026-03-29T09:51:14Z</time></trkpt><trkpt lat="45.88193038758156" lon="8.889324922065818"><ele>354.75</ele><time>2026-03-29T09:51:15Z</time></trkpt><trkpt lat="45.88181737162634" lon="8.88935013914708"><ele>355.0</ele><time>2026-03-29T09:51:16Z</time></trkpt><trkpt lat="45.88169540726174" lon="8.889359745161315"><ele>355.0</ele><time>2026-03-29T09:51:17Z</time></trkpt><trkpt lat="45.88157317210258" lon="8.889357861189575"><ele>355.0</ele><time>2026-03-29T09:51:18Z</time></trkpt><trkpt lat="45.881455841227336" lon="8.889359680783066"><ele>355.0</ele><time>2026-03-29T09:51:19Z</time></trkpt><trkpt lat="45.88134565721491" lon="8.889371969823495"><ele>355.0</ele><time>2026-03-29T09:51:20Z</time></trkpt><trkpt lat="45.88124321501359" lon="8.88940268328282"><ele>355.0</ele><time>2026-03-29T09:51:21Z</time></trkpt><trkpt lat="45.881140032563266" lon="8.889454527133568"><ele>355.0</ele><time>2026-03-29T09:51:22Z</time></trkpt><trkpt lat="45.881028786734866" lon="8.889508577330735"><ele>355.0</ele><time>2026-03-29T09:51:23Z</time></trkpt><trkpt lat="45.88092128839555" lon="8.889546694602211"><ele>355.0</ele><time>2026-03-29T09:51:24Z</time></trkpt><trkpt lat="45.880821791760866" lon="8.889570089595324"><ele>355.0</ele><time>2026-03-29T09:51:25Z</time></trkpt><trkpt lat="45.880719725756364" lon="8.889592669930023"><ele>355.2</ele><time>2026-03-29T09:51:26Z</time></trkpt><trkpt lat="45.88061385145765" lon="8.889611343300192"><ele>355.4</ele><time>2026-03-29T09:51:27Z</time></trkpt><trkpt lat="45.88050720299107" lon="8.889622330946665"><ele>355.6</ele><time>2026-03-29T09:51:28Z</time></trkpt><trkpt lat="45.880401564174946" lon="8.889617797452193"><ele>355.8</ele><time>2026-03-29T09:51:29Z</time></trkpt><trkpt lat="45.880314914477026" lon="8.889612441418542"><ele>356.0</ele><time>2026-03-29T09:51:30Z</time></trkpt><trkpt lat="45.880230605694884" lon="8.889617718402546"><ele>356.0</ele><time>2026-03-29T09:51:31Z</time></trkpt><trkpt lat="45.88011827124752" lon="8.8896067700171"><ele>356.0</ele><time>2026-03-29T09:51:33Z</time></trkpt><trkpt lat="45.88005271193188" lon="8.889509079989896"><ele>356.0</ele><time>2026-03-29T09:51:35Z</time></trkpt><trkpt lat="45.87998848027954" lon="8.889332171460083"><ele>356.0</ele><time>2026-03-29T09:51:37Z</time></trkpt><trkpt lat="45.87991483899824" lon="8.889257152270822"><ele>356.0</ele><time>2026-03-29T09:51:38Z</time></trkpt><trkpt lat="45.879818499627866" lon="8.88923069674187"><ele>354.33333333333337</ele><time>2026-03-29T09:51:39Z</time></trkpt><trkpt lat="45.87973799529372" lon="8.889194042007386"><ele>352.6666666666667</ele><time>2026-03-29T09:51:40Z</time></trkpt><trkpt lat="45.87968998755815" lon="8.889092995433465"><ele>351.0</ele><time>2026-03-29T09:51:41Z</time></trkpt><trkpt lat="45.87964686696866" lon="8.888988164497558"><ele>349.3333333333333</ele><time>2026-03-29T09:51:42Z</time></trkpt><trkpt lat="45.87962497267005" lon="8.888853908459888"><ele>347.66666666666663</ele><time>2026-03-29T09:51:43Z</time></trkpt><trkpt lat="45.87961497315597" lon="8.888755895640019"><ele>346.0</ele><time>2026-03-29T09:51:44Z</time></trkpt><trkpt lat="45.87957254347265" lon="8.888665702374453"><ele>346.0</ele><time>2026-03-29T09:51:46Z</time></trkpt><trkpt lat="45.87955262605732" lon="8.888576075461433"><ele>346.0</ele><time>2026-03-29T09:51:51Z</time></trkpt><trkpt lat="45.8794188424117" lon="8.888614398517367"><ele>346.0</ele><time>2026-03-29T09:51:52Z</time></trkpt><trkpt lat="45.879325205881415" lon="8.888658233186575"><ele>346.0</ele><time>2026-03-29T09:51:53Z</time></trkpt><trkpt lat="45.87920060945953" lon="8.888703074928058"><ele>346.0</ele><time>2026-03-29T09:51:54Z</time></trkpt><trkpt lat="45.87903372989554" lon="8.888759551611168"><ele>344.66666666666663</ele><time>2026-03-29T09:51:55Z</time></trkpt><trkpt lat="45.87886008296996" lon="8.88882011326463"><ele>343.3333333333333</ele><time>2026-03-29T09:51:56Z</time></trkpt><trkpt lat="45.87868974630182" lon="8.888887473511742"><ele>342.0</ele><time>2026-03-29T09:51:57Z</time></trkpt><trkpt lat="45.87851154053735" lon="8.88891743203511"><ele>341.3333333333333</ele><time>2026-03-29T09:51:58Z</time></trkpt><trkpt lat="45.878295392052564" lon="8.888901203668947"><ele>340.66666666666663</ele><time>2026-03-29T09:51:59Z</time></trkpt><trkpt lat="45.878067142056395" lon="8.88888783015057"><ele>340.0</ele><time>2026-03-29T09:52:00Z</time></trkpt><trkpt lat="45.877816114245" lon="8.888901467015852"><ele>338.0</ele><time>2026-03-29T09:52:01Z</time></trkpt><trkpt lat="45.877572954919735" lon="8.888936946449519"><ele>336.0</ele><time>2026-03-29T09:52:02Z</time></trkpt><trkpt lat="45.877364405569" lon="8.888971513327736"><ele>336.0</ele><time>2026-03-29T09:52:03Z</time></trkpt><trkpt lat="45.87720153207454" lon="8.889004731701547"><ele>336.0</ele><time>2026-03-29T09:52:04Z</time></trkpt><trkpt lat="45.87706815257591" lon="8.889018380624691"><ele>336.0</ele><time>2026-03-29T09:52:05Z</time></trkpt><trkpt lat="45.876957956165455" lon="8.889045494929915"><ele>336.0</ele><time>2026-03-29T09:52:06Z</time></trkpt><trkpt lat="45.8768628752786" lon="8.889069116666823"><ele>336.0</ele><time>2026-03-29T09:52:07Z</time></trkpt><trkpt lat="45.87679188825302" lon="8.88910029864918"><ele>336.0</ele><time>2026-03-29T09:52:08Z</time></trkpt><trkpt lat="45.87666886901129" lon="8.889113837176161"><ele>336.0</ele><time>2026-03-29T09:52:10Z</time></trkpt><trkpt lat="45.87658798924121" lon="8.889139370746214"><ele>336.0</ele><time>2026-03-29T09:52:10.999Z</time></trkpt><trkpt lat="45.87649210317855" lon="8.889128784582194"><ele>336.0</ele><time>2026-03-29T09:52:11.999Z</time></trkpt><trkpt lat="45.876388993003424" lon="8.88911191782782"><ele>336.25</ele><time>2026-03-29T09:52:12.999Z</time></trkpt><trkpt lat="45.87629071388975" lon="8.889099889592254"><ele>336.5</ele><time>2026-03-29T09:52:13.999Z</time></trkpt><trkpt lat="45.8761788747819" lon="8.88910387899891"><ele>336.75</ele><time>2026-03-29T09:52:14.999Z</time></trkpt><trkpt lat="45.87605939935995" lon="8.889134099125142"><ele>337.0</ele><time>2026-03-29T09:52:15.999Z</time></trkpt><trkpt lat="45.87592342647802" lon="8.889188490795913"><ele>336.25</ele><time>2026-03-29T09:52:16.999Z</time></trkpt><trkpt lat="45.8757885043233" lon="8.889253248319784"><ele>335.5</ele><time>2026-03-29T09:52:17.999Z</time></trkpt><trkpt lat="45.875672536432205" lon="8.889314119049217"><ele>334.75</ele><time>2026-03-29T09:52:18.999Z</time></trkpt><trkpt lat="45.87557456477568" lon="8.88938628547037"><ele>334.0</ele><time>2026-03-29T09:52:19.999Z</time></trkpt><trkpt lat="45.87548318642233" lon="8.889465796350885"><ele>335.0</ele><time>2026-03-29T09:52:20.999Z</time></trkpt><trkpt lat="45.87539665284695" lon="8.889533397956269"><ele>336.0</ele><time>2026-03-29T09:52:21.999Z</time></trkpt><trkpt lat="45.87530198467804" lon="8.889576798505889"><ele>337.0</ele><time>2026-03-29T09:52:22.999Z</time></trkpt><trkpt lat="45.875197830544714" lon="8.889605865120178"><ele>338.0</ele><time>2026-03-29T09:52:23.999Z</time></trkpt><trkpt lat="45.87508165697155" lon="8.889594374417605"><ele>339.0</ele><time>2026-03-29T09:52:24.999Z</time></trkpt><trkpt lat="45.87496458724561" lon="8.889546600716312"><ele>339.0</ele><time>2026-03-29T09:52:25.999Z</time></trkpt><trkpt lat="45.874849823850106" lon="8.889453878235487"><ele>339.0</ele><time>2026-03-29T09:52:26.999Z</time></trkpt><trkpt lat="45.87473621912492" lon="8.889363874721663"><ele>339.0</ele><time>2026-03-29T09:52:27.999Z</time></trkpt><trkpt lat="45.87460415355119" lon="8.889320817282893"><ele>339.0</ele><time>2026-03-29T09:52:28.999Z</time></trkpt><trkpt lat="45.87444808639955" lon="8.889319768142734"><ele>339.0</ele><time>2026-03-29T09:52:29.999Z</time></trkpt><trkpt lat="45.874275217060756" lon="8.889330893601901"><ele>339.0</ele><time>2026-03-29T09:52:30.999Z</time></trkpt><trkpt lat="45.87410369095643" lon="8.889351378530472"><ele>339.0</ele><time>2026-03-29T09:52:31.999Z</time></trkpt><trkpt lat="45.87392984982183" lon="8.889390697545785"><ele>338.3333333333333</ele><time>2026-03-29T09:52:32.999Z</time></trkpt><trkpt lat="45.87376206339626" lon="8.889429668160234"><ele>337.66666666666663</ele><time>2026-03-29T09:52:33.999Z</time></trkpt><trkpt lat="45.87361730753239" lon="8.889474419603074"><ele>337.0</ele><time>2026-03-29T09:52:34.999Z</time></trkpt><trkpt lat="45.87347733701241" lon="8.889534481906537"><ele>336.25</ele><time>2026-03-29T09:52:35.999Z</time></trkpt><trkpt lat="45.87334031549687" lon="8.88960369619161"><ele>335.5</ele><time>2026-03-29T09:52:36.999Z</time></trkpt><trkpt lat="45.873227776280125" lon="8.889645371388125"><ele>334.75</ele><time>2026-03-29T09:52:37.999Z</time></trkpt><trkpt lat="45.87309503255703" lon="8.8897140809211"><ele>334.0</ele><time>2026-03-29T09:52:38.999Z</time></trkpt><trkpt lat="45.872992536058064" lon="8.88975853560288"><ele>334.0</ele><time>2026-03-29T09:52:39.999Z</time></trkpt><trkpt lat="45.8728913661549" lon="8.889809849612597"><ele>334.0</ele><time>2026-03-29T09:52:40.999Z</time></trkpt><trkpt lat="45.87279233604771" lon="8.889848144986345"><ele>334.0</ele><time>2026-03-29T09:52:41.999Z</time></trkpt><trkpt lat="45.872709188441846" lon="8.889879998021634"><ele>334.0</ele><time>2026-03-29T09:52:42.999Z</time></trkpt><trkpt lat="45.87259613956101" lon="8.889879009194566"><ele>334.0</ele><time>2026-03-29T09:52:44.999Z</time></trkpt><trkpt lat="45.87253146811355" lon="8.889746272837652"><ele>334.6</ele><time>2026-03-29T09:52:46.999Z</time></trkpt><trkpt lat="45.87253434477629" lon="8.889616790339927"><ele>335.2</ele><time>2026-03-29T09:52:47.999Z</time></trkpt><trkpt lat="45.87254589919688" lon="8.889467330435103"><ele>335.8</ele><time>2026-03-29T09:52:48.999Z</time></trkpt><trkpt lat="45.87256202246324" lon="8.88931747880899"><ele>336.40000000000003</ele><time>2026-03-29T09:52:49.999Z</time></trkpt><trkpt lat="45.87255794965403" lon="8.889181029930157"><ele>337.0</ele><time>2026-03-29T09:52:50.999Z</time></trkpt><trkpt lat="45.87251875474433" lon="8.889071756424624"><ele>337.0</ele><time>2026-03-29T09:52:51.999Z</time></trkpt><trkpt lat="45.87246567954027" lon="8.888962204788871"><ele>337.0</ele><time>2026-03-29T09:52:52.999Z</time></trkpt><trkpt lat="45.872346716561864" lon="8.888912931266251"><ele>337.0</ele><time>2026-03-29T09:52:53.999Z</time></trkpt><trkpt lat="45.872227525387835" lon="8.88887261292488"><ele>337.0</ele><time>2026-03-29T09:52:54.999Z</time></trkpt><trkpt lat="45.87211942846519" lon="8.888820937187802"><ele>337.0</ele><time>2026-03-29T09:52:55.999Z</time></trkpt><trkpt lat="45.872010567046445" lon="8.8887728609089"><ele>337.0</ele><time>2026-03-29T09:52:56.999Z</time></trkpt><trkpt lat="45.87190548905597" lon="8.88871940460406"><ele>337.0</ele><time>2026-03-29T09:52:57.999Z</time></trkpt><trkpt lat="45.871805484727595" lon="8.88867666735535"><ele>337.0</ele><time>2026-03-29T09:52:58.999Z</time></trkpt><trkpt lat="45.87170245072182" lon="8.888634024468418"><ele>337.0</ele><time>2026-03-29T09:52:59.999Z</time></trkpt><trkpt lat="45.87160045967917" lon="8.888593767041938"><ele>336.8</ele><time>2026-03-29T09:53:00.999Z</time></trkpt><trkpt lat="45.87150257096931" lon="8.888561795490741"><ele>336.6</ele><time>2026-03-29T09:53:01.999Z</time></trkpt><trkpt lat="45.8714026789873" lon="8.888533332743545"><ele>336.40000000000003</ele><time>2026-03-29T09:53:03Z</time></trkpt><trkpt lat="45.87131043123031" lon="8.88850179085725"><ele>336.20000000000005</ele><time>2026-03-29T09:53:04Z</time></trkpt><trkpt lat="45.87123005681498" lon="8.888443665207317"><ele>336.0</ele><time>2026-03-29T09:53:05Z</time></trkpt><trkpt lat="45.87113225343777" lon="8.888437964907531"><ele>336.8</ele><time>2026-03-29T09:53:06Z</time></trkpt><trkpt lat="45.87104404796966" lon="8.88842223227196"><ele>337.6</ele><time>2026-03-29T09:53:07Z</time></trkpt><trkpt lat="45.87096004581193" lon="8.888397777037705"><ele>338.4</ele><time>2026-03-29T09:53:08Z</time></trkpt><trkpt lat="45.870887966417314" lon="8.888353994033377"><ele>339.2</ele><time>2026-03-29T09:53:11Z</time></trkpt><trkpt lat="45.870787137680225" lon="8.888308690678857"><ele>340.0</ele><time>2026-03-29T09:53:14Z</time></trkpt><trkpt lat="45.870678128434484" lon="8.888276871746061"><ele>340.2</ele><time>2026-03-29T09:53:16Z</time></trkpt><trkpt lat="45.87057298199681" lon="8.888265193887504"><ele>340.4</ele><time>2026-03-29T09:53:18Z</time></trkpt><trkpt lat="45.870507399568424" lon="8.888283730973788"><ele>340.6</ele><time>2026-03-29T09:53:19Z</time></trkpt><trkpt lat="45.87038343116128" lon="8.888283934920882"><ele>340.8</ele><time>2026-03-29T09:53:21Z</time></trkpt><trkpt lat="45.87030758552173" lon="8.888290517761824"><ele>341.0</ele><time>2026-03-29T09:53:22Z</time></trkpt><trkpt lat="45.87021749716679" lon="8.888286463354271"><ele>341.0</ele><time>2026-03-29T09:53:24Z</time></trkpt><trkpt lat="45.87016745784712" lon="8.888221235643122"><ele>341.0</ele><time>2026-03-29T09:53:26Z</time></trkpt><trkpt lat="45.87009666942369" lon="8.888202695035355"><ele>341.0</ele><time>2026-03-29T09:53:27Z</time></trkpt><trkpt lat="45.86999196913014" lon="8.888221340865226"><ele>341.0</ele><time>2026-03-29T09:53:28Z</time></trkpt><trkpt lat="45.86986633953925" lon="8.888249262168728"><ele>341.0</ele><time>2026-03-29T09:53:29Z</time></trkpt><trkpt lat="45.86970339693294" lon="8.888248768182727"><ele>341.25</ele><time>2026-03-29T09:53:30Z</time></trkpt><trkpt lat="45.869553034826104" lon="8.88823270949699"><ele>341.5</ele><time>2026-03-29T09:53:31Z</time></trkpt><trkpt lat="45.86940386809864" lon="8.888234797402589"><ele>341.75</ele><time>2026-03-29T09:53:32Z</time></trkpt><trkpt lat="45.869256528489935" lon="8.88826918098991"><ele>342.0</ele><time>2026-03-29T09:53:33Z</time></trkpt><trkpt lat="45.86909440777806" lon="8.888344393417512"><ele>341.0</ele><time>2026-03-29T09:53:34Z</time></trkpt><trkpt lat="45.86892005623354" lon="8.888453195418167"><ele>340.0</ele><time>2026-03-29T09:53:35Z</time></trkpt><trkpt lat="45.86875691670174" lon="8.88857648786115"><ele>339.0</ele><time>2026-03-29T09:53:36Z</time></trkpt><trkpt lat="45.868618926648246" lon="8.888689417459515"><ele>339.0</ele><time>2026-03-29T09:53:37Z</time></trkpt><trkpt lat="45.86846591854735" lon="8.888805180310708"><ele>339.0</ele><time>2026-03-29T09:53:38Z</time></trkpt><trkpt lat="45.86837183067949" lon="8.888871781158628"><ele>339.0</ele><time>2026-03-29T09:53:39Z</time></trkpt><trkpt lat="45.86827261750544" lon="8.888967872444631"><ele>339.0</ele><time>2026-03-29T09:53:40Z</time></trkpt><trkpt lat="45.86825312955725" lon="8.889083869342558"><ele>339.25</ele><time>2026-03-29T09:53:41Z</time></trkpt><trkpt lat="45.86820533221553" lon="8.889219620641134"><ele>339.5</ele><time>2026-03-29T09:53:42Z</time></trkpt><trkpt lat="45.86817273712404" lon="8.88937686416717"><ele>339.75</ele><time>2026-03-29T09:53:43Z</time></trkpt><trkpt lat="45.86816003552744" lon="8.889563910850729"><ele>340.0</ele><time>2026-03-29T09:53:44Z</time></trkpt><trkpt lat="45.86817288633662" lon="8.88977099362069"><ele>339.3333333333333</ele><time>2026-03-29T09:53:45Z</time></trkpt><trkpt lat="45.8681904358678" lon="8.88998092760701"><ele>338.6666666666667</ele><time>2026-03-29T09:53:46Z</time></trkpt><trkpt lat="45.868206158475395" lon="8.89020618876338"><ele>338.0</ele><time>2026-03-29T09:53:47Z</time></trkpt><trkpt lat="45.86819775772786" lon="8.89043455764663"><ele>338.0</ele><time>2026-03-29T09:53:48Z</time></trkpt><trkpt lat="45.86817337672653" lon="8.890667622821802"><ele>338.0</ele><time>2026-03-29T09:53:49Z</time></trkpt><trkpt lat="45.868145899140906" lon="8.890893164051695"><ele>338.0</ele><time>2026-03-29T09:53:50Z</time></trkpt><trkpt lat="45.86811504770137" lon="8.89113527633497"><ele>339.0</ele><time>2026-03-29T09:53:51Z</time></trkpt><trkpt lat="45.868100963270095" lon="8.8913710728494"><ele>340.0</ele><time>2026-03-29T09:53:52Z</time></trkpt><trkpt lat="45.86806787518897" lon="8.891588275207862"><ele>341.0</ele><time>2026-03-29T09:53:53Z</time></trkpt><trkpt lat="45.86804178857756" lon="8.891775709307192"><ele>342.20000000000005</ele><time>2026-03-29T09:53:54Z</time></trkpt><trkpt lat="45.86802715809778" lon="8.891936619284476"><ele>343.40000000000003</ele><time>2026-03-29T09:53:55Z</time></trkpt><trkpt lat="45.86800322006903" lon="8.892074352679296"><ele>344.6</ele><time>2026-03-29T09:53:56Z</time></trkpt><trkpt lat="45.86797777170987" lon="8.892208797624333"><ele>345.8</ele><time>2026-03-29T09:53:57Z</time></trkpt><trkpt lat="45.86794209856145" lon="8.892323560931736"><ele>347.0</ele><time>2026-03-29T09:53:58Z</time></trkpt><trkpt lat="45.86787750424665" lon="8.892394786563674"><ele>347.0</ele><time>2026-03-29T09:53:59Z</time></trkpt><trkpt lat="45.867803036743595" lon="8.892430852512112"><ele>347.0</ele><time>2026-03-29T09:54:00Z</time></trkpt><trkpt lat="45.8676918245371" lon="8.892411190339246"><ele>347.0</ele><time>2026-03-29T09:54:01Z</time></trkpt><trkpt lat="45.86758195629647" lon="8.892334258305903"><ele>347.0</ele><time>2026-03-29T09:54:02Z</time></trkpt><trkpt lat="45.867429695198986" lon="8.892274108968014"><ele>349.20000000000005</ele><time>2026-03-29T09:54:03Z</time></trkpt><trkpt lat="45.867288487724856" lon="8.892203835035641"><ele>351.4</ele><time>2026-03-29T09:54:04Z</time></trkpt><trkpt lat="45.867169249682284" lon="8.892167779477024"><ele>353.6</ele><time>2026-03-29T09:54:05Z</time></trkpt><trkpt lat="45.86708462275518" lon="8.892151439646199"><ele>355.79999999999995</ele><time>2026-03-29T09:54:06Z</time></trkpt><trkpt lat="45.86701910861649" lon="8.89218635003324"><ele>358.0</ele><time>2026-03-29T09:54:07Z</time></trkpt><trkpt lat="45.866981705481585" lon="8.892262512964244"><ele>358.0</ele><time>2026-03-29T09:54:08Z</time></trkpt><trkpt lat="45.86697942759073" lon="8.892370176276842"><ele>358.0</ele><time>2026-03-29T09:54:09Z</time></trkpt><trkpt lat="45.86702304111897" lon="8.892458788864735"><ele>358.0</ele><time>2026-03-29T09:54:10Z</time></trkpt><trkpt lat="45.867095773105476" lon="8.892515754361291"><ele>358.0</ele><time>2026-03-29T09:54:11Z</time></trkpt><trkpt lat="45.86720182934068" lon="8.892541161153037"><ele>358.0</ele><time>2026-03-29T09:54:12Z</time></trkpt><trkpt lat="45.8673367455564" lon="8.892568296026036"><ele>361.2</ele><time>2026-03-29T09:54:13Z</time></trkpt><trkpt lat="45.86746068332212" lon="8.892639764325136"><ele>364.4</ele><time>2026-03-29T09:54:14Z</time></trkpt><trkpt lat="45.86754227870523" lon="8.892674022167036"><ele>367.59999999999997</ele><time>2026-03-29T09:54:15Z</time></trkpt><trkpt lat="45.867625949311176" lon="8.892697332514043"><ele>370.79999999999995</ele><time>2026-03-29T09:54:17Z</time></trkpt><trkpt lat="45.86756410667711" lon="8.892791045194064"><ele>374.0</ele><time>2026-03-29T09:54:19Z</time></trkpt><trkpt lat="45.86750037797625" lon="8.892798173251503"><ele>376.25</ele><time>2026-03-29T09:54:20Z</time></trkpt><trkpt lat="45.867402090523875" lon="8.892760273419663"><ele>378.5</ele><time>2026-03-29T09:54:21Z</time></trkpt><trkpt lat="45.867289999759485" lon="8.892709644396161"><ele>380.75</ele><time>2026-03-29T09:54:22Z</time></trkpt><trkpt lat="45.867149250861104" lon="8.892655907628304"><ele>383.0</ele><time>2026-03-29T09:54:23Z</time></trkpt><trkpt lat="45.86698096241159" lon="8.892614065684127"><ele>379.6666666666667</ele><time>2026-03-29T09:54:24Z</time></trkpt><trkpt lat="45.866792112053474" lon="8.892572162046319"><ele>376.3333333333333</ele><time>2026-03-29T09:54:25Z</time></trkpt><trkpt lat="45.86658511884315" lon="8.892500096005746"><ele>373.0</ele><time>2026-03-29T09:54:26Z</time></trkpt><trkpt lat="45.86636492978879" lon="8.892421289321096"><ele>373.0</ele><time>2026-03-29T09:54:27Z</time></trkpt><trkpt lat="45.866136913337606" lon="8.892336303657096"><ele>373.0</ele><time>2026-03-29T09:54:27.999Z</time></trkpt><trkpt lat="45.865908298717756" lon="8.892257698505793"><ele>376.3333333333333</ele><time>2026-03-29T09:54:28.999Z</time></trkpt><trkpt lat="45.865708545965894" lon="8.892190409308062"><ele>379.6666666666667</ele><time>2026-03-29T09:54:29.999Z</time></trkpt><trkpt lat="45.86551410978828" lon="8.892136676699154"><ele>383.0</ele><time>2026-03-29T09:54:30.999Z</time></trkpt><trkpt lat="45.8653560725897" lon="8.892098729567559"><ele>383.0</ele><time>2026-03-29T09:54:31.999Z</time></trkpt><trkpt lat="45.865222491704586" lon="8.892072158863986"><ele>383.0</ele><time>2026-03-29T09:54:32.999Z</time></trkpt><trkpt lat="45.86511514386004" lon="8.892058826798205"><ele>383.0</ele><time>2026-03-29T09:54:33.999Z</time></trkpt><trkpt lat="45.865036081750596" lon="8.892056143546009"><ele>383.0</ele><time>2026-03-29T09:54:34.999Z</time></trkpt><trkpt lat="45.86497551962541" lon="8.8920970340837"><ele>383.0</ele><time>2026-03-29T09:54:35.999Z</time></trkpt><trkpt lat="45.86492452902812" lon="8.892165717224398"><ele>383.0</ele><time>2026-03-29T09:54:36.999Z</time></trkpt><trkpt lat="45.86491833770041" lon="8.8922734016118"><ele>383.0</ele><time>2026-03-29T09:54:37.999Z</time></trkpt><trkpt lat="45.86496344903528" lon="8.89237183681513"><ele>383.0</ele><time>2026-03-29T09:54:38.999Z</time></trkpt><trkpt lat="45.86503266322427" lon="8.892460291653128"><ele>383.0</ele><time>2026-03-29T09:54:39.999Z</time></trkpt><trkpt lat="45.865170802142984" lon="8.892543138305866"><ele>383.0</ele><time>2026-03-29T09:54:40.999Z</time></trkpt><trkpt lat="45.86529625687637" lon="8.892659804866998"><ele>385.5</ele><time>2026-03-29T09:54:41.999Z</time></trkpt><trkpt lat="45.865398183676234" lon="8.892766188198312"><ele>388.0</ele><time>2026-03-29T09:54:42.999Z</time></trkpt><trkpt lat="45.86546033314005" lon="8.892871175389104"><ele>390.5</ele><time>2026-03-29T09:54:43.999Z</time></trkpt><trkpt lat="45.865515086367836" lon="8.892998573756165"><ele>393.0</ele><time>2026-03-29T09:54:44.999Z</time></trkpt><trkpt lat="45.865535504671236" lon="8.893183924928"><ele>393.0</ele><time>2026-03-29T09:54:45.999Z</time></trkpt><trkpt lat="45.86551741790738" lon="8.893418542384769"><ele>393.0</ele><time>2026-03-29T09:54:46.999Z</time></trkpt><trkpt lat="45.86552361147822" lon="8.893682135513444"><ele>393.0</ele><time>2026-03-29T09:54:47.999Z</time></trkpt><trkpt lat="45.865483455491365" lon="8.893915559715483"><ele>395.5</ele><time>2026-03-29T09:54:48.999Z</time></trkpt><trkpt lat="45.86544884647155" lon="8.894135957042282"><ele>398.0</ele><time>2026-03-29T09:54:49.999Z</time></trkpt><trkpt lat="45.86542036295214" lon="8.894306374867396"><ele>400.5</ele><time>2026-03-29T09:54:50.999Z</time></trkpt><trkpt lat="45.86539584921495" lon="8.894390873725943"><ele>403.0</ele><time>2026-03-29T09:54:51.999Z</time></trkpt><trkpt lat="45.86529405024074" lon="8.894460078739971"><ele>403.2</ele><time>2026-03-29T09:54:53.999Z</time></trkpt><trkpt lat="45.8652257293682" lon="8.894470656581221"><ele>403.4</ele><time>2026-03-29T09:54:54.999Z</time></trkpt><trkpt lat="45.865153193931036" lon="8.894525676128115"><ele>403.59999999999997</ele><time>2026-03-29T09:54:55.999Z</time></trkpt><trkpt lat="45.86509713481393" lon="8.894652855374822"><ele>403.79999999999995</ele><time>2026-03-29T09:54:56.999Z</time></trkpt><trkpt lat="45.86504290891335" lon="8.89481362692741"><ele>404.0</ele><time>2026-03-29T09:54:57.999Z</time></trkpt><trkpt lat="45.86497888256315" lon="8.894981196524938"><ele>402.3333333333333</ele><time>2026-03-29T09:54:58.999Z</time></trkpt><trkpt lat="45.864896684184494" lon="8.895162474304353"><ele>400.66666666666663</ele><time>2026-03-29T09:54:59.999Z</time></trkpt><trkpt lat="45.864798969011" lon="8.895364857373888"><ele>399.0</ele><time>2026-03-29T09:55:00.999Z</time></trkpt><trkpt lat="45.86468549094733" lon="8.895571465125942"><ele>399.0</ele><time>2026-03-29T09:55:01.999Z</time></trkpt><trkpt lat="45.86455725440846" lon="8.895795870484159"><ele>399.0</ele><time>2026-03-29T09:55:02.999Z</time></trkpt><trkpt lat="45.86443073308285" lon="8.896025450416062"><ele>399.0</ele><time>2026-03-29T09:55:03.999Z</time></trkpt><trkpt lat="45.86431967688651" lon="8.89624315060092"><ele>395.66666666666663</ele><time>2026-03-29T09:55:04.999Z</time></trkpt><trkpt lat="45.86418382971061" lon="8.896401916057274"><ele>392.3333333333333</ele><time>2026-03-29T09:55:05.999Z</time></trkpt><trkpt lat="45.864035332216424" lon="8.896532085535897"><ele>389.0</ele><time>2026-03-29T09:55:06.999Z</time></trkpt><trkpt lat="45.86386489697876" lon="8.896660067210828"><ele>389.3333333333333</ele><time>2026-03-29T09:55:07.999Z</time></trkpt><trkpt lat="45.86371209778409" lon="8.896782576384402"><ele>389.66666666666663</ele><time>2026-03-29T09:55:09Z</time></trkpt><trkpt lat="45.863559291945975" lon="8.896901658805175"><ele>390.0</ele><time>2026-03-29T09:55:10Z</time></trkpt><trkpt lat="45.86342419904664" lon="8.89701358642775"><ele>387.0</ele><time>2026-03-29T09:55:11Z</time></trkpt><trkpt lat="45.86328939863052" lon="8.897121429951474"><ele>384.0</ele><time>2026-03-29T09:55:12Z</time></trkpt><trkpt lat="45.863152075199885" lon="8.897248097304129"><ele>381.0</ele><time>2026-03-29T09:55:13Z</time></trkpt><trkpt lat="45.86301618628429" lon="8.897370102643716"><ele>381.0</ele><time>2026-03-29T09:55:14Z</time></trkpt><trkpt lat="45.86288634142658" lon="8.897484907499967"><ele>381.0</ele><time>2026-03-29T09:55:15Z</time></trkpt><trkpt lat="45.862764415226046" lon="8.89759340063957"><ele>381.0</ele><time>2026-03-29T09:55:16Z</time></trkpt><trkpt lat="45.86263560081452" lon="8.897712283859557"><ele>381.0</ele><time>2026-03-29T09:55:17Z</time></trkpt><trkpt lat="45.86250561371805" lon="8.897845064494541"><ele>382.0</ele><time>2026-03-29T09:55:18Z</time></trkpt><trkpt lat="45.862381471596485" lon="8.897993818626295"><ele>383.0</ele><time>2026-03-29T09:55:19Z</time></trkpt><trkpt lat="45.86226251832515" lon="8.898159991117604"><ele>384.0</ele><time>2026-03-29T09:55:20Z</time></trkpt><trkpt lat="45.86214616241857" lon="8.898332034224854"><ele>384.0</ele><time>2026-03-29T09:55:21Z</time></trkpt><trkpt lat="45.86202776935922" lon="8.898507870618669"><ele>384.0</ele><time>2026-03-29T09:55:22Z</time></trkpt><trkpt lat="45.86191092391537" lon="8.898636625655817"><ele>384.0</ele><time>2026-03-29T09:55:23Z</time></trkpt><trkpt lat="45.86181842409928" lon="8.89878644544115"><ele>384.0</ele><time>2026-03-29T09:55:24Z</time></trkpt><trkpt lat="45.861726433596665" lon="8.898919392624915"><ele>384.0</ele><time>2026-03-29T09:55:25Z</time></trkpt><trkpt lat="45.86164519291643" lon="8.899040275243898"><ele>384.0</ele><time>2026-03-29T09:55:26Z</time></trkpt><trkpt lat="45.86156152343662" lon="8.899129076685165"><ele>384.0</ele><time>2026-03-29T09:55:27Z</time></trkpt><trkpt lat="45.8614646244987" lon="8.899172336776525"><ele>384.0</ele><time>2026-03-29T09:55:28Z</time></trkpt><trkpt lat="45.861344724810806" lon="8.899165100343112"><ele>384.0</ele><time>2026-03-29T09:55:29Z</time></trkpt><trkpt lat="45.86118976410225" lon="8.899193344947733"><ele>384.0</ele><time>2026-03-29T09:55:30Z</time></trkpt><trkpt lat="45.86102025687541" lon="8.89920864845305"><ele>384.0</ele><time>2026-03-29T09:55:31Z</time></trkpt><trkpt lat="45.86087266849308" lon="8.89921280107836"><ele>384.33333333333337</ele><time>2026-03-29T09:55:32Z</time></trkpt><trkpt lat="45.86070257240467" lon="8.899226143243737"><ele>384.6666666666667</ele><time>2026-03-29T09:55:33Z</time></trkpt><trkpt lat="45.86052908556804" lon="8.899238710352385"><ele>385.0</ele><time>2026-03-29T09:55:34Z</time></trkpt><trkpt lat="45.86035953124918" lon="8.899266732328327"><ele>385.0</ele><time>2026-03-29T09:55:35Z</time></trkpt><trkpt lat="45.86019302603199" lon="8.899312676493611"><ele>385.0</ele><time>2026-03-29T09:55:36Z</time></trkpt><trkpt lat="45.860012521440495" lon="8.899395865298699"><ele>385.0</ele><time>2026-03-29T09:55:37Z</time></trkpt><trkpt lat="45.85981492880933" lon="8.899506171687205"><ele>384.33333333333337</ele><time>2026-03-29T09:55:38Z</time></trkpt><trkpt lat="45.85961501200395" lon="8.899634170335224"><ele>383.6666666666667</ele><time>2026-03-29T09:55:39Z</time></trkpt><trkpt lat="45.85941135786799" lon="8.899782758408701"><ele>383.0</ele><time>2026-03-29T09:55:40Z</time></trkpt><trkpt lat="45.8592144000111" lon="8.899920122902596"><ele>381.6666666666667</ele><time>2026-03-29T09:55:41Z</time></trkpt><trkpt lat="45.85901449209367" lon="8.900056708525767"><ele>380.3333333333333</ele><time>2026-03-29T09:55:42Z</time></trkpt><trkpt lat="45.85883217945359" lon="8.900177968323318"><ele>379.0</ele><time>2026-03-29T09:55:43Z</time></trkpt><trkpt lat="45.85865930023699" lon="8.900294452929955"><ele>383.66666666666663</ele><time>2026-03-29T09:55:44Z</time></trkpt><trkpt lat="45.858481291819366" lon="8.900415730257025"><ele>388.3333333333333</ele><time>2026-03-29T09:55:45Z</time></trkpt><trkpt lat="45.858308960296" lon="8.900527713173972"><ele>393.0</ele><time>2026-03-29T09:55:46Z</time></trkpt><trkpt lat="45.85813328841158" lon="8.900649206902433"><ele>393.0</ele><time>2026-03-29T09:55:47Z</time></trkpt><trkpt lat="45.85796113032512" lon="8.900746025451745"><ele>393.0</ele><time>2026-03-29T09:55:48Z</time></trkpt><trkpt lat="45.85779271898987" lon="8.900857946460619"><ele>393.0</ele><time>2026-03-29T09:55:49Z</time></trkpt><trkpt lat="45.857647612790714" lon="8.900981362291056"><ele>396.0</ele><time>2026-03-29T09:55:50Z</time></trkpt><trkpt lat="45.8575003251651" lon="8.90107579337547"><ele>399.0</ele><time>2026-03-29T09:55:51Z</time></trkpt><trkpt lat="45.85736558330784" lon="8.901213245118079"><ele>402.0</ele><time>2026-03-29T09:55:52Z</time></trkpt><trkpt lat="45.85723921777643" lon="8.901318583523944"><ele>402.0</ele><time>2026-03-29T09:55:53Z</time></trkpt><trkpt lat="45.85711685069432" lon="8.901419536164951"><ele>402.0</ele><time>2026-03-29T09:55:54Z</time></trkpt><trkpt lat="45.856998863998896" lon="8.901522917157532"><ele>402.0</ele><time>2026-03-29T09:55:55Z</time></trkpt><trkpt lat="45.85689093715928" lon="8.901621009961705"><ele>402.0</ele><time>2026-03-29T09:55:56Z</time></trkpt><trkpt lat="45.85679238949429" lon="8.901706757255567"><ele>400.6</ele><time>2026-03-29T09:55:57Z</time></trkpt><trkpt lat="45.85670751905204" lon="8.901805399569007"><ele>399.20000000000005</ele><time>2026-03-29T09:55:58Z</time></trkpt><trkpt lat="45.85662205207956" lon="8.90190366843243"><ele>397.8</ele><time>2026-03-29T09:55:59Z</time></trkpt><trkpt lat="45.85654186847246" lon="8.901993321078697"><ele>396.4</ele><time>2026-03-29T09:56:00Z</time></trkpt><trkpt lat="45.856463548569664" lon="8.902084606946291"><ele>395.0</ele><time>2026-03-29T09:56:01Z</time></trkpt><trkpt lat="45.856388420417304" lon="8.90215791703304"><ele>394.99999999999994</ele><time>2026-03-29T09:56:02Z</time></trkpt><trkpt lat="45.8563207720135" lon="8.902233542999499"><ele>395.0</ele><time>2026-03-29T09:56:03Z</time></trkpt><trkpt lat="45.85624984738533" lon="8.902302754001733"><ele>395.0</ele><time>2026-03-29T09:56:04Z</time></trkpt><trkpt lat="45.8561685878791" lon="8.90236245977507"><ele>395.0</ele><time>2026-03-29T09:56:05Z</time></trkpt><trkpt lat="45.85608661325011" lon="8.90242637696777"><ele>394.99999999999994</ele><time>2026-03-29T09:56:06Z</time></trkpt><trkpt lat="45.856015619758004" lon="8.902497505357609"><ele>395.0</ele><time>2026-03-29T09:56:07Z</time></trkpt><trkpt lat="45.85594221008205" lon="8.902578908938136"><ele>394.4</ele><time>2026-03-29T09:56:08Z</time></trkpt><trkpt lat="45.85587574313315" lon="8.902667247595724"><ele>393.8</ele><time>2026-03-29T09:56:09Z</time></trkpt><trkpt lat="45.855817955234656" lon="8.902777738324168"><ele>393.20000000000005</ele><time>2026-03-29T09:56:10Z</time></trkpt><trkpt lat="45.85578306052058" lon="8.902907247618742"><ele>392.6</ele><time>2026-03-29T09:56:11Z</time></trkpt><trkpt lat="45.85576923123305" lon="8.903055059900188"><ele>392.0</ele><time>2026-03-29T09:56:12Z</time></trkpt><trkpt lat="45.85577104983282" lon="8.903201435498909"><ele>392.0</ele><time>2026-03-29T09:56:13Z</time></trkpt><trkpt lat="45.85577197262235" lon="8.903353962328813"><ele>392.0</ele><time>2026-03-29T09:56:14Z</time></trkpt><trkpt lat="45.85576411764667" lon="8.903512982486998"><ele>392.0</ele><time>2026-03-29T09:56:15Z</time></trkpt><trkpt lat="45.85575913761977" lon="8.903660699762133"><ele>392.0</ele><time>2026-03-29T09:56:16Z</time></trkpt><trkpt lat="45.85576608418493" lon="8.903814113268965"><ele>392.0</ele><time>2026-03-29T09:56:17Z</time></trkpt><trkpt lat="45.8557859433748" lon="8.903968278988327"><ele>392.3333333333333</ele><time>2026-03-29T09:56:18Z</time></trkpt><trkpt lat="45.85581958602671" lon="8.904130814101475"><ele>392.66666666666663</ele><time>2026-03-29T09:56:19Z</time></trkpt><trkpt lat="45.85584892881686" lon="8.90430562992407"><ele>393.0</ele><time>2026-03-29T09:56:20Z</time></trkpt><trkpt lat="45.85589303484479" lon="8.904672105878591"><ele>393.5</ele><time>2026-03-29T09:56:21.999Z</time></trkpt><trkpt lat="45.85592132429326" lon="8.904853128595194"><ele>394.0</ele><time>2026-03-29T09:56:22.999Z</time></trkpt><trkpt lat="45.85595074430071" lon="8.905031512981058"><ele>394.5</ele><time>2026-03-29T09:56:23.999Z</time></trkpt><trkpt lat="45.85597444226068" lon="8.905211530380374"><ele>395.0</ele><time>2026-03-29T09:56:24.999Z</time></trkpt><trkpt lat="45.85599373226777" lon="8.905395432399036"><ele>396.25</ele><time>2026-03-29T09:56:25.999Z</time></trkpt><trkpt lat="45.85600287860604" lon="8.905555546393643"><ele>397.5</ele><time>2026-03-29T09:56:26.999Z</time></trkpt><trkpt lat="45.85603085016706" lon="8.90572687739168"><ele>398.75</ele><time>2026-03-29T09:56:27.999Z</time></trkpt><trkpt lat="45.85604609252694" lon="8.905874818094931"><ele>400.0</ele><time>2026-03-29T09:56:28.999Z</time></trkpt><trkpt lat="45.856071714986754" lon="8.906036456064307"><ele>400.8</ele><time>2026-03-29T09:56:29.999Z</time></trkpt><trkpt lat="45.85610317128505" lon="8.906182462132797"><ele>401.6</ele><time>2026-03-29T09:56:30.999Z</time></trkpt><trkpt lat="45.85613734156564" lon="8.906326698745001"><ele>402.4</ele><time>2026-03-29T09:56:31.999Z</time></trkpt><trkpt lat="45.85620426281119" lon="8.90642659002008"><ele>403.2</ele><time>2026-03-29T09:56:32.999Z</time></trkpt><trkpt lat="45.85622953834819" lon="8.906538990944226"><ele>404.0</ele><time>2026-03-29T09:56:33.999Z</time></trkpt><trkpt lat="45.85625767452053" lon="8.906646782118953"><ele>404.4</ele><time>2026-03-29T09:56:34.999Z</time></trkpt><trkpt lat="45.85625727424203" lon="8.906752492044514"><ele>404.79999999999995</ele><time>2026-03-29T09:56:35.999Z</time></trkpt><trkpt lat="45.85621830390362" lon="8.906858317024295"><ele>405.20000000000005</ele><time>2026-03-29T09:56:36.999Z</time></trkpt><trkpt lat="45.856123047577384" lon="8.906924413379675"><ele>405.6</ele><time>2026-03-29T09:56:37.999Z</time></trkpt><trkpt lat="45.85603068812765" lon="8.907047291785167"><ele>406.0</ele><time>2026-03-29T09:56:38.999Z</time></trkpt><trkpt lat="45.855940479336134" lon="8.907138354745921"><ele>406.0</ele><time>2026-03-29T09:56:39.999Z</time></trkpt><trkpt lat="45.85586917454533" lon="8.907245804935977"><ele>406.0</ele><time>2026-03-29T09:56:40.999Z</time></trkpt><trkpt lat="45.85579386650292" lon="8.907344035801042"><ele>406.0</ele><time>2026-03-29T09:56:41.999Z</time></trkpt><trkpt lat="45.85572131362578" lon="8.90742635396755"><ele>406.0</ele><time>2026-03-29T09:56:42.999Z</time></trkpt><trkpt lat="45.855646352765994" lon="8.90750407315236"><ele>406.0</ele><time>2026-03-29T09:56:43.999Z</time></trkpt><trkpt lat="45.85557695604448" lon="8.907574628639427"><ele>406.8</ele><time>2026-03-29T09:56:44.999Z</time></trkpt><trkpt lat="45.85551704538616" lon="8.907657672868035"><ele>407.6</ele><time>2026-03-29T09:56:45.999Z</time></trkpt><trkpt lat="45.85546351284643" lon="8.907753765825545"><ele>408.4</ele><time>2026-03-29T09:56:46.999Z</time></trkpt><trkpt lat="45.855403418532305" lon="8.907833258785654"><ele>409.2</ele><time>2026-03-29T09:56:47.999Z</time></trkpt><trkpt lat="45.85536972719843" lon="8.90792981484307"><ele>410.0</ele><time>2026-03-29T09:56:48.999Z</time></trkpt><trkpt lat="45.85528887817557" lon="8.908092877395108"><ele>410.0</ele><time>2026-03-29T09:56:50.999Z</time></trkpt><trkpt lat="45.85520279797691" lon="8.908205912183314"><ele>410.0</ele><time>2026-03-29T09:56:51.999Z</time></trkpt><trkpt lat="45.8551267751504" lon="8.90834211570389"><ele>410.0</ele><time>2026-03-29T09:56:52.999Z</time></trkpt><trkpt lat="45.855108828023816" lon="8.908448077043317"><ele>410.0</ele><time>2026-03-29T09:56:53.999Z</time></trkpt><trkpt lat="45.85504018075329" lon="8.90856751870319"><ele>410.0</ele><time>2026-03-29T09:56:55.999Z</time></trkpt><trkpt lat="45.85492037453271" lon="8.908567729695871"><ele>411.0</ele><time>2026-03-29T09:56:56.999Z</time></trkpt><trkpt lat="45.854808424080446" lon="8.908585815459684"><ele>412.0</ele><time>2026-03-29T09:56:57.999Z</time></trkpt><trkpt lat="45.854702572762285" lon="8.908587134023778"><ele>413.0</ele><time>2026-03-29T09:56:58.999Z</time></trkpt><trkpt lat="45.85459670255388" lon="8.908603510840882"><ele>414.0</ele><time>2026-03-29T09:56:59.999Z</time></trkpt><trkpt lat="45.854482349169" lon="8.908627114397557"><ele>415.0</ele><time>2026-03-29T09:57:00.999Z</time></trkpt><trkpt lat="45.85437465937773" lon="8.908641322707147"><ele>414.0</ele><time>2026-03-29T09:57:01.999Z</time></trkpt><trkpt lat="45.85426692128674" lon="8.908643483380823"><ele>413.0</ele><time>2026-03-29T09:57:02.999Z</time></trkpt><trkpt lat="45.85415620107129" lon="8.908664421911423"><ele>412.0</ele><time>2026-03-29T09:57:03.999Z</time></trkpt><trkpt lat="45.85406066233322" lon="8.908647908579196"><ele>411.0</ele><time>2026-03-29T09:57:04.999Z</time></trkpt><trkpt lat="45.853922786393426" lon="8.908688759131419"><ele>411.0</ele><time>2026-03-29T09:57:05.999Z</time></trkpt><trkpt lat="45.853807777451934" lon="8.908709061254756"><ele>411.0</ele><time>2026-03-29T09:57:06.999Z</time></trkpt><trkpt lat="45.853694753757665" lon="8.90872828398711"><ele>411.0</ele><time>2026-03-29T09:57:07.999Z</time></trkpt><trkpt lat="45.853583771889056" lon="8.908744555117192"><ele>411.0</ele><time>2026-03-29T09:57:08.999Z</time></trkpt><trkpt lat="45.853459959650706" lon="8.908759692852161"><ele>410.75</ele><time>2026-03-29T09:57:09.999Z</time></trkpt><trkpt lat="45.853344135637585" lon="8.908773025398203"><ele>410.5</ele><time>2026-03-29T09:57:10.999Z</time></trkpt><trkpt lat="45.853227016172035" lon="8.908784298496771"><ele>410.25</ele><time>2026-03-29T09:57:11.999Z</time></trkpt><trkpt lat="45.853100138288305" lon="8.908805541860426"><ele>410.0</ele><time>2026-03-29T09:57:12.999Z</time></trkpt><trkpt lat="45.85297260265941" lon="8.908823152827921"><ele>410.0</ele><time>2026-03-29T09:57:13.999Z</time></trkpt><trkpt lat="45.85284051111263" lon="8.908837885406005"><ele>410.0</ele><time>2026-03-29T09:57:15Z</time></trkpt><trkpt lat="45.85271311168281" lon="8.908844304248023"><ele>410.0</ele><time>2026-03-29T09:57:16Z</time></trkpt><trkpt lat="45.85258793257442" lon="8.908839932835939"><ele>410.0</ele><time>2026-03-29T09:57:17Z</time></trkpt><trkpt lat="45.852469973263695" lon="8.908841537986513"><ele>410.2</ele><time>2026-03-29T09:57:18Z</time></trkpt><trkpt lat="45.85236201736583" lon="8.908834782058557"><ele>410.4</ele><time>2026-03-29T09:57:19Z</time></trkpt><trkpt lat="45.85226108540968" lon="8.908850775302781"><ele>410.6</ele><time>2026-03-29T09:57:20Z</time></trkpt><trkpt lat="45.8521491086034" lon="8.908845523910042"><ele>410.8</ele><time>2026-03-29T09:57:21Z</time></trkpt><trkpt lat="45.85204939277424" lon="8.9088709632562"><ele>411.0</ele><time>2026-03-29T09:57:22Z</time></trkpt><trkpt lat="45.851945768027406" lon="8.908862817618033"><ele>411.0</ele><time>2026-03-29T09:57:23Z</time></trkpt><trkpt lat="45.8518644064866" lon="8.908866581246802"><ele>411.0</ele><time>2026-03-29T09:57:24Z</time></trkpt><trkpt lat="45.85174978635543" lon="8.90885693945423"><ele>411.0</ele><time>2026-03-29T09:57:26Z</time></trkpt><trkpt lat="45.85168046959326" lon="8.908814149568368"><ele>411.0</ele><time>2026-03-29T09:57:28Z</time></trkpt><trkpt lat="45.85163028369257" lon="8.90875145252447"><ele>411.0</ele><time>2026-03-29T09:57:29Z</time></trkpt><trkpt lat="45.85159069357083" lon="8.908673556107532"><ele>411.0</ele><time>2026-03-29T09:57:30Z</time></trkpt><trkpt lat="45.851490212107464" lon="8.90857839004163"><ele>410.8</ele><time>2026-03-29T09:57:32Z</time></trkpt><trkpt lat="45.851417109350805" lon="8.908642279957617"><ele>410.6</ele><time>2026-03-29T09:57:33Z</time></trkpt><trkpt lat="45.851369716172805" lon="8.908721657539447"><ele>410.4</ele><time>2026-03-29T09:57:34Z</time></trkpt><trkpt lat="45.85130795729521" lon="8.908805784514128"><ele>410.2</ele><time>2026-03-29T09:57:35Z</time></trkpt><trkpt lat="45.85122092516599" lon="8.908854889110934"><ele>410.0</ele><time>2026-03-29T09:57:36Z</time></trkpt><trkpt lat="45.85110665442632" lon="8.908871527958647"><ele>410.0</ele><time>2026-03-29T09:57:37Z</time></trkpt><trkpt lat="45.85100949617714" lon="8.908870457836263"><ele>410.0</ele><time>2026-03-29T09:57:38Z</time></trkpt><trkpt lat="45.85090809684114" lon="8.908882355901893"><ele>410.0</ele><time>2026-03-29T09:57:39Z</time></trkpt><trkpt lat="45.85081439233673" lon="8.908900017518079"><ele>410.0</ele><time>2026-03-29T09:57:40Z</time></trkpt><trkpt lat="45.85072847270062" lon="8.908884343526871"><ele>410.0</ele><time>2026-03-29T09:57:41Z</time></trkpt><trkpt lat="45.850636265925544" lon="8.908892955007227"><ele>411.2</ele><time>2026-03-29T09:57:42Z</time></trkpt><trkpt lat="45.85053778174045" lon="8.908902152738456"><ele>412.4</ele><time>2026-03-29T09:57:43Z</time></trkpt><trkpt lat="45.85043644803884" lon="8.908907539226792"><ele>413.6</ele><time>2026-03-29T09:57:44Z</time></trkpt><trkpt lat="45.85033181695948" lon="8.908928798955653"><ele>414.8</ele><time>2026-03-29T09:57:45Z</time></trkpt><trkpt lat="45.85024405421382" lon="8.908918266684141"><ele>416.0</ele><time>2026-03-29T09:57:46Z</time></trkpt><trkpt lat="45.850139826607474" lon="8.90893539380051"><ele>415.16666666666663</ele><time>2026-03-29T09:57:47Z</time></trkpt><trkpt lat="45.850040366346136" lon="8.90893013156002"><ele>414.3333333333333</ele><time>2026-03-29T09:57:48Z</time></trkpt><trkpt lat="45.84994470249673" lon="8.908927663448981"><ele>413.5</ele><time>2026-03-29T09:57:49Z</time></trkpt><trkpt lat="45.84985892695107" lon="8.908934321144125"><ele>412.66666666666663</ele><time>2026-03-29T09:57:50Z</time></trkpt><trkpt lat="45.849775764146266" lon="8.908946392567158"><ele>411.8333333333333</ele><time>2026-03-29T09:57:51Z</time></trkpt><trkpt lat="45.84969829595823" lon="8.908959762138613"><ele>411.0</ele><time>2026-03-29T09:57:52Z</time></trkpt><trkpt lat="45.849622543005076" lon="8.908938914107239"><ele>411.0</ele><time>2026-03-29T09:57:53Z</time></trkpt><trkpt lat="45.849538286980085" lon="8.908912929310953"><ele>411.0</ele><time>2026-03-29T09:57:54Z</time></trkpt><trkpt lat="45.84946193554738" lon="8.908871746151926"><ele>411.0</ele><time>2026-03-29T09:57:55Z</time></trkpt><trkpt lat="45.84939843172296" lon="8.908837217812636"><ele>411.0</ele><time>2026-03-29T09:57:56Z</time></trkpt><trkpt lat="45.849316531131116" lon="8.908811840312602"><ele>411.0</ele><time>2026-03-29T09:57:57Z</time></trkpt><trkpt lat="45.849226401516255" lon="8.908821109254376"><ele>411.0</ele><time>2026-03-29T09:57:58Z</time></trkpt><trkpt lat="45.84913854958973" lon="8.9088472329373"><ele>411.3333333333333</ele><time>2026-03-29T09:57:59Z</time></trkpt><trkpt lat="45.849059117881446" lon="8.908823449714534"><ele>411.66666666666663</ele><time>2026-03-29T09:58:00Z</time></trkpt><trkpt lat="45.848978688629" lon="8.90875307719542"><ele>412.0</ele><time>2026-03-29T09:58:01Z</time></trkpt><trkpt lat="45.84890709511702" lon="8.908689908257927"><ele>412.3333333333333</ele><time>2026-03-29T09:58:02Z</time></trkpt><trkpt lat="45.84883621977912" lon="8.90866278162464"><ele>412.66666666666663</ele><time>2026-03-29T09:58:03Z</time></trkpt><trkpt lat="45.848742660174835" lon="8.90876052380981"><ele>413.0</ele><time>2026-03-29T09:58:05Z</time></trkpt><trkpt lat="45.84873936744161" lon="8.90885839862685"><ele>413.0</ele><time>2026-03-29T09:58:06Z</time></trkpt><trkpt lat="45.84884238816622" lon="8.909003555628136"><ele>413.0</ele><time>2026-03-29T09:58:08Z</time></trkpt><trkpt lat="45.848984680425716" lon="8.90898624491715"><ele>413.0</ele><time>2026-03-29T09:58:10Z</time></trkpt><trkpt lat="45.849084556401216" lon="8.908964983786152"><ele>413.0</ele><time>2026-03-29T09:58:11Z</time></trkpt><trkpt lat="45.84917536694536" lon="8.909009686658196"><ele>413.0</ele><time>2026-03-29T09:58:12Z</time></trkpt><trkpt lat="45.849284394556776" lon="8.909131300591913"><ele>413.0</ele><time>2026-03-29T09:58:13Z</time></trkpt><trkpt lat="45.84941769161053" lon="8.90921120167751"><ele>413.0</ele><time>2026-03-29T09:58:14Z</time></trkpt><trkpt lat="45.849480346801535" lon="8.909550349959773"><ele>413.66666666666663</ele><time>2026-03-29T09:58:15Z</time></trkpt><trkpt lat="45.84959438682849" lon="8.909720708583524"><ele>414.33333333333337</ele><time>2026-03-29T09:58:16Z</time></trkpt><trkpt lat="45.84968312375546" lon="8.909901312785747"><ele>415.0</ele><time>2026-03-29T09:58:17Z</time></trkpt><trkpt lat="45.84979075854724" lon="8.91006053219898"><ele>414.6666666666667</ele><time>2026-03-29T09:58:18Z</time></trkpt><trkpt lat="45.849910455814" lon="8.910240011784044"><ele>414.33333333333337</ele><time>2026-03-29T09:58:19Z</time></trkpt><trkpt lat="45.850042958706844" lon="8.910410411959084"><ele>414.0</ele><time>2026-03-29T09:58:20Z</time></trkpt><trkpt lat="45.850188339534384" lon="8.910576702148855"><ele>414.0</ele><time>2026-03-29T09:58:21Z</time></trkpt><trkpt lat="45.85034123962663" lon="8.910740642297448"><ele>414.0</ele><time>2026-03-29T09:58:22Z</time></trkpt><trkpt lat="45.850494679079965" lon="8.91090291768604"><ele>414.0</ele><time>2026-03-29T09:58:23Z</time></trkpt><trkpt lat="45.85064718378866" lon="8.91106286628414"><ele>414.33333333333337</ele><time>2026-03-29T09:58:24Z</time></trkpt><trkpt lat="45.85079962142637" lon="8.91120936632814"><ele>414.6666666666667</ele><time>2026-03-29T09:58:25Z</time></trkpt><trkpt lat="45.85093469590728" lon="8.91133857691994"><ele>415.0</ele><time>2026-03-29T09:58:26Z</time></trkpt><trkpt lat="45.851062320584745" lon="8.911457362371786"><ele>415.0</ele><time>2026-03-29T09:58:26.999Z</time></trkpt><trkpt lat="45.851160941824304" lon="8.911587586924096"><ele>415.0</ele><time>2026-03-29T09:58:27.999Z</time></trkpt><trkpt lat="45.85124240951972" lon="8.911710647465386"><ele>415.0</ele><time>2026-03-29T09:58:28.999Z</time></trkpt><trkpt lat="45.851326489029596" lon="8.911857379527104"><ele>415.0</ele><time>2026-03-29T09:58:29.999Z</time></trkpt><trkpt lat="45.85141031866831" lon="8.912001025008903"><ele>416.0</ele><time>2026-03-29T09:58:30.999Z</time></trkpt><trkpt lat="45.8515109349278" lon="8.912121571447399"><ele>417.0</ele><time>2026-03-29T09:58:31.999Z</time></trkpt><trkpt lat="45.851645860752065" lon="8.912240773113489"><ele>418.0</ele><time>2026-03-29T09:58:32.999Z</time></trkpt><trkpt lat="45.8517996804948" lon="8.91233848398365"><ele>418.0</ele><time>2026-03-29T09:58:33.999Z</time></trkpt><trkpt lat="45.85194520874961" lon="8.912458115100993"><ele>418.0</ele><time>2026-03-29T09:58:34.999Z</time></trkpt><trkpt lat="45.85208322708113" lon="8.912556672239072"><ele>418.0</ele><time>2026-03-29T09:58:35.999Z</time></trkpt><trkpt lat="45.85219224379191" lon="8.912642630149826"><ele>418.0</ele><time>2026-03-29T09:58:36.999Z</time></trkpt><trkpt lat="45.85228940130274" lon="8.912709555666938"><ele>418.0</ele><time>2026-03-29T09:58:37.999Z</time></trkpt><trkpt lat="45.85234146440184" lon="8.912809063057992"><ele>418.0</ele><time>2026-03-29T09:58:38.999Z</time></trkpt><trkpt lat="45.85239045072039" lon="8.912911739791756"><ele>418.0</ele><time>2026-03-29T09:58:39.999Z</time></trkpt><trkpt lat="45.85239705084367" lon="8.913046961176084"><ele>418.0</ele><time>2026-03-29T09:58:40.999Z</time></trkpt><trkpt lat="45.852349114675974" lon="8.913219659777633"><ele>418.0</ele><time>2026-03-29T09:58:41.999Z</time></trkpt><trkpt lat="45.85237214648428" lon="8.91342359331458"><ele>418.75</ele><time>2026-03-29T09:58:42.999Z</time></trkpt><trkpt lat="45.85240129242424" lon="8.913583253011405"><ele>419.5</ele><time>2026-03-29T09:58:43.999Z</time></trkpt><trkpt lat="45.85247953136261" lon="8.913740406830037"><ele>420.25</ele><time>2026-03-29T09:58:44.999Z</time></trkpt><trkpt lat="45.852576377812944" lon="8.913894813074842"><ele>421.0</ele><time>2026-03-29T09:58:45.999Z</time></trkpt><trkpt lat="45.852667384811696" lon="8.91403117126162"><ele>421.0</ele><time>2026-03-29T09:58:46.999Z</time></trkpt><trkpt lat="45.85273697017597" lon="8.914159204981466"><ele>421.0</ele><time>2026-03-29T09:58:47.999Z</time></trkpt><trkpt lat="45.85277309470236" lon="8.914320548408307"><ele>421.0</ele><time>2026-03-29T09:58:48.999Z</time></trkpt><trkpt lat="45.852774286977144" lon="8.914515146736981"><ele>421.0</ele><time>2026-03-29T09:58:49.999Z</time></trkpt><trkpt lat="45.852748069240164" lon="8.914750992193179"><ele>417.33333333333337</ele><time>2026-03-29T09:58:50.999Z</time></trkpt><trkpt lat="45.852732489184056" lon="8.91504366410144"><ele>413.66666666666663</ele><time>2026-03-29T09:58:51.999Z</time></trkpt><trkpt lat="45.85269375561638" lon="8.915325141872598"><ele>410.0</ele><time>2026-03-29T09:58:52.999Z</time></trkpt><trkpt lat="45.85267620396326" lon="8.91564172725872"><ele>410.66666666666663</ele><time>2026-03-29T09:58:53.999Z</time></trkpt><trkpt lat="45.85267517472305" lon="8.915920261916767"><ele>411.33333333333337</ele><time>2026-03-29T09:58:54.999Z</time></trkpt><trkpt lat="45.85268453966096" lon="8.916166816397231"><ele>412.0</ele><time>2026-03-29T09:58:55.999Z</time></trkpt><trkpt lat="45.85271695648122" lon="8.916370360844471"><ele>412.0</ele><time>2026-03-29T09:58:56.999Z</time></trkpt><trkpt lat="45.852754824180195" lon="8.916530177075208"><ele>412.0</ele><time>2026-03-29T09:58:57.999Z</time></trkpt><trkpt lat="45.85278809933854" lon="8.916651484374821"><ele>412.0</ele><time>2026-03-29T09:58:58.999Z</time></trkpt><trkpt lat="45.852810639255814" lon="8.91674862642223"><ele>412.0</ele><time>2026-03-29T09:58:59.999Z</time></trkpt><trkpt lat="45.85284699824806" lon="8.916847629925064"><ele>412.0</ele><time>2026-03-29T09:59:00.999Z</time></trkpt><trkpt lat="45.85286611359213" lon="8.916997856816659"><ele>412.6</ele><time>2026-03-29T09:59:01.999Z</time></trkpt><trkpt lat="45.85290217521446" lon="8.917153005883431"><ele>413.20000000000005</ele><time>2026-03-29T09:59:02.999Z</time></trkpt><trkpt lat="45.85294632471441" lon="8.917272432263289"><ele>413.8</ele><time>2026-03-29T09:59:03.999Z</time></trkpt><trkpt lat="45.85298786069396" lon="8.917379588843557"><ele>414.4</ele><time>2026-03-29T09:59:04.999Z</time></trkpt><trkpt lat="45.85310172151805" lon="8.917446979003234"><ele>415.0</ele><time>2026-03-29T09:59:05.999Z</time></trkpt><trkpt lat="45.853236108299676" lon="8.917494376268781"><ele>415.0</ele><time>2026-03-29T09:59:06.999Z</time></trkpt><trkpt lat="45.853392514034574" lon="8.917549979637839"><ele>415.0</ele><time>2026-03-29T09:59:07.999Z</time></trkpt><trkpt lat="45.853547122342135" lon="8.917659640798632"><ele>415.0</ele><time>2026-03-29T09:59:08.999Z</time></trkpt><trkpt lat="45.85368752353937" lon="8.917777086815876"><ele>415.0</ele><time>2026-03-29T09:59:09.999Z</time></trkpt><trkpt lat="45.85383341571518" lon="8.917886478562327"><ele>415.0</ele><time>2026-03-29T09:59:10.999Z</time></trkpt><trkpt lat="45.85394411218787" lon="8.918004089198954"><ele>415.0</ele><time>2026-03-29T09:59:11.999Z</time></trkpt><trkpt lat="45.85401588043531" lon="8.918122688685836"><ele>415.0</ele><time>2026-03-29T09:59:12.999Z</time></trkpt><trkpt lat="45.85406182576704" lon="8.918236508911813"><ele>415.0</ele><time>2026-03-29T09:59:13.999Z</time></trkpt><trkpt lat="45.85409143427886" lon="8.918359668722246"><ele>415.0</ele><time>2026-03-29T09:59:14.999Z</time></trkpt><trkpt lat="45.854070356025275" lon="8.918513507356053"><ele>415.0</ele><time>2026-03-29T09:59:15.999Z</time></trkpt><trkpt lat="45.85402618789369" lon="8.918701473213932"><ele>415.0</ele><time>2026-03-29T09:59:16.999Z</time></trkpt><trkpt lat="45.85398178299588" lon="8.918922978602215"><ele>415.75</ele><time>2026-03-29T09:59:17.999Z</time></trkpt><trkpt lat="45.85396952868279" lon="8.919151349976323"><ele>416.5</ele><time>2026-03-29T09:59:18.999Z</time></trkpt><trkpt lat="45.85401458335394" lon="8.919337580970932"><ele>417.25</ele><time>2026-03-29T09:59:19.999Z</time></trkpt><trkpt lat="45.85408651464706" lon="8.919484465493106"><ele>418.0</ele><time>2026-03-29T09:59:21Z</time></trkpt><trkpt lat="45.85418111794675" lon="8.9196115268233"><ele>420.0</ele><time>2026-03-29T09:59:22Z</time></trkpt><trkpt lat="45.854309300927866" lon="8.919710528643424"><ele>422.0</ele><time>2026-03-29T09:59:23Z</time></trkpt><trkpt lat="45.85446931503826" lon="8.919782866397053"><ele>424.0</ele><time>2026-03-29T09:59:24Z</time></trkpt><trkpt lat="45.8546227327777" lon="8.919862194578087"><ele>424.0</ele><time>2026-03-29T09:59:25Z</time></trkpt><trkpt lat="45.8547322429996" lon="8.919979108484922"><ele>424.0</ele><time>2026-03-29T09:59:26Z</time></trkpt><trkpt lat="45.854836092207236" lon="8.920113035483741"><ele>424.0</ele><time>2026-03-29T09:59:27Z</time></trkpt><trkpt lat="45.85493309764269" lon="8.920288710019841"><ele>424.0</ele><time>2026-03-29T09:59:28Z</time></trkpt><trkpt lat="45.85502392836148" lon="8.920502298898988"><ele>425.33333333333337</ele><time>2026-03-29T09:59:29Z</time></trkpt><trkpt lat="45.85511661078336" lon="8.920713217316418"><ele>426.66666666666663</ele><time>2026-03-29T09:59:30Z</time></trkpt><trkpt lat="45.85521294917679" lon="8.920866055714534"><ele>428.0</ele><time>2026-03-29T09:59:31Z</time></trkpt><trkpt lat="45.85533719951116" lon="8.921004882725406"><ele>433.66666666666663</ele><time>2026-03-29T09:59:32Z</time></trkpt><trkpt lat="45.85549873958101" lon="8.92109397331694"><ele>439.33333333333337</ele><time>2026-03-29T09:59:33Z</time></trkpt><trkpt lat="45.855680215461035" lon="8.921131128629492"><ele>445.0</ele><time>2026-03-29T09:59:34Z</time></trkpt><trkpt lat="45.85584707225566" lon="8.921197081446582"><ele>444.0</ele><time>2026-03-29T09:59:35Z</time></trkpt><trkpt lat="45.85598309765529" lon="8.921247264053756"><ele>443.0</ele><time>2026-03-29T09:59:36Z</time></trkpt><trkpt lat="45.85607440466358" lon="8.921309174351066"><ele>442.0</ele><time>2026-03-29T09:59:37Z</time></trkpt><trkpt lat="45.856127322376864" lon="8.92139147141271"><ele>441.0</ele><time>2026-03-29T09:59:38Z</time></trkpt><trkpt lat="45.856183809508806" lon="8.921519343561348"><ele>440.0</ele><time>2026-03-29T09:59:39Z</time></trkpt><trkpt lat="45.85618713540733" lon="8.921724619032934"><ele>440.75</ele><time>2026-03-29T09:59:40Z</time></trkpt><trkpt lat="45.85620572691901" lon="8.921929203839632"><ele>441.5</ele><time>2026-03-29T09:59:41Z</time></trkpt><trkpt lat="45.85625225824652" lon="8.922095843476194"><ele>442.25</ele><time>2026-03-29T09:59:42Z</time></trkpt><trkpt lat="45.856323384167446" lon="8.922223133158422"><ele>443.0</ele><time>2026-03-29T09:59:43Z</time></trkpt><trkpt lat="45.85643384377642" lon="8.922310200097328"><ele>443.0</ele><time>2026-03-29T09:59:44Z</time></trkpt><trkpt lat="45.85657099428501" lon="8.922395298907208"><ele>443.0</ele><time>2026-03-29T09:59:45Z</time></trkpt><trkpt lat="45.85671923736525" lon="8.922500806729136"><ele>443.0</ele><time>2026-03-29T09:59:46Z</time></trkpt><trkpt lat="45.85686921840459" lon="8.922627519387538"><ele>443.0</ele><time>2026-03-29T09:59:47Z</time></trkpt><trkpt lat="45.85702095998789" lon="8.922809221564403"><ele>443.0</ele><time>2026-03-29T09:59:48Z</time></trkpt><trkpt lat="45.85719657646538" lon="8.923008760097145"><ele>443.0</ele><time>2026-03-29T09:59:49Z</time></trkpt><trkpt lat="45.857359682363615" lon="8.923155498726489"><ele>443.0</ele><time>2026-03-29T09:59:50Z</time></trkpt><trkpt lat="45.85749354135336" lon="8.92330312708572"><ele>443.0</ele><time>2026-03-29T09:59:51Z</time></trkpt><trkpt lat="45.85762775757116" lon="8.923419815766382"><ele>443.0</ele><time>2026-03-29T09:59:52Z</time></trkpt><trkpt lat="45.85775899333216" lon="8.923515713967953"><ele>443.25</ele><time>2026-03-29T09:59:53Z</time></trkpt><trkpt lat="45.85790447269788" lon="8.923584457846488"><ele>443.5</ele><time>2026-03-29T09:59:54Z</time></trkpt><trkpt lat="45.85802786701234" lon="8.923666518391297"><ele>443.75</ele><time>2026-03-29T09:59:55Z</time></trkpt><trkpt lat="45.858130887902114" lon="8.923731538463231"><ele>444.0</ele><time>2026-03-29T09:59:56Z</time></trkpt><trkpt lat="45.85821568683022" lon="8.92379280691048"><ele>444.0</ele><time>2026-03-29T09:59:57Z</time></trkpt><trkpt lat="45.8582812996174" lon="8.923837318904196"><ele>444.0</ele><time>2026-03-29T09:59:58Z</time></trkpt><trkpt lat="45.8583580219633" lon="8.923913108268183"><ele>444.0</ele><time>2026-03-29T10:00:00Z</time></trkpt><trkpt lat="45.85840784980619" lon="8.92396941398892"><ele>444.0</ele><time>2026-03-29T10:00:02Z</time></trkpt><trkpt lat="45.85846133099268" lon="8.924039374697793"><ele>444.0</ele><time>2026-03-29T10:00:03Z</time></trkpt><trkpt lat="45.85853200349249" lon="8.924120540543377"><ele>444.0</ele><time>2026-03-29T10:00:04Z</time></trkpt><trkpt lat="45.858606559968074" lon="8.924221760949866"><ele>443.75</ele><time>2026-03-29T10:00:05Z</time></trkpt><trkpt lat="45.85869025512064" lon="8.924344874010078"><ele>443.5</ele><time>2026-03-29T10:00:06Z</time></trkpt><trkpt lat="45.85878981004941" lon="8.924488417231535"><ele>443.25</ele><time>2026-03-29T10:00:07Z</time></trkpt><trkpt lat="45.85890097445604" lon="8.924631780384084"><ele>443.0</ele><time>2026-03-29T10:00:08Z</time></trkpt><trkpt lat="45.859010570911565" lon="8.924792570160468"><ele>443.0</ele><time>2026-03-29T10:00:09Z</time></trkpt><trkpt lat="45.8591323216424" lon="8.924952588524125"><ele>443.0</ele><time>2026-03-29T10:00:10Z</time></trkpt><trkpt lat="45.85924122553305" lon="8.925111101134341"><ele>443.0</ele><time>2026-03-29T10:00:11Z</time></trkpt><trkpt lat="45.85934080436444" lon="8.925252302708353"><ele>443.5</ele><time>2026-03-29T10:00:12Z</time></trkpt><trkpt lat="45.85943276075467" lon="8.925381254730661"><ele>444.0</ele><time>2026-03-29T10:00:13Z</time></trkpt><trkpt lat="45.859526463424764" lon="8.925513061883194"><ele>444.5</ele><time>2026-03-29T10:00:14Z</time></trkpt><trkpt lat="45.859615502501505" lon="8.92563923625712"><ele>445.0</ele><time>2026-03-29T10:00:15Z</time></trkpt><trkpt lat="45.859697605291636" lon="8.925744450310535"><ele>445.0</ele><time>2026-03-29T10:00:16Z</time></trkpt><trkpt lat="45.85977796251673" lon="8.925855157923952"><ele>445.0</ele><time>2026-03-29T10:00:17Z</time></trkpt><trkpt lat="45.85987174814148" lon="8.925968581068766"><ele>445.0</ele><time>2026-03-29T10:00:18Z</time></trkpt><trkpt lat="45.85996786668881" lon="8.926062224268412"><ele>445.0</ele><time>2026-03-29T10:00:19Z</time></trkpt><trkpt lat="45.860059111555934" lon="8.926142054279387"><ele>446.0</ele><time>2026-03-29T10:00:20Z</time></trkpt><trkpt lat="45.86013607627421" lon="8.926267666838115"><ele>447.0</ele><time>2026-03-29T10:00:21Z</time></trkpt><trkpt lat="45.86020543712656" lon="8.926429880348978"><ele>448.0</ele><time>2026-03-29T10:00:21.999Z</time></trkpt><trkpt lat="45.860260383507764" lon="8.926614594911314"><ele>449.0</ele><time>2026-03-29T10:00:22.999Z</time></trkpt><trkpt lat="45.860306232592905" lon="8.926809247958737"><ele>449.0</ele><time>2026-03-29T10:00:23.999Z</time></trkpt><trkpt lat="45.86034734400633" lon="8.927005788511877"><ele>449.0</ele><time>2026-03-29T10:00:24.999Z</time></trkpt><trkpt lat="45.86039216897433" lon="8.927190284518248"><ele>449.0</ele><time>2026-03-29T10:00:25.999Z</time></trkpt><trkpt lat="45.86044196930773" lon="8.927374239221692"><ele>449.0</ele><time>2026-03-29T10:00:26.999Z</time></trkpt><trkpt lat="45.86048751691058" lon="8.927552273220616"><ele>448.0</ele><time>2026-03-29T10:00:27.999Z</time></trkpt><trkpt lat="45.86053957753788" lon="8.927732215699244"><ele>447.0</ele><time>2026-03-29T10:00:28.999Z</time></trkpt><trkpt lat="45.860597408721084" lon="8.927900700677986"><ele>446.0</ele><time>2026-03-29T10:00:29.999Z</time></trkpt><trkpt lat="45.860661300390454" lon="8.928054361622264"><ele>445.0</ele><time>2026-03-29T10:00:30.999Z</time></trkpt><trkpt lat="45.860728990711884" lon="8.92820119976807"><ele>445.0</ele><time>2026-03-29T10:00:31.999Z</time></trkpt><trkpt lat="45.86078493347307" lon="8.92828030263544"><ele>445.0</ele><time>2026-03-29T10:00:32.999Z</time></trkpt><trkpt lat="45.86087250006932" lon="8.928406683251863"><ele>445.0</ele><time>2026-03-29T10:00:33.999Z</time></trkpt><trkpt lat="45.8609355607463" lon="8.928533802676565"><ele>445.0</ele><time>2026-03-29T10:00:34.999Z</time></trkpt><trkpt lat="45.86101719395898" lon="8.928671819991951"><ele>445.0</ele><time>2026-03-29T10:00:35.999Z</time></trkpt><trkpt lat="45.86109913197015" lon="8.928798135960424"><ele>446.25</ele><time>2026-03-29T10:00:36.999Z</time></trkpt><trkpt lat="45.86119871526761" lon="8.928925062949675"><ele>447.5</ele><time>2026-03-29T10:00:37.999Z</time></trkpt><trkpt lat="45.86131781870688" lon="8.929032107312251"><ele>448.75</ele><time>2026-03-29T10:00:38.999Z</time></trkpt><trkpt lat="45.86145470114336" lon="8.92911132217224"><ele>450.0</ele><time>2026-03-29T10:00:39.999Z</time></trkpt><trkpt lat="45.86160555063906" lon="8.929150585955778"><ele>450.0</ele><time>2026-03-29T10:00:40.999Z</time></trkpt><trkpt lat="45.86174590160435" lon="8.929168438399861"><ele>450.0</ele><time>2026-03-29T10:00:41.999Z</time></trkpt><trkpt lat="45.861865212442325" lon="8.929224240652898"><ele>450.0</ele><time>2026-03-29T10:00:42.999Z</time></trkpt><trkpt lat="45.861951408475434" lon="8.929275727884997"><ele>450.0</ele><time>2026-03-29T10:00:43.999Z</time></trkpt><trkpt lat="45.86204383884165" lon="8.929410974273091"><ele>451.66666666666663</ele><time>2026-03-29T10:00:44.999Z</time></trkpt><trkpt lat="45.862136731771685" lon="8.929588399920823"><ele>453.3333333333333</ele><time>2026-03-29T10:00:45.999Z</time></trkpt><trkpt lat="45.86223404127502" lon="8.929763991113477"><ele>455.0</ele><time>2026-03-29T10:00:46.999Z</time></trkpt><trkpt lat="45.86233999428131" lon="8.929902416272013"><ele>455.0</ele><time>2026-03-29T10:00:47.999Z</time></trkpt><trkpt lat="45.862444603507626" lon="8.930011480646744"><ele>455.0</ele><time>2026-03-29T10:00:48.999Z</time></trkpt><trkpt lat="45.862565625247505" lon="8.930107318238285"><ele>455.0</ele><time>2026-03-29T10:00:49.999Z</time></trkpt><trkpt lat="45.862696729572136" lon="8.930200787612893"><ele>455.0</ele><time>2026-03-29T10:00:50.999Z</time></trkpt><trkpt lat="45.862822447100676" lon="8.930286668379646"><ele>455.25</ele><time>2026-03-29T10:00:51.999Z</time></trkpt><trkpt lat="45.86293477736526" lon="8.930378338145301"><ele>455.5</ele><time>2026-03-29T10:00:52.999Z</time></trkpt><trkpt lat="45.86304211930138" lon="8.930455505916195"><ele>455.75</ele><time>2026-03-29T10:00:53.999Z</time></trkpt><trkpt lat="45.863148466772415" lon="8.930539242054154"><ele>456.0</ele><time>2026-03-29T10:00:54.999Z</time></trkpt><trkpt lat="45.863242535820945" lon="8.930603810624854"><ele>456.0</ele><time>2026-03-29T10:00:55.999Z</time></trkpt><trkpt lat="45.8633151273078" lon="8.930674196659977"><ele>456.0</ele><time>2026-03-29T10:00:56.999Z</time></trkpt><trkpt lat="45.863388987161564" lon="8.930740641047935"><ele>456.0</ele><time>2026-03-29T10:00:57.999Z</time></trkpt><trkpt lat="45.86344635592297" lon="8.930806636499208"><ele>456.0</ele><time>2026-03-29T10:00:58.999Z</time></trkpt><trkpt lat="45.86355065188529" lon="8.930858975109293"><ele>456.0</ele><time>2026-03-29T10:01:00.999Z</time></trkpt><trkpt lat="45.86361225136221" lon="8.930832246767093"><ele>456.0</ele><time>2026-03-29T10:01:01.999Z</time></trkpt><trkpt lat="45.86367577830002" lon="8.930707447303611"><ele>456.6666666666667</ele><time>2026-03-29T10:01:02.999Z</time></trkpt><trkpt lat="45.86373019285185" lon="8.93063618662377"><ele>457.33333333333337</ele><time>2026-03-29T10:01:03.999Z</time></trkpt><trkpt lat="45.86379575912463" lon="8.930517299037593"><ele>458.0</ele><time>2026-03-29T10:01:05.999Z</time></trkpt><trkpt lat="45.86387974576878" lon="8.930523967021964"><ele>458.6666666666667</ele><time>2026-03-29T10:01:07.999Z</time></trkpt><trkpt lat="45.86393630519399" lon="8.930586308138677"><ele>459.33333333333337</ele><time>2026-03-29T10:01:08.999Z</time></trkpt><trkpt lat="45.86398684700103" lon="8.930642528390793"><ele>460.0</ele><time>2026-03-29T10:01:09.999Z</time></trkpt><trkpt lat="45.864043482198866" lon="8.930727935599213"><ele>460.0</ele><time>2026-03-29T10:01:10.999Z</time></trkpt><trkpt lat="45.86410716769125" lon="8.930792826670533"><ele>460.0</ele><time>2026-03-29T10:01:11.999Z</time></trkpt><trkpt lat="45.86418317997673" lon="8.930854385326164"><ele>460.0</ele><time>2026-03-29T10:01:12.999Z</time></trkpt><trkpt lat="45.864235257551215" lon="8.930922601444705"><ele>460.0</ele><time>2026-03-29T10:01:13.999Z</time></trkpt><trkpt lat="45.86430553289995" lon="8.931034114427533"><ele>460.0</ele><time>2026-03-29T10:01:15.999Z</time></trkpt><trkpt lat="45.86436061260742" lon="8.931195069463291"><ele>460.0</ele><time>2026-03-29T10:01:17.999Z</time></trkpt><trkpt lat="45.86438406302157" lon="8.931291322097984"><ele>460.0</ele><time>2026-03-29T10:01:18.999Z</time></trkpt><trkpt lat="45.86440643583804" lon="8.931393876530521"><ele>460.0</ele><time>2026-03-29T10:01:19.999Z</time></trkpt><trkpt lat="45.86441338248015" lon="8.931491081255098"><ele>460.0</ele><time>2026-03-29T10:01:20.999Z</time></trkpt><trkpt lat="45.8644486866047" lon="8.93165605011348"><ele>460.0</ele><time>2026-03-29T10:01:22.999Z</time></trkpt><trkpt lat="45.86447148437137" lon="8.931835109970569"><ele>460.00000000000006</ele><time>2026-03-29T10:01:24.999Z</time></trkpt><trkpt lat="45.86447868616457" lon="8.931936913236528"><ele>460.0</ele><time>2026-03-29T10:01:25.999Z</time></trkpt><trkpt lat="45.864487139760534" lon="8.932046916583015"><ele>460.0</ele><time>2026-03-29T10:01:27Z</time></trkpt><trkpt lat="45.86449887206207" lon="8.932189526594547"><ele>460.0</ele><time>2026-03-29T10:01:28Z</time></trkpt><trkpt lat="45.86451106369865" lon="8.93233772031624"><ele>460.00000000000006</ele><time>2026-03-29T10:01:29Z</time></trkpt><trkpt lat="45.8645224458647" lon="8.932476077924276"><ele>460.0</ele><time>2026-03-29T10:01:30Z</time></trkpt><trkpt lat="45.86453295514103" lon="8.932598560706866"><ele>460.6666666666667</ele><time>2026-03-29T10:01:31Z</time></trkpt><trkpt lat="45.864541384446724" lon="8.932698398894583"><ele>461.33333333333337</ele><time>2026-03-29T10:01:32Z</time></trkpt><trkpt lat="45.86458485876506" lon="8.932895665601643"><ele>462.0</ele><time>2026-03-29T10:01:34Z</time></trkpt><trkpt lat="45.864595403510236" lon="8.933005902478271"><ele>462.66666666666663</ele><time>2026-03-29T10:01:35Z</time></trkpt><trkpt lat="45.86460662201032" lon="8.933124939748915"><ele>463.3333333333333</ele><time>2026-03-29T10:01:36Z</time></trkpt><trkpt lat="45.86461834194723" lon="8.933227758531974"><ele>464.0</ele><time>2026-03-29T10:01:37Z</time></trkpt><trkpt lat="45.86462839374985" lon="8.933326411314095"><ele>464.3333333333333</ele><time>2026-03-29T10:01:38Z</time></trkpt><trkpt lat="45.86464079284927" lon="8.933417373780856"><ele>464.66666666666663</ele><time>2026-03-29T10:01:39Z</time></trkpt><trkpt lat="45.86460618231207" lon="8.933525123645335"><ele>465.0</ele><time>2026-03-29T10:01:40Z</time></trkpt><trkpt lat="45.86463693900832" lon="8.93360513368286"><ele>465.33333333333337</ele><time>2026-03-29T10:01:41Z</time></trkpt><trkpt lat="45.86461785764593" lon="8.933756902253974"><ele>465.6666666666667</ele><time>2026-03-29T10:01:43Z</time></trkpt><trkpt lat="45.86459823161763" lon="8.933853268788774"><ele>466.0</ele><time>2026-03-29T10:01:44Z</time></trkpt><trkpt lat="45.86457923739636" lon="8.933947708743867"><ele>466.0</ele><time>2026-03-29T10:01:45Z</time></trkpt><trkpt lat="45.864538673352286" lon="8.934026917086502"><ele>466.0</ele><time>2026-03-29T10:01:46Z</time></trkpt><trkpt lat="45.864467540972825" lon="8.934089644035065"><ele>466.0</ele><time>2026-03-29T10:01:47Z</time></trkpt><trkpt lat="45.8643686155983" lon="8.934126802332543"><ele>466.0</ele><time>2026-03-29T10:01:48Z</time></trkpt><trkpt lat="45.86425329000756" lon="8.9341324605839"><ele>466.0</ele><time>2026-03-29T10:01:49Z</time></trkpt><trkpt lat="45.86414523190467" lon="8.934121299645081"><ele>464.20000000000005</ele><time>2026-03-29T10:01:50Z</time></trkpt><trkpt lat="45.86404857827619" lon="8.934077893752786"><ele>462.40000000000003</ele><time>2026-03-29T10:01:51Z</time></trkpt><trkpt lat="45.86394094424947" lon="8.934027296336657"><ele>460.6</ele><time>2026-03-29T10:01:52Z</time></trkpt><trkpt lat="45.86384644125185" lon="8.933984106648401"><ele>458.8</ele><time>2026-03-29T10:01:53Z</time></trkpt><trkpt lat="45.86375502365024" lon="8.933935802178826"><ele>457.0</ele><time>2026-03-29T10:01:54Z</time></trkpt><trkpt lat="45.863665821390676" lon="8.93392131570846"><ele>457.0</ele><time>2026-03-29T10:01:55Z</time></trkpt><trkpt lat="45.863583577827434" lon="8.933941338261038"><ele>457.00000000000006</ele><time>2026-03-29T10:01:56Z</time></trkpt><trkpt lat="45.86350625728493" lon="8.934009970421949"><ele>457.00000000000006</ele><time>2026-03-29T10:01:57Z</time></trkpt><trkpt lat="45.863419674904506" lon="8.93410126894788"><ele>457.0</ele><time>2026-03-29T10:01:58Z</time></trkpt><trkpt lat="45.8633324077433" lon="8.934185115454572"><ele>457.0</ele><time>2026-03-29T10:01:59Z</time></trkpt><trkpt lat="45.863243459533955" lon="8.934254967977333"><ele>455.50000000000006</ele><time>2026-03-29T10:02:00Z</time></trkpt><trkpt lat="45.86315528510879" lon="8.934326301142486"><ele>454.0</ele><time>2026-03-29T10:02:01Z</time></trkpt><trkpt lat="45.863067513782575" lon="8.934394374158998"><ele>452.5</ele><time>2026-03-29T10:02:02Z</time></trkpt><trkpt lat="45.86298961944908" lon="8.93446276299613"><ele>451.0</ele><time>2026-03-29T10:02:03Z</time></trkpt><trkpt lat="45.86291839725599" lon="8.934530291368636"><ele>449.50000000000006</ele><time>2026-03-29T10:02:04Z</time></trkpt><trkpt lat="45.8628662524032" lon="8.934591368829942"><ele>448.0</ele><time>2026-03-29T10:02:05Z</time></trkpt><trkpt lat="45.862798205018834" lon="8.93470350201737"><ele>448.00000000000006</ele><time>2026-03-29T10:02:07Z</time></trkpt><trkpt lat="45.86274053487865" lon="8.934769328531308"><ele>448.0</ele><time>2026-03-29T10:02:09Z</time></trkpt><trkpt lat="45.86266241436414" lon="8.934801725938112"><ele>448.0</ele><time>2026-03-29T10:02:10Z</time></trkpt><trkpt lat="45.86256598993523" lon="8.934776531961255"><ele>448.0</ele><time>2026-03-29T10:02:11Z</time></trkpt><trkpt lat="45.86249077293079" lon="8.9347126398649"><ele>448.00000000000006</ele><time>2026-03-29T10:02:12Z</time></trkpt><trkpt lat="45.86240821355852" lon="8.934637701521169"><ele>448.0</ele><time>2026-03-29T10:02:13Z</time></trkpt><trkpt lat="45.86234214532047" lon="8.934557874911086"><ele>446.0</ele><time>2026-03-29T10:02:14Z</time></trkpt><trkpt lat="45.86225700374289" lon="8.934473555225692"><ele>444.0</ele><time>2026-03-29T10:02:15Z</time></trkpt><trkpt lat="45.8621530971411" lon="8.934380150168264"><ele>442.0</ele><time>2026-03-29T10:02:16Z</time></trkpt><trkpt lat="45.86203990653325" lon="8.9342772183403"><ele>440.0</ele><time>2026-03-29T10:02:17Z</time></trkpt><trkpt lat="45.8619441257058" lon="8.93419033734885"><ele>440.0</ele><time>2026-03-29T10:02:18Z</time></trkpt><trkpt lat="45.86184620497611" lon="8.93410002722978"><ele>440.0</ele><time>2026-03-29T10:02:19Z</time></trkpt><trkpt lat="45.861750483850614" lon="8.934029842570725"><ele>440.0</ele><time>2026-03-29T10:02:20Z</time></trkpt><trkpt lat="45.8616519222834" lon="8.933986195849267"><ele>440.0</ele><time>2026-03-29T10:02:20.999Z</time></trkpt><trkpt lat="45.86154443444457" lon="8.933976192924877"><ele>440.0</ele><time>2026-03-29T10:02:21.999Z</time></trkpt><trkpt lat="45.86142772445117" lon="8.934021546464828"><ele>438.2</ele><time>2026-03-29T10:02:22.999Z</time></trkpt><trkpt lat="45.861337205345" lon="8.934042586178347"><ele>436.4</ele><time>2026-03-29T10:02:23.999Z</time></trkpt><trkpt lat="45.86123862568987" lon="8.934011811534807"><ele>434.6</ele><time>2026-03-29T10:02:24.999Z</time></trkpt><trkpt lat="45.861156335679574" lon="8.933959278659842"><ele>432.8</ele><time>2026-03-29T10:02:25.999Z</time></trkpt><trkpt lat="45.86107165391862" lon="8.933841599888511"><ele>431.0</ele><time>2026-03-29T10:02:26.999Z</time></trkpt><trkpt lat="45.86098341634399" lon="8.93369366933954"><ele>428.5</ele><time>2026-03-29T10:02:27.999Z</time></trkpt><trkpt lat="45.860898260635224" lon="8.933544467566609"><ele>426.0</ele><time>2026-03-29T10:02:28.999Z</time></trkpt><trkpt lat="45.86081899536046" lon="8.933390115012566"><ele>423.5</ele><time>2026-03-29T10:02:29.999Z</time></trkpt><trkpt lat="45.86071409712603" lon="8.933280860324066"><ele>421.0</ele><time>2026-03-29T10:02:30.999Z</time></trkpt><trkpt lat="45.86062106951845" lon="8.933192180862687"><ele>421.0</ele><time>2026-03-29T10:02:31.999Z</time></trkpt><trkpt lat="45.860528884840235" lon="8.933099391540692"><ele>421.0</ele><time>2026-03-29T10:02:32.999Z</time></trkpt><trkpt lat="45.86043261766176" lon="8.93299053082807"><ele>421.0</ele><time>2026-03-29T10:02:33.999Z</time></trkpt><trkpt lat="45.86032432014831" lon="8.932881891181035"><ele>421.0</ele><time>2026-03-29T10:02:34.999Z</time></trkpt><trkpt lat="45.860223412460094" lon="8.932770827151067"><ele>419.0</ele><time>2026-03-29T10:02:35.999Z</time></trkpt><trkpt lat="45.860115500517786" lon="8.932654826688852"><ele>417.0</ele><time>2026-03-29T10:02:36.999Z</time></trkpt><trkpt lat="45.86001045814673" lon="8.932548692357157"><ele>415.0</ele><time>2026-03-29T10:02:37.999Z</time></trkpt><trkpt lat="45.859910810804166" lon="8.932446789395929"><ele>413.0</ele><time>2026-03-29T10:02:38.999Z</time></trkpt><trkpt lat="45.8598159163924" lon="8.932344400311855"><ele>413.0</ele><time>2026-03-29T10:02:39.999Z</time></trkpt><trkpt lat="45.85971906278952" lon="8.93224386307552"><ele>413.0</ele><time>2026-03-29T10:02:40.999Z</time></trkpt><trkpt lat="45.85963485825412" lon="8.932155853975122"><ele>413.0</ele><time>2026-03-29T10:02:41.999Z</time></trkpt><trkpt lat="45.85955660737748" lon="8.93206578070122"><ele>413.0</ele><time>2026-03-29T10:02:42.999Z</time></trkpt><trkpt lat="45.85948518587351" lon="8.931980665361886"><ele>413.0</ele><time>2026-03-29T10:02:43.999Z</time></trkpt><trkpt lat="45.85941882499445" lon="8.931908985578557"><ele>412.99999999999994</ele><time>2026-03-29T10:02:44.999Z</time></trkpt><trkpt lat="45.85934587140183" lon="8.931862092201262"><ele>413.0</ele><time>2026-03-29T10:02:45.999Z</time></trkpt><trkpt lat="45.85926683620564" lon="8.931820898349338"><ele>413.0</ele><time>2026-03-29T10:02:46.999Z</time></trkpt><trkpt lat="45.859196844035274" lon="8.931875603216737"><ele>413.0</ele><time>2026-03-29T10:02:47.999Z</time></trkpt><trkpt lat="45.859130677053614" lon="8.93195525312603"><ele>412.99999999999994</ele><time>2026-03-29T10:02:48.999Z</time></trkpt><trkpt lat="45.85909604411755" lon="8.93208098669495"><ele>413.0</ele><time>2026-03-29T10:02:49.999Z</time></trkpt><trkpt lat="45.85911761423247" lon="8.932224366190903"><ele>411.2</ele><time>2026-03-29T10:02:50.999Z</time></trkpt><trkpt lat="45.859173485157136" lon="8.932360359356338"><ele>409.4</ele><time>2026-03-29T10:02:51.999Z</time></trkpt><trkpt lat="45.85925537724399" lon="8.932475850567817"><ele>407.59999999999997</ele><time>2026-03-29T10:02:52.999Z</time></trkpt><trkpt lat="45.85932370795596" lon="8.932587621281515"><ele>405.79999999999995</ele><time>2026-03-29T10:02:53.999Z</time></trkpt><trkpt lat="45.85933815893821" lon="8.932738720584256"><ele>404.0</ele><time>2026-03-29T10:02:54.999Z</time></trkpt><trkpt lat="45.85934863609035" lon="8.932878054331862"><ele>404.0</ele><time>2026-03-29T10:02:55.999Z</time></trkpt><trkpt lat="45.85933936967991" lon="8.933016167963801"><ele>404.0</ele><time>2026-03-29T10:02:56.999Z</time></trkpt><trkpt lat="45.85930545928388" lon="8.933190988857419"><ele>404.0</ele><time>2026-03-29T10:02:57.999Z</time></trkpt><trkpt lat="45.85922974234417" lon="8.933312287399476"><ele>404.0</ele><time>2026-03-29T10:02:58.999Z</time></trkpt><trkpt lat="45.859181582858426" lon="8.933474685183365"><ele>399.75</ele><time>2026-03-29T10:02:59.999Z</time></trkpt><trkpt lat="45.859155344242694" lon="8.933645010909599"><ele>395.5</ele><time>2026-03-29T10:03:00.999Z</time></trkpt><trkpt lat="45.859176731366105" lon="8.933840964917655"><ele>391.25</ele><time>2026-03-29T10:03:01.999Z</time></trkpt><trkpt lat="45.85919488814606" lon="8.934036879253956"><ele>387.0</ele><time>2026-03-29T10:03:02.999Z</time></trkpt><trkpt lat="45.85922518665789" lon="8.93422094279954"><ele>387.0</ele><time>2026-03-29T10:03:03.999Z</time></trkpt><trkpt lat="45.85925943060008" lon="8.934399477757816"><ele>387.0</ele><time>2026-03-29T10:03:04.999Z</time></trkpt><trkpt lat="45.85926581761427" lon="8.93457570761989"><ele>387.0</ele><time>2026-03-29T10:03:05.999Z</time></trkpt><trkpt lat="45.85928654063126" lon="8.934739440751997"><ele>387.0</ele><time>2026-03-29T10:03:06.999Z</time></trkpt><trkpt lat="45.85930342950745" lon="8.934893323060313"><ele>387.0</ele><time>2026-03-29T10:03:07.999Z</time></trkpt><trkpt lat="45.85931126543072" lon="8.935026599141397"><ele>387.0</ele><time>2026-03-29T10:03:08.999Z</time></trkpt><trkpt lat="45.8593072303819" lon="8.935132004907771"><ele>387.0</ele><time>2026-03-29T10:03:09.999Z</time></trkpt><trkpt lat="45.859302267784834" lon="8.935230396699959"><ele>387.0</ele><time>2026-03-29T10:03:10.999Z</time></trkpt><trkpt lat="45.859193749744094" lon="8.935344417435747"><ele>387.0</ele><time>2026-03-29T10:03:12.999Z</time></trkpt><trkpt lat="45.85911164033496" lon="8.935453816160106"><ele>386.6</ele><time>2026-03-29T10:03:13.999Z</time></trkpt><trkpt lat="45.85903280887101" lon="8.935571566876025"><ele>386.20000000000005</ele><time>2026-03-29T10:03:14.999Z</time></trkpt><trkpt lat="45.85897863063527" lon="8.935697879483959"><ele>385.8</ele><time>2026-03-29T10:03:15.999Z</time></trkpt><trkpt lat="45.85894197018787" lon="8.935838884988733"><ele>385.4</ele><time>2026-03-29T10:03:16.999Z</time></trkpt><trkpt lat="45.858905111386434" lon="8.935949997743721"><ele>385.0</ele><time>2026-03-29T10:03:17.999Z</time></trkpt><trkpt lat="45.85887207328478" lon="8.936072314208173"><ele>384.8</ele><time>2026-03-29T10:03:18.999Z</time></trkpt><trkpt lat="45.85885034085846" lon="8.936178316151015"><ele>384.6</ele><time>2026-03-29T10:03:19.999Z</time></trkpt><trkpt lat="45.85884304760105" lon="8.936297505388364"><ele>384.4</ele><time>2026-03-29T10:03:20.999Z</time></trkpt><trkpt lat="45.85888677457187" lon="8.93644077052819"><ele>384.2</ele><time>2026-03-29T10:03:21.999Z</time></trkpt><trkpt lat="45.85893580739988" lon="8.936581667569623"><ele>384.0</ele><time>2026-03-29T10:03:22.999Z</time></trkpt><trkpt lat="45.85899278238557" lon="8.936705212252084"><ele>382.79999999999995</ele><time>2026-03-29T10:03:23.999Z</time></trkpt><trkpt lat="45.85901260300229" lon="8.936817694368221"><ele>381.59999999999997</ele><time>2026-03-29T10:03:24.999Z</time></trkpt><trkpt lat="45.8590490029365" lon="8.936918564870638"><ele>380.4</ele><time>2026-03-29T10:03:25.999Z</time></trkpt><trkpt lat="45.85908844305617" lon="8.93703106871842"><ele>379.2</ele><time>2026-03-29T10:03:27.999Z</time></trkpt><trkpt lat="45.858953132430095" lon="8.937156489294116"><ele>378.0</ele><time>2026-03-29T10:03:30.999Z</time></trkpt><trkpt lat="45.85886002913119" lon="8.937255903823935"><ele>378.0</ele><time>2026-03-29T10:03:31.999Z</time></trkpt><trkpt lat="45.858760251045126" lon="8.93733884898783"><ele>378.0</ele><time>2026-03-29T10:03:33Z</time></trkpt><trkpt lat="45.85867422584223" lon="8.937424526120864"><ele>378.0</ele><time>2026-03-29T10:03:34Z</time></trkpt><trkpt lat="45.85857850100004" lon="8.937479694278123"><ele>378.0</ele><time>2026-03-29T10:03:35Z</time></trkpt><trkpt lat="45.858503849752786" lon="8.937561515851302"><ele>378.0</ele><time>2026-03-29T10:03:36Z</time></trkpt><trkpt lat="45.85843493774061" lon="8.937610291638428"><ele>376.59999999999997</ele><time>2026-03-29T10:03:37Z</time></trkpt><trkpt lat="45.85835510936176" lon="8.937696724170111"><ele>375.2</ele><time>2026-03-29T10:03:39Z</time></trkpt><trkpt lat="45.858299238587726" lon="8.93775250110406"><ele>373.8</ele><time>2026-03-29T10:03:42Z</time></trkpt><trkpt lat="45.85840281947314" lon="8.937949233322758"><ele>372.4</ele><time>2026-03-29T10:03:43Z</time></trkpt><trkpt lat="45.85845950189571" lon="8.93807137287649"><ele>371.0</ele><time>2026-03-29T10:03:44Z</time></trkpt><trkpt lat="45.85849902668826" lon="8.938227561401252"><ele>371.0</ele><time>2026-03-29T10:03:45Z</time></trkpt><trkpt lat="45.85855162433292" lon="8.938377574274329"><ele>371.0</ele><time>2026-03-29T10:03:46Z</time></trkpt><trkpt lat="45.858595650355944" lon="8.93850822903204"><ele>371.0</ele><time>2026-03-29T10:03:47Z</time></trkpt><trkpt lat="45.858651026515936" lon="8.938640817405103"><ele>371.0</ele><time>2026-03-29T10:03:48Z</time></trkpt><trkpt lat="45.858662200005554" lon="8.938796728061174"><ele>371.0</ele><time>2026-03-29T10:03:49Z</time></trkpt><trkpt lat="45.85867536176898" lon="8.938965903568173"><ele>370.5</ele><time>2026-03-29T10:03:50Z</time></trkpt><trkpt lat="45.85869922855965" lon="8.939158480053454"><ele>370.0</ele><time>2026-03-29T10:03:51Z</time></trkpt><trkpt lat="45.858703464251924" lon="8.939366019171711"><ele>369.5</ele><time>2026-03-29T10:03:52Z</time></trkpt><trkpt lat="45.858708622345475" lon="8.939562619913467"><ele>369.0</ele><time>2026-03-29T10:03:53Z</time></trkpt><trkpt lat="45.85871577233721" lon="8.939744102953366"><ele>368.5</ele><time>2026-03-29T10:03:54Z</time></trkpt><trkpt lat="45.85871656006782" lon="8.939912844133724"><ele>368.0</ele><time>2026-03-29T10:03:55Z</time></trkpt><trkpt lat="45.8587055036401" lon="8.940083030874677"><ele>367.5</ele><time>2026-03-29T10:03:56Z</time></trkpt><trkpt lat="45.858704637827095" lon="8.9402500061599"><ele>367.0</ele><time>2026-03-29T10:03:57Z</time></trkpt><trkpt lat="45.858720293610745" lon="8.940424964884183"><ele>366.5</ele><time>2026-03-29T10:03:58Z</time></trkpt><trkpt lat="45.85874891881875" lon="8.9405835645209"><ele>366.0</ele><time>2026-03-29T10:03:59Z</time></trkpt><trkpt lat="45.858733489596645" lon="8.940729079177729"><ele>365.5</ele><time>2026-03-29T10:04:00Z</time></trkpt><trkpt lat="45.85872688798624" lon="8.940906327784493"><ele>365.0</ele><time>2026-03-29T10:04:01Z</time></trkpt><trkpt lat="45.85868863459126" lon="8.941081135678672"><ele>364.75</ele><time>2026-03-29T10:04:02Z</time></trkpt><trkpt lat="45.858635897739426" lon="8.941260405878653"><ele>364.5</ele><time>2026-03-29T10:04:03Z</time></trkpt><trkpt lat="45.858572968574016" lon="8.94143181525414"><ele>364.25</ele><time>2026-03-29T10:04:04Z</time></trkpt><trkpt lat="45.85848174230312" lon="8.941589218373698"><ele>364.0</ele><time>2026-03-29T10:04:05Z</time></trkpt><trkpt lat="45.85840998279183" lon="8.941769052864846"><ele>363.5</ele><time>2026-03-29T10:04:06Z</time></trkpt><trkpt lat="45.85832570442664" lon="8.94193753024939"><ele>363.0</ele><time>2026-03-29T10:04:07Z</time></trkpt><trkpt lat="45.85824916367765" lon="8.942094795075551"><ele>362.5</ele><time>2026-03-29T10:04:08Z</time></trkpt><trkpt lat="45.858175922664756" lon="8.942241633525207"><ele>362.0</ele><time>2026-03-29T10:04:09Z</time></trkpt><trkpt lat="45.85811845685141" lon="8.942365089445527"><ele>362.0</ele><time>2026-03-29T10:04:10Z</time></trkpt><trkpt lat="45.858078554620306" lon="8.942450169777919"><ele>362.0</ele><time>2026-03-29T10:04:11Z</time></trkpt><trkpt lat="45.85802015200958" lon="8.942542393058453"><ele>362.0</ele><time>2026-03-29T10:04:13Z</time></trkpt><trkpt lat="45.85792205953003" lon="8.942645695152729"><ele>362.0</ele><time>2026-03-29T10:04:15Z</time></trkpt><trkpt lat="45.85787762931799" lon="8.942756691023792"><ele>362.0</ele><time>2026-03-29T10:04:16Z</time></trkpt><trkpt lat="45.85783389894523" lon="8.942907247986025"><ele>361.5</ele><time>2026-03-29T10:04:17Z</time></trkpt><trkpt lat="45.85776544524973" lon="8.943061450515668"><ele>361.0</ele><time>2026-03-29T10:04:18Z</time></trkpt><trkpt lat="45.85766043691005" lon="8.943202689156154"><ele>360.5</ele><time>2026-03-29T10:04:19Z</time></trkpt><trkpt lat="45.85757267070736" lon="8.94338655269432"><ele>360.0</ele><time>2026-03-29T10:04:20Z</time></trkpt><trkpt lat="45.85745932897882" lon="8.943543725132178"><ele>359.3333333333333</ele><time>2026-03-29T10:04:21Z</time></trkpt><trkpt lat="45.85733767205602" lon="8.943778477567513"><ele>358.66666666666663</ele><time>2026-03-29T10:04:22Z</time></trkpt><trkpt lat="45.85721114368228" lon="8.94400240424982"><ele>358.0</ele><time>2026-03-29T10:04:23Z</time></trkpt><trkpt lat="45.85707283843483" lon="8.944236839080283"><ele>358.0</ele><time>2026-03-29T10:04:24Z</time></trkpt><trkpt lat="45.85692753476017" lon="8.944480876712147"><ele>358.0</ele><time>2026-03-29T10:04:25Z</time></trkpt><trkpt lat="45.85677091305942" lon="8.944732399137147"><ele>357.0</ele><time>2026-03-29T10:04:26Z</time></trkpt><trkpt lat="45.85663310890439" lon="8.944973858781493"><ele>356.0</ele><time>2026-03-29T10:04:27Z</time></trkpt><trkpt lat="45.8564842211113" lon="8.945220129884158"><ele>355.0</ele><time>2026-03-29T10:04:28Z</time></trkpt><trkpt lat="45.856344585596496" lon="8.945454416599476"><ele>355.0</ele><time>2026-03-29T10:04:29Z</time></trkpt><trkpt lat="45.85621124106288" lon="8.945678755244224"><ele>355.0</ele><time>2026-03-29T10:04:30Z</time></trkpt><trkpt lat="45.856082651082744" lon="8.945906721535893"><ele>355.0</ele><time>2026-03-29T10:04:31Z</time></trkpt><trkpt lat="45.85594703617035" lon="8.946133466547305"><ele>354.66666666666663</ele><time>2026-03-29T10:04:32Z</time></trkpt><trkpt lat="45.85581621051572" lon="8.946343687370815"><ele>354.3333333333333</ele><time>2026-03-29T10:04:33Z</time></trkpt><trkpt lat="45.855711524961414" lon="8.946557505954447"><ele>354.0</ele><time>2026-03-29T10:04:33.999Z</time></trkpt><trkpt lat="45.85557559968452" lon="8.946778009449998"><ele>352.6666666666667</ele><time>2026-03-29T10:04:34.999Z</time></trkpt><trkpt lat="45.85545950296237" lon="8.946973468329192"><ele>351.33333333333337</ele><time>2026-03-29T10:04:35.999Z</time></trkpt><trkpt lat="45.855345695492574" lon="8.947164982809605"><ele>350.0</ele><time>2026-03-29T10:04:36.999Z</time></trkpt><trkpt lat="45.855238473789186" lon="8.947344523032738"><ele>350.0</ele><time>2026-03-29T10:04:37.999Z</time></trkpt><trkpt lat="45.85512915336053" lon="8.947525639903947"><ele>350.0</ele><time>2026-03-29T10:04:38.999Z</time></trkpt><trkpt lat="45.85502639411558" lon="8.947702430407075"><ele>350.0</ele><time>2026-03-29T10:04:39.999Z</time></trkpt><trkpt lat="45.85492911805148" lon="8.947880752758543"><ele>349.0</ele><time>2026-03-29T10:04:40.999Z</time></trkpt><trkpt lat="45.85484542329438" lon="8.948043508677168"><ele>348.0</ele><time>2026-03-29T10:04:41.999Z</time></trkpt><trkpt lat="45.85476986248978" lon="8.948197704776101"><ele>347.0</ele><time>2026-03-29T10:04:42.999Z</time></trkpt><trkpt lat="45.854698104340606" lon="8.948338375236661"><ele>346.0</ele><time>2026-03-29T10:04:43.999Z</time></trkpt><trkpt lat="45.85462707415664" lon="8.948456410943805"><ele>346.0</ele><time>2026-03-29T10:04:44.999Z</time></trkpt><trkpt lat="45.85456268662765" lon="8.948559036385033"><ele>346.0</ele><time>2026-03-29T10:04:45.999Z</time></trkpt><trkpt lat="45.854516448675916" lon="8.948637701607472"><ele>346.0</ele><time>2026-03-29T10:04:46.999Z</time></trkpt><trkpt lat="45.85447730553408" lon="8.94873487432331"><ele>346.0</ele><time>2026-03-29T10:04:47.999Z</time></trkpt><trkpt lat="45.85443402814268" lon="8.948829182192233"><ele>346.0</ele><time>2026-03-29T10:04:48.999Z</time></trkpt><trkpt lat="45.85438960142323" lon="8.948923490306866"><ele>346.0</ele><time>2026-03-29T10:04:49.999Z</time></trkpt><trkpt lat="45.854513310272296" lon="8.94912764427691"><ele>346.75</ele><time>2026-03-29T10:04:50.999Z</time></trkpt><trkpt lat="45.85456616276305" lon="8.949305477448629"><ele>347.5</ele><time>2026-03-29T10:04:51.999Z</time></trkpt><trkpt lat="45.85463255087946" lon="8.949480288105075"><ele>348.25</ele><time>2026-03-29T10:04:52.999Z</time></trkpt><trkpt lat="45.85470026592487" lon="8.94968745272427"><ele>349.0</ele><time>2026-03-29T10:04:53.999Z</time></trkpt><trkpt lat="45.85477157046015" lon="8.94986399777921"><ele>349.5</ele><time>2026-03-29T10:04:54.999Z</time></trkpt><trkpt lat="45.85491585917148" lon="8.950273367271791"><ele>350.0</ele><time>2026-03-29T10:04:56.999Z</time></trkpt><trkpt lat="45.85498729849619" lon="8.950486280934246"><ele>350.0</ele><time>2026-03-29T10:04:57.999Z</time></trkpt><trkpt lat="45.855053933876285" lon="8.950708187947589"><ele>350.0</ele><time>2026-03-29T10:04:58.999Z</time></trkpt><trkpt lat="45.85513108018931" lon="8.95093983524321"><ele>350.0</ele><time>2026-03-29T10:04:59.999Z</time></trkpt><trkpt lat="45.855206740656456" lon="8.95116178539803"><ele>349.6666666666667</ele><time>2026-03-29T10:05:00.999Z</time></trkpt><trkpt lat="45.85528521313751" lon="8.951387481483568"><ele>349.3333333333333</ele><time>2026-03-29T10:05:01.999Z</time></trkpt><trkpt lat="45.85536225669078" lon="8.951613228112885"><ele>349.0</ele><time>2026-03-29T10:05:02.999Z</time></trkpt><trkpt lat="45.85543617315058" lon="8.951837588031797"><ele>349.0</ele><time>2026-03-29T10:05:03.999Z</time></trkpt><trkpt lat="45.855504924731754" lon="8.952044581631574"><ele>349.0</ele><time>2026-03-29T10:05:04.999Z</time></trkpt><trkpt lat="45.855591214311616" lon="8.952250307205228"><ele>349.0</ele><time>2026-03-29T10:05:05.999Z</time></trkpt><trkpt lat="45.85568269310439" lon="8.952449820328846"><ele>350.0</ele><time>2026-03-29T10:05:06.999Z</time></trkpt><trkpt lat="45.8557768691771" lon="8.952645807034145"><ele>351.0</ele><time>2026-03-29T10:05:07.999Z</time></trkpt><trkpt lat="45.855871638878995" lon="8.952835000870053"><ele>352.0</ele><time>2026-03-29T10:05:08.999Z</time></trkpt><trkpt lat="45.855967006082494" lon="8.953016085047837"><ele>352.0</ele><time>2026-03-29T10:05:09.999Z</time></trkpt><trkpt lat="45.856078562946315" lon="8.95319016353889"><ele>352.0</ele><time>2026-03-29T10:05:10.999Z</time></trkpt><trkpt lat="45.856179332664354" lon="8.953361813108836"><ele>352.0</ele><time>2026-03-29T10:05:11.999Z</time></trkpt><trkpt lat="45.85629493279456" lon="8.953532723268054"><ele>352.3333333333333</ele><time>2026-03-29T10:05:12.999Z</time></trkpt><trkpt lat="45.85640705017865" lon="8.95369980656775"><ele>352.6666666666667</ele><time>2026-03-29T10:05:13.999Z</time></trkpt><trkpt lat="45.85652419308512" lon="8.953868452683338"><ele>353.0</ele><time>2026-03-29T10:05:14.999Z</time></trkpt><trkpt lat="45.85663814067674" lon="8.954060569086964"><ele>353.0</ele><time>2026-03-29T10:05:15.999Z</time></trkpt><trkpt lat="45.85674835394717" lon="8.954202364873499"><ele>353.0</ele><time>2026-03-29T10:05:16.999Z</time></trkpt><trkpt lat="45.85685514815476" lon="8.95435971913259"><ele>353.0</ele><time>2026-03-29T10:05:17.999Z</time></trkpt><trkpt lat="45.856959678207815" lon="8.954517858320484"><ele>352.5</ele><time>2026-03-29T10:05:18.999Z</time></trkpt><trkpt lat="45.85706175655658" lon="8.954677686912483"><ele>352.0</ele><time>2026-03-29T10:05:19.999Z</time></trkpt><trkpt lat="45.857161216713486" lon="8.95482833009436"><ele>351.5</ele><time>2026-03-29T10:05:20.999Z</time></trkpt><trkpt lat="45.85726020713675" lon="8.954974147347993"><ele>351.0</ele><time>2026-03-29T10:05:21.999Z</time></trkpt><trkpt lat="45.85735617546158" lon="8.955111990135562"><ele>351.0</ele><time>2026-03-29T10:05:22.999Z</time></trkpt><trkpt lat="45.85744694193229" lon="8.955254522886499"><ele>351.0</ele><time>2026-03-29T10:05:23.999Z</time></trkpt><trkpt lat="45.85754336534982" lon="8.95538933183876"><ele>351.0</ele><time>2026-03-29T10:05:24.999Z</time></trkpt><trkpt lat="45.85763980008717" lon="8.955537183642386"><ele>351.0</ele><time>2026-03-29T10:05:25.999Z</time></trkpt><trkpt lat="45.8577372731913" lon="8.955709212509005"><ele>350.25</ele><time>2026-03-29T10:05:26.999Z</time></trkpt><trkpt lat="45.857821351868445" lon="8.95587747260527"><ele>349.5</ele><time>2026-03-29T10:05:27.999Z</time></trkpt><trkpt lat="45.85789156928665" lon="8.95605022076403"><ele>348.75</ele><time>2026-03-29T10:05:28.999Z</time></trkpt><trkpt lat="45.857964654416286" lon="8.956237368084736"><ele>348.0</ele><time>2026-03-29T10:05:29.999Z</time></trkpt><trkpt lat="45.85802648281415" lon="8.95641957794534"><ele>348.0</ele><time>2026-03-29T10:05:30.999Z</time></trkpt><trkpt lat="45.85808565181396" lon="8.95659093108768"><ele>348.0</ele><time>2026-03-29T10:05:31.999Z</time></trkpt><trkpt lat="45.858136233335856" lon="8.956750069218531"><ele>348.0</ele><time>2026-03-29T10:05:32.999Z</time></trkpt><trkpt lat="45.85817756874289" lon="8.956913396697374"><ele>348.0</ele><time>2026-03-29T10:05:33.999Z</time></trkpt><trkpt lat="45.85822941777834" lon="8.957050876711538"><ele>347.4</ele><time>2026-03-29T10:05:34.999Z</time></trkpt><trkpt lat="45.858269154706676" lon="8.9571972305068"><ele>346.79999999999995</ele><time>2026-03-29T10:05:35.999Z</time></trkpt><trkpt lat="45.85831223996025" lon="8.95733216935504"><ele>346.2</ele><time>2026-03-29T10:05:36.999Z</time></trkpt><trkpt lat="45.858352708603555" lon="8.957458913097197"><ele>345.6</ele><time>2026-03-29T10:05:37.999Z</time></trkpt><trkpt lat="45.85838966729469" lon="8.957574664000527"><ele>345.0</ele><time>2026-03-29T10:05:39Z</time></trkpt><trkpt lat="45.85842402242758" lon="8.957692535531844"><ele>344.5</ele><time>2026-03-29T10:05:40Z</time></trkpt><trkpt lat="45.85844506565117" lon="8.957788131011052"><ele>344.0</ele><time>2026-03-29T10:05:41Z</time></trkpt><trkpt lat="45.85845185994636" lon="8.957899412742277"><ele>343.5</ele><time>2026-03-29T10:05:42Z</time></trkpt><trkpt lat="45.85844773138403" lon="8.957994339555755"><ele>343.0</ele><time>2026-03-29T10:05:43Z</time></trkpt><trkpt lat="45.8583926380135" lon="8.95808336835412"><ele>342.5</ele><time>2026-03-29T10:05:44Z</time></trkpt><trkpt lat="45.858338347659824" lon="8.958135373719236"><ele>342.0</ele><time>2026-03-29T10:05:45Z</time></trkpt><trkpt lat="45.8582520663232" lon="8.958184332960514"><ele>341.75</ele><time>2026-03-29T10:05:46Z</time></trkpt><trkpt lat="45.85814917300669" lon="8.958249329475665"><ele>341.5</ele><time>2026-03-29T10:05:47Z</time></trkpt><trkpt lat="45.85800832740327" lon="8.958339831778384"><ele>341.25</ele><time>2026-03-29T10:05:48Z</time></trkpt><trkpt lat="45.857891014507096" lon="8.958430425290253"><ele>341.0</ele><time>2026-03-29T10:05:49Z</time></trkpt><trkpt lat="45.8577951977762" lon="8.958504501846575"><ele>340.4</ele><time>2026-03-29T10:05:50Z</time></trkpt><trkpt lat="45.85770483717035" lon="8.95857848443353"><ele>339.8</ele><time>2026-03-29T10:05:51Z</time></trkpt><trkpt lat="45.85761684574982" lon="8.95866348282285"><ele>339.2</ele><time>2026-03-29T10:05:52Z</time></trkpt><trkpt lat="45.857545125925164" lon="8.958719184829365"><ele>338.59999999999997</ele><time>2026-03-29T10:05:53Z</time></trkpt><trkpt lat="45.857430221968016" lon="8.95882376307533"><ele>338.0</ele><time>2026-03-29T10:05:54Z</time></trkpt><trkpt lat="45.85733731981755" lon="8.958903013507914"><ele>337.59999999999997</ele><time>2026-03-29T10:05:55Z</time></trkpt><trkpt lat="45.857245591067915" lon="8.958982343125042"><ele>337.2</ele><time>2026-03-29T10:05:56Z</time></trkpt><trkpt lat="45.85715332795679" lon="8.959075630289792"><ele>336.8</ele><time>2026-03-29T10:05:57Z</time></trkpt><trkpt lat="45.85706438160578" lon="8.959160430947286"><ele>336.4</ele><time>2026-03-29T10:05:58Z</time></trkpt><trkpt lat="45.85696380337818" lon="8.9592222370818"><ele>336.0</ele><time>2026-03-29T10:05:59Z</time></trkpt><trkpt lat="45.85688054650245" lon="8.95932286129868"><ele>335.6</ele><time>2026-03-29T10:06:00Z</time></trkpt><trkpt lat="45.85678226300702" lon="8.959384765994848"><ele>335.20000000000005</ele><time>2026-03-29T10:06:01Z</time></trkpt><trkpt lat="45.8566909543188" lon="8.959468544137916"><ele>334.79999999999995</ele><time>2026-03-29T10:06:02Z</time></trkpt><trkpt lat="45.85659914300908" lon="8.959551483109346"><ele>334.4</ele><time>2026-03-29T10:06:03Z</time></trkpt><trkpt lat="45.85652174079222" lon="8.959659003837091"><ele>334.0</ele><time>2026-03-29T10:06:04Z</time></trkpt><trkpt lat="45.856444543599615" lon="8.959717879591548"><ele>334.0</ele><time>2026-03-29T10:06:05Z</time></trkpt><trkpt lat="45.85636663644894" lon="8.959786571741146"><ele>334.0</ele><time>2026-03-29T10:06:06Z</time></trkpt><trkpt lat="45.856288052585015" lon="8.959856002796824"><ele>334.0</ele><time>2026-03-29T10:06:07Z</time></trkpt><trkpt lat="45.856198106861946" lon="8.959911445338975"><ele>334.0</ele><time>2026-03-29T10:06:08Z</time></trkpt><trkpt lat="45.856127930365055" lon="8.960000381802239"><ele>334.0</ele><time>2026-03-29T10:06:09Z</time></trkpt><trkpt lat="45.85605199644974" lon="8.96006802009774"><ele>334.66666666666663</ele><time>2026-03-29T10:06:10Z</time></trkpt><trkpt lat="45.85596846649434" lon="8.960135611243453"><ele>335.3333333333333</ele><time>2026-03-29T10:06:11Z</time></trkpt><trkpt lat="45.85589497266518" lon="8.960203347113477"><ele>336.0</ele><time>2026-03-29T10:06:12Z</time></trkpt><trkpt lat="45.85581687534211" lon="8.960267926985784"><ele>336.6666666666667</ele><time>2026-03-29T10:06:13Z</time></trkpt><trkpt lat="45.855741508253494" lon="8.96033120052124"><ele>337.33333333333337</ele><time>2026-03-29T10:06:14Z</time></trkpt><trkpt lat="45.855674813373284" lon="8.960378240910478"><ele>338.0</ele><time>2026-03-29T10:06:15Z</time></trkpt><trkpt lat="45.855603657779746" lon="8.96043644935707"><ele>338.6666666666667</ele><time>2026-03-29T10:06:16Z</time></trkpt><trkpt lat="45.85553247659014" lon="8.960489472089995"><ele>339.33333333333337</ele><time>2026-03-29T10:06:17Z</time></trkpt><trkpt lat="45.85545229332567" lon="8.960543291418826"><ele>340.0</ele><time>2026-03-29T10:06:18Z</time></trkpt><trkpt lat="45.85536593692822" lon="8.960607903895824"><ele>340.6666666666667</ele><time>2026-03-29T10:06:19Z</time></trkpt><trkpt lat="45.85527714084955" lon="8.960630066887498"><ele>341.3333333333333</ele><time>2026-03-29T10:06:20Z</time></trkpt><trkpt lat="45.85518696504083" lon="8.960642186329592"><ele>342.0</ele><time>2026-03-29T10:06:21Z</time></trkpt><trkpt lat="45.85509765071536" lon="8.960654071583042"><ele>342.0</ele><time>2026-03-29T10:06:22Z</time></trkpt><trkpt lat="45.85500999356914" lon="8.960685659959069"><ele>342.0</ele><time>2026-03-29T10:06:23Z</time></trkpt><trkpt lat="45.8549335709352" lon="8.960734809702291"><ele>342.0</ele><time>2026-03-29T10:06:24Z</time></trkpt><trkpt lat="45.85485932806795" lon="8.9608316808723"><ele>342.0</ele><time>2026-03-29T10:06:25Z</time></trkpt><trkpt lat="45.85481157459785" lon="8.960937306668754"><ele>342.0</ele><time>2026-03-29T10:06:26Z</time></trkpt><trkpt lat="45.854784881612055" lon="8.961063938677487"><ele>342.40000000000003</ele><time>2026-03-29T10:06:27Z</time></trkpt><trkpt lat="45.854777513402354" lon="8.96117885629435"><ele>342.8</ele><time>2026-03-29T10:06:28Z</time></trkpt><trkpt lat="45.85480532564884" lon="8.961304503695603"><ele>343.2</ele><time>2026-03-29T10:06:28.999Z</time></trkpt><trkpt lat="45.854829179851606" lon="8.961423705676307"><ele>343.6</ele><time>2026-03-29T10:06:29.999Z</time></trkpt><trkpt lat="45.85489123036284" lon="8.9615302435276"><ele>344.0</ele><time>2026-03-29T10:06:30.999Z</time></trkpt><trkpt lat="45.854957168249825" lon="8.961649664969743"><ele>343.79999999999995</ele><time>2026-03-29T10:06:31.999Z</time></trkpt><trkpt lat="45.85502280228958" lon="8.961764791089577"><ele>343.59999999999997</ele><time>2026-03-29T10:06:32.999Z</time></trkpt><trkpt lat="45.85507935297782" lon="8.961872135302983"><ele>343.4</ele><time>2026-03-29T10:06:33.999Z</time></trkpt><trkpt lat="45.85514214778883" lon="8.96197990885355"><ele>343.2</ele><time>2026-03-29T10:06:34.999Z</time></trkpt><trkpt lat="45.85519501035845" lon="8.962102216296383"><ele>343.0</ele><time>2026-03-29T10:06:35.999Z</time></trkpt><trkpt lat="45.85525936743073" lon="8.96222564123987"><ele>342.79999999999995</ele><time>2026-03-29T10:06:36.999Z</time></trkpt><trkpt lat="45.855325133629975" lon="8.962334657105343"><ele>342.6</ele><time>2026-03-29T10:06:37.999Z</time></trkpt><trkpt lat="45.85539663466855" lon="8.962465398540003"><ele>342.4</ele><time>2026-03-29T10:06:38.999Z</time></trkpt><trkpt lat="45.85546233440042" lon="8.962597225832615"><ele>342.20000000000005</ele><time>2026-03-29T10:06:39.999Z</time></trkpt><trkpt lat="45.855529553522516" lon="8.962734238077159"><ele>342.0</ele><time>2026-03-29T10:06:40.999Z</time></trkpt><trkpt lat="45.85559920306231" lon="8.962858148323955"><ele>342.40000000000003</ele><time>2026-03-29T10:06:41.999Z</time></trkpt><trkpt lat="45.855665202993684" lon="8.962974011984892"><ele>342.8</ele><time>2026-03-29T10:06:42.999Z</time></trkpt><trkpt lat="45.85572777605301" lon="8.963098759507274"><ele>343.2</ele><time>2026-03-29T10:06:43.999Z</time></trkpt><trkpt lat="45.85578646943593" lon="8.963234928298641"><ele>343.6</ele><time>2026-03-29T10:06:44.999Z</time></trkpt><trkpt lat="45.85585436711828" lon="8.963352080079229"><ele>344.0</ele><time>2026-03-29T10:06:45.999Z</time></trkpt><trkpt lat="45.855929145490705" lon="8.963477748581068"><ele>343.5</ele><time>2026-03-29T10:06:46.999Z</time></trkpt><trkpt lat="45.855998121397235" lon="8.963608464274097"><ele>343.0</ele><time>2026-03-29T10:06:47.999Z</time></trkpt><trkpt lat="45.856063540132055" lon="8.963735708593365"><ele>342.5</ele><time>2026-03-29T10:06:48.999Z</time></trkpt><trkpt lat="45.856130383646956" lon="8.963869054902393"><ele>342.0</ele><time>2026-03-29T10:06:49.999Z</time></trkpt><trkpt lat="45.85619737258744" lon="8.963997659004148"><ele>342.0</ele><time>2026-03-29T10:06:50.999Z</time></trkpt><trkpt lat="45.85626444824808" lon="8.964124489566958"><ele>342.0</ele><time>2026-03-29T10:06:51.999Z</time></trkpt><trkpt lat="45.85633156859095" lon="8.964245512389084"><ele>342.0</ele><time>2026-03-29T10:06:52.999Z</time></trkpt><trkpt lat="45.856400742643416" lon="8.96436871043534"><ele>342.0</ele><time>2026-03-29T10:06:53.999Z</time></trkpt><trkpt lat="45.8564687308222" lon="8.964495603222568"><ele>342.0</ele><time>2026-03-29T10:06:54.999Z</time></trkpt><trkpt lat="45.856533947512666" lon="8.964623563477527"><ele>341.8</ele><time>2026-03-29T10:06:55.999Z</time></trkpt><trkpt lat="45.85660432034589" lon="8.964747979931014"><ele>341.6</ele><time>2026-03-29T10:06:56.999Z</time></trkpt><trkpt lat="45.85666838592476" lon="8.964873952766403"><ele>341.40000000000003</ele><time>2026-03-29T10:06:57.999Z</time></trkpt><trkpt lat="45.8567328395827" lon="8.964997928270087"><ele>341.20000000000005</ele><time>2026-03-29T10:06:58.999Z</time></trkpt><trkpt lat="45.85678856014998" lon="8.965131211175494"><ele>341.0</ele><time>2026-03-29T10:06:59.999Z</time></trkpt><trkpt lat="45.85685204223916" lon="8.965243068850516"><ele>341.0</ele><time>2026-03-29T10:07:00.999Z</time></trkpt><trkpt lat="45.856912677890236" lon="8.96537640474226"><ele>341.0</ele><time>2026-03-29T10:07:01.999Z</time></trkpt><trkpt lat="45.85696080426021" lon="8.965509327455205"><ele>341.0</ele><time>2026-03-29T10:07:02.999Z</time></trkpt><trkpt lat="45.85700494031296" lon="8.965669457744685"><ele>341.0</ele><time>2026-03-29T10:07:03.999Z</time></trkpt><trkpt lat="45.85704492375719" lon="8.965804753438926"><ele>341.0</ele><time>2026-03-29T10:07:04.999Z</time></trkpt><trkpt lat="45.85707828028966" lon="8.965955608406668"><ele>341.1666666666667</ele><time>2026-03-29T10:07:05.999Z</time></trkpt><trkpt lat="45.85710060067002" lon="8.966116813377448"><ele>341.33333333333337</ele><time>2026-03-29T10:07:06.999Z</time></trkpt><trkpt lat="45.85713552919875" lon="8.966230319761962"><ele>341.5</ele><time>2026-03-29T10:07:07.999Z</time></trkpt><trkpt lat="45.85714865402575" lon="8.966351518655156"><ele>341.6666666666667</ele><time>2026-03-29T10:07:08.999Z</time></trkpt><trkpt lat="45.857165896336504" lon="8.966446447858964"><ele>341.8333333333333</ele><time>2026-03-29T10:07:09.999Z</time></trkpt><trkpt lat="45.85717980950196" lon="8.966554603227877"><ele>342.0</ele><time>2026-03-29T10:07:10.999Z</time></trkpt><trkpt lat="45.85719619362189" lon="8.966646062165536"><ele>341.8333333333333</ele><time>2026-03-29T10:07:11.999Z</time></trkpt><trkpt lat="45.857212428727195" lon="8.966737066938858"><ele>341.6666666666667</ele><time>2026-03-29T10:07:12.999Z</time></trkpt><trkpt lat="45.857221304278504" lon="8.966828576852324"><ele>341.5</ele><time>2026-03-29T10:07:13.999Z</time></trkpt><trkpt lat="45.85719514288103" lon="8.96691451401511"><ele>341.33333333333337</ele><time>2026-03-29T10:07:14.999Z</time></trkpt><trkpt lat="45.85722515117714" lon="8.966996894424058"><ele>341.1666666666667</ele><time>2026-03-29T10:07:15.999Z</time></trkpt><trkpt lat="45.85724792680726" lon="8.967137000474715"><ele>341.0</ele><time>2026-03-29T10:07:17.999Z</time></trkpt><trkpt lat="45.85722857047485" lon="8.967265682470746"><ele>341.0</ele><time>2026-03-29T10:07:19.999Z</time></trkpt><trkpt lat="45.85729229104649" lon="8.967280046094098"><ele>341.0</ele><time>2026-03-29T10:07:21.999Z</time></trkpt><trkpt lat="45.85728778994134" lon="8.967174796912763"><ele>341.0</ele><time>2026-03-29T10:07:26.999Z</time></trkpt><trkpt lat="45.857254391207114" lon="8.967065469821323"><ele>341.0</ele><time>2026-03-29T10:07:27.999Z</time></trkpt><trkpt lat="45.85725127119931" lon="8.966896467806112"><ele>341.0</ele><time>2026-03-29T10:07:28.999Z</time></trkpt><trkpt lat="45.857220965763986" lon="8.96676754319922"><ele>341.0</ele><time>2026-03-29T10:07:29.999Z</time></trkpt><trkpt lat="45.857166114579165" lon="8.966631469270155"><ele>341.0</ele><time>2026-03-29T10:07:30.999Z</time></trkpt><trkpt lat="45.85715352618536" lon="8.966371289342472"><ele>341.0</ele><time>2026-03-29T10:07:31.999Z</time></trkpt><trkpt lat="45.85712824176415" lon="8.966187863501265"><ele>341.0</ele><time>2026-03-29T10:07:32.999Z</time></trkpt><trkpt lat="45.85709853463918" lon="8.966012258550165"><ele>341.0</ele><time>2026-03-29T10:07:33.999Z</time></trkpt><trkpt lat="45.8570602691593" lon="8.965841026259048"><ele>341.0</ele><time>2026-03-29T10:07:34.999Z</time></trkpt><trkpt lat="45.857020931516445" lon="8.965654274060805"><ele>341.0</ele><time>2026-03-29T10:07:35.999Z</time></trkpt><trkpt lat="45.856972072082876" lon="8.965480468507435"><ele>341.0</ele><time>2026-03-29T10:07:36.999Z</time></trkpt><trkpt lat="45.85691279546866" lon="8.965324744244219"><ele>341.0</ele><time>2026-03-29T10:07:37.999Z</time></trkpt><trkpt lat="45.85685525841607" lon="8.96519273507278"><ele>341.0</ele><time>2026-03-29T10:07:38.999Z</time></trkpt><trkpt lat="45.85679689405903" lon="8.965071475474858"><ele>341.0</ele><time>2026-03-29T10:07:39.999Z</time></trkpt><trkpt lat="45.856734853017066" lon="8.964962034682415"><ele>341.0</ele><time>2026-03-29T10:07:40.999Z</time></trkpt><trkpt lat="45.85668346333201" lon="8.964863574639873"><ele>341.0</ele><time>2026-03-29T10:07:41.999Z</time></trkpt><trkpt lat="45.85663180950254" lon="8.96477147163856"><ele>341.0</ele><time>2026-03-29T10:07:42.999Z</time></trkpt><trkpt lat="45.8565816339209" lon="8.964675732335381"><ele>341.0</ele><time>2026-03-29T10:07:45.999Z</time></trkpt><trkpt lat="45.85643431693" lon="8.96462200573764"><ele>341.0</ele><time>2026-03-29T10:07:48.999Z</time></trkpt><trkpt lat="45.85655459042252" lon="8.964885509501263"><ele>341.0</ele><time>2026-03-29T10:07:52Z</time></trkpt><trkpt lat="45.856614934833914" lon="8.964923272778138"><ele>341.0</ele><time>2026-03-29T10:08:10Z</time></trkpt><trkpt lat="45.85662813645105" lon="8.965015679873781"><ele>341.0</ele><time>2026-03-29T10:08:26Z</time></trkpt><trkpt lat="45.856709014326036" lon="8.965009466793859"><ele>341.0</ele><time>2026-03-29T10:08:30Z</time></trkpt><trkpt lat="45.85680464900823" lon="8.965187936238571"><ele>341.0</ele><time>2026-03-29T10:08:31.999Z</time></trkpt><trkpt lat="45.85686094289971" lon="8.965342011839548"><ele>341.0</ele><time>2026-03-29T10:08:32.999Z</time></trkpt><trkpt lat="45.85693972700374" lon="8.965478312839192"><ele>341.0</ele><time>2026-03-29T10:08:33.999Z</time></trkpt><trkpt lat="45.857009196126754" lon="8.965689446490833"><ele>341.0</ele><time>2026-03-29T10:08:34.999Z</time></trkpt><trkpt lat="45.85707359436292" lon="8.965943087930562"><ele>341.0</ele><time>2026-03-29T10:08:35.999Z</time></trkpt><trkpt lat="45.85712753457782" lon="8.966226734065545"><ele>341.0</ele><time>2026-03-29T10:08:36.999Z</time></trkpt><trkpt lat="45.857165517496696" lon="8.966527535791172"><ele>341.0</ele><time>2026-03-29T10:08:37.999Z</time></trkpt><trkpt lat="45.8572082354706" lon="8.966787658946082"><ele>341.0</ele><time>2026-03-29T10:08:38.999Z</time></trkpt><trkpt lat="45.8572472536014" lon="8.967027740955094"><ele>341.0</ele><time>2026-03-29T10:08:39.999Z</time></trkpt><trkpt lat="45.8572883452635" lon="8.967255518066045"><ele>341.0</ele><time>2026-03-29T10:08:40.999Z</time></trkpt><trkpt lat="45.85732157462823" lon="8.96746657946719"><ele>341.0</ele><time>2026-03-29T10:08:41.999Z</time></trkpt><trkpt lat="45.85734816026027" lon="8.967652444041065"><ele>341.0</ele><time>2026-03-29T10:08:42.999Z</time></trkpt><trkpt lat="45.85736879477455" lon="8.96782457459088"><ele>341.20000000000005</ele><time>2026-03-29T10:08:43.999Z</time></trkpt><trkpt lat="45.857396132176284" lon="8.968003553326215"><ele>341.40000000000003</ele><time>2026-03-29T10:08:44.999Z</time></trkpt><trkpt lat="45.857416376220094" lon="8.968151529070512"><ele>341.6</ele><time>2026-03-29T10:08:45.999Z</time></trkpt><trkpt lat="45.85744664798807" lon="8.968290058054059"><ele>341.8</ele><time>2026-03-29T10:08:46.999Z</time></trkpt><trkpt lat="45.85748996109811" lon="8.968424910280651"><ele>342.0</ele><time>2026-03-29T10:08:47.999Z</time></trkpt><trkpt lat="45.85752530289394" lon="8.968540390688903"><ele>342.0</ele><time>2026-03-29T10:08:48.999Z</time></trkpt><trkpt lat="45.85755681126927" lon="8.968644313452254"><ele>342.0</ele><time>2026-03-29T10:08:49.999Z</time></trkpt><trkpt lat="45.85755660128538" lon="8.968744209435537"><ele>342.0</ele><time>2026-03-29T10:08:50.999Z</time></trkpt><trkpt lat="45.85752173381949" lon="8.968831380590935"><ele>342.0</ele><time>2026-03-29T10:08:51.999Z</time></trkpt><trkpt lat="45.857491793416976" lon="8.968914396608888"><ele>342.0</ele><time>2026-03-29T10:08:52.999Z</time></trkpt><trkpt lat="45.8575601832731" lon="8.969073616277932"><ele>342.0</ele><time>2026-03-29T10:08:54.999Z</time></trkpt><trkpt lat="45.85763722933827" lon="8.969095823107153"><ele>342.40000000000003</ele><time>2026-03-29T10:08:55.999Z</time></trkpt><trkpt lat="45.85772704556322" lon="8.969102736128182"><ele>342.8</ele><time>2026-03-29T10:08:57.999Z</time></trkpt><trkpt lat="45.85781403766268" lon="8.969166400292572"><ele>343.2</ele><time>2026-03-29T10:09:03.999Z</time></trkpt><trkpt lat="45.8578825834805" lon="8.96922916045745"><ele>343.6</ele><time>2026-03-29T10:09:04.999Z</time></trkpt><trkpt lat="45.85794852959721" lon="8.969307302610808"><ele>344.0</ele><time>2026-03-29T10:09:05.999Z</time></trkpt><trkpt lat="45.85803416537783" lon="8.969381396787373"><ele>344.0</ele><time>2026-03-29T10:09:06.999Z</time></trkpt><trkpt lat="45.85814479672173" lon="8.969462636295985"><ele>344.0</ele><time>2026-03-29T10:09:07.999Z</time></trkpt><trkpt lat="45.85826506820423" lon="8.969539724800752"><ele>344.0</ele><time>2026-03-29T10:09:08.999Z</time></trkpt><trkpt lat="45.85839261203189" lon="8.969618567273933"><ele>344.0</ele><time>2026-03-29T10:09:09.999Z</time></trkpt><trkpt lat="45.858527258602294" lon="8.969733208640257"><ele>344.33333333333337</ele><time>2026-03-29T10:09:10.999Z</time></trkpt><trkpt lat="45.858686270297234" lon="8.96982044966477"><ele>344.6666666666667</ele><time>2026-03-29T10:09:11.999Z</time></trkpt><trkpt lat="45.85882733621495" lon="8.969922045956519"><ele>345.0</ele><time>2026-03-29T10:09:12.999Z</time></trkpt><trkpt lat="45.85897090669067" lon="8.970007783846576"><ele>344.5</ele><time>2026-03-29T10:09:13.999Z</time></trkpt><trkpt lat="45.85911195873015" lon="8.970109081010442"><ele>344.0</ele><time>2026-03-29T10:09:14.999Z</time></trkpt><trkpt lat="45.85924755502244" lon="8.970199752805781"><ele>343.5</ele><time>2026-03-29T10:09:15.999Z</time></trkpt><trkpt lat="45.85937125083804" lon="8.97028703892616"><ele>343.0</ele><time>2026-03-29T10:09:16.999Z</time></trkpt><trkpt lat="45.85948394463057" lon="8.970370967867005"><ele>342.25</ele><time>2026-03-29T10:09:17.999Z</time></trkpt><trkpt lat="45.85961607862913" lon="8.970381040250565"><ele>341.5</ele><time>2026-03-29T10:09:18.999Z</time></trkpt><trkpt lat="45.85971759928665" lon="8.970536621051643"><ele>340.75</ele><time>2026-03-29T10:09:19.999Z</time></trkpt><trkpt lat="45.859850162357" lon="8.970654841956604"><ele>340.0</ele><time>2026-03-29T10:09:20.999Z</time></trkpt><trkpt lat="45.85998369066011" lon="8.970785637235162"><ele>339.66666666666663</ele><time>2026-03-29T10:09:21.999Z</time></trkpt><trkpt lat="45.86011295974728" lon="8.970912384308583"><ele>339.3333333333333</ele><time>2026-03-29T10:09:22.999Z</time></trkpt><trkpt lat="45.86024382905006" lon="8.971033572267212"><ele>339.0</ele><time>2026-03-29T10:09:23.999Z</time></trkpt><trkpt lat="45.86037537893424" lon="8.971148797549839"><ele>339.0</ele><time>2026-03-29T10:09:24.999Z</time></trkpt><trkpt lat="45.86050492449977" lon="8.97126324106502"><ele>339.0</ele><time>2026-03-29T10:09:25.999Z</time></trkpt><trkpt lat="45.86062405700092" lon="8.971411940207426"><ele>339.0</ele><time>2026-03-29T10:09:26.999Z</time></trkpt><trkpt lat="45.860748764795034" lon="8.971544291148321"><ele>339.0</ele><time>2026-03-29T10:09:27.999Z</time></trkpt><trkpt lat="45.86086860786229" lon="8.971671301156244"><ele>339.0</ele><time>2026-03-29T10:09:28.999Z</time></trkpt><trkpt lat="45.86098464620236" lon="8.971795501874439"><ele>339.0</ele><time>2026-03-29T10:09:29.999Z</time></trkpt><trkpt lat="45.86110280902395" lon="8.97190102915457"><ele>339.0</ele><time>2026-03-29T10:09:30.999Z</time></trkpt><trkpt lat="45.86120516740386" lon="8.972046722591173"><ele>339.75</ele><time>2026-03-29T10:09:31.999Z</time></trkpt><trkpt lat="45.86131877639773" lon="8.972157871016567"><ele>340.5</ele><time>2026-03-29T10:09:32.999Z</time></trkpt><trkpt lat="45.861410906740716" lon="8.972302320710206"><ele>341.25</ele><time>2026-03-29T10:09:33.999Z</time></trkpt><trkpt lat="45.86151460999228" lon="8.972435738318389"><ele>342.0</ele><time>2026-03-29T10:09:34.999Z</time></trkpt><trkpt lat="45.86161245127972" lon="8.972567855748352"><ele>342.5</ele><time>2026-03-29T10:09:35.999Z</time></trkpt><trkpt lat="45.86171892036268" lon="8.972696476141275"><ele>343.0</ele><time>2026-03-29T10:09:36.999Z</time></trkpt><trkpt lat="45.861822685059664" lon="8.972817448480631"><ele>343.5</ele><time>2026-03-29T10:09:37.999Z</time></trkpt><trkpt lat="45.86192952100695" lon="8.972942875920207"><ele>344.0</ele><time>2026-03-29T10:09:38.999Z</time></trkpt><trkpt lat="45.86202206734608" lon="8.973075645212436"><ele>344.0</ele><time>2026-03-29T10:09:39.999Z</time></trkpt><trkpt lat="45.86210834073605" lon="8.973234995000542"><ele>344.0</ele><time>2026-03-29T10:09:40.999Z</time></trkpt><trkpt lat="45.862209274352416" lon="8.97337350757356"><ele>344.0</ele><time>2026-03-29T10:09:41.999Z</time></trkpt><trkpt lat="45.86229275368542" lon="8.973530924998519"><ele>344.0</ele><time>2026-03-29T10:09:42.999Z</time></trkpt><trkpt lat="45.86236931741126" lon="8.973699639078887"><ele>343.75</ele><time>2026-03-29T10:09:43.999Z</time></trkpt><trkpt lat="45.86244452811257" lon="8.97387357609171"><ele>343.5</ele><time>2026-03-29T10:09:44.999Z</time></trkpt><trkpt lat="45.862503540502125" lon="8.974061213386765"><ele>343.25</ele><time>2026-03-29T10:09:45.999Z</time></trkpt><trkpt lat="45.862557719575264" lon="8.974254135298905"><ele>343.0</ele><time>2026-03-29T10:09:46.999Z</time></trkpt><trkpt lat="45.86260837220277" lon="8.974434725525686"><ele>343.0</ele><time>2026-03-29T10:09:47.999Z</time></trkpt><trkpt lat="45.862650118876445" lon="8.9745940649031"><ele>343.0</ele><time>2026-03-29T10:09:48.999Z</time></trkpt><trkpt lat="45.862677483834425" lon="8.974718077113055"><ele>343.0</ele><time>2026-03-29T10:09:49.999Z</time></trkpt><trkpt lat="45.86269655739616" lon="8.974817318691565"><ele>343.0</ele><time>2026-03-29T10:09:51Z</time></trkpt><trkpt lat="45.86269882580069" lon="8.974920511326822"><ele>343.0</ele><time>2026-03-29T10:09:52Z</time></trkpt><trkpt lat="45.86267149491484" lon="8.975029971068883"><ele>343.0</ele><time>2026-03-29T10:09:53Z</time></trkpt><trkpt lat="45.862720894393235" lon="8.975148326074546"><ele>343.0</ele><time>2026-03-29T10:09:55Z</time></trkpt><trkpt lat="45.86283458882642" lon="8.975136246487393"><ele>343.0</ele><time>2026-03-29T10:09:57Z</time></trkpt><trkpt lat="45.86288578734479" lon="8.975058011281092"><ele>343.0</ele><time>2026-03-29T10:09:58Z</time></trkpt><trkpt lat="45.86294110594323" lon="8.974973319187763"><ele>343.0</ele><time>2026-03-29T10:09:59Z</time></trkpt><trkpt lat="45.863028834633404" lon="8.974920725014567"><ele>343.0</ele><time>2026-03-29T10:10:00Z</time></trkpt><trkpt lat="45.86315104931683" lon="8.974877311428706"><ele>342.25</ele><time>2026-03-29T10:10:01Z</time></trkpt><trkpt lat="45.863258505823026" lon="8.974841136719713"><ele>341.5</ele><time>2026-03-29T10:10:02Z</time></trkpt><trkpt lat="45.8633651760967" lon="8.9748410176483"><ele>340.75</ele><time>2026-03-29T10:10:03Z</time></trkpt><trkpt lat="45.86347625815344" lon="8.974866653059973"><ele>340.0</ele><time>2026-03-29T10:10:04Z</time></trkpt><trkpt lat="45.863578668879214" lon="8.974962159774343"><ele>339.5</ele><time>2026-03-29T10:10:05Z</time></trkpt><trkpt lat="45.86369490435047" lon="8.975051811524084"><ele>339.0</ele><time>2026-03-29T10:10:06Z</time></trkpt><trkpt lat="45.86381888475139" lon="8.975131293730048"><ele>338.5</ele><time>2026-03-29T10:10:07Z</time></trkpt><trkpt lat="45.86394406614726" lon="8.975235512224545"><ele>338.0</ele><time>2026-03-29T10:10:08Z</time></trkpt><trkpt lat="45.86406896109253" lon="8.975334043232808"><ele>338.0</ele><time>2026-03-29T10:10:09Z</time></trkpt><trkpt lat="45.86419317936869" lon="8.975439725459548"><ele>338.0</ele><time>2026-03-29T10:10:10Z</time></trkpt><trkpt lat="45.86430835292613" lon="8.975555725745862"><ele>338.0</ele><time>2026-03-29T10:10:11Z</time></trkpt><trkpt lat="45.86439774567675" lon="8.975695138500512"><ele>338.0</ele><time>2026-03-29T10:10:12Z</time></trkpt><trkpt lat="45.864490032877725" lon="8.97583930098869"><ele>337.0</ele><time>2026-03-29T10:10:13Z</time></trkpt><trkpt lat="45.86458804078452" lon="8.975983421907639"><ele>336.0</ele><time>2026-03-29T10:10:14Z</time></trkpt><trkpt lat="45.86468798991097" lon="8.976127774111795"><ele>335.0</ele><time>2026-03-29T10:10:15Z</time></trkpt><trkpt lat="45.86477796054308" lon="8.976261789886694"><ele>334.0</ele><time>2026-03-29T10:10:16Z</time></trkpt><trkpt lat="45.86485741340268" lon="8.976403042670327"><ele>334.0</ele><time>2026-03-29T10:10:17Z</time></trkpt><trkpt lat="45.86494432776004" lon="8.976540055147154"><ele>334.0</ele><time>2026-03-29T10:10:18Z</time></trkpt><trkpt lat="45.86502419692376" lon="8.976673547397215"><ele>334.0</ele><time>2026-03-29T10:10:19Z</time></trkpt><trkpt lat="45.8651150196526" lon="8.976802796591334"><ele>334.0</ele><time>2026-03-29T10:10:20Z</time></trkpt><trkpt lat="45.865208140130704" lon="8.976909288861231"><ele>333.66666666666663</ele><time>2026-03-29T10:10:21Z</time></trkpt><trkpt lat="45.86530249412626" lon="8.976985315906294"><ele>333.3333333333333</ele><time>2026-03-29T10:10:22Z</time></trkpt><trkpt lat="45.86537635958021" lon="8.977025655019974"><ele>333.0</ele><time>2026-03-29T10:10:23Z</time></trkpt><trkpt lat="45.86544675845205" lon="8.97706736576367"><ele>332.6666666666667</ele><time>2026-03-29T10:10:24Z</time></trkpt><trkpt lat="45.86551218684846" lon="8.977136737286186"><ele>332.33333333333337</ele><time>2026-03-29T10:10:25Z</time></trkpt><trkpt lat="45.86558039928179" lon="8.97721386406986"><ele>332.0</ele><time>2026-03-29T10:10:26Z</time></trkpt><trkpt lat="45.86565794551097" lon="8.977223540338988"><ele>332.0</ele><time>2026-03-29T10:10:27Z</time></trkpt><trkpt lat="45.86575977472183" lon="8.977193111804729"><ele>332.0</ele><time>2026-03-29T10:10:28Z</time></trkpt><trkpt lat="45.86587684989065" lon="8.977129354111197"><ele>332.0</ele><time>2026-03-29T10:10:29Z</time></trkpt><trkpt lat="45.86597084560047" lon="8.977074335927664"><ele>332.0</ele><time>2026-03-29T10:10:30Z</time></trkpt><trkpt lat="45.86605320914103" lon="8.977040193255243"><ele>332.0</ele><time>2026-03-29T10:10:31Z</time></trkpt><trkpt lat="45.86612911650065" lon="8.977018206190873"><ele>333.0</ele><time>2026-03-29T10:10:32Z</time></trkpt><trkpt lat="45.866192578104055" lon="8.977029992291774"><ele>333.0</ele><time>2026-03-29T10:10:34Z</time></trkpt><trkpt lat="45.86620469147884" lon="8.977167624910637"><ele>333.0</ele><time>2026-03-29T10:10:37Z</time></trkpt><trkpt lat="45.866185521286425" lon="8.977280858768697"><ele>333.0</ele><time>2026-03-29T10:10:54.999Z</time></trkpt></trkseg></trk></gpx>